﻿<?xml version="1.0" encoding="utf-8"?><gpx creator="Garmin Desktop App" version="1.1" xsi:schemaLocation="http://www.topografix.com/GPX/1/1 http://www.topografix.com/GPX/1/1/gpx.xsd http://www.garmin.com/xmlschemas/WaypointExtension/v1 http://www8.garmin.com/xmlschemas/WaypointExtensionv1.xsd http://www.garmin.com/xmlschemas/TrackPointExtension/v1 http://www.garmin.com/xmlschemas/TrackPointExtensionv1.xsd http://www.garmin.com/xmlschemas/GpxExtensions/v3 http://www8.garmin.com/xmlschemas/GpxExtensionsv3.xsd http://www.garmin.com/xmlschemas/ActivityExtension/v1 http://www8.garmin.com/xmlschemas/ActivityExtensionv1.xsd http://www.garmin.com/xmlschemas/AdventuresExtensions/v1 http://www8.garmin.com/xmlschemas/AdventuresExtensionv1.xsd http://www.garmin.com/xmlschemas/PressureExtension/v1 http://www.garmin.com/xmlschemas/PressureExtensionv1.xsd http://www.garmin.com/xmlschemas/TripExtensions/v1 http://www.garmin.com/xmlschemas/TripExtensionsv1.xsd http://www.garmin.com/xmlschemas/TripMetaDataExtensions/v1 http://www.garmin.com/xmlschemas/TripMetaDataExtensionsv1.xsd http://www.garmin.com/xmlschemas/ViaPointTransportationModeExtensions/v1 http://www.garmin.com/xmlschemas/ViaPointTransportationModeExtensionsv1.xsd http://www.garmin.com/xmlschemas/CreationTimeExtension/v1 http://www.garmin.com/xmlschemas/CreationTimeExtensionsv1.xsd http://www.garmin.com/xmlschemas/AccelerationExtension/v1 http://www.garmin.com/xmlschemas/AccelerationExtensionv1.xsd http://www.garmin.com/xmlschemas/PowerExtension/v1 http://www.garmin.com/xmlschemas/PowerExtensionv1.xsd http://www.garmin.com/xmlschemas/VideoExtension/v1 http://www.garmin.com/xmlschemas/VideoExtensionv1.xsd" xmlns="http://www.topografix.com/GPX/1/1" xmlns:xsi="http://www.w3.org/2001/XMLSchema-instance" xmlns:wptx1="http://www.garmin.com/xmlschemas/WaypointExtension/v1" xmlns:gpxtrx="http://www.garmin.com/xmlschemas/GpxExtensions/v3" xmlns:gpxtpx="http://www.garmin.com/xmlschemas/TrackPointExtension/v1" xmlns:gpxx="http://www.garmin.com/xmlschemas/GpxExtensions/v3" xmlns:trp="http://www.garmin.com/xmlschemas/TripExtensions/v1" xmlns:adv="http://www.garmin.com/xmlschemas/AdventuresExtensions/v1" xmlns:prs="http://www.garmin.com/xmlschemas/PressureExtension/v1" xmlns:tmd="http://www.garmin.com/xmlschemas/TripMetaDataExtensions/v1" xmlns:vptm="http://www.garmin.com/xmlschemas/ViaPointTransportationModeExtensions/v1" xmlns:ctx="http://www.garmin.com/xmlschemas/CreationTimeExtension/v1" xmlns:gpxacc="http://www.garmin.com/xmlschemas/AccelerationExtension/v1" xmlns:gpxpx="http://www.garmin.com/xmlschemas/PowerExtension/v1" xmlns:vidx1="http://www.garmin.com/xmlschemas/VideoExtension/v1">

  <metadata>
    <link href="http://www.garmin.com">
      <text>Garmin International</text>
    </link>
    <time>2021-01-25T19:24:45Z</time>
    <bounds maxlat="46.391746457666159" maxlon="8.419410344213247" minlat="46.377013586461544" minlon="8.36434350349009" />
  </metadata>

  <trk>
    <name>rifugi-myriam-margaroli15</name>
    <extensions>
      <gpxx:TrackExtension>
        <gpxx:DisplayColor>Yellow</gpxx:DisplayColor>
      </gpxx:TrackExtension>
    </extensions>
    <trkseg>
      <trkpt lat="46.391686610877514" lon="8.41937237419188">
        <ele>1423.8499999999999</ele>
        <time>2016-12-04T09:16:07Z</time>
      </trkpt>
      <trkpt lat="46.391691891476512" lon="8.419376146048307">
        <ele>1423.8499999999999</ele>
        <time>2016-12-04T09:16:08Z</time>
      </trkpt>
      <trkpt lat="46.39169717207551" lon="8.419376229867339">
        <ele>1420</ele>
        <time>2016-12-04T09:16:14Z</time>
      </trkpt>
      <trkpt lat="46.391746457666159" lon="8.419376062229276">
        <ele>1419.04</ele>
        <time>2016-12-04T09:16:29Z</time>
      </trkpt>
      <trkpt lat="46.391741260886192" lon="8.419321831315756">
        <ele>1419.52</ele>
        <time>2016-12-04T09:16:50Z</time>
      </trkpt>
      <trkpt lat="46.391715696081519" lon="8.419339768588543">
        <ele>1419.04</ele>
        <time>2016-12-04T09:17:11Z</time>
      </trkpt>
      <trkpt lat="46.391694992780685" lon="8.419410344213247">
        <ele>1419.04</ele>
        <time>2016-12-04T09:17:41Z</time>
      </trkpt>
      <trkpt lat="46.391685269773006" lon="8.419326022267342">
        <ele>1419.04</ele>
        <time>2016-12-04T09:18:08Z</time>
      </trkpt>
      <trkpt lat="46.39170253649354" lon="8.419374553486705">
        <ele>1419.52</ele>
        <time>2016-12-04T09:18:29Z</time>
      </trkpt>
      <trkpt lat="46.391678983345628" lon="8.419326273724437">
        <ele>1419.52</ele>
        <time>2016-12-04T09:18:52Z</time>
      </trkpt>
      <trkpt lat="46.391694573685527" lon="8.41933960095048">
        <ele>1419.52</ele>
        <time>2016-12-04T09:19:06Z</time>
      </trkpt>
      <trkpt lat="46.39167764224112" lon="8.419354520738125">
        <ele>1420</ele>
        <time>2016-12-04T09:19:13Z</time>
      </trkpt>
      <trkpt lat="46.391683761030436" lon="8.419376565143466">
        <ele>1419.52</ele>
        <time>2016-12-04T09:19:29Z</time>
      </trkpt>
      <trkpt lat="46.391679150983691" lon="8.419326692819595">
        <ele>1419.04</ele>
        <time>2016-12-04T09:19:51Z</time>
      </trkpt>
      <trkpt lat="46.39170647598803" lon="8.419327447190881">
        <ele>1418.5599999999999</ele>
        <time>2016-12-04T09:20:04Z</time>
      </trkpt>
      <trkpt lat="46.391702201217413" lon="8.419325016438961">
        <ele>1419.52</ele>
        <time>2016-12-04T09:20:09Z</time>
      </trkpt>
      <trkpt lat="46.391697926446795" lon="8.419367680326104">
        <ele>1420</ele>
        <time>2016-12-04T09:20:17Z</time>
      </trkpt>
      <trkpt lat="46.391677893698215" lon="8.419362232089043">
        <ele>1420</ele>
        <time>2016-12-04T09:20:31Z</time>
      </trkpt>
      <trkpt lat="46.391702368855476" lon="8.419322585687041">
        <ele>1420</ele>
        <time>2016-12-04T09:20:43Z</time>
      </trkpt>
      <trkpt lat="46.391698261722922" lon="8.419341277331114">
        <ele>1420</ele>
        <time>2016-12-04T09:20:49Z</time>
      </trkpt>
      <trkpt lat="46.391679150983691" lon="8.419238934293389">
        <ele>1419.52</ele>
        <time>2016-12-04T09:20:55Z</time>
      </trkpt>
      <trkpt lat="46.391629865393043" lon="8.419191744178534">
        <ele>1419.52</ele>
        <time>2016-12-04T09:21:01Z</time>
      </trkpt>
      <trkpt lat="46.391457114368677" lon="8.419277407228947">
        <ele>1420.49</ele>
        <time>2016-12-04T09:21:16Z</time>
      </trkpt>
      <trkpt lat="46.391425263136625" lon="8.419285789132118">
        <ele>1420.49</ele>
        <time>2016-12-04T09:21:18Z</time>
      </trkpt>
      <trkpt lat="46.391388969495893" lon="8.419282352551818">
        <ele>1420.49</ele>
        <time>2016-12-04T09:21:23Z</time>
      </trkpt>
      <trkpt lat="46.391248237341642" lon="8.419330213218927">
        <ele>1420.97</ele>
        <time>2016-12-04T09:21:36Z</time>
      </trkpt>
      <trkpt lat="46.391203394159675" lon="8.419345300644636">
        <ele>1421.45</ele>
        <time>2016-12-04T09:21:40Z</time>
      </trkpt>
      <trkpt lat="46.391145056113601" lon="8.41931420378387">
        <ele>1422.4100000000001</ele>
        <time>2016-12-04T09:21:52Z</time>
      </trkpt>
      <trkpt lat="46.391134578734636" lon="8.419298948720098">
        <ele>1422.4100000000001</ele>
        <time>2016-12-04T09:22:02Z</time>
      </trkpt>
      <trkpt lat="46.391082275658846" lon="8.419218063354492">
        <ele>1422.8900000000001</ele>
        <time>2016-12-04T09:22:22Z</time>
      </trkpt>
      <trkpt lat="46.391008095815778" lon="8.419116139411926">
        <ele>1425.77</ele>
        <time>2016-12-04T09:22:35Z</time>
      </trkpt>
      <trkpt lat="46.390947662293911" lon="8.419070290401578">
        <ele>1426.73</ele>
        <time>2016-12-04T09:22:42Z</time>
      </trkpt>
      <trkpt lat="46.390911284834146" lon="8.419016813859344">
        <ele>1428.1800000000001</ele>
        <time>2016-12-04T09:22:50Z</time>
      </trkpt>
      <trkpt lat="46.390878427773714" lon="8.418997284024954">
        <ele>1429.1400000000001</ele>
        <time>2016-12-04T09:22:54Z</time>
      </trkpt>
      <trkpt lat="46.390829728916287" lon="8.418920338153839">
        <ele>1430.5799999999999</ele>
        <time>2016-12-04T09:23:06Z</time>
      </trkpt>
      <trkpt lat="46.390825286507607" lon="8.418907262384892">
        <ele>1430.5799999999999</ele>
        <time>2016-12-04T09:23:07Z</time>
      </trkpt>
      <trkpt lat="46.390817994251847" lon="8.41888521797955">
        <ele>1431.0599999999999</ele>
        <time>2016-12-04T09:23:09Z</time>
      </trkpt>
      <trkpt lat="46.390769965946674" lon="8.41876401565969">
        <ele>1432.5</ele>
        <time>2016-12-04T09:23:20Z</time>
      </trkpt>
      <trkpt lat="46.390730403363705" lon="8.418639963492751">
        <ele>1434.4200000000001</ele>
        <time>2016-12-04T09:23:31Z</time>
      </trkpt>
      <trkpt lat="46.39068765565753" lon="8.418607776984572">
        <ele>1434.4200000000001</ele>
        <time>2016-12-04T09:23:44Z</time>
      </trkpt>
      <trkpt lat="46.390651278197765" lon="8.418492022901774">
        <ele>1435.8699999999999</ele>
        <time>2016-12-04T09:23:52Z</time>
      </trkpt>
      <trkpt lat="46.390623031184077" lon="8.418414993211627">
        <ele>1436.8299999999999</ele>
        <time>2016-12-04T09:24:01Z</time>
      </trkpt>
      <trkpt lat="46.390608865767717" lon="8.418369395658374">
        <ele>1437.79</ele>
        <time>2016-12-04T09:24:06Z</time>
      </trkpt>
      <trkpt lat="46.390598472207785" lon="8.418335784226656">
        <ele>1437.79</ele>
        <time>2016-12-04T09:24:09Z</time>
      </trkpt>
      <trkpt lat="46.390582378953695" lon="8.418266214430332">
        <ele>1438.75</ele>
        <time>2016-12-04T09:24:14Z</time>
      </trkpt>
      <trkpt lat="46.390530159696937" lon="8.418164374306798">
        <ele>1440.1900000000001</ele>
        <time>2016-12-04T09:24:24Z</time>
      </trkpt>
      <trkpt lat="46.390474252402782" lon="8.418099079281092">
        <ele>1441.1500000000001</ele>
        <time>2016-12-04T09:24:31Z</time>
      </trkpt>
      <trkpt lat="46.390452794730663" lon="8.418022636324167">
        <ele>1442.1099999999999</ele>
        <time>2016-12-04T09:24:38Z</time>
      </trkpt>
      <trkpt lat="46.390391858294606" lon="8.417933620512486">
        <ele>1443.5599999999999</ele>
        <time>2016-12-04T09:24:48Z</time>
      </trkpt>
      <trkpt lat="46.390381967648864" lon="8.417915347963572">
        <ele>1443.5599999999999</ele>
        <time>2016-12-04T09:24:50Z</time>
      </trkpt>
      <trkpt lat="46.390351876616478" lon="8.417886262759566">
        <ele>1444.04</ele>
        <time>2016-12-04T09:24:54Z</time>
      </trkpt>
      <trkpt lat="46.390313822776079" lon="8.417772520333529">
        <ele>1445.96</ele>
        <time>2016-12-04T09:25:04Z</time>
      </trkpt>
      <trkpt lat="46.390270739793777" lon="8.417654922232032">
        <ele>1447.4000000000001</ele>
        <time>2016-12-04T09:25:14Z</time>
      </trkpt>
      <trkpt lat="46.390244588255882" lon="8.417559787631035">
        <ele>1448.3599999999999</ele>
        <time>2016-12-04T09:25:22Z</time>
      </trkpt>
      <trkpt lat="46.390244588255882" lon="8.417538749054074">
        <ele>1448.8399999999999</ele>
        <time>2016-12-04T09:25:25Z</time>
      </trkpt>
      <trkpt lat="46.390231680124998" lon="8.417426431551576">
        <ele>1450.29</ele>
        <time>2016-12-04T09:25:35Z</time>
      </trkpt>
      <trkpt lat="46.390228914096951" lon="8.417351916432381">
        <ele>1452.21</ele>
        <time>2016-12-04T09:25:44Z</time>
      </trkpt>
      <trkpt lat="46.390222460031509" lon="8.417264660820365">
        <ele>1453.1700000000001</ele>
        <time>2016-12-04T09:25:52Z</time>
      </trkpt>
      <trkpt lat="46.39022053219378" lon="8.417162150144577">
        <ele>1454.6099999999999</ele>
        <time>2016-12-04T09:26:02Z</time>
      </trkpt>
      <trkpt lat="46.390207707881927" lon="8.417071709409356">
        <ele>1455.5699999999999</ele>
        <time>2016-12-04T09:26:11Z</time>
      </trkpt>
      <trkpt lat="46.390180801972747" lon="8.41698051430285">
        <ele>1457.02</ele>
        <time>2016-12-04T09:26:21Z</time>
      </trkpt>
      <trkpt lat="46.390170324593782" lon="8.416949165984988">
        <ele>1457.5</ele>
        <time>2016-12-04T09:26:25Z</time>
      </trkpt>
      <trkpt lat="46.39011693187058" lon="8.416876159608364">
        <ele>1458.9400000000001</ele>
        <time>2016-12-04T09:26:35Z</time>
      </trkpt>
      <trkpt lat="46.390085918828845" lon="8.416781025007367">
        <ele>1460.3800000000001</ele>
        <time>2016-12-04T09:26:46Z</time>
      </trkpt>
      <trkpt lat="46.390011487528682" lon="8.41670785099268">
        <ele>1461.3399999999999</ele>
        <time>2016-12-04T09:26:56Z</time>
      </trkpt>
      <trkpt lat="46.389914425089955" lon="8.416635431349278">
        <ele>1462.78</ele>
        <time>2016-12-04T09:27:06Z</time>
      </trkpt>
      <trkpt lat="46.389829348772764" lon="8.4165876545012">
        <ele>1464.23</ele>
        <time>2016-12-04T09:27:16Z</time>
      </trkpt>
      <trkpt lat="46.389809483662248" lon="8.416588241234422">
        <ele>1464.71</ele>
        <time>2016-12-04T09:27:19Z</time>
      </trkpt>
      <trkpt lat="46.389723317697644" lon="8.416614979505539">
        <ele>1466.1500000000001</ele>
        <time>2016-12-04T09:27:30Z</time>
      </trkpt>
      <trkpt lat="46.389648383483291" lon="8.416560832411051">
        <ele>1467.5899999999999</ele>
        <time>2016-12-04T09:27:41Z</time>
      </trkpt>
      <trkpt lat="46.389662213623524" lon="8.416434684768319">
        <ele>1469.51</ele>
        <time>2016-12-04T09:27:52Z</time>
      </trkpt>
      <trkpt lat="46.389648132026196" lon="8.416392272338271">
        <ele>1470.47</ele>
        <time>2016-12-04T09:27:56Z</time>
      </trkpt>
      <trkpt lat="46.389635307714343" lon="8.416294539347291">
        <ele>1471.9200000000001</ele>
        <time>2016-12-04T09:28:07Z</time>
      </trkpt>
      <trkpt lat="46.389609156176448" lon="8.416216336190701">
        <ele>1473.8399999999999</ele>
        <time>2016-12-04T09:28:18Z</time>
      </trkpt>
      <trkpt lat="46.389600774273276" lon="8.416209882125258">
        <ele>1473.8399999999999</ele>
        <time>2016-12-04T09:28:19Z</time>
      </trkpt>
      <trkpt lat="46.389543358236551" lon="8.416171325370669">
        <ele>1475.76</ele>
        <time>2016-12-04T09:28:30Z</time>
      </trkpt>
      <trkpt lat="46.389460880309343" lon="8.416220862418413">
        <ele>1477.6800000000001</ele>
        <time>2016-12-04T09:28:41Z</time>
      </trkpt>
      <trkpt lat="46.389396423473954" lon="8.416161518543959">
        <ele>1478.6500000000001</ele>
        <time>2016-12-04T09:28:50Z</time>
      </trkpt>
      <trkpt lat="46.389352669939399" lon="8.416067473590374">
        <ele>1480.5699999999999</ele>
        <time>2016-12-04T09:29:01Z</time>
      </trkpt>
      <trkpt lat="46.389299444854259" lon="8.416050458326936">
        <ele>1482.01</ele>
        <time>2016-12-04T09:29:11Z</time>
      </trkpt>
      <trkpt lat="46.389227863401175" lon="8.416029084473848">
        <ele>1483.9300000000001</ele>
        <time>2016-12-04T09:29:22Z</time>
      </trkpt>
      <trkpt lat="46.389158880338073" lon="8.416055655106902">
        <ele>1485.8499999999999</ele>
        <time>2016-12-04T09:29:32Z</time>
      </trkpt>
      <trkpt lat="46.389081180095673" lon="8.416101420298219">
        <ele>1487.3</ele>
        <time>2016-12-04T09:29:43Z</time>
      </trkpt>
      <trkpt lat="46.38901605270803" lon="8.416133355349302">
        <ele>1488.26</ele>
        <time>2016-12-04T09:29:53Z</time>
      </trkpt>
      <trkpt lat="46.388939609751105" lon="8.416182557120919">
        <ele>1490.1800000000001</ele>
        <time>2016-12-04T09:30:03Z</time>
      </trkpt>
      <trkpt lat="46.38885285705328" lon="8.416186161339283">
        <ele>1491.6199999999999</ele>
        <time>2016-12-04T09:30:14Z</time>
      </trkpt>
      <trkpt lat="46.388782700523734" lon="8.416197309270501">
        <ele>1493.0599999999999</ele>
        <time>2016-12-04T09:30:24Z</time>
      </trkpt>
      <trkpt lat="46.388748083263636" lon="8.416228489950299">
        <ele>1493.55</ele>
        <time>2016-12-04T09:30:31Z</time>
      </trkpt>
      <trkpt lat="46.388729643076658" lon="8.416112065315247">
        <ele>1494.03</ele>
        <time>2016-12-04T09:30:41Z</time>
      </trkpt>
      <trkpt lat="46.388795860111713" lon="8.416028581559658">
        <ele>1495.47</ele>
        <time>2016-12-04T09:30:52Z</time>
      </trkpt>
      <trkpt lat="46.388859143480659" lon="8.415924310684204">
        <ele>1496.9100000000001</ele>
        <time>2016-12-04T09:31:04Z</time>
      </trkpt>
      <trkpt lat="46.38886945322156" lon="8.415811574086547">
        <ele>1497.8699999999999</ele>
        <time>2016-12-04T09:31:14Z</time>
      </trkpt>
      <trkpt lat="46.388869704678655" lon="8.415796151384711">
        <ele>1498.3499999999999</ele>
        <time>2016-12-04T09:31:15Z</time>
      </trkpt>
      <trkpt lat="46.388904405757785" lon="8.415685510262847">
        <ele>1499.3099999999999</ele>
        <time>2016-12-04T09:31:25Z</time>
      </trkpt>
      <trkpt lat="46.388914966955781" lon="8.415604792535305">
        <ele>1499.3099999999999</ele>
        <time>2016-12-04T09:31:35Z</time>
      </trkpt>
      <trkpt lat="46.388916140422225" lon="8.415560619905591">
        <ele>1501.72</ele>
        <time>2016-12-04T09:31:39Z</time>
      </trkpt>
      <trkpt lat="46.388867776840925" lon="8.41551217250526">
        <ele>1502.6800000000001</ele>
        <time>2016-12-04T09:31:50Z</time>
      </trkpt>
      <trkpt lat="46.388812707737088" lon="8.415573863312602">
        <ele>1503.6400000000001</ele>
        <time>2016-12-04T09:32:01Z</time>
      </trkpt>
      <trkpt lat="46.388773983344436" lon="8.415623148903251">
        <ele>1505.5599999999999</ele>
        <time>2016-12-04T09:32:08Z</time>
      </trkpt>
      <trkpt lat="46.38870039023459" lon="8.415699675679207">
        <ele>1506.52</ele>
        <time>2016-12-04T09:32:17Z</time>
      </trkpt>
      <trkpt lat="46.38859779573977" lon="8.415756924077869">
        <ele>1507.97</ele>
        <time>2016-12-04T09:32:28Z</time>
      </trkpt>
      <trkpt lat="46.388531746342778" lon="8.415797241032124">
        <ele>1509.8900000000001</ele>
        <time>2016-12-04T09:32:38Z</time>
      </trkpt>
      <trkpt lat="46.388470055535436" lon="8.415843592956662">
        <ele>1511.3299999999999</ele>
        <time>2016-12-04T09:32:48Z</time>
      </trkpt>
      <trkpt lat="46.388413477689028" lon="8.415902350097895">
        <ele>1512.29</ele>
        <time>2016-12-04T09:32:59Z</time>
      </trkpt>
      <trkpt lat="46.388358911499381" lon="8.415944678708911">
        <ele>1513.73</ele>
        <time>2016-12-04T09:33:09Z</time>
      </trkpt>
      <trkpt lat="46.388282384723425" lon="8.415975356474519">
        <ele>1515.6600000000001</ele>
        <time>2016-12-04T09:33:21Z</time>
      </trkpt>
      <trkpt lat="46.388202756643295" lon="8.416006285697222">
        <ele>1517.5799999999999</ele>
        <time>2016-12-04T09:33:32Z</time>
      </trkpt>
      <trkpt lat="46.388125894591212" lon="8.416041154414415">
        <ele>1519.5</ele>
        <time>2016-12-04T09:33:43Z</time>
      </trkpt>
      <trkpt lat="46.388074429705739" lon="8.416061606258154">
        <ele>1520.46</ele>
        <time>2016-12-04T09:33:51Z</time>
      </trkpt>
      <trkpt lat="46.387989185750484" lon="8.416122375056148">
        <ele>1521.9000000000001</ele>
        <time>2016-12-04T09:34:02Z</time>
      </trkpt>
      <trkpt lat="46.38789321295917" lon="8.416166296228766">
        <ele>1523.3499999999999</ele>
        <time>2016-12-04T09:34:13Z</time>
      </trkpt>
      <trkpt lat="46.38786437921226" lon="8.416165793314576">
        <ele>1523.3499999999999</ele>
        <time>2016-12-04T09:34:16Z</time>
      </trkpt>
      <trkpt lat="46.387773770838976" lon="8.416198650375009">
        <ele>1524.3099999999999</ele>
        <time>2016-12-04T09:34:26Z</time>
      </trkpt>
      <trkpt lat="46.387679977342486" lon="8.416212983429432">
        <ele>1525.27</ele>
        <time>2016-12-04T09:34:36Z</time>
      </trkpt>
      <trkpt lat="46.387591045349836" lon="8.416222538799048">
        <ele>1526.23</ele>
        <time>2016-12-04T09:34:46Z</time>
      </trkpt>
      <trkpt lat="46.387516362592578" lon="8.416217509657145">
        <ele>1527.6700000000001</ele>
        <time>2016-12-04T09:34:56Z</time>
      </trkpt>
      <trkpt lat="46.387417037039995" lon="8.416220275685191">
        <ele>1529.1099999999999</ele>
        <time>2016-12-04T09:35:08Z</time>
      </trkpt>
      <trkpt lat="46.387367248535156" lon="8.416198818013072">
        <ele>1529.5899999999999</ele>
        <time>2016-12-04T09:35:14Z</time>
      </trkpt>
      <trkpt lat="46.38726725243032" lon="8.4161610994488">
        <ele>1531.52</ele>
        <time>2016-12-04T09:35:26Z</time>
      </trkpt>
      <trkpt lat="46.387198520824313" lon="8.416164368391037">
        <ele>1532.48</ele>
        <time>2016-12-04T09:35:35Z</time>
      </trkpt>
      <trkpt lat="46.387126855552197" lon="8.416168559342623">
        <ele>1534.4000000000001</ele>
        <time>2016-12-04T09:35:45Z</time>
      </trkpt>
      <trkpt lat="46.387043371796608" lon="8.416156070306897">
        <ele>1535.8399999999999</ele>
        <time>2016-12-04T09:35:55Z</time>
      </trkpt>
      <trkpt lat="46.386955445632339" lon="8.416122877970338">
        <ele>1537.29</ele>
        <time>2016-12-04T09:36:05Z</time>
      </trkpt>
      <trkpt lat="46.386856622993946" lon="8.416093792766333">
        <ele>1537.77</ele>
        <time>2016-12-04T09:36:16Z</time>
      </trkpt>
      <trkpt lat="46.386779509484768" lon="8.416072418913245">
        <ele>1538.25</ele>
        <time>2016-12-04T09:36:27Z</time>
      </trkpt>
      <trkpt lat="46.386724272742867" lon="8.416046435013413">
        <ele>1538.73</ele>
        <time>2016-12-04T09:36:38Z</time>
      </trkpt>
      <trkpt lat="46.386654451489449" lon="8.415996562689543">
        <ele>1540.6500000000001</ele>
        <time>2016-12-04T09:36:49Z</time>
      </trkpt>
      <trkpt lat="46.386566525325179" lon="8.41596026904881">
        <ele>1542.5699999999999</ele>
        <time>2016-12-04T09:37:01Z</time>
      </trkpt>
      <trkpt lat="46.386475581675768" lon="8.415957083925605">
        <ele>1544.5</ele>
        <time>2016-12-04T09:37:12Z</time>
      </trkpt>
      <trkpt lat="46.386386062949896" lon="8.415876030921936">
        <ele>1544.98</ele>
        <time>2016-12-04T09:37:23Z</time>
      </trkpt>
      <trkpt lat="46.386303585022688" lon="8.415820794180036">
        <ele>1545.9400000000001</ele>
        <time>2016-12-04T09:37:33Z</time>
      </trkpt>
      <trkpt lat="46.386227812618017" lon="8.415759857743979">
        <ele>1547.3800000000001</ele>
        <time>2016-12-04T09:37:43Z</time>
      </trkpt>
      <trkpt lat="46.386156314983964" lon="8.415701603516936">
        <ele>1548.3399999999999</ele>
        <time>2016-12-04T09:37:53Z</time>
      </trkpt>
      <trkpt lat="46.386077525094151" lon="8.415663382038474">
        <ele>1550.26</ele>
        <time>2016-12-04T09:38:04Z</time>
      </trkpt>
      <trkpt lat="46.386009464040399" lon="8.415633626282215">
        <ele>1551.22</ele>
        <time>2016-12-04T09:38:14Z</time>
      </trkpt>
      <trkpt lat="46.38591131195426" lon="8.415611665695906">
        <ele>1553.1500000000001</ele>
        <time>2016-12-04T09:38:26Z</time>
      </trkpt>
      <trkpt lat="46.385832857340574" lon="8.415590291842818">
        <ele>1554.5899999999999</ele>
        <time>2016-12-04T09:38:37Z</time>
      </trkpt>
      <trkpt lat="46.385754402726889" lon="8.41559330932796">
        <ele>1556.03</ele>
        <time>2016-12-04T09:38:48Z</time>
      </trkpt>
      <trkpt lat="46.385674439370632" lon="8.415591884404421">
        <ele>1557.95</ele>
        <time>2016-12-04T09:39:01Z</time>
      </trkpt>
      <trkpt lat="46.385590033605695" lon="8.415622981265187">
        <ele>1559.4000000000001</ele>
        <time>2016-12-04T09:39:12Z</time>
      </trkpt>
      <trkpt lat="46.385524068027735" lon="8.415669752284885">
        <ele>1560.8399999999999</ele>
        <time>2016-12-04T09:39:22Z</time>
      </trkpt>
      <trkpt lat="46.385477632284164" lon="8.415694814175367">
        <ele>1562.28</ele>
        <time>2016-12-04T09:39:30Z</time>
      </trkpt>
      <trkpt lat="46.38538752682507" lon="8.41572180390358">
        <ele>1564.2</ele>
        <time>2016-12-04T09:39:42Z</time>
      </trkpt>
      <trkpt lat="46.385359698906541" lon="8.415749967098236">
        <ele>1564.2</ele>
        <time>2016-12-04T09:39:45Z</time>
      </trkpt>
      <trkpt lat="46.385302366688848" lon="8.415817189961672">
        <ele>1564.6800000000001</ele>
        <time>2016-12-04T09:39:53Z</time>
      </trkpt>
      <trkpt lat="46.385255344212055" lon="8.415894890204072">
        <ele>1564.6800000000001</ele>
        <time>2016-12-04T09:40:00Z</time>
      </trkpt>
      <trkpt lat="46.385204466059804" lon="8.415975691750646">
        <ele>1565.6400000000001</ele>
        <time>2016-12-04T09:40:08Z</time>
      </trkpt>
      <trkpt lat="46.385181332007051" lon="8.41602279804647">
        <ele>1566.1199999999999</ele>
        <time>2016-12-04T09:40:13Z</time>
      </trkpt>
      <trkpt lat="46.385096004232764" lon="8.416128410026431">
        <ele>1567.5699999999999</ele>
        <time>2016-12-04T09:40:23Z</time>
      </trkpt>
      <trkpt lat="46.38500589877367" lon="8.416185071691871">
        <ele>1569.01</ele>
        <time>2016-12-04T09:40:34Z</time>
      </trkpt>
      <trkpt lat="46.384947560727596" lon="8.416270986199379">
        <ele>1570.45</ele>
        <time>2016-12-04T09:40:44Z</time>
      </trkpt>
      <trkpt lat="46.38494580052793" lon="8.416289426386356">
        <ele>1570.45</ele>
        <time>2016-12-04T09:40:49Z</time>
      </trkpt>
      <trkpt lat="46.384924426674843" lon="8.416327144950628">
        <ele>1570.45</ele>
        <time>2016-12-04T09:40:53Z</time>
      </trkpt>
      <trkpt lat="46.38489693403244" lon="8.416333850473166">
        <ele>1570.9300000000001</ele>
        <time>2016-12-04T09:41:02Z</time>
      </trkpt>
      <trkpt lat="46.384913865476847" lon="8.416312308982015">
        <ele>1569.97</ele>
        <time>2016-12-04T09:41:13Z</time>
      </trkpt>
      <trkpt lat="46.384886791929603" lon="8.416264615952969">
        <ele>1569.97</ele>
        <time>2016-12-04T09:41:39Z</time>
      </trkpt>
      <trkpt lat="46.38489056378603" lon="8.416256066411734">
        <ele>1569.97</ele>
        <time>2016-12-04T09:41:49Z</time>
      </trkpt>
      <trkpt lat="46.384931718930602" lon="8.41627299785614">
        <ele>1570.9300000000001</ele>
        <time>2016-12-04T09:41:57Z</time>
      </trkpt>
      <trkpt lat="46.384878912940621" lon="8.416382046416402">
        <ele>1571.4100000000001</ele>
        <time>2016-12-04T09:42:13Z</time>
      </trkpt>
      <trkpt lat="46.384893162176013" lon="8.416371233761311">
        <ele>1571.4100000000001</ele>
        <time>2016-12-04T09:42:30Z</time>
      </trkpt>
      <trkpt lat="46.384887378662825" lon="8.416453879326582">
        <ele>1571.4100000000001</ele>
        <time>2016-12-04T09:42:42Z</time>
      </trkpt>
      <trkpt lat="46.384840859100223" lon="8.416465111076832">
        <ele>1571.8900000000001</ele>
        <time>2016-12-04T09:42:51Z</time>
      </trkpt>
      <trkpt lat="46.384840775281191" lon="8.416452957317233">
        <ele>1571.8900000000001</ele>
        <time>2016-12-04T09:43:03Z</time>
      </trkpt>
      <trkpt lat="46.384808756411076" lon="8.416483635082841">
        <ele>1572.3699999999999</ele>
        <time>2016-12-04T09:43:14Z</time>
      </trkpt>
      <trkpt lat="46.384796937927604" lon="8.416368467733264">
        <ele>1572.8499999999999</ele>
        <time>2016-12-04T09:43:25Z</time>
      </trkpt>
      <trkpt lat="46.384789478033781" lon="8.416239721700549">
        <ele>1573.8199999999999</ele>
        <time>2016-12-04T09:43:35Z</time>
      </trkpt>
      <trkpt lat="46.38487396761775" lon="8.416053391993046">
        <ele>1575.74</ele>
        <time>2016-12-04T09:43:50Z</time>
      </trkpt>
      <trkpt lat="46.384883690625429" lon="8.41602673754096">
        <ele>1575.74</ele>
        <time>2016-12-04T09:43:52Z</time>
      </trkpt>
      <trkpt lat="46.384910345077515" lon="8.41593973338604">
        <ele>1576.7</ele>
        <time>2016-12-04T09:44:00Z</time>
      </trkpt>
      <trkpt lat="46.384921744465828" lon="8.415830852463841">
        <ele>1578.1400000000001</ele>
        <time>2016-12-04T09:44:11Z</time>
      </trkpt>
      <trkpt lat="46.384951919317245" lon="8.415735298767686">
        <ele>1580.0599999999999</ele>
        <time>2016-12-04T09:44:22Z</time>
      </trkpt>
      <trkpt lat="46.384986452758312" lon="8.415617952123284">
        <ele>1581.51</ele>
        <time>2016-12-04T09:44:32Z</time>
      </trkpt>
      <trkpt lat="46.385009251534939" lon="8.415503036230803">
        <ele>1583.4300000000001</ele>
        <time>2016-12-04T09:44:43Z</time>
      </trkpt>
      <trkpt lat="46.385047808289528" lon="8.415368674322963">
        <ele>1583.9100000000001</ele>
        <time>2016-12-04T09:44:54Z</time>
      </trkpt>
      <trkpt lat="46.385090053081512" lon="8.415223415941">
        <ele>1584.3900000000001</ele>
        <time>2016-12-04T09:45:05Z</time>
      </trkpt>
      <trkpt lat="46.385098770260811" lon="8.415200365707278">
        <ele>1584.3900000000001</ele>
        <time>2016-12-04T09:45:07Z</time>
      </trkpt>
      <trkpt lat="46.385210081934929" lon="8.415099112316966">
        <ele>1585.8299999999999</ele>
        <time>2016-12-04T09:45:19Z</time>
      </trkpt>
      <trkpt lat="46.385303037241101" lon="8.415031973272562">
        <ele>1587.75</ele>
        <time>2016-12-04T09:45:30Z</time>
      </trkpt>
      <trkpt lat="46.385413259267807" lon="8.414944130927324">
        <ele>1589.6800000000001</ele>
        <time>2016-12-04T09:45:40Z</time>
      </trkpt>
      <trkpt lat="46.385438740253448" lon="8.414909346029162">
        <ele>1590.1600000000001</ele>
        <time>2016-12-04T09:45:44Z</time>
      </trkpt>
      <trkpt lat="46.385488193482161" lon="8.414826449006796">
        <ele>1591.5999999999999</ele>
        <time>2016-12-04T09:45:54Z</time>
      </trkpt>
      <trkpt lat="46.385554997250438" lon="8.414771044626832">
        <ele>1593.04</ele>
        <time>2016-12-04T09:46:04Z</time>
      </trkpt>
      <trkpt lat="46.385632697492838" lon="8.414699463173747">
        <ele>1594.96</ele>
        <time>2016-12-04T09:46:17Z</time>
      </trkpt>
      <trkpt lat="46.385633619502187" lon="8.414691751822829">
        <ele>1595.45</ele>
        <time>2016-12-04T09:46:19Z</time>
      </trkpt>
      <trkpt lat="46.385708218440413" lon="8.414626037701964">
        <ele>1597.3699999999999</ele>
        <time>2016-12-04T09:46:31Z</time>
      </trkpt>
      <trkpt lat="46.38576328754425" lon="8.414551774039865">
        <ele>1599.29</ele>
        <time>2016-12-04T09:46:45Z</time>
      </trkpt>
      <trkpt lat="46.385831013321877" lon="8.41449142433703">
        <ele>1601.21</ele>
        <time>2016-12-04T09:46:56Z</time>
      </trkpt>
      <trkpt lat="46.385887758806348" lon="8.414422525092959">
        <ele>1603.1400000000001</ele>
        <time>2016-12-04T09:47:09Z</time>
      </trkpt>
      <trkpt lat="46.385959340259433" lon="8.414371479302645">
        <ele>1604.5799999999999</ele>
        <time>2016-12-04T09:47:20Z</time>
      </trkpt>
      <trkpt lat="46.38603838160634" lon="8.414355469867587">
        <ele>1606.5</ele>
        <time>2016-12-04T09:47:31Z</time>
      </trkpt>
      <trkpt lat="46.38610971160233" lon="8.414346920326352">
        <ele>1608.4200000000001</ele>
        <time>2016-12-04T09:47:42Z</time>
      </trkpt>
      <trkpt lat="46.386117674410343" lon="8.414282547309995">
        <ele>1609.3800000000001</ele>
        <time>2016-12-04T09:47:52Z</time>
      </trkpt>
      <trkpt lat="46.386043997481465" lon="8.414254384115338">
        <ele>1611.3099999999999</ele>
        <time>2016-12-04T09:48:03Z</time>
      </trkpt>
      <trkpt lat="46.385956490412354" lon="8.414237117394805">
        <ele>1613.23</ele>
        <time>2016-12-04T09:48:15Z</time>
      </trkpt>
      <trkpt lat="46.385874850675464" lon="8.414199398830533">
        <ele>1615.1500000000001</ele>
        <time>2016-12-04T09:48:28Z</time>
      </trkpt>
      <trkpt lat="46.385795390233397" lon="8.41417676769197">
        <ele>1617.0699999999999</ele>
        <time>2016-12-04T09:48:40Z</time>
      </trkpt>
      <trkpt lat="46.385736046358943" lon="8.414183892309666">
        <ele>1618.52</ele>
        <time>2016-12-04T09:48:51Z</time>
      </trkpt>
      <trkpt lat="46.385685335844755" lon="8.41419487260282">
        <ele>1620.4400000000001</ele>
        <time>2016-12-04T09:49:01Z</time>
      </trkpt>
      <trkpt lat="46.385639738291502" lon="8.414201661944389">
        <ele>1620.9200000000001</ele>
        <time>2016-12-04T09:49:07Z</time>
      </trkpt>
      <trkpt lat="46.385554745793343" lon="8.414206607267261">
        <ele>1622.8399999999999</ele>
        <time>2016-12-04T09:49:19Z</time>
      </trkpt>
      <trkpt lat="46.38547888956964" lon="8.4142373688519">
        <ele>1623.8</ele>
        <time>2016-12-04T09:49:30Z</time>
      </trkpt>
      <trkpt lat="46.385428262874484" lon="8.414198644459248">
        <ele>1625.25</ele>
        <time>2016-12-04T09:49:43Z</time>
      </trkpt>
      <trkpt lat="46.385462628677487" lon="8.414259916171432">
        <ele>1625.25</ele>
        <time>2016-12-04T09:50:02Z</time>
      </trkpt>
      <trkpt lat="46.385448882356286" lon="8.414213564246893">
        <ele>1625.25</ele>
        <time>2016-12-04T09:50:19Z</time>
      </trkpt>
      <trkpt lat="46.385419629514217" lon="8.414165116846561">
        <ele>1624.77</ele>
        <time>2016-12-04T09:50:43Z</time>
      </trkpt>
      <trkpt lat="46.385429771617055" lon="8.414167631417513">
        <ele>1625.25</ele>
        <time>2016-12-04T09:50:50Z</time>
      </trkpt>
      <trkpt lat="46.385432286188006" lon="8.414208283647895">
        <ele>1624.77</ele>
        <time>2016-12-04T09:51:08Z</time>
      </trkpt>
      <trkpt lat="46.385367410257459" lon="8.414275674149394">
        <ele>1624.77</ele>
        <time>2016-12-04T09:51:28Z</time>
      </trkpt>
      <trkpt lat="46.385393142700195" lon="8.414298892021179">
        <ele>1624.77</ele>
        <time>2016-12-04T09:51:52Z</time>
      </trkpt>
      <trkpt lat="46.385398171842098" lon="8.414327641949058">
        <ele>1624.77</ele>
        <time>2016-12-04T09:52:12Z</time>
      </trkpt>
      <trkpt lat="46.385435052216053" lon="8.414331832900643">
        <ele>1624.77</ele>
        <time>2016-12-04T09:52:34Z</time>
      </trkpt>
      <trkpt lat="46.385375205427408" lon="8.414327139034867">
        <ele>1625.73</ele>
        <time>2016-12-04T09:52:52Z</time>
      </trkpt>
      <trkpt lat="46.385305970907211" lon="8.414284726604819">
        <ele>1627.6500000000001</ele>
        <time>2016-12-04T09:53:03Z</time>
      </trkpt>
      <trkpt lat="46.385245705023408" lon="8.414218761026859">
        <ele>1629.0899999999999</ele>
        <time>2016-12-04T09:53:12Z</time>
      </trkpt>
      <trkpt lat="46.385183176025748" lon="8.414174085482955">
        <ele>1631.01</ele>
        <time>2016-12-04T09:53:22Z</time>
      </trkpt>
      <trkpt lat="46.385124335065484" lon="8.414108455181122">
        <ele>1632.9400000000001</ele>
        <time>2016-12-04T09:53:34Z</time>
      </trkpt>
      <trkpt lat="46.385047556832433" lon="8.414067132398486">
        <ele>1634.8599999999999</ele>
        <time>2016-12-04T09:53:45Z</time>
      </trkpt>
      <trkpt lat="46.3849628996104" lon="8.414026563987136">
        <ele>1636.3</ele>
        <time>2016-12-04T09:53:57Z</time>
      </trkpt>
      <trkpt lat="46.384877823293209" lon="8.413999322801828">
        <ele>1638.22</ele>
        <time>2016-12-04T09:54:08Z</time>
      </trkpt>
      <trkpt lat="46.384821245446801" lon="8.413989180698991">
        <ele>1639.6700000000001</ele>
        <time>2016-12-04T09:54:18Z</time>
      </trkpt>
      <trkpt lat="46.384753100574017" lon="8.414011225104332">
        <ele>1641.1099999999999</ele>
        <time>2016-12-04T09:54:28Z</time>
      </trkpt>
      <trkpt lat="46.384691242128611" lon="8.414025390520692">
        <ele>1642.55</ele>
        <time>2016-12-04T09:54:38Z</time>
      </trkpt>
      <trkpt lat="46.384609853848815" lon="8.414061516523361">
        <ele>1644.95</ele>
        <time>2016-12-04T09:54:50Z</time>
      </trkpt>
      <trkpt lat="46.384533662348986" lon="8.414118345826864">
        <ele>1646.4000000000001</ele>
        <time>2016-12-04T09:55:02Z</time>
      </trkpt>
      <trkpt lat="46.384504158049822" lon="8.414144329726696">
        <ele>1647.3599999999999</ele>
        <time>2016-12-04T09:55:06Z</time>
      </trkpt>
      <trkpt lat="46.384470714256167" lon="8.414178276434541">
        <ele>1647.8399999999999</ele>
        <time>2016-12-04T09:55:11Z</time>
      </trkpt>
      <trkpt lat="46.384421596303582" lon="8.414251115173101">
        <ele>1648.3199999999999</ele>
        <time>2016-12-04T09:55:18Z</time>
      </trkpt>
      <trkpt lat="46.384341297671199" lon="8.414306435734034">
        <ele>1649.28</ele>
        <time>2016-12-04T09:55:28Z</time>
      </trkpt>
      <trkpt lat="46.384270302951336" lon="8.414340717718005">
        <ele>1650.24</ele>
        <time>2016-12-04T09:55:37Z</time>
      </trkpt>
      <trkpt lat="46.384206851944327" lon="8.414391344413161">
        <ele>1651.2</ele>
        <time>2016-12-04T09:55:46Z</time>
      </trkpt>
      <trkpt lat="46.384149855002761" lon="8.414442893117666">
        <ele>1652.6400000000001</ele>
        <time>2016-12-04T09:55:55Z</time>
      </trkpt>
      <trkpt lat="46.384066455066204" lon="8.41453199274838">
        <ele>1652.6400000000001</ele>
        <time>2016-12-04T09:56:06Z</time>
      </trkpt>
      <trkpt lat="46.383999651297927" lon="8.414589324966073">
        <ele>1654.0899999999999</ele>
        <time>2016-12-04T09:56:16Z</time>
      </trkpt>
      <trkpt lat="46.38392211869359" lon="8.414635425433517">
        <ele>1656.01</ele>
        <time>2016-12-04T09:56:27Z</time>
      </trkpt>
      <trkpt lat="46.383848106488585" lon="8.414680100977421">
        <ele>1657.45</ele>
        <time>2016-12-04T09:56:38Z</time>
      </trkpt>
      <trkpt lat="46.383755067363381" lon="8.41470155864954">
        <ele>1659.8499999999999</ele>
        <time>2016-12-04T09:56:52Z</time>
      </trkpt>
      <trkpt lat="46.383684240281582" lon="8.41473282314837">
        <ele>1661.3</ele>
        <time>2016-12-04T09:57:03Z</time>
      </trkpt>
      <trkpt lat="46.383633781224489" lon="8.414767188951373">
        <ele>1662.74</ele>
        <time>2016-12-04T09:57:13Z</time>
      </trkpt>
      <trkpt lat="46.383567983284593" lon="8.414810271933675">
        <ele>1664.6600000000001</ele>
        <time>2016-12-04T09:57:25Z</time>
      </trkpt>
      <trkpt lat="46.383500508964062" lon="8.41482812538743">
        <ele>1666.0999999999999</ele>
        <time>2016-12-04T09:57:37Z</time>
      </trkpt>
      <trkpt lat="46.383434627205133" lon="8.414808679372072">
        <ele>1667.0599999999999</ele>
        <time>2016-12-04T09:57:46Z</time>
      </trkpt>
      <trkpt lat="46.383372014388442" lon="8.414817228913307">
        <ele>1668.99</ele>
        <time>2016-12-04T09:57:57Z</time>
      </trkpt>
      <trkpt lat="46.383297834545374" lon="8.41477339155972">
        <ele>1670.4300000000001</ele>
        <time>2016-12-04T09:58:08Z</time>
      </trkpt>
      <trkpt lat="46.383231617510319" lon="8.414817312732339">
        <ele>1672.3499999999999</ele>
        <time>2016-12-04T09:58:21Z</time>
      </trkpt>
      <trkpt lat="46.383184595033526" lon="8.41474698856473">
        <ele>1674.75</ele>
        <time>2016-12-04T09:58:30Z</time>
      </trkpt>
      <trkpt lat="46.38326296582818" lon="8.414688231423497">
        <ele>1674.27</ele>
        <time>2016-12-04T09:58:41Z</time>
      </trkpt>
      <trkpt lat="46.38335189782083" lon="8.414599718526006">
        <ele>1676.2</ele>
        <time>2016-12-04T09:58:56Z</time>
      </trkpt>
      <trkpt lat="46.383407386019826" lon="8.414510618895292">
        <ele>1678.1199999999999</ele>
        <time>2016-12-04T09:59:08Z</time>
      </trkpt>
      <trkpt lat="46.383455749601126" lon="8.414435936138034">
        <ele>1680.04</ele>
        <time>2016-12-04T09:59:20Z</time>
      </trkpt>
      <trkpt lat="46.383508555591106" lon="8.414366031065583">
        <ele>1681.96</ele>
        <time>2016-12-04T09:59:31Z</time>
      </trkpt>
      <trkpt lat="46.383554823696613" lon="8.414283553138375">
        <ele>1683.4100000000001</ele>
        <time>2016-12-04T09:59:42Z</time>
      </trkpt>
      <trkpt lat="46.38358885422349" lon="8.414192274212837">
        <ele>1684.8499999999999</ele>
        <time>2016-12-04T09:59:52Z</time>
      </trkpt>
      <trkpt lat="46.383594889193773" lon="8.414182551205158">
        <ele>1684.8499999999999</ele>
        <time>2016-12-04T09:59:53Z</time>
      </trkpt>
      <trkpt lat="46.383602935820818" lon="8.41414013877511">
        <ele>1685.3299999999999</ele>
        <time>2016-12-04T09:59:56Z</time>
      </trkpt>
      <trkpt lat="46.383580304682255" lon="8.414120608940721">
        <ele>1685.8099999999999</ele>
        <time>2016-12-04T10:00:00Z</time>
      </trkpt>
      <trkpt lat="46.383551890030503" lon="8.414150783792138">
        <ele>1685.8099999999999</ele>
        <time>2016-12-04T10:00:12Z</time>
      </trkpt>
      <trkpt lat="46.383500173687935" lon="8.414215575903654">
        <ele>1687.25</ele>
        <time>2016-12-04T10:00:23Z</time>
      </trkpt>
      <trkpt lat="46.383438482880592" lon="8.414252623915672">
        <ele>1688.21</ele>
        <time>2016-12-04T10:00:35Z</time>
      </trkpt>
      <trkpt lat="46.383340498432517" lon="8.414276093244553">
        <ele>1689.1700000000001</ele>
        <time>2016-12-04T10:00:46Z</time>
      </trkpt>
      <trkpt lat="46.383287776261568" lon="8.414296042174101">
        <ele>1690.1400000000001</ele>
        <time>2016-12-04T10:00:55Z</time>
      </trkpt>
      <trkpt lat="46.383227007463574" lon="8.414318505674601">
        <ele>1691.5799999999999</ele>
        <time>2016-12-04T10:01:04Z</time>
      </trkpt>
      <trkpt lat="46.383149474859238" lon="8.41432387009263">
        <ele>1692.54</ele>
        <time>2016-12-04T10:01:16Z</time>
      </trkpt>
      <trkpt lat="46.383075714111328" lon="8.414332000538707">
        <ele>1693.02</ele>
        <time>2016-12-04T10:01:26Z</time>
      </trkpt>
      <trkpt lat="46.382990889251232" lon="8.414325127378106">
        <ele>1694.46</ele>
        <time>2016-12-04T10:01:39Z</time>
      </trkpt>
      <trkpt lat="46.382918721064925" lon="8.414343232288957">
        <ele>1696.3800000000001</ele>
        <time>2016-12-04T10:01:50Z</time>
      </trkpt>
      <trkpt lat="46.382820568978786" lon="8.414385141804814">
        <ele>1697.8299999999999</ele>
        <time>2016-12-04T10:02:02Z</time>
      </trkpt>
      <trkpt lat="46.382768098264933" lon="8.414422525092959">
        <ele>1699.27</ele>
        <time>2016-12-04T10:02:12Z</time>
      </trkpt>
      <trkpt lat="46.382681680843234" lon="8.414456136524677">
        <ele>1701.1900000000001</ele>
        <time>2016-12-04T10:02:23Z</time>
      </trkpt>
      <trkpt lat="46.382606662809849" lon="8.414483293890953">
        <ele>1702.6300000000001</ele>
        <time>2016-12-04T10:02:34Z</time>
      </trkpt>
      <trkpt lat="46.382579505443573" lon="8.414514809846878">
        <ele>1702.6300000000001</ele>
        <time>2016-12-04T10:02:39Z</time>
      </trkpt>
      <trkpt lat="46.382494261488318" lon="8.414567532017827">
        <ele>1704.0699999999999</ele>
        <time>2016-12-04T10:02:51Z</time>
      </trkpt>
      <trkpt lat="46.382421590387821" lon="8.41461312957108">
        <ele>1705.52</ele>
        <time>2016-12-04T10:03:02Z</time>
      </trkpt>
      <trkpt lat="46.382314218208194" lon="8.414663169533014">
        <ele>1706.96</ele>
        <time>2016-12-04T10:03:15Z</time>
      </trkpt>
      <trkpt lat="46.382203744724393" lon="8.414659649133682">
        <ele>1708.8800000000001</ele>
        <time>2016-12-04T10:03:29Z</time>
      </trkpt>
      <trkpt lat="46.382109196856618" lon="8.414661157876253">
        <ele>1709.8399999999999</ele>
        <time>2016-12-04T10:03:40Z</time>
      </trkpt>
      <trkpt lat="46.382041722536087" lon="8.414669539779425">
        <ele>1711.28</ele>
        <time>2016-12-04T10:03:51Z</time>
      </trkpt>
      <trkpt lat="46.381967542693019" lon="8.414699295535684">
        <ele>1712.73</ele>
        <time>2016-12-04T10:04:03Z</time>
      </trkpt>
      <trkpt lat="46.381894536316395" lon="8.414715807884932">
        <ele>1714.1700000000001</ele>
        <time>2016-12-04T10:04:14Z</time>
      </trkpt>
      <trkpt lat="46.381802083924413" lon="8.414728045463562">
        <ele>1715.6099999999999</ele>
        <time>2016-12-04T10:04:25Z</time>
      </trkpt>
      <trkpt lat="46.381720528006554" lon="8.41475629247725">
        <ele>1718.01</ele>
        <time>2016-12-04T10:04:39Z</time>
      </trkpt>
      <trkpt lat="46.381712732836604" lon="8.414757885038853">
        <ele>1718.01</ele>
        <time>2016-12-04T10:04:40Z</time>
      </trkpt>
      <trkpt lat="46.381671074777842" lon="8.414778923615813">
        <ele>1719.46</ele>
        <time>2016-12-04T10:04:48Z</time>
      </trkpt>
      <trkpt lat="46.381583902984858" lon="8.414805745705962">
        <ele>1721.3800000000001</ele>
        <time>2016-12-04T10:05:00Z</time>
      </trkpt>
      <trkpt lat="46.381495809182525" lon="8.414791328832507">
        <ele>1722.8199999999999</ele>
        <time>2016-12-04T10:05:11Z</time>
      </trkpt>
      <trkpt lat="46.381418276578188" lon="8.414813205599785">
        <ele>1724.26</ele>
        <time>2016-12-04T10:05:24Z</time>
      </trkpt>
      <trkpt lat="46.381323225796223" lon="8.414824856445193">
        <ele>1726.1800000000001</ele>
        <time>2016-12-04T10:05:36Z</time>
      </trkpt>
      <trkpt lat="46.381256254389882" lon="8.414834663271904">
        <ele>1727.6300000000001</ele>
        <time>2016-12-04T10:05:47Z</time>
      </trkpt>
      <trkpt lat="46.381228091195226" lon="8.414875483140349">
        <ele>1728.5899999999999</ele>
        <time>2016-12-04T10:05:54Z</time>
      </trkpt>
      <trkpt lat="46.381174447014928" lon="8.414911776781082">
        <ele>1729.0699999999999</ele>
        <time>2016-12-04T10:06:01Z</time>
      </trkpt>
      <trkpt lat="46.381144942715764" lon="8.414889732375741">
        <ele>1729.0699999999999</ele>
        <time>2016-12-04T10:06:05Z</time>
      </trkpt>
      <trkpt lat="46.381140667945147" lon="8.414868107065558">
        <ele>1729.0699999999999</ele>
        <time>2016-12-04T10:06:07Z</time>
      </trkpt>
      <trkpt lat="46.381181068718433" lon="8.414766266942024">
        <ele>1730.51</ele>
        <time>2016-12-04T10:06:20Z</time>
      </trkpt>
      <trkpt lat="46.381244855001569" lon="8.414689656347036">
        <ele>1731.95</ele>
        <time>2016-12-04T10:06:31Z</time>
      </trkpt>
      <trkpt lat="46.381277209147811" lon="8.41465805657208">
        <ele>1732.4300000000001</ele>
        <time>2016-12-04T10:06:35Z</time>
      </trkpt>
      <trkpt lat="46.381348622962832" lon="8.414561077952385">
        <ele>1733.8800000000001</ele>
        <time>2016-12-04T10:06:47Z</time>
      </trkpt>
      <trkpt lat="46.381399920210242" lon="8.414473235607147">
        <ele>1735.8</ele>
        <time>2016-12-04T10:06:59Z</time>
      </trkpt>
      <trkpt lat="46.381436297670007" lon="8.414413891732693">
        <ele>1737.24</ele>
        <time>2016-12-04T10:07:11Z</time>
      </trkpt>
      <trkpt lat="46.381487008184195" lon="8.414321020245552">
        <ele>1738.6800000000001</ele>
        <time>2016-12-04T10:07:24Z</time>
      </trkpt>
      <trkpt lat="46.381547274067998" lon="8.414278104901314">
        <ele>1740.1199999999999</ele>
        <time>2016-12-04T10:07:36Z</time>
      </trkpt>
      <trkpt lat="46.381614580750465" lon="8.414259245619178">
        <ele>1741.5699999999999</ele>
        <time>2016-12-04T10:07:47Z</time>
      </trkpt>
      <trkpt lat="46.381636122241616" lon="8.414257569238544">
        <ele>1741.5699999999999</ele>
        <time>2016-12-04T10:08:00Z</time>
      </trkpt>
      <trkpt lat="46.381608378142118" lon="8.414193615317345">
        <ele>1742.53</ele>
        <time>2016-12-04T10:08:12Z</time>
      </trkpt>
      <trkpt lat="46.381601085886359" lon="8.41421197168529">
        <ele>1743.01</ele>
        <time>2016-12-04T10:08:22Z</time>
      </trkpt>
      <trkpt lat="46.381586249917746" lon="8.414213815703988">
        <ele>1743.01</ele>
        <time>2016-12-04T10:08:25Z</time>
      </trkpt>
      <trkpt lat="46.381511986255646" lon="8.414236949756742">
        <ele>1745.4100000000001</ele>
        <time>2016-12-04T10:08:35Z</time>
      </trkpt>
      <trkpt lat="46.381413331255317" lon="8.414272153750062">
        <ele>1745.4100000000001</ele>
        <time>2016-12-04T10:08:47Z</time>
      </trkpt>
      <trkpt lat="46.381331775337458" lon="8.414264358580113">
        <ele>1746.8499999999999</ele>
        <time>2016-12-04T10:08:59Z</time>
      </trkpt>
      <trkpt lat="46.381262205541134" lon="8.414276679977775">
        <ele>1747.8099999999999</ele>
        <time>2016-12-04T10:09:09Z</time>
      </trkpt>
      <trkpt lat="46.381173273548484" lon="8.414287492632866">
        <ele>1749.26</ele>
        <time>2016-12-04T10:09:21Z</time>
      </trkpt>
      <trkpt lat="46.381091298535466" lon="8.414300568401814">
        <ele>1750.7</ele>
        <time>2016-12-04T10:09:33Z</time>
      </trkpt>
      <trkpt lat="46.381012173369527" lon="8.414310459047556">
        <ele>1752.1400000000001</ele>
        <time>2016-12-04T10:09:45Z</time>
      </trkpt>
      <trkpt lat="46.380936400964856" lon="8.414316829293966">
        <ele>1753.0999999999999</ele>
        <time>2016-12-04T10:09:57Z</time>
      </trkpt>
      <trkpt lat="46.380865573883057" lon="8.414332587271929">
        <ele>1754.54</ele>
        <time>2016-12-04T10:10:09Z</time>
      </trkpt>
      <trkpt lat="46.380820479243994" lon="8.414263101294637">
        <ele>1755.99</ele>
        <time>2016-12-04T10:10:20Z</time>
      </trkpt>
      <trkpt lat="46.380847217515111" lon="8.414165619760752">
        <ele>1757.9100000000001</ele>
        <time>2016-12-04T10:10:31Z</time>
      </trkpt>
      <trkpt lat="46.380919720977545" lon="8.414099905639887">
        <ele>1759.3499999999999</ele>
        <time>2016-12-04T10:10:43Z</time>
      </trkpt>
      <trkpt lat="46.381028769537807" lon="8.414060343056917">
        <ele>1760.79</ele>
        <time>2016-12-04T10:10:55Z</time>
      </trkpt>
      <trkpt lat="46.381067410111427" lon="8.414039891213179">
        <ele>1762.23</ele>
        <time>2016-12-04T10:11:07Z</time>
      </trkpt>
      <trkpt lat="46.381130442023277" lon="8.414010806009173">
        <ele>1763.2</ele>
        <time>2016-12-04T10:11:18Z</time>
      </trkpt>
      <trkpt lat="46.381154330447316" lon="8.413968561217189">
        <ele>1764.1600000000001</ele>
        <time>2016-12-04T10:11:27Z</time>
      </trkpt>
      <trkpt lat="46.381076462566853" lon="8.41395640745759">
        <ele>1765.1199999999999</ele>
        <time>2016-12-04T10:11:37Z</time>
      </trkpt>
      <trkpt lat="46.38101133517921" lon="8.413987336680293">
        <ele>1766.5599999999999</ele>
        <time>2016-12-04T10:11:48Z</time>
      </trkpt>
      <trkpt lat="46.380934892222285" lon="8.413998316973448">
        <ele>1767.52</ele>
        <time>2016-12-04T10:12:00Z</time>
      </trkpt>
      <trkpt lat="46.380872195586562" lon="8.413990689441562">
        <ele>1768.48</ele>
        <time>2016-12-04T10:12:11Z</time>
      </trkpt>
      <trkpt lat="46.380863059312105" lon="8.413985827937722">
        <ele>1768.48</ele>
        <time>2016-12-04T10:12:13Z</time>
      </trkpt>
      <trkpt lat="46.380785945802927" lon="8.413971327245235">
        <ele>1769.9200000000001</ele>
        <time>2016-12-04T10:12:24Z</time>
      </trkpt>
      <trkpt lat="46.380721488967538" lon="8.413976021111012">
        <ele>1771.3699999999999</ele>
        <time>2016-12-04T10:12:34Z</time>
      </trkpt>
      <trkpt lat="46.380663486197591" lon="8.41402480378747">
        <ele>1772.8099999999999</ele>
        <time>2016-12-04T10:12:46Z</time>
      </trkpt>
      <trkpt lat="46.38058821670711" lon="8.414035784080625">
        <ele>1774.73</ele>
        <time>2016-12-04T10:12:59Z</time>
      </trkpt>
      <trkpt lat="46.380531052127481" lon="8.41409026645124">
        <ele>1776.1700000000001</ele>
        <time>2016-12-04T10:13:10Z</time>
      </trkpt>
      <trkpt lat="46.380471624433994" lon="8.414109293371439">
        <ele>1777.1300000000001</ele>
        <time>2016-12-04T10:13:20Z</time>
      </trkpt>
      <trkpt lat="46.380396019667387" lon="8.414125721901655">
        <ele>1778.5799999999999</ele>
        <time>2016-12-04T10:13:31Z</time>
      </trkpt>
      <trkpt lat="46.380335837602615" lon="8.414126811549068">
        <ele>1780.5</ele>
        <time>2016-12-04T10:13:44Z</time>
      </trkpt>
      <trkpt lat="46.380321756005287" lon="8.414131756871939">
        <ele>1780.98</ele>
        <time>2016-12-04T10:13:56Z</time>
      </trkpt>
      <trkpt lat="46.380345309153199" lon="8.414178360253573">
        <ele>1780.98</ele>
        <time>2016-12-04T10:14:07Z</time>
      </trkpt>
      <trkpt lat="46.380342375487089" lon="8.41419730335474">
        <ele>1780.98</ele>
        <time>2016-12-04T10:14:26Z</time>
      </trkpt>
      <trkpt lat="46.380294598639011" lon="8.414198476821184">
        <ele>1780.98</ele>
        <time>2016-12-04T10:14:45Z</time>
      </trkpt>
      <trkpt lat="46.380324186757207" lon="8.414118848741055">
        <ele>1780.98</ele>
        <time>2016-12-04T10:15:04Z</time>
      </trkpt>
      <trkpt lat="46.380316223949194" lon="8.414105856791139">
        <ele>1780.98</ele>
        <time>2016-12-04T10:15:15Z</time>
      </trkpt>
      <trkpt lat="46.380308261141181" lon="8.414085488766432">
        <ele>1780.5</ele>
        <time>2016-12-04T10:15:30Z</time>
      </trkpt>
      <trkpt lat="46.380268530920148" lon="8.414141563698649">
        <ele>1781.9400000000001</ele>
        <time>2016-12-04T10:15:44Z</time>
      </trkpt>
      <trkpt lat="46.380214970558882" lon="8.414156148210168">
        <ele>1782.9000000000001</ele>
        <time>2016-12-04T10:15:55Z</time>
      </trkpt>
      <trkpt lat="46.380162667483091" lon="8.414146509021521">
        <ele>1784.3399999999999</ele>
        <time>2016-12-04T10:16:06Z</time>
      </trkpt>
      <trkpt lat="46.380101563408971" lon="8.41415036469698">
        <ele>1785.79</ele>
        <time>2016-12-04T10:16:17Z</time>
      </trkpt>
      <trkpt lat="46.380034508183599" lon="8.414159333333373">
        <ele>1787.23</ele>
        <time>2016-12-04T10:16:29Z</time>
      </trkpt>
      <trkpt lat="46.379974996671081" lon="8.414148353040218">
        <ele>1790.1099999999999</ele>
        <time>2016-12-04T10:16:39Z</time>
      </trkpt>
      <trkpt lat="46.379892518743873" lon="8.414162769913673">
        <ele>1790.1099999999999</ele>
        <time>2016-12-04T10:16:51Z</time>
      </trkpt>
      <trkpt lat="46.379845999181271" lon="8.414147514849901">
        <ele>1790.1099999999999</ele>
        <time>2016-12-04T10:17:02Z</time>
      </trkpt>
      <trkpt lat="46.3797926902771" lon="8.414152124896646">
        <ele>1791.0699999999999</ele>
        <time>2016-12-04T10:17:10Z</time>
      </trkpt>
      <trkpt lat="46.379691772162914" lon="8.414129493758082">
        <ele>1791.55</ele>
        <time>2016-12-04T10:17:22Z</time>
      </trkpt>
      <trkpt lat="46.379639469087124" lon="8.414137456566095">
        <ele>1792.03</ele>
        <time>2016-12-04T10:17:29Z</time>
      </trkpt>
      <trkpt lat="46.37956696562469" lon="8.414147263392806">
        <ele>1792.52</ele>
        <time>2016-12-04T10:17:40Z</time>
      </trkpt>
      <trkpt lat="46.379502927884459" lon="8.414181377738714">
        <ele>1793.48</ele>
        <time>2016-12-04T10:17:49Z</time>
      </trkpt>
      <trkpt lat="46.379449032247066" lon="8.414219599217176">
        <ele>1794.9200000000001</ele>
        <time>2016-12-04T10:17:57Z</time>
      </trkpt>
      <trkpt lat="46.379405194893479" lon="8.414248432964087">
        <ele>1795.8800000000001</ele>
        <time>2016-12-04T10:18:07Z</time>
      </trkpt>
      <trkpt lat="46.379312155768275" lon="8.414268046617508">
        <ele>1796.8399999999999</ele>
        <time>2016-12-04T10:18:16Z</time>
      </trkpt>
      <trkpt lat="46.379225151613355" lon="8.414283553138375">
        <ele>1797.8</ele>
        <time>2016-12-04T10:18:26Z</time>
      </trkpt>
      <trkpt lat="46.379215931519866" lon="8.414281206205487">
        <ele>1797.8</ele>
        <time>2016-12-04T10:18:27Z</time>
      </trkpt>
      <trkpt lat="46.379120880737901" lon="8.414237620308995">
        <ele>1798.28</ele>
        <time>2016-12-04T10:18:37Z</time>
      </trkpt>
      <trkpt lat="46.379105290398002" lon="8.414230411872268">
        <ele>1798.28</ele>
        <time>2016-12-04T10:18:39Z</time>
      </trkpt>
      <trkpt lat="46.379017699509859" lon="8.414160674437881">
        <ele>1799.24</ele>
        <time>2016-12-04T10:18:50Z</time>
      </trkpt>
      <trkpt lat="46.379000600427389" lon="8.414155310019851">
        <ele>1799.24</ele>
        <time>2016-12-04T10:18:52Z</time>
      </trkpt>
      <trkpt lat="46.37895131483674" lon="8.414127230644226">
        <ele>1800.21</ele>
        <time>2016-12-04T10:18:58Z</time>
      </trkpt>
      <trkpt lat="46.378874117508531" lon="8.414076855406165">
        <ele>1801.1700000000001</ele>
        <time>2016-12-04T10:19:08Z</time>
      </trkpt>
      <trkpt lat="46.378788622096181" lon="8.41406537219882">
        <ele>1800.6900000000001</ele>
        <time>2016-12-04T10:19:18Z</time>
      </trkpt>
      <trkpt lat="46.378791891038418" lon="8.414075179025531">
        <ele>1800.6900000000001</ele>
        <time>2016-12-04T10:19:29Z</time>
      </trkpt>
      <trkpt lat="46.378780659288168" lon="8.414070904254913">
        <ele>1800.6900000000001</ele>
        <time>2016-12-04T10:19:38Z</time>
      </trkpt>
      <trkpt lat="46.378775462508202" lon="8.414063863456249">
        <ele>1800.21</ele>
        <time>2016-12-04T10:19:45Z</time>
      </trkpt>
      <trkpt lat="46.378762135282159" lon="8.414056906476617">
        <ele>1800.21</ele>
        <time>2016-12-04T10:19:56Z</time>
      </trkpt>
      <trkpt lat="46.378784514963627" lon="8.414086746051908">
        <ele>1799.73</ele>
        <time>2016-12-04T10:20:07Z</time>
      </trkpt>
      <trkpt lat="46.378786694258451" lon="8.414105018600822">
        <ele>1799.24</ele>
        <time>2016-12-04T10:20:24Z</time>
      </trkpt>
      <trkpt lat="46.378792896866798" lon="8.414063528180122">
        <ele>1800.6900000000001</ele>
        <time>2016-12-04T10:20:40Z</time>
      </trkpt>
      <trkpt lat="46.378765655681491" lon="8.41408783569932">
        <ele>1799.24</ele>
        <time>2016-12-04T10:20:51Z</time>
      </trkpt>
      <trkpt lat="46.378760291263461" lon="8.414106527343392">
        <ele>1799.24</ele>
        <time>2016-12-04T10:21:03Z</time>
      </trkpt>
      <trkpt lat="46.378753250464797" lon="8.414084315299988">
        <ele>1799.24</ele>
        <time>2016-12-04T10:21:30Z</time>
      </trkpt>
      <trkpt lat="46.378812259063125" lon="8.413945259526372">
        <ele>1799.24</ele>
        <time>2016-12-04T10:21:50Z</time>
      </trkpt>
      <trkpt lat="46.378796249628067" lon="8.414027485996485">
        <ele>1800.21</ele>
        <time>2016-12-04T10:22:13Z</time>
      </trkpt>
      <trkpt lat="46.378768170252442" lon="8.414020612835884">
        <ele>1800.21</ele>
        <time>2016-12-04T10:22:23Z</time>
      </trkpt>
      <trkpt lat="46.378743527457118" lon="8.413994126021862">
        <ele>1800.21</ele>
        <time>2016-12-04T10:22:36Z</time>
      </trkpt>
      <trkpt lat="46.378747802227736" lon="8.41399597004056">
        <ele>1800.21</ele>
        <time>2016-12-04T10:22:51Z</time>
      </trkpt>
      <trkpt lat="46.378749897703528" lon="8.414012398570776">
        <ele>1800.21</ele>
        <time>2016-12-04T10:23:06Z</time>
      </trkpt>
      <trkpt lat="46.378738163039088" lon="8.414019104093313">
        <ele>1800.6900000000001</ele>
        <time>2016-12-04T10:23:18Z</time>
      </trkpt>
      <trkpt lat="46.378741767257452" lon="8.414037209004164">
        <ele>1800.21</ele>
        <time>2016-12-04T10:23:30Z</time>
      </trkpt>
      <trkpt lat="46.378750652074814" lon="8.414031760767102">
        <ele>1800.6900000000001</ele>
        <time>2016-12-04T10:23:40Z</time>
      </trkpt>
      <trkpt lat="46.378759369254112" lon="8.413983564823866">
        <ele>1800.6900000000001</ele>
        <time>2016-12-04T10:23:52Z</time>
      </trkpt>
      <trkpt lat="46.378745036199689" lon="8.413986582309008">
        <ele>1800.6900000000001</ele>
        <time>2016-12-04T10:24:04Z</time>
      </trkpt>
      <trkpt lat="46.378742856904864" lon="8.413981217890978">
        <ele>1800.21</ele>
        <time>2016-12-04T10:24:08Z</time>
      </trkpt>
      <trkpt lat="46.378737576305866" lon="8.413936709985137">
        <ele>1800.21</ele>
        <time>2016-12-04T10:24:12Z</time>
      </trkpt>
      <trkpt lat="46.378710167482495" lon="8.413805114105344">
        <ele>1798.28</ele>
        <time>2016-12-04T10:24:23Z</time>
      </trkpt>
      <trkpt lat="46.37870404869318" lon="8.413778124377132">
        <ele>1798.28</ele>
        <time>2016-12-04T10:24:25Z</time>
      </trkpt>
      <trkpt lat="46.378674125298858" lon="8.413652563467622">
        <ele>1797.8</ele>
        <time>2016-12-04T10:24:34Z</time>
      </trkpt>
      <trkpt lat="46.378666078671813" lon="8.413619957864285">
        <ele>1797.8</ele>
        <time>2016-12-04T10:24:37Z</time>
      </trkpt>
      <trkpt lat="46.378654763102531" lon="8.413478303700686">
        <ele>1799.24</ele>
        <time>2016-12-04T10:24:47Z</time>
      </trkpt>
      <trkpt lat="46.378660630434752" lon="8.413441590964794">
        <ele>1799.24</ele>
        <time>2016-12-04T10:24:55Z</time>
      </trkpt>
      <trkpt lat="46.378661217167974" lon="8.413376463577151">
        <ele>1799.73</ele>
        <time>2016-12-04T10:25:00Z</time>
      </trkpt>
      <trkpt lat="46.378655768930912" lon="8.413346456363797">
        <ele>1800.21</ele>
        <time>2016-12-04T10:25:02Z</time>
      </trkpt>
      <trkpt lat="46.378646297380328" lon="8.41331435367465">
        <ele>1800.21</ele>
        <time>2016-12-04T10:25:05Z</time>
      </trkpt>
      <trkpt lat="46.378640262410045" lon="8.413278227671981">
        <ele>1800.21</ele>
        <time>2016-12-04T10:25:08Z</time>
      </trkpt>
      <trkpt lat="46.378578236326575" lon="8.41311888769269">
        <ele>1799.24</ele>
        <time>2016-12-04T10:25:19Z</time>
      </trkpt>
      <trkpt lat="46.378562478348613" lon="8.413050156086683">
        <ele>1799.24</ele>
        <time>2016-12-04T10:25:23Z</time>
      </trkpt>
      <trkpt lat="46.378539763391018" lon="8.412992740049958">
        <ele>1799.24</ele>
        <time>2016-12-04T10:25:27Z</time>
      </trkpt>
      <trkpt lat="46.378478324040771" lon="8.41283792629838">
        <ele>1798.76</ele>
        <time>2016-12-04T10:25:37Z</time>
      </trkpt>
      <trkpt lat="46.37842602096498" lon="8.412688225507736">
        <ele>1797.8</ele>
        <time>2016-12-04T10:25:47Z</time>
      </trkpt>
      <trkpt lat="46.37840204872191" lon="8.412638353183866">
        <ele>1796.8399999999999</ele>
        <time>2016-12-04T10:25:51Z</time>
      </trkpt>
      <trkpt lat="46.378306159749627" lon="8.412505835294724">
        <ele>1793.96</ele>
        <time>2016-12-04T10:26:02Z</time>
      </trkpt>
      <trkpt lat="46.378205912187696" lon="8.412321349605918">
        <ele>1792.52</ele>
        <time>2016-12-04T10:26:14Z</time>
      </trkpt>
      <trkpt lat="46.378110274672508" lon="8.412145329639316">
        <ele>1792.52</ele>
        <time>2016-12-04T10:26:26Z</time>
      </trkpt>
      <trkpt lat="46.378059899434447" lon="8.412048937752843">
        <ele>1792.03</ele>
        <time>2016-12-04T10:26:33Z</time>
      </trkpt>
      <trkpt lat="46.377993850037456" lon="8.411903511732817">
        <ele>1790.1099999999999</ele>
        <time>2016-12-04T10:26:44Z</time>
      </trkpt>
      <trkpt lat="46.377930147573352" lon="8.411802090704441">
        <ele>1788.1900000000001</ele>
        <time>2016-12-04T10:26:52Z</time>
      </trkpt>
      <trkpt lat="46.377849094569683" lon="8.411662029102445">
        <ele>1787.71</ele>
        <time>2016-12-04T10:27:04Z</time>
      </trkpt>
      <trkpt lat="46.377827553078532" lon="8.411650629714131">
        <ele>1788.1900000000001</ele>
        <time>2016-12-04T10:27:07Z</time>
      </trkpt>
      <trkpt lat="46.377742309123278" lon="8.411683402955532">
        <ele>1789.1500000000001</ele>
        <time>2016-12-04T10:27:18Z</time>
      </trkpt>
      <trkpt lat="46.377677349373698" lon="8.411747524514794">
        <ele>1790.1099999999999</ele>
        <time>2016-12-04T10:27:27Z</time>
      </trkpt>
      <trkpt lat="46.377669721841812" lon="8.411750290542841">
        <ele>1790.1099999999999</ele>
        <time>2016-12-04T10:27:28Z</time>
      </trkpt>
      <trkpt lat="46.377619262784719" lon="8.411832517012954">
        <ele>1791.55</ele>
        <time>2016-12-04T10:27:37Z</time>
      </trkpt>
      <trkpt lat="46.37758213095367" lon="8.41189487837255">
        <ele>1791.0699999999999</ele>
        <time>2016-12-04T10:27:43Z</time>
      </trkpt>
      <trkpt lat="46.377568384632468" lon="8.411924969404936">
        <ele>1791.0699999999999</ele>
        <time>2016-12-04T10:27:45Z</time>
      </trkpt>
      <trkpt lat="46.377537120133638" lon="8.411939302459359">
        <ele>1791.0699999999999</ele>
        <time>2016-12-04T10:27:48Z</time>
      </trkpt>
      <trkpt lat="46.377503341063857" lon="8.41194860637188">
        <ele>1791.55</ele>
        <time>2016-12-04T10:27:51Z</time>
      </trkpt>
      <trkpt lat="46.377428658306599" lon="8.411898650228977">
        <ele>1791.0699999999999</ele>
        <time>2016-12-04T10:27:57Z</time>
      </trkpt>
      <trkpt lat="46.377423126250505" lon="8.411753810942173">
        <ele>1789.6300000000001</ele>
        <time>2016-12-04T10:28:04Z</time>
      </trkpt>
      <trkpt lat="46.37747366912663" lon="8.411545185372233">
        <ele>1788.1900000000001</ele>
        <time>2016-12-04T10:28:15Z</time>
      </trkpt>
      <trkpt lat="46.377482386305928" lon="8.411407554522157">
        <ele>1787.23</ele>
        <time>2016-12-04T10:28:24Z</time>
      </trkpt>
      <trkpt lat="46.377449193969369" lon="8.411200186237693">
        <ele>1784.8199999999999</ele>
        <time>2016-12-04T10:28:36Z</time>
      </trkpt>
      <trkpt lat="46.377400076016784" lon="8.411033973097801">
        <ele>1783.3800000000001</ele>
        <time>2016-12-04T10:28:45Z</time>
      </trkpt>
      <trkpt lat="46.377359507605433" lon="8.410830041393638">
        <ele>1781.9400000000001</ele>
        <time>2016-12-04T10:28:56Z</time>
      </trkpt>
      <trkpt lat="46.377261439338326" lon="8.410725435242057">
        <ele>1780.98</ele>
        <time>2016-12-04T10:29:09Z</time>
      </trkpt>
      <trkpt lat="46.377175441011786" lon="8.410580093041062">
        <ele>1780.98</ele>
        <time>2016-12-04T10:29:21Z</time>
      </trkpt>
      <trkpt lat="46.377133196219802" lon="8.410511109977961">
        <ele>1780.98</ele>
        <time>2016-12-04T10:29:27Z</time>
      </trkpt>
      <trkpt lat="46.377120623365045" lon="8.41049199923873">
        <ele>1780.98</ele>
        <time>2016-12-04T10:29:29Z</time>
      </trkpt>
      <trkpt lat="46.377065135166049" lon="8.410409605130553">
        <ele>1780.98</ele>
        <time>2016-12-04T10:29:38Z</time>
      </trkpt>
      <trkpt lat="46.377043258398771" lon="8.410370796918869">
        <ele>1781.9400000000001</ele>
        <time>2016-12-04T10:29:52Z</time>
      </trkpt>
      <trkpt lat="46.377049963921309" lon="8.410309357568622">
        <ele>1783.3800000000001</ele>
        <time>2016-12-04T10:30:00Z</time>
      </trkpt>
      <trkpt lat="46.377056250348687" lon="8.410292593762279">
        <ele>1783.8599999999999</ele>
        <time>2016-12-04T10:30:16Z</time>
      </trkpt>
      <trkpt lat="46.377052813768387" lon="8.410281110554934">
        <ele>1783.8599999999999</ele>
        <time>2016-12-04T10:30:25Z</time>
      </trkpt>
      <trkpt lat="46.377057507634163" lon="8.410247918218374">
        <ele>1783.3800000000001</ele>
        <time>2016-12-04T10:30:27Z</time>
      </trkpt>
      <trkpt lat="46.377040324732661" lon="8.41012503951788">
        <ele>1783.3800000000001</ele>
        <time>2016-12-04T10:30:36Z</time>
      </trkpt>
      <trkpt lat="46.377013586461544" lon="8.410018505528569">
        <ele>1784.3399999999999</ele>
        <time>2016-12-04T10:30:45Z</time>
      </trkpt>
      <trkpt lat="46.377039821818471" lon="8.409944660961628">
        <ele>1782.9000000000001</ele>
        <time>2016-12-04T10:30:51Z</time>
      </trkpt>
      <trkpt lat="46.377061447128654" lon="8.409880623221397">
        <ele>1783.3800000000001</ele>
        <time>2016-12-04T10:31:02Z</time>
      </trkpt>
      <trkpt lat="46.377070583403111" lon="8.409776855260134">
        <ele>1784.3399999999999</ele>
        <time>2016-12-04T10:31:11Z</time>
      </trkpt>
      <trkpt lat="46.377091035246849" lon="8.409651126712561">
        <ele>1784.3399999999999</ele>
        <time>2016-12-04T10:31:20Z</time>
      </trkpt>
      <trkpt lat="46.377104949206114" lon="8.409557333216071">
        <ele>1784.8199999999999</ele>
        <time>2016-12-04T10:31:29Z</time>
      </trkpt>
      <trkpt lat="46.377118863165379" lon="8.409490194171667">
        <ele>1785.3099999999999</ele>
        <time>2016-12-04T10:31:37Z</time>
      </trkpt>
      <trkpt lat="46.377117605879903" lon="8.409421881660819">
        <ele>1785.79</ele>
        <time>2016-12-04T10:31:47Z</time>
      </trkpt>
      <trkpt lat="46.377125820145011" lon="8.409366309642792">
        <ele>1786.27</ele>
        <time>2016-12-04T10:31:56Z</time>
      </trkpt>
      <trkpt lat="46.377149038016796" lon="8.409301936626434">
        <ele>1786.75</ele>
        <time>2016-12-04T10:32:05Z</time>
      </trkpt>
      <trkpt lat="46.377176363021135" lon="8.409169083461165">
        <ele>1788.1900000000001</ele>
        <time>2016-12-04T10:32:17Z</time>
      </trkpt>
      <trkpt lat="46.37720494531095" lon="8.409072021022439">
        <ele>1789.6300000000001</ele>
        <time>2016-12-04T10:32:29Z</time>
      </trkpt>
      <trkpt lat="46.377217937260866" lon="8.408997170627117">
        <ele>1790.5899999999999</ele>
        <time>2016-12-04T10:32:38Z</time>
      </trkpt>
      <trkpt lat="46.377239478752017" lon="8.408892983570695">
        <ele>1792.03</ele>
        <time>2016-12-04T10:32:47Z</time>
      </trkpt>
      <trkpt lat="46.377274012193084" lon="8.408827017992735">
        <ele>1793</ele>
        <time>2016-12-04T10:32:57Z</time>
      </trkpt>
      <trkpt lat="46.377282561734319" lon="8.408735822886229">
        <ele>1794.9200000000001</ele>
        <time>2016-12-04T10:33:08Z</time>
      </trkpt>
      <trkpt lat="46.377301001921296" lon="8.408611938357353">
        <ele>1796.3599999999999</ele>
        <time>2016-12-04T10:33:21Z</time>
      </trkpt>
      <trkpt lat="46.377314999699593" lon="8.408539183437824">
        <ele>1798.28</ele>
        <time>2016-12-04T10:33:33Z</time>
      </trkpt>
      <trkpt lat="46.377331931143999" lon="8.408477660268545">
        <ele>1799.73</ele>
        <time>2016-12-04T10:33:44Z</time>
      </trkpt>
      <trkpt lat="46.377324303612113" lon="8.408426027745009">
        <ele>1801.1700000000001</ele>
        <time>2016-12-04T10:33:57Z</time>
      </trkpt>
      <trkpt lat="46.377326147630811" lon="8.408327959477902">
        <ele>1803.0899999999999</ele>
        <time>2016-12-04T10:34:08Z</time>
      </trkpt>
      <trkpt lat="46.377334278076887" lon="8.408267945051193">
        <ele>1804.53</ele>
        <time>2016-12-04T10:34:17Z</time>
      </trkpt>
      <trkpt lat="46.377326818183064" lon="8.408222263678908">
        <ele>1805.97</ele>
        <time>2016-12-04T10:34:26Z</time>
      </trkpt>
      <trkpt lat="46.377330925315619" lon="8.408166356384754">
        <ele>1807.4200000000001</ele>
        <time>2016-12-04T10:34:36Z</time>
      </trkpt>
      <trkpt lat="46.377345845103264" lon="8.408071892336011">
        <ele>1810.78</ele>
        <time>2016-12-04T10:34:47Z</time>
      </trkpt>
      <trkpt lat="46.377380630001426" lon="8.407989498227835">
        <ele>1810.78</ele>
        <time>2016-12-04T10:34:58Z</time>
      </trkpt>
      <trkpt lat="46.377407452091575" lon="8.407888915389776">
        <ele>1813.1800000000001</ele>
        <time>2016-12-04T10:35:09Z</time>
      </trkpt>
      <trkpt lat="46.377427149564028" lon="8.40784608386457">
        <ele>1814.6300000000001</ele>
        <time>2016-12-04T10:35:20Z</time>
      </trkpt>
      <trkpt lat="46.377454223111272" lon="8.407756565138698">
        <ele>1816.55</ele>
        <time>2016-12-04T10:35:31Z</time>
      </trkpt>
      <trkpt lat="46.377479704096913" lon="8.407690348103643">
        <ele>1817.99</ele>
        <time>2016-12-04T10:35:41Z</time>
      </trkpt>
      <trkpt lat="46.377485571429133" lon="8.407584819942713">
        <ele>1819.9100000000001</ele>
        <time>2016-12-04T10:35:52Z</time>
      </trkpt>
      <trkpt lat="46.377482134848833" lon="8.407517177984119">
        <ele>1821.3499999999999</ele>
        <time>2016-12-04T10:36:02Z</time>
      </trkpt>
      <trkpt lat="46.377516500651836" lon="8.407441154122353">
        <ele>1823.28</ele>
        <time>2016-12-04T10:36:15Z</time>
      </trkpt>
      <trkpt lat="46.377520440146327" lon="8.407370997592807">
        <ele>1824.72</ele>
        <time>2016-12-04T10:36:25Z</time>
      </trkpt>
      <trkpt lat="46.377527816221118" lon="8.407342080026865">
        <ele>1825.2</ele>
        <time>2016-12-04T10:36:48Z</time>
      </trkpt>
      <trkpt lat="46.37753477320075" lon="8.407338308170438">
        <ele>1825.2</ele>
        <time>2016-12-04T10:37:06Z</time>
      </trkpt>
      <trkpt lat="46.377565702423453" lon="8.40724753215909">
        <ele>1826.6400000000001</ele>
        <time>2016-12-04T10:37:17Z</time>
      </trkpt>
      <trkpt lat="46.37760853394866" lon="8.407222721725702">
        <ele>1827.5999999999999</ele>
        <time>2016-12-04T10:37:26Z</time>
      </trkpt>
      <trkpt lat="46.377627057954669" lon="8.407362531870604">
        <ele>1829.53</ele>
        <time>2016-12-04T10:37:37Z</time>
      </trkpt>
      <trkpt lat="46.377657232806087" lon="8.407499240711331">
        <ele>1830.97</ele>
        <time>2016-12-04T10:37:49Z</time>
      </trkpt>
      <trkpt lat="46.377684725448489" lon="8.407574258744717">
        <ele>1831.9300000000001</ele>
        <time>2016-12-04T10:37:57Z</time>
      </trkpt>
      <trkpt lat="46.377702159807086" lon="8.407630082219839">
        <ele>1833.3699999999999</ele>
        <time>2016-12-04T10:38:08Z</time>
      </trkpt>
      <trkpt lat="46.377665949985385" lon="8.407586915418506">
        <ele>1832.8900000000001</ele>
        <time>2016-12-04T10:38:17Z</time>
      </trkpt>
      <trkpt lat="46.377656059339643" lon="8.40759638696909">
        <ele>1832.4100000000001</ele>
        <time>2016-12-04T10:38:30Z</time>
      </trkpt>
      <trkpt lat="46.377632590010762" lon="8.40756562538445">
        <ele>1832.8900000000001</ele>
        <time>2016-12-04T10:38:48Z</time>
      </trkpt>
      <trkpt lat="46.377636110410094" lon="8.407524051144719">
        <ele>1832.8900000000001</ele>
        <time>2016-12-04T10:39:09Z</time>
      </trkpt>
      <trkpt lat="46.377627896144986" lon="8.407598985359073">
        <ele>1832.8900000000001</ele>
        <time>2016-12-04T10:39:28Z</time>
      </trkpt>
      <trkpt lat="46.377637200057507" lon="8.407682469114661">
        <ele>1832.8900000000001</ele>
        <time>2016-12-04T10:39:48Z</time>
      </trkpt>
      <trkpt lat="46.377602247521281" lon="8.407608373090625">
        <ele>1833.8499999999999</ele>
        <time>2016-12-04T10:40:05Z</time>
      </trkpt>
      <trkpt lat="46.377601241692901" lon="8.407563278451562">
        <ele>1833.8499999999999</ele>
        <time>2016-12-04T10:40:14Z</time>
      </trkpt>
      <trkpt lat="46.377607192844152" lon="8.407528158277273">
        <ele>1834.3299999999999</ele>
        <time>2016-12-04T10:40:28Z</time>
      </trkpt>
      <trkpt lat="46.377612054347992" lon="8.407435035333037">
        <ele>1834.8099999999999</ele>
        <time>2016-12-04T10:40:38Z</time>
      </trkpt>
      <trkpt lat="46.377635607495904" lon="8.407350964844227">
        <ele>1836.26</ele>
        <time>2016-12-04T10:40:46Z</time>
      </trkpt>
      <trkpt lat="46.377673912793398" lon="8.407280389219523">
        <ele>1837.7</ele>
        <time>2016-12-04T10:40:55Z</time>
      </trkpt>
      <trkpt lat="46.377714900299907" lon="8.407203610986471">
        <ele>1839.6199999999999</ele>
        <time>2016-12-04T10:41:06Z</time>
      </trkpt>
      <trkpt lat="46.377750691026449" lon="8.407135214656591">
        <ele>1841.0599999999999</ele>
        <time>2016-12-04T10:41:17Z</time>
      </trkpt>
      <trkpt lat="46.377779608592391" lon="8.407007306814194">
        <ele>1843.47</ele>
        <time>2016-12-04T10:41:30Z</time>
      </trkpt>
      <trkpt lat="46.377781368792057" lon="8.406925247982144">
        <ele>1844.4300000000001</ele>
        <time>2016-12-04T10:41:41Z</time>
      </trkpt>
      <trkpt lat="46.377769885584712" lon="8.406849727034569">
        <ele>1846.3499999999999</ele>
        <time>2016-12-04T10:41:53Z</time>
      </trkpt>
      <trkpt lat="46.377740548923612" lon="8.406793903559446">
        <ele>1847.79</ele>
        <time>2016-12-04T10:42:03Z</time>
      </trkpt>
      <trkpt lat="46.377731328830123" lon="8.406863221898675">
        <ele>1848.27</ele>
        <time>2016-12-04T10:42:20Z</time>
      </trkpt>
      <trkpt lat="46.377731077373028" lon="8.406828939914703">
        <ele>1847.79</ele>
        <time>2016-12-04T10:42:24Z</time>
      </trkpt>
      <trkpt lat="46.377749852836132" lon="8.406690722331405">
        <ele>1849.71</ele>
        <time>2016-12-04T10:42:35Z</time>
      </trkpt>
      <trkpt lat="46.377773992717266" lon="8.406565580517054">
        <ele>1851.1600000000001</ele>
        <time>2016-12-04T10:42:45Z</time>
      </trkpt>
      <trkpt lat="46.377775417640805" lon="8.40651604346931">
        <ele>1852.5999999999999</ele>
        <time>2016-12-04T10:42:50Z</time>
      </trkpt>
      <trkpt lat="46.377766281366348" lon="8.406437672674656">
        <ele>1853.5599999999999</ele>
        <time>2016-12-04T10:43:01Z</time>
      </trkpt>
      <trkpt lat="46.377766951918602" lon="8.406341951340437">
        <ele>1855</ele>
        <time>2016-12-04T10:43:11Z</time>
      </trkpt>
      <trkpt lat="46.377775585278869" lon="8.406267436221242">
        <ele>1856.4400000000001</ele>
        <time>2016-12-04T10:43:21Z</time>
      </trkpt>
      <trkpt lat="46.377775333821774" lon="8.406184958294034">
        <ele>1857.8900000000001</ele>
        <time>2016-12-04T10:43:33Z</time>
      </trkpt>
      <trkpt lat="46.377783883363008" lon="8.406112957745791">
        <ele>1859.8099999999999</ele>
        <time>2016-12-04T10:43:43Z</time>
      </trkpt>
      <trkpt lat="46.377786062657833" lon="8.406110191717744">
        <ele>1860.29</ele>
        <time>2016-12-04T10:43:44Z</time>
      </trkpt>
      <trkpt lat="46.37778589501977" lon="8.40603961609304">
        <ele>1861.73</ele>
        <time>2016-12-04T10:43:54Z</time>
      </trkpt>
      <trkpt lat="46.37778346426785" lon="8.405945403501391">
        <ele>1863.1700000000001</ele>
        <time>2016-12-04T10:44:05Z</time>
      </trkpt>
      <trkpt lat="46.377794193103909" lon="8.405856052413583">
        <ele>1865.0899999999999</ele>
        <time>2016-12-04T10:44:18Z</time>
      </trkpt>
      <trkpt lat="46.377793019637465" lon="8.405743483453989">
        <ele>1866.0599999999999</ele>
        <time>2016-12-04T10:44:27Z</time>
      </trkpt>
      <trkpt lat="46.377787990495563" lon="8.405627394095063">
        <ele>1867.98</ele>
        <time>2016-12-04T10:44:41Z</time>
      </trkpt>
      <trkpt lat="46.377803413197398" lon="8.405556483194232">
        <ele>1869.9000000000001</ele>
        <time>2016-12-04T10:44:52Z</time>
      </trkpt>
      <trkpt lat="46.377805173397064" lon="8.405467886477709">
        <ele>1870.8599999999999</ele>
        <time>2016-12-04T10:45:03Z</time>
      </trkpt>
      <trkpt lat="46.377803413197398" lon="8.405388677492738">
        <ele>1871.8199999999999</ele>
        <time>2016-12-04T10:45:13Z</time>
      </trkpt>
      <trkpt lat="46.377807268872857" lon="8.405281137675047">
        <ele>1873.27</ele>
        <time>2016-12-04T10:45:24Z</time>
      </trkpt>
      <trkpt lat="46.377812465652823" lon="8.40517963282764">
        <ele>1874.71</ele>
        <time>2016-12-04T10:45:35Z</time>
      </trkpt>
      <trkpt lat="46.37779762968421" lon="8.405141243711114">
        <ele>1875.6700000000001</ele>
        <time>2016-12-04T10:45:45Z</time>
      </trkpt>
      <trkpt lat="46.377817075699568" lon="8.405043007805944">
        <ele>1877.1099999999999</ele>
        <time>2016-12-04T10:45:58Z</time>
      </trkpt>
      <trkpt lat="46.377826714888215" lon="8.405055245384574">
        <ele>1877.1099999999999</ele>
        <time>2016-12-04T10:46:08Z</time>
      </trkpt>
      <trkpt lat="46.377877425402403" lon="8.40504627674818">
        <ele>1877.5899999999999</ele>
        <time>2016-12-04T10:46:31Z</time>
      </trkpt>
      <trkpt lat="46.377916485071182" lon="8.405133113265038">
        <ele>1877.5899999999999</ele>
        <time>2016-12-04T10:46:42Z</time>
      </trkpt>
      <trkpt lat="46.37794766575098" lon="8.405230846256018">
        <ele>1878.55</ele>
        <time>2016-12-04T10:46:56Z</time>
      </trkpt>
      <trkpt lat="46.377948420122266" lon="8.405345510691404">
        <ele>1880.48</ele>
        <time>2016-12-04T10:47:10Z</time>
      </trkpt>
      <trkpt lat="46.377966525033116" lon="8.405424887314439">
        <ele>1882.4000000000001</ele>
        <time>2016-12-04T10:47:22Z</time>
      </trkpt>
      <trkpt lat="46.377986306324601" lon="8.405443411320448">
        <ele>1883.8399999999999</ele>
        <time>2016-12-04T10:47:31Z</time>
      </trkpt>
      <trkpt lat="46.377986976876855" lon="8.405339391902089">
        <ele>1884.8</ele>
        <time>2016-12-04T10:47:41Z</time>
      </trkpt>
      <trkpt lat="46.378004411235452" lon="8.405286250635982">
        <ele>1886.24</ele>
        <time>2016-12-04T10:47:51Z</time>
      </trkpt>
      <trkpt lat="46.377998543903232" lon="8.405164042487741">
        <ele>1887.21</ele>
        <time>2016-12-04T10:48:03Z</time>
      </trkpt>
      <trkpt lat="46.377999214455485" lon="8.405109727755189">
        <ele>1888.1700000000001</ele>
        <time>2016-12-04T10:48:12Z</time>
      </trkpt>
      <trkpt lat="46.377994772046804" lon="8.405123138800263">
        <ele>1888.6500000000001</ele>
        <time>2016-12-04T10:48:27Z</time>
      </trkpt>
      <trkpt lat="46.377996783703566" lon="8.405105704441667">
        <ele>1888.6500000000001</ele>
        <time>2016-12-04T10:48:46Z</time>
      </trkpt>
      <trkpt lat="46.378007093444467" lon="8.405019287019968">
        <ele>1889.6099999999999</ele>
        <time>2016-12-04T10:48:56Z</time>
      </trkpt>
      <trkpt lat="46.378009021282196" lon="8.404925493523479">
        <ele>1891.05</ele>
        <time>2016-12-04T10:49:06Z</time>
      </trkpt>
      <trkpt lat="46.378039866685867" lon="8.404818959534168">
        <ele>1892.49</ele>
        <time>2016-12-04T10:49:17Z</time>
      </trkpt>
      <trkpt lat="46.378040788695216" lon="8.404795154929161">
        <ele>1892.49</ele>
        <time>2016-12-04T10:49:19Z</time>
      </trkpt>
      <trkpt lat="46.378049673512578" lon="8.404686357825995">
        <ele>1892.97</ele>
        <time>2016-12-04T10:49:29Z</time>
      </trkpt>
      <trkpt lat="46.378064006567001" lon="8.404595078900456">
        <ele>1894.4200000000001</ele>
        <time>2016-12-04T10:49:38Z</time>
      </trkpt>
      <trkpt lat="46.378043387085199" lon="8.404553169384599">
        <ele>1895.8599999999999</ele>
        <time>2016-12-04T10:49:48Z</time>
      </trkpt>
      <trkpt lat="46.378006925806403" lon="8.404516205191612">
        <ele>1896.3399999999999</ele>
        <time>2016-12-04T10:50:01Z</time>
      </trkpt>
      <trkpt lat="46.377974152565002" lon="8.404472284018993">
        <ele>1898.26</ele>
        <time>2016-12-04T10:50:12Z</time>
      </trkpt>
      <trkpt lat="46.377932578325272" lon="8.404429368674755">
        <ele>1899.7</ele>
        <time>2016-12-04T10:50:24Z</time>
      </trkpt>
      <trkpt lat="46.377933835610747" lon="8.404361978173256">
        <ele>1901.1400000000001</ele>
        <time>2016-12-04T10:50:35Z</time>
      </trkpt>
      <trkpt lat="46.377927381545305" lon="8.404334653168917">
        <ele>1901.6300000000001</ele>
        <time>2016-12-04T10:50:41Z</time>
      </trkpt>
      <trkpt lat="46.377908103168011" lon="8.404274806380272">
        <ele>1901.6300000000001</ele>
        <time>2016-12-04T10:50:52Z</time>
      </trkpt>
      <trkpt lat="46.377920424565673" lon="8.404252845793963">
        <ele>1901.6300000000001</ele>
        <time>2016-12-04T10:51:04Z</time>
      </trkpt>
      <trkpt lat="46.377911036834121" lon="8.404249493032694">
        <ele>1901.6300000000001</ele>
        <time>2016-12-04T10:51:09Z</time>
      </trkpt>
      <trkpt lat="46.377910785377026" lon="8.404135080054402">
        <ele>1901.1400000000001</ele>
        <time>2016-12-04T10:51:20Z</time>
      </trkpt>
      <trkpt lat="46.377915563061833" lon="8.404006753116846">
        <ele>1900.1800000000001</ele>
        <time>2016-12-04T10:51:31Z</time>
      </trkpt>
      <trkpt lat="46.377912294119596" lon="8.403876163065434">
        <ele>1900.1800000000001</ele>
        <time>2016-12-04T10:51:41Z</time>
      </trkpt>
      <trkpt lat="46.377908019348979" lon="8.403766695410013">
        <ele>1899.7</ele>
        <time>2016-12-04T10:51:51Z</time>
      </trkpt>
      <trkpt lat="46.377910450100899" lon="8.403669716790319">
        <ele>1899.7</ele>
        <time>2016-12-04T10:52:00Z</time>
      </trkpt>
      <trkpt lat="46.377893351018429" lon="8.403578354045749">
        <ele>1898.74</ele>
        <time>2016-12-04T10:52:11Z</time>
      </trkpt>
      <trkpt lat="46.377904079854488" lon="8.403620263561606">
        <ele>1899.22</ele>
        <time>2016-12-04T10:52:26Z</time>
      </trkpt>
      <trkpt lat="46.377906929701567" lon="8.403603499755263">
        <ele>1899.22</ele>
        <time>2016-12-04T10:52:40Z</time>
      </trkpt>
      <trkpt lat="46.377915814518929" lon="8.403536528348923">
        <ele>1899.22</ele>
        <time>2016-12-04T10:52:48Z</time>
      </trkpt>
      <trkpt lat="46.377920005470514" lon="8.403524123132229">
        <ele>1899.22</ele>
        <time>2016-12-04T10:52:50Z</time>
      </trkpt>
      <trkpt lat="46.377899385988712" lon="8.403433598577976">
        <ele>1899.22</ele>
        <time>2016-12-04T10:52:59Z</time>
      </trkpt>
      <trkpt lat="46.377926794812083" lon="8.403443656861782">
        <ele>1899.22</ele>
        <time>2016-12-04T10:53:11Z</time>
      </trkpt>
      <trkpt lat="46.377916149795055" lon="8.403509957715869">
        <ele>1898.74</ele>
        <time>2016-12-04T10:53:20Z</time>
      </trkpt>
      <trkpt lat="46.377936098724604" lon="8.403667705133557">
        <ele>1898.74</ele>
        <time>2016-12-04T10:53:31Z</time>
      </trkpt>
      <trkpt lat="46.377945318818092" lon="8.403744734823704">
        <ele>1899.22</ele>
        <time>2016-12-04T10:53:40Z</time>
      </trkpt>
      <trkpt lat="46.377944564446807" lon="8.403833080083132">
        <ele>1899.7</ele>
        <time>2016-12-04T10:53:50Z</time>
      </trkpt>
      <trkpt lat="46.377924280241132" lon="8.403840288519859">
        <ele>1899.7</ele>
        <time>2016-12-04T10:53:59Z</time>
      </trkpt>
      <trkpt lat="46.377943474799395" lon="8.403848670423031">
        <ele>1899.7</ele>
        <time>2016-12-04T10:54:12Z</time>
      </trkpt>
      <trkpt lat="46.377940373495221" lon="8.403952773660421">
        <ele>1899.7</ele>
        <time>2016-12-04T10:54:22Z</time>
      </trkpt>
      <trkpt lat="46.377943055704236" lon="8.404119238257408">
        <ele>1899.7</ele>
        <time>2016-12-04T10:54:34Z</time>
      </trkpt>
      <trkpt lat="46.377948587760329" lon="8.404234405606985">
        <ele>1900.6600000000001</ele>
        <time>2016-12-04T10:54:45Z</time>
      </trkpt>
      <trkpt lat="46.377980103716254" lon="8.404305232688785">
        <ele>1901.6300000000001</ele>
        <time>2016-12-04T10:54:56Z</time>
      </trkpt>
      <trkpt lat="46.377989491447806" lon="8.404236165806651">
        <ele>1902.1099999999999</ele>
        <time>2016-12-04T10:55:12Z</time>
      </trkpt>
      <trkpt lat="46.377975074574351" lon="8.404161566868424">
        <ele>1903.0699999999999</ele>
        <time>2016-12-04T10:55:20Z</time>
      </trkpt>
      <trkpt lat="46.377984881401062" lon="8.404091075062752">
        <ele>1904.51</ele>
        <time>2016-12-04T10:55:29Z</time>
      </trkpt>
      <trkpt lat="46.378003321588039" lon="8.40404262766242">
        <ele>1905.47</ele>
        <time>2016-12-04T10:55:38Z</time>
      </trkpt>
      <trkpt lat="46.378008769825101" lon="8.403989402577281">
        <ele>1906.9100000000001</ele>
        <time>2016-12-04T10:55:49Z</time>
      </trkpt>
      <trkpt lat="46.378027042374015" lon="8.403942547738552">
        <ele>1907.8699999999999</ele>
        <time>2016-12-04T10:55:59Z</time>
      </trkpt>
      <trkpt lat="46.378043722361326" lon="8.403884377330542">
        <ele>1909.3199999999999</ele>
        <time>2016-12-04T10:56:11Z</time>
      </trkpt>
      <trkpt lat="46.378063000738621" lon="8.403805419802666">
        <ele>1910.76</ele>
        <time>2016-12-04T10:56:21Z</time>
      </trkpt>
      <trkpt lat="46.378063755109906" lon="8.403739202767611">
        <ele>1911.72</ele>
        <time>2016-12-04T10:56:29Z</time>
      </trkpt>
      <trkpt lat="46.378060737624764" lon="8.403693437576294">
        <ele>1913.1600000000001</ele>
        <time>2016-12-04T10:56:38Z</time>
      </trkpt>
      <trkpt lat="46.378070628270507" lon="8.403644990175962">
        <ele>1914.5999999999999</ele>
        <time>2016-12-04T10:56:48Z</time>
      </trkpt>
      <trkpt lat="46.378114046528935" lon="8.403634093701839">
        <ele>1916.53</ele>
        <time>2016-12-04T10:56:58Z</time>
      </trkpt>
      <trkpt lat="46.378200966864824" lon="8.40376703068614">
        <ele>1917.97</ele>
        <time>2016-12-04T10:57:11Z</time>
      </trkpt>
      <trkpt lat="46.378230471163988" lon="8.403865182772279">
        <ele>1918.9300000000001</ele>
        <time>2016-12-04T10:57:22Z</time>
      </trkpt>
      <trkpt lat="46.378251928836107" lon="8.403951935470104">
        <ele>1920.3699999999999</ele>
        <time>2016-12-04T10:57:34Z</time>
      </trkpt>
      <trkpt lat="46.378298113122582" lon="8.404001304879785">
        <ele>1922.29</ele>
        <time>2016-12-04T10:57:47Z</time>
      </trkpt>
      <trkpt lat="46.378338346257806" lon="8.404033659026027">
        <ele>1923.74</ele>
        <time>2016-12-04T10:58:00Z</time>
      </trkpt>
      <trkpt lat="46.378387967124581" lon="8.404067857190967">
        <ele>1925.1800000000001</ele>
        <time>2016-12-04T10:58:13Z</time>
      </trkpt>
      <trkpt lat="46.378432139754295" lon="8.404063833877444">
        <ele>1926.1400000000001</ele>
        <time>2016-12-04T10:58:24Z</time>
      </trkpt>
      <trkpt lat="46.3784543517977" lon="8.404053943231702">
        <ele>1927.0999999999999</ele>
        <time>2016-12-04T10:58:33Z</time>
      </trkpt>
      <trkpt lat="46.378468265756965" lon="8.404012620449066">
        <ele>1928.54</ele>
        <time>2016-12-04T10:58:43Z</time>
      </trkpt>
      <trkpt lat="46.378444964066148" lon="8.403972974047065">
        <ele>1929.5</ele>
        <time>2016-12-04T10:58:52Z</time>
      </trkpt>
      <trkpt lat="46.378444209694862" lon="8.403919413685799">
        <ele>1930.46</ele>
        <time>2016-12-04T10:59:01Z</time>
      </trkpt>
      <trkpt lat="46.378437168896198" lon="8.403843222185969">
        <ele>1931.4300000000001</ele>
        <time>2016-12-04T10:59:10Z</time>
      </trkpt>
      <trkpt lat="46.378459297120571" lon="8.403788488358259">
        <ele>1932.3900000000001</ele>
        <time>2016-12-04T10:59:21Z</time>
      </trkpt>
      <trkpt lat="46.378473462536931" lon="8.403731659054756">
        <ele>1932.8699999999999</ele>
        <time>2016-12-04T10:59:36Z</time>
      </trkpt>
      <trkpt lat="46.378489388152957" lon="8.403689414262772">
        <ele>1933.3499999999999</ele>
        <time>2016-12-04T10:59:51Z</time>
      </trkpt>
      <trkpt lat="46.378531297668815" lon="8.403651779517531">
        <ele>1934.79</ele>
        <time>2016-12-04T11:00:00Z</time>
      </trkpt>
      <trkpt lat="46.378556443378329" lon="8.403632584959269">
        <ele>1935.75</ele>
        <time>2016-12-04T11:00:11Z</time>
      </trkpt>
      <trkpt lat="46.378598185256124" lon="8.403559075668454">
        <ele>1937.1900000000001</ele>
        <time>2016-12-04T11:00:23Z</time>
      </trkpt>
      <trkpt lat="46.378638921305537" lon="8.403494786471129">
        <ele>1939.1199999999999</ele>
        <time>2016-12-04T11:00:33Z</time>
      </trkpt>
      <trkpt lat="46.37868451885879" lon="8.403432928025723">
        <ele>1940.5599999999999</ele>
        <time>2016-12-04T11:00:45Z</time>
      </trkpt>
      <trkpt lat="46.378688542172313" lon="8.403387414291501">
        <ele>1941.04</ele>
        <time>2016-12-04T11:00:57Z</time>
      </trkpt>
      <trkpt lat="46.37872600927949" lon="8.403346259146929">
        <ele>1942</ele>
        <time>2016-12-04T11:01:09Z</time>
      </trkpt>
      <trkpt lat="46.378781078383327" lon="8.403318766504526">
        <ele>1943.4400000000001</ele>
        <time>2016-12-04T11:01:21Z</time>
      </trkpt>
      <trkpt lat="46.378828687593341" lon="8.403246598318219">
        <ele>1945.3599999999999</ele>
        <time>2016-12-04T11:01:34Z</time>
      </trkpt>
      <trkpt lat="46.378893814980984" lon="8.403184907510877">
        <ele>1947.29</ele>
        <time>2016-12-04T11:01:48Z</time>
      </trkpt>
      <trkpt lat="46.378936981782317" lon="8.40312983840704">
        <ele>1948.73</ele>
        <time>2016-12-04T11:01:59Z</time>
      </trkpt>
      <trkpt lat="46.378977298736572" lon="8.403072925284505">
        <ele>1950.1700000000001</ele>
        <time>2016-12-04T11:02:10Z</time>
      </trkpt>
      <trkpt lat="46.379017783328891" lon="8.402990866452456">
        <ele>1951.6099999999999</ele>
        <time>2016-12-04T11:02:22Z</time>
      </trkpt>
      <trkpt lat="46.379088861867785" lon="8.40301257558167">
        <ele>1952.5699999999999</ele>
        <time>2016-12-04T11:02:32Z</time>
      </trkpt>
      <trkpt lat="46.379110738635063" lon="8.40311860665679">
        <ele>1954.02</ele>
        <time>2016-12-04T11:02:43Z</time>
      </trkpt>
      <trkpt lat="46.379092298448086" lon="8.403186583891511">
        <ele>1954.98</ele>
        <time>2016-12-04T11:02:56Z</time>
      </trkpt>
      <trkpt lat="46.379058938473463" lon="8.403276773169637">
        <ele>1956.4200000000001</ele>
        <time>2016-12-04T11:03:07Z</time>
      </trkpt>
      <trkpt lat="46.379067655652761" lon="8.403350533917546">
        <ele>1958.3399999999999</ele>
        <time>2016-12-04T11:03:20Z</time>
      </trkpt>
      <trkpt lat="46.379081904888153" lon="8.40337953530252">
        <ele>1959.3</ele>
        <time>2016-12-04T11:03:32Z</time>
      </trkpt>
      <trkpt lat="46.379075450822711" lon="8.403353383764625">
        <ele>1958.3399999999999</ele>
        <time>2016-12-04T11:03:43Z</time>
      </trkpt>
      <trkpt lat="46.379072517156601" lon="8.403372410684824">
        <ele>1958.3399999999999</ele>
        <time>2016-12-04T11:03:58Z</time>
      </trkpt>
      <trkpt lat="46.37908517383039" lon="8.403334189206362">
        <ele>1958.3399999999999</ele>
        <time>2016-12-04T11:04:17Z</time>
      </trkpt>
      <trkpt lat="46.3790915440768" lon="8.40336830355227">
        <ele>1958.3399999999999</ele>
        <time>2016-12-04T11:04:45Z</time>
      </trkpt>
      <trkpt lat="46.379064973443747" lon="8.403339302167296">
        <ele>1958.8199999999999</ele>
        <time>2016-12-04T11:05:12Z</time>
      </trkpt>
      <trkpt lat="46.379077965393662" lon="8.403362017124891">
        <ele>1958.8199999999999</ele>
        <time>2016-12-04T11:05:37Z</time>
      </trkpt>
      <trkpt lat="46.379039073362947" lon="8.403326226398349">
        <ele>1958.8199999999999</ele>
        <time>2016-12-04T11:06:05Z</time>
      </trkpt>
      <trkpt lat="46.379020549356937" lon="8.403290435671806">
        <ele>1959.3</ele>
        <time>2016-12-04T11:06:27Z</time>
      </trkpt>
      <trkpt lat="46.379015184938908" lon="8.403268894180656">
        <ele>1958.8199999999999</ele>
        <time>2016-12-04T11:06:45Z</time>
      </trkpt>
      <trkpt lat="46.378998253494501" lon="8.403262440115213">
        <ele>1959.3</ele>
        <time>2016-12-04T11:06:59Z</time>
      </trkpt>
      <trkpt lat="46.378962714225054" lon="8.403235450387001">
        <ele>1959.3</ele>
        <time>2016-12-04T11:07:23Z</time>
      </trkpt>
      <trkpt lat="46.379003114998341" lon="8.403256069868803">
        <ele>1959.3</ele>
        <time>2016-12-04T11:07:46Z</time>
      </trkpt>
      <trkpt lat="46.379048461094499" lon="8.403272330760956">
        <ele>1959.78</ele>
        <time>2016-12-04T11:08:04Z</time>
      </trkpt>
      <trkpt lat="46.379090370610356" lon="8.403330920264125">
        <ele>1959.78</ele>
        <time>2016-12-04T11:08:18Z</time>
      </trkpt>
      <trkpt lat="46.379068996757269" lon="8.403341313824058">
        <ele>1959.78</ele>
        <time>2016-12-04T11:08:33Z</time>
      </trkpt>
      <trkpt lat="46.379103781655431" lon="8.403332261368632">
        <ele>1959.78</ele>
        <time>2016-12-04T11:08:55Z</time>
      </trkpt>
      <trkpt lat="46.379073690623045" lon="8.403318012133241">
        <ele>1960.27</ele>
        <time>2016-12-04T11:09:17Z</time>
      </trkpt>
      <trkpt lat="46.379087939858437" lon="8.403308792039752">
        <ele>1960.27</ele>
        <time>2016-12-04T11:09:40Z</time>
      </trkpt>
      <trkpt lat="46.379108894616365" lon="8.403351875022054">
        <ele>1960.27</ele>
        <time>2016-12-04T11:10:07Z</time>
      </trkpt>
      <trkpt lat="46.379111493006349" lon="8.403375679627061">
        <ele>1960.75</ele>
        <time>2016-12-04T11:10:31Z</time>
      </trkpt>
      <trkpt lat="46.379120880737901" lon="8.403371823951602">
        <ele>1960.75</ele>
        <time>2016-12-04T11:10:55Z</time>
      </trkpt>
      <trkpt lat="46.379106128588319" lon="8.403344415128231">
        <ele>1961.71</ele>
        <time>2016-12-04T11:11:06Z</time>
      </trkpt>
      <trkpt lat="46.379085509106517" lon="8.403358915820718">
        <ele>1961.71</ele>
        <time>2016-12-04T11:11:14Z</time>
      </trkpt>
      <trkpt lat="46.37908031232655" lon="8.403386492282152">
        <ele>1961.71</ele>
        <time>2016-12-04T11:11:32Z</time>
      </trkpt>
      <trkpt lat="46.379101350903511" lon="8.403366040438414">
        <ele>1962.1900000000001</ele>
        <time>2016-12-04T11:11:45Z</time>
      </trkpt>
      <trkpt lat="46.379094813019037" lon="8.403359670192003">
        <ele>1961.71</ele>
        <time>2016-12-04T11:11:56Z</time>
      </trkpt>
      <trkpt lat="46.379116270691156" lon="8.403381714597344">
        <ele>1962.1900000000001</ele>
        <time>2016-12-04T11:12:07Z</time>
      </trkpt>
      <trkpt lat="46.379074277356267" lon="8.403452960774303">
        <ele>1962.1900000000001</ele>
        <time>2016-12-04T11:12:20Z</time>
      </trkpt>
      <trkpt lat="46.37908274307847" lon="8.403400825336576">
        <ele>1962.6700000000001</ele>
        <time>2016-12-04T11:12:29Z</time>
      </trkpt>
      <trkpt lat="46.379095735028386" lon="8.403363861143589">
        <ele>1962.6700000000001</ele>
        <time>2016-12-04T11:12:39Z</time>
      </trkpt>
      <trkpt lat="46.379115013405681" lon="8.403329662978649">
        <ele>1962.6700000000001</ele>
        <time>2016-12-04T11:12:54Z</time>
      </trkpt>
      <trkpt lat="46.37912280857563" lon="8.403354892507196">
        <ele>1962.1900000000001</ele>
        <time>2016-12-04T11:13:07Z</time>
      </trkpt>
      <trkpt lat="46.379164466634393" lon="8.403389509767294">
        <ele>1964.1099999999999</ele>
        <time>2016-12-04T11:13:18Z</time>
      </trkpt>
      <trkpt lat="46.379229007288814" lon="8.403374003246427">
        <ele>1966.03</ele>
        <time>2016-12-04T11:13:28Z</time>
      </trkpt>
      <trkpt lat="46.379289524629712" lon="8.403380373492837">
        <ele>1967.96</ele>
        <time>2016-12-04T11:13:38Z</time>
      </trkpt>
      <trkpt lat="46.379340486600995" lon="8.403343241661787">
        <ele>1968.9200000000001</ele>
        <time>2016-12-04T11:13:48Z</time>
      </trkpt>
      <trkpt lat="46.379356412217021" lon="8.403334943577647">
        <ele>1969.4000000000001</ele>
        <time>2016-12-04T11:13:50Z</time>
      </trkpt>
      <trkpt lat="46.379375103861094" lon="8.403307031840086">
        <ele>1969.8800000000001</ele>
        <time>2016-12-04T11:14:01Z</time>
      </trkpt>
      <trkpt lat="46.3794438354671" lon="8.403271744027734">
        <ele>1970.3599999999999</ele>
        <time>2016-12-04T11:14:11Z</time>
      </trkpt>
      <trkpt lat="46.379511225968599" lon="8.403206449002028">
        <ele>1972.28</ele>
        <time>2016-12-04T11:14:23Z</time>
      </trkpt>
      <trkpt lat="46.379571659490466" lon="8.403145596385002">
        <ele>1972.76</ele>
        <time>2016-12-04T11:14:33Z</time>
      </trkpt>
      <trkpt lat="46.379605187103152" lon="8.403092538937926">
        <ele>1973.72</ele>
        <time>2016-12-04T11:14:41Z</time>
      </trkpt>
      <trkpt lat="46.379652796313167" lon="8.403029423207045">
        <ele>1974.6900000000001</ele>
        <time>2016-12-04T11:14:53Z</time>
      </trkpt>
      <trkpt lat="46.379669224843383" lon="8.402973432093859">
        <ele>1974.6900000000001</ele>
        <time>2016-12-04T11:15:03Z</time>
      </trkpt>
      <trkpt lat="46.37967936694622" lon="8.402961613610387">
        <ele>1975.1700000000001</ele>
        <time>2016-12-04T11:15:17Z</time>
      </trkpt>
      <trkpt lat="46.379708619788289" lon="8.402873687446117">
        <ele>1975.6500000000001</ele>
        <time>2016-12-04T11:15:28Z</time>
      </trkpt>
      <trkpt lat="46.379745081067085" lon="8.402798837050796">
        <ele>1976.1300000000001</ele>
        <time>2016-12-04T11:15:37Z</time>
      </trkpt>
      <trkpt lat="46.37979662977159" lon="8.402711329981685">
        <ele>1977.0899999999999</ele>
        <time>2016-12-04T11:15:48Z</time>
      </trkpt>
      <trkpt lat="46.379828061908484" lon="8.402653746306896">
        <ele>1977.5699999999999</ele>
        <time>2016-12-04T11:15:55Z</time>
      </trkpt>
      <trkpt lat="46.379869887605309" lon="8.402565568685532">
        <ele>1977.5699999999999</ele>
        <time>2016-12-04T11:16:05Z</time>
      </trkpt>
      <trkpt lat="46.379902241751552" lon="8.402462555095553">
        <ele>1977.0899999999999</ele>
        <time>2016-12-04T11:16:19Z</time>
      </trkpt>
      <trkpt lat="46.379934512078762" lon="8.402330707758665">
        <ele>1977.5699999999999</ele>
        <time>2016-12-04T11:16:31Z</time>
      </trkpt>
      <trkpt lat="46.37992168776691" lon="8.402262395247817">
        <ele>1978.05</ele>
        <time>2016-12-04T11:16:41Z</time>
      </trkpt>
      <trkpt lat="46.379919843748212" lon="8.402246553450823">
        <ele>1978.05</ele>
        <time>2016-12-04T11:16:53Z</time>
      </trkpt>
      <trkpt lat="46.379919843748212" lon="8.40211839415133">
        <ele>1978.05</ele>
        <time>2016-12-04T11:17:03Z</time>
      </trkpt>
      <trkpt lat="46.379921771585941" lon="8.401986630633473">
        <ele>1978.05</ele>
        <time>2016-12-04T11:17:13Z</time>
      </trkpt>
      <trkpt lat="46.379924537613988" lon="8.401849586516619">
        <ele>1978.05</ele>
        <time>2016-12-04T11:17:23Z</time>
      </trkpt>
      <trkpt lat="46.379943145439029" lon="8.401714637875557">
        <ele>1978.53</ele>
        <time>2016-12-04T11:17:33Z</time>
      </trkpt>
      <trkpt lat="46.379990335553885" lon="8.401566864922643">
        <ele>1979.97</ele>
        <time>2016-12-04T11:17:45Z</time>
      </trkpt>
      <trkpt lat="46.379999304190278" lon="8.401493271812797">
        <ele>1980.45</ele>
        <time>2016-12-04T11:17:51Z</time>
      </trkpt>
      <trkpt lat="46.380011038854718" lon="8.401345331221819">
        <ele>1980.9300000000001</ele>
        <time>2016-12-04T11:18:03Z</time>
      </trkpt>
      <trkpt lat="46.380016151815653" lon="8.401271486654878">
        <ele>1981.4100000000001</ele>
        <time>2016-12-04T11:18:08Z</time>
      </trkpt>
      <trkpt lat="46.380027132108808" lon="8.401138549670577">
        <ele>1981.9000000000001</ele>
        <time>2016-12-04T11:18:18Z</time>
      </trkpt>
      <trkpt lat="46.380034843459725" lon="8.401023801416159">
        <ele>1982.3800000000001</ele>
        <time>2016-12-04T11:18:26Z</time>
      </trkpt>
      <trkpt lat="46.380056636407971" lon="8.400965463370085">
        <ele>1982.3800000000001</ele>
        <time>2016-12-04T11:18:31Z</time>
      </trkpt>
      <trkpt lat="46.38008052483201" lon="8.400885667651892">
        <ele>1982.3800000000001</ele>
        <time>2016-12-04T11:18:37Z</time>
      </trkpt>
      <trkpt lat="46.38006828725338" lon="8.400761866942048">
        <ele>1982.8599999999999</ele>
        <time>2016-12-04T11:18:48Z</time>
      </trkpt>
      <trkpt lat="46.380059821531177" lon="8.40064762160182">
        <ele>1983.8199999999999</ele>
        <time>2016-12-04T11:18:58Z</time>
      </trkpt>
      <trkpt lat="46.380058983340859" lon="8.400522563606501">
        <ele>1984.3</ele>
        <time>2016-12-04T11:19:08Z</time>
      </trkpt>
      <trkpt lat="46.380061330273747" lon="8.400466488674283">
        <ele>1984.3</ele>
        <time>2016-12-04T11:19:17Z</time>
      </trkpt>
      <trkpt lat="46.380080357193947" lon="8.400394739583135">
        <ele>1985.26</ele>
        <time>2016-12-04T11:19:27Z</time>
      </trkpt>
      <trkpt lat="46.380095109343529" lon="8.400280242785811">
        <ele>1986.7</ele>
        <time>2016-12-04T11:19:38Z</time>
      </trkpt>
      <trkpt lat="46.380102233961225" lon="8.400281500071287">
        <ele>1985.74</ele>
        <time>2016-12-04T11:19:46Z</time>
      </trkpt>
      <trkpt lat="46.380092343315482" lon="8.400274710729718">
        <ele>1985.74</ele>
        <time>2016-12-04T11:19:55Z</time>
      </trkpt>
      <trkpt lat="46.38008882291615" lon="8.400222407653928">
        <ele>1986.7</ele>
        <time>2016-12-04T11:20:07Z</time>
      </trkpt>
      <trkpt lat="46.38009175658226" lon="8.400133475661278">
        <ele>1988.1400000000001</ele>
        <time>2016-12-04T11:20:17Z</time>
      </trkpt>
      <trkpt lat="46.38010055758059" lon="8.400027947500348">
        <ele>1989.0999999999999</ele>
        <time>2016-12-04T11:20:26Z</time>
      </trkpt>
      <trkpt lat="46.380102820694447" lon="8.399985283613205">
        <ele>1989.5899999999999</ele>
        <time>2016-12-04T11:20:31Z</time>
      </trkpt>
      <trkpt lat="46.380118997767568" lon="8.399878246709704">
        <ele>1991.51</ele>
        <time>2016-12-04T11:20:41Z</time>
      </trkpt>
      <trkpt lat="46.380123188719153" lon="8.399762157350779">
        <ele>1992.95</ele>
        <time>2016-12-04T11:20:54Z</time>
      </trkpt>
      <trkpt lat="46.380135174840689" lon="8.399756290018559">
        <ele>1992.95</ele>
        <time>2016-12-04T11:21:05Z</time>
      </trkpt>
      <trkpt lat="46.380167109891772" lon="8.399654952809215">
        <ele>1994.8699999999999</ele>
        <time>2016-12-04T11:21:16Z</time>
      </trkpt>
      <trkpt lat="46.38017532415688" lon="8.399642296135426">
        <ele>1994.8699999999999</ele>
        <time>2016-12-04T11:21:26Z</time>
      </trkpt>
      <trkpt lat="46.380168870091438" lon="8.399654617533088">
        <ele>1995.3499999999999</ele>
        <time>2016-12-04T11:21:29Z</time>
      </trkpt>
      <trkpt lat="46.380187645554543" lon="8.39967330917716">
        <ele>1994.3900000000001</ele>
        <time>2016-12-04T11:21:38Z</time>
      </trkpt>
      <trkpt lat="46.38020851649344" lon="8.399659479036927">
        <ele>1993.9100000000001</ele>
        <time>2016-12-04T11:21:51Z</time>
      </trkpt>
      <trkpt lat="46.380183957517147" lon="8.399655455723405">
        <ele>1994.8699999999999</ele>
        <time>2016-12-04T11:21:59Z</time>
      </trkpt>
      <trkpt lat="46.380168115720153" lon="8.399659395217896">
        <ele>1995.3499999999999</ele>
        <time>2016-12-04T11:22:15Z</time>
      </trkpt>
      <trkpt lat="46.380180604755878" lon="8.399620167911053">
        <ele>1995.3499999999999</ele>
        <time>2016-12-04T11:22:25Z</time>
      </trkpt>
      <trkpt lat="46.380192842334509" lon="8.399588400498033">
        <ele>1995.8299999999999</ele>
        <time>2016-12-04T11:22:29Z</time>
      </trkpt>
      <trkpt lat="46.380214216187596" lon="8.399479771032929">
        <ele>1997.28</ele>
        <time>2016-12-04T11:22:40Z</time>
      </trkpt>
      <trkpt lat="46.380236931145191" lon="8.399380696937442">
        <ele>1999.2</ele>
        <time>2016-12-04T11:22:50Z</time>
      </trkpt>
      <trkpt lat="46.380240116268396" lon="8.399267205968499">
        <ele>2001.1199999999999</ele>
        <time>2016-12-04T11:23:02Z</time>
      </trkpt>
      <trkpt lat="46.380263334140182" lon="8.399176513776183">
        <ele>2002.0799999999999</ele>
        <time>2016-12-04T11:23:12Z</time>
      </trkpt>
      <trkpt lat="46.380291245877743" lon="8.399045839905739">
        <ele>2001.5999999999999</ele>
        <time>2016-12-04T11:23:23Z</time>
      </trkpt>
      <trkpt lat="46.380289318040013" lon="8.398917177692056">
        <ele>2001.1199999999999</ele>
        <time>2016-12-04T11:23:34Z</time>
      </trkpt>
      <trkpt lat="46.380277164280415" lon="8.398873340338469">
        <ele>2001.1199999999999</ele>
        <time>2016-12-04T11:23:38Z</time>
      </trkpt>
      <trkpt lat="46.380274649709463" lon="8.398760771378875">
        <ele>2000.6400000000001</ele>
        <time>2016-12-04T11:23:49Z</time>
      </trkpt>
      <trkpt lat="46.380276745185256" lon="8.39863445609808">
        <ele>2000.6400000000001</ele>
        <time>2016-12-04T11:23:59Z</time>
      </trkpt>
      <trkpt lat="46.380270877853036" lon="8.398517780005932">
        <ele>2001.1199999999999</ele>
        <time>2016-12-04T11:24:09Z</time>
      </trkpt>
      <trkpt lat="46.380259143188596" lon="8.398386016488075">
        <ele>2001.1199999999999</ele>
        <time>2016-12-04T11:24:20Z</time>
      </trkpt>
      <trkpt lat="46.380267860367894" lon="8.398245116695762">
        <ele>2001.1199999999999</ele>
        <time>2016-12-04T11:24:31Z</time>
      </trkpt>
      <trkpt lat="46.380286049097776" lon="8.398101534694433">
        <ele>2001.5999999999999</ele>
        <time>2016-12-04T11:24:43Z</time>
      </trkpt>
      <trkpt lat="46.380325360223651" lon="8.397973459213972">
        <ele>2002.0799999999999</ele>
        <time>2016-12-04T11:24:55Z</time>
      </trkpt>
      <trkpt lat="46.380352014675736" lon="8.397861728444696">
        <ele>2003.04</ele>
        <time>2016-12-04T11:25:04Z</time>
      </trkpt>
      <trkpt lat="46.380358971655369" lon="8.397744214162231">
        <ele>2003.52</ele>
        <time>2016-12-04T11:25:14Z</time>
      </trkpt>
      <trkpt lat="46.380340531468391" lon="8.397622006013989">
        <ele>2004.49</ele>
        <time>2016-12-04T11:25:26Z</time>
      </trkpt>
      <trkpt lat="46.380324186757207" lon="8.397470209747553">
        <ele>2004.97</ele>
        <time>2016-12-04T11:25:39Z</time>
      </trkpt>
      <trkpt lat="46.38032678514719" lon="8.397351438179612">
        <ele>2004.49</ele>
        <time>2016-12-04T11:25:48Z</time>
      </trkpt>
      <trkpt lat="46.380361318588257" lon="8.397234342992306">
        <ele>2005.45</ele>
        <time>2016-12-04T11:25:59Z</time>
      </trkpt>
      <trkpt lat="46.380360731855035" lon="8.397150943055749">
        <ele>2005.9300000000001</ele>
        <time>2016-12-04T11:26:06Z</time>
      </trkpt>
      <trkpt lat="46.380360228940845" lon="8.39701465331018">
        <ele>2006.4100000000001</ele>
        <time>2016-12-04T11:26:18Z</time>
      </trkpt>
      <trkpt lat="46.380382860079408" lon="8.396881883963943">
        <ele>2007.3699999999999</ele>
        <time>2016-12-04T11:26:29Z</time>
      </trkpt>
      <trkpt lat="46.380409682169557" lon="8.39678892865777">
        <ele>2007.3699999999999</ele>
        <time>2016-12-04T11:26:38Z</time>
      </trkpt>
      <trkpt lat="46.380407502874732" lon="8.396743414923549">
        <ele>2007.3699999999999</ele>
        <time>2016-12-04T11:26:41Z</time>
      </trkpt>
      <trkpt lat="46.380434827879071" lon="8.396571334451437">
        <ele>2006.4100000000001</ele>
        <time>2016-12-04T11:26:54Z</time>
      </trkpt>
      <trkpt lat="46.380445053800941" lon="8.396446611732245">
        <ele>2006.4100000000001</ele>
        <time>2016-12-04T11:27:05Z</time>
      </trkpt>
      <trkpt lat="46.380469612777233" lon="8.396342843770981">
        <ele>2006.4100000000001</ele>
        <time>2016-12-04T11:27:15Z</time>
      </trkpt>
      <trkpt lat="46.380474977195263" lon="8.396231364458799">
        <ele>2006.8900000000001</ele>
        <time>2016-12-04T11:27:25Z</time>
      </trkpt>
      <trkpt lat="46.380481263622642" lon="8.396175289526582">
        <ele>2006.8900000000001</ele>
        <time>2016-12-04T11:27:29Z</time>
      </trkpt>
      <trkpt lat="46.380511606112123" lon="8.396018967032433">
        <ele>2006.8900000000001</ele>
        <time>2016-12-04T11:27:40Z</time>
      </trkpt>
      <trkpt lat="46.380508588626981" lon="8.395982421934605">
        <ele>2007.3699999999999</ele>
        <time>2016-12-04T11:27:44Z</time>
      </trkpt>
      <trkpt lat="46.380511606112123" lon="8.395832134410739">
        <ele>2007.3699999999999</ele>
        <time>2016-12-04T11:27:56Z</time>
      </trkpt>
      <trkpt lat="46.380507247522473" lon="8.395772203803062">
        <ele>2007.8499999999999</ele>
        <time>2016-12-04T11:28:08Z</time>
      </trkpt>
      <trkpt lat="46.380511103197932" lon="8.395760552957654">
        <ele>2007.8499999999999</ele>
        <time>2016-12-04T11:28:19Z</time>
      </trkpt>
      <trkpt lat="46.380532225593925" lon="8.395763318985701">
        <ele>2006.8900000000001</ele>
        <time>2016-12-04T11:28:33Z</time>
      </trkpt>
      <trkpt lat="46.380520071834326" lon="8.395756529644132">
        <ele>2007.8499999999999</ele>
        <time>2016-12-04T11:28:45Z</time>
      </trkpt>
      <trkpt lat="46.380542451515794" lon="8.395750746130943">
        <ele>2007.8499999999999</ele>
        <time>2016-12-04T11:29:09Z</time>
      </trkpt>
      <trkpt lat="46.380535578355193" lon="8.39576424099505">
        <ele>2007.3699999999999</ele>
        <time>2016-12-04T11:29:26Z</time>
      </trkpt>
      <trkpt lat="46.380530213937163" lon="8.395777735859156">
        <ele>2007.3699999999999</ele>
        <time>2016-12-04T11:29:50Z</time>
      </trkpt>
      <trkpt lat="46.380516299977899" lon="8.39577647857368">
        <ele>2007.3699999999999</ele>
        <time>2016-12-04T11:30:04Z</time>
      </trkpt>
      <trkpt lat="46.380515797063708" lon="8.395773796364665">
        <ele>2007.3699999999999</ele>
        <time>2016-12-04T11:30:19Z</time>
      </trkpt>
      <trkpt lat="46.380517054349184" lon="8.395802043378353">
        <ele>2007.3699999999999</ele>
        <time>2016-12-04T11:30:38Z</time>
      </trkpt>
      <trkpt lat="46.380506074056029" lon="8.395767090842128">
        <ele>2007.3699999999999</ele>
        <time>2016-12-04T11:30:51Z</time>
      </trkpt>
      <trkpt lat="46.380488052964211" lon="8.395628621801734">
        <ele>2005.45</ele>
        <time>2016-12-04T11:31:02Z</time>
      </trkpt>
      <trkpt lat="46.380489142611623" lon="8.395585287362337">
        <ele>2004.97</ele>
        <time>2016-12-04T11:31:05Z</time>
      </trkpt>
      <trkpt lat="46.380471289157867" lon="8.395428797230125">
        <ele>2003.04</ele>
        <time>2016-12-04T11:31:17Z</time>
      </trkpt>
      <trkpt lat="46.380436168983579" lon="8.395358892157674">
        <ele>2002.5599999999999</ele>
        <time>2016-12-04T11:31:26Z</time>
      </trkpt>
      <trkpt lat="46.380383279174566" lon="8.395318826660514">
        <ele>2002.0799999999999</ele>
        <time>2016-12-04T11:31:37Z</time>
      </trkpt>
      <trkpt lat="46.380401300266385" lon="8.395313881337643">
        <ele>2002.0799999999999</ele>
        <time>2016-12-04T11:31:45Z</time>
      </trkpt>
      <trkpt lat="46.380402892827988" lon="8.395203156396747">
        <ele>2002.5599999999999</ele>
        <time>2016-12-04T11:31:55Z</time>
      </trkpt>
      <trkpt lat="46.380391661077738" lon="8.395140459761024">
        <ele>2003.04</ele>
        <time>2016-12-04T11:32:02Z</time>
      </trkpt>
      <trkpt lat="46.380383782088757" lon="8.39507139287889">
        <ele>2003.52</ele>
        <time>2016-12-04T11:32:11Z</time>
      </trkpt>
      <trkpt lat="46.38037271797657" lon="8.395052533596754">
        <ele>2003.52</ele>
        <time>2016-12-04T11:32:21Z</time>
      </trkpt>
      <trkpt lat="46.380395516753197" lon="8.395057562738657">
        <ele>2003.52</ele>
        <time>2016-12-04T11:32:42Z</time>
      </trkpt>
      <trkpt lat="46.38039861805737" lon="8.395033087581396">
        <ele>2003.52</ele>
        <time>2016-12-04T11:32:55Z</time>
      </trkpt>
      <trkpt lat="46.380404736846685" lon="8.395014898851514">
        <ele>2003.52</ele>
        <time>2016-12-04T11:32:57Z</time>
      </trkpt>
      <trkpt lat="46.380420411005616" lon="8.394922278821468">
        <ele>2003.52</ele>
        <time>2016-12-04T11:33:08Z</time>
      </trkpt>
      <trkpt lat="46.380407083779573" lon="8.394874501973391">
        <ele>2005.45</ele>
        <time>2016-12-04T11:33:15Z</time>
      </trkpt>
      <trkpt lat="46.380413621664047" lon="8.394841309636831">
        <ele>2004.49</ele>
        <time>2016-12-04T11:33:19Z</time>
      </trkpt>
      <trkpt lat="46.380415800958872" lon="8.394747767597437">
        <ele>2004.49</ele>
        <time>2016-12-04T11:33:26Z</time>
      </trkpt>
      <trkpt lat="46.380431894212961" lon="8.394607035443187">
        <ele>2004.49</ele>
        <time>2016-12-04T11:33:36Z</time>
      </trkpt>
      <trkpt lat="46.380431223660707" lon="8.394599072635174">
        <ele>2004.49</ele>
        <time>2016-12-04T11:33:37Z</time>
      </trkpt>
      <trkpt lat="46.380399959161878" lon="8.394539225846529">
        <ele>2005.9300000000001</ele>
        <time>2016-12-04T11:33:47Z</time>
      </trkpt>
      <trkpt lat="46.38039861805737" lon="8.394428668543696">
        <ele>2007.3699999999999</ele>
        <time>2016-12-04T11:33:58Z</time>
      </trkpt>
      <trkpt lat="46.380370622500777" lon="8.394379802048206">
        <ele>2008.8099999999999</ele>
        <time>2016-12-04T11:34:08Z</time>
      </trkpt>
      <trkpt lat="46.380349164828658" lon="8.394320039078593">
        <ele>2010.25</ele>
        <time>2016-12-04T11:34:17Z</time>
      </trkpt>
      <trkpt lat="46.380358468741179" lon="8.394285254180431">
        <ele>2010.73</ele>
        <time>2016-12-04T11:34:26Z</time>
      </trkpt>
      <trkpt lat="46.380345309153199" lon="8.394233956933022">
        <ele>2012.6600000000001</ele>
        <time>2016-12-04T11:34:37Z</time>
      </trkpt>
      <trkpt lat="46.380339860916138" lon="8.394191712141037">
        <ele>2013.6199999999999</ele>
        <time>2016-12-04T11:34:45Z</time>
      </trkpt>
      <trkpt lat="46.380338603630662" lon="8.394174361601472">
        <ele>2015.0599999999999</ele>
        <time>2016-12-04T11:34:55Z</time>
      </trkpt>
      <trkpt lat="46.38031748123467" lon="8.394218282774091">
        <ele>2015.54</ele>
        <time>2016-12-04T11:35:04Z</time>
      </trkpt>
      <trkpt lat="46.380277499556541" lon="8.394206715747714">
        <ele>2016.98</ele>
        <time>2016-12-04T11:35:15Z</time>
      </trkpt>
      <trkpt lat="46.380284037441015" lon="8.394158100709319">
        <ele>2017.46</ele>
        <time>2016-12-04T11:35:27Z</time>
      </trkpt>
      <trkpt lat="46.380275655537844" lon="8.394109569489956">
        <ele>2018.4300000000001</ele>
        <time>2016-12-04T11:35:35Z</time>
      </trkpt>
      <trkpt lat="46.380245564505458" lon="8.394100768491626">
        <ele>2019.3900000000001</ele>
        <time>2016-12-04T11:35:43Z</time>
      </trkpt>
      <trkpt lat="46.380230979993939" lon="8.39406137354672">
        <ele>2020.8299999999999</ele>
        <time>2016-12-04T11:35:53Z</time>
      </trkpt>
      <trkpt lat="46.38022561557591" lon="8.394007394090295">
        <ele>2021.79</ele>
        <time>2016-12-04T11:36:03Z</time>
      </trkpt>
      <trkpt lat="46.380243133753538" lon="8.393940757960081">
        <ele>2023.23</ele>
        <time>2016-12-04T11:36:12Z</time>
      </trkpt>
      <trkpt lat="46.380245145410299" lon="8.393917288631201">
        <ele>2023.71</ele>
        <time>2016-12-04T11:36:22Z</time>
      </trkpt>
      <trkpt lat="46.380232824012637" lon="8.393870936706662">
        <ele>2025.1500000000001</ele>
        <time>2016-12-04T11:36:33Z</time>
      </trkpt>
      <trkpt lat="46.380228046327829" lon="8.393793655559421">
        <ele>2026.1199999999999</ele>
        <time>2016-12-04T11:36:42Z</time>
      </trkpt>
      <trkpt lat="46.38023491948843" lon="8.393733557313681">
        <ele>2027.0799999999999</ele>
        <time>2016-12-04T11:36:52Z</time>
      </trkpt>
      <trkpt lat="46.380224442109466" lon="8.393698688596487">
        <ele>2028.04</ele>
        <time>2016-12-04T11:37:03Z</time>
      </trkpt>
      <trkpt lat="46.380204325541854" lon="8.393755434080958">
        <ele>2029.48</ele>
        <time>2016-12-04T11:37:12Z</time>
      </trkpt>
      <trkpt lat="46.380160236731172" lon="8.393771024420857">
        <ele>2029.96</ele>
        <time>2016-12-04T11:37:20Z</time>
      </trkpt>
      <trkpt lat="46.38015235774219" lon="8.393810587003827">
        <ele>2030.9200000000001</ele>
        <time>2016-12-04T11:37:28Z</time>
      </trkpt>
      <trkpt lat="46.380134420469403" lon="8.3938033785671">
        <ele>2031.8800000000001</ele>
        <time>2016-12-04T11:37:37Z</time>
      </trkpt>
      <trkpt lat="46.380107682198286" lon="8.393781501799822">
        <ele>2032.8399999999999</ele>
        <time>2016-12-04T11:37:45Z</time>
      </trkpt>
      <trkpt lat="46.380095360800624" lon="8.393791643902659">
        <ele>2034.29</ele>
        <time>2016-12-04T11:37:53Z</time>
      </trkpt>
      <trkpt lat="46.380102904513478" lon="8.393829530104995">
        <ele>2034.77</ele>
        <time>2016-12-04T11:38:02Z</time>
      </trkpt>
      <trkpt lat="46.38010885566473" lon="8.393839253112674">
        <ele>2034.77</ele>
        <time>2016-12-04T11:38:12Z</time>
      </trkpt>
      <trkpt lat="46.380102066323161" lon="8.39385031722486">
        <ele>2034.77</ele>
        <time>2016-12-04T11:38:14Z</time>
      </trkpt>
      <trkpt lat="46.380066024139524" lon="8.393813436850905">
        <ele>2035.73</ele>
        <time>2016-12-04T11:38:26Z</time>
      </trkpt>
      <trkpt lat="46.38005118817091" lon="8.393796002492309">
        <ele>2035.73</ele>
        <time>2016-12-04T11:38:39Z</time>
      </trkpt>
      <trkpt lat="46.380044734105468" lon="8.393777394667268">
        <ele>2035.73</ele>
        <time>2016-12-04T11:38:52Z</time>
      </trkpt>
      <trkpt lat="46.380026126280427" lon="8.393763648346067">
        <ele>2037.1700000000001</ele>
        <time>2016-12-04T11:39:01Z</time>
      </trkpt>
      <trkpt lat="46.380010871216655" lon="8.393799690529704">
        <ele>2038.6099999999999</ele>
        <time>2016-12-04T11:39:10Z</time>
      </trkpt>
      <trkpt lat="46.379992347210646" lon="8.393857106566429">
        <ele>2040.54</ele>
        <time>2016-12-04T11:39:19Z</time>
      </trkpt>
      <trkpt lat="46.37996175326407" lon="8.393849898129702">
        <ele>2041.5</ele>
        <time>2016-12-04T11:39:29Z</time>
      </trkpt>
      <trkpt lat="46.379928812384605" lon="8.393830200657249">
        <ele>2042.9400000000001</ele>
        <time>2016-12-04T11:39:40Z</time>
      </trkpt>
      <trkpt lat="46.379883298650384" lon="8.393777729943395">
        <ele>2043.9000000000001</ele>
        <time>2016-12-04T11:39:50Z</time>
      </trkpt>
      <trkpt lat="46.379823787137866" lon="8.3937774784863">
        <ele>2044.8599999999999</ele>
        <time>2016-12-04T11:40:00Z</time>
      </trkpt>
      <trkpt lat="46.379780871793628" lon="8.393815867602825">
        <ele>2046.3</ele>
        <time>2016-12-04T11:40:12Z</time>
      </trkpt>
      <trkpt lat="46.379757570102811" lon="8.393821902573109">
        <ele>2046.78</ele>
        <time>2016-12-04T11:40:16Z</time>
      </trkpt>
      <trkpt lat="46.379730077460408" lon="8.393819807097316">
        <ele>2047.26</ele>
        <time>2016-12-04T11:40:19Z</time>
      </trkpt>
      <trkpt lat="46.379653718322515" lon="8.393798349425197">
        <ele>2048.23</ele>
        <time>2016-12-04T11:40:31Z</time>
      </trkpt>
      <trkpt lat="46.379609042778611" lon="8.393827518448234">
        <ele>2049.1900000000001</ele>
        <time>2016-12-04T11:40:40Z</time>
      </trkpt>
      <trkpt lat="46.379544921219349" lon="8.393830619752407">
        <ele>2049.6700000000001</ele>
        <time>2016-12-04T11:40:50Z</time>
      </trkpt>
      <trkpt lat="46.379535030573606" lon="8.39378192089498">
        <ele>2048.71</ele>
        <time>2016-12-04T11:41:02Z</time>
      </trkpt>
      <trkpt lat="46.37955330312252" lon="8.393831541761756">
        <ele>2049.6700000000001</ele>
        <time>2016-12-04T11:41:14Z</time>
      </trkpt>
      <trkpt lat="46.379541317000985" lon="8.393831290304661">
        <ele>2049.1900000000001</ele>
        <time>2016-12-04T11:41:29Z</time>
      </trkpt>
      <trkpt lat="46.379502927884459" lon="8.393892897292972">
        <ele>2049.6700000000001</ele>
        <time>2016-12-04T11:41:41Z</time>
      </trkpt>
      <trkpt lat="46.379407709464431" lon="8.393875379115343">
        <ele>2050.1500000000001</ele>
        <time>2016-12-04T11:41:51Z</time>
      </trkpt>
      <trkpt lat="46.379327327013016" lon="8.393874960020185">
        <ele>2050.6300000000001</ele>
        <time>2016-12-04T11:42:02Z</time>
      </trkpt>
      <trkpt lat="46.379254404455423" lon="8.393883677199483">
        <ele>2051.5900000000001</ele>
        <time>2016-12-04T11:42:13Z</time>
      </trkpt>
      <trkpt lat="46.379237473011017" lon="8.393937908113003">
        <ele>2053.0300000000002</ele>
        <time>2016-12-04T11:42:24Z</time>
      </trkpt>
      <trkpt lat="46.37922054156661" lon="8.393985517323017">
        <ele>2054.4699999999998</ele>
        <time>2016-12-04T11:42:33Z</time>
      </trkpt>
      <trkpt lat="46.379199922084808" lon="8.394042933359742">
        <ele>2055.4400000000001</ele>
        <time>2016-12-04T11:42:42Z</time>
      </trkpt>
      <trkpt lat="46.379196234047413" lon="8.394065648317337">
        <ele>2055.9200000000001</ele>
        <time>2016-12-04T11:42:45Z</time>
      </trkpt>
      <trkpt lat="46.379099003970623" lon="8.394111581146717">
        <ele>2056.8800000000001</ele>
        <time>2016-12-04T11:42:58Z</time>
      </trkpt>
      <trkpt lat="46.379034882411361" lon="8.394161453470588">
        <ele>2058.3200000000002</ele>
        <time>2016-12-04T11:43:09Z</time>
      </trkpt>
      <trkpt lat="46.378938909620047" lon="8.394208895042539">
        <ele>2060.2399999999998</ele>
        <time>2016-12-04T11:43:23Z</time>
      </trkpt>
      <trkpt lat="46.378906304016709" lon="8.394192131236196">
        <ele>2061.6799999999998</ele>
        <time>2016-12-04T11:43:33Z</time>
      </trkpt>
      <trkpt lat="46.378866489976645" lon="8.39411367662251">
        <ele>2062.1700000000001</ele>
        <time>2016-12-04T11:43:43Z</time>
      </trkpt>
      <trkpt lat="46.37886774726212" lon="8.394066989421845">
        <ele>2062.1700000000001</ele>
        <time>2016-12-04T11:43:46Z</time>
      </trkpt>
      <trkpt lat="46.378856096416712" lon="8.393931873142719">
        <ele>2061.6799999999998</ele>
        <time>2016-12-04T11:43:58Z</time>
      </trkpt>
      <trkpt lat="46.378854587674141" lon="8.393919635564089">
        <ele>2062.1700000000001</ele>
        <time>2016-12-04T11:43:59Z</time>
      </trkpt>
      <trkpt lat="46.378790717571974" lon="8.393912510946393">
        <ele>2063.1300000000001</ele>
        <time>2016-12-04T11:44:11Z</time>
      </trkpt>
      <trkpt lat="46.378775043413043" lon="8.39395341463387">
        <ele>2063.6100000000001</ele>
        <time>2016-12-04T11:44:19Z</time>
      </trkpt>
      <trkpt lat="46.37876951135695" lon="8.393985517323017">
        <ele>2064.0900000000001</ele>
        <time>2016-12-04T11:44:34Z</time>
      </trkpt>
      <trkpt lat="46.378714106976986" lon="8.394020553678274">
        <ele>2064.5700000000002</ele>
        <time>2016-12-04T11:44:42Z</time>
      </trkpt>
      <trkpt lat="46.378632299602032" lon="8.394013848155737">
        <ele>2064.0900000000001</ele>
        <time>2016-12-04T11:44:52Z</time>
      </trkpt>
      <trkpt lat="46.378554683178663" lon="8.393990965560079">
        <ele>2064.5700000000002</ele>
        <time>2016-12-04T11:45:01Z</time>
      </trkpt>
      <trkpt lat="46.378504894673824" lon="8.39401108212769">
        <ele>2066.4899999999998</ele>
        <time>2016-12-04T11:45:10Z</time>
      </trkpt>
      <trkpt lat="46.378459967672825" lon="8.394041927531362">
        <ele>2068.4099999999999</ele>
        <time>2016-12-04T11:45:21Z</time>
      </trkpt>
      <trkpt lat="46.378444209694862" lon="8.394029522314668">
        <ele>2068.4099999999999</ele>
        <time>2016-12-04T11:45:37Z</time>
      </trkpt>
      <trkpt lat="46.378393247723579" lon="8.394037988036871">
        <ele>2069.3800000000001</ele>
        <time>2016-12-04T11:45:46Z</time>
      </trkpt>
      <trkpt lat="46.378371203318238" lon="8.393928101286292">
        <ele>2069.3800000000001</ele>
        <time>2016-12-04T11:45:58Z</time>
      </trkpt>
      <trkpt lat="46.37841185554862" lon="8.393945703282952">
        <ele>2069.3800000000001</ele>
        <time>2016-12-04T11:46:08Z</time>
      </trkpt>
      <trkpt lat="46.378450663760304" lon="8.393979230895639">
        <ele>2069.3800000000001</ele>
        <time>2016-12-04T11:46:19Z</time>
      </trkpt>
      <trkpt lat="46.378430798649788" lon="8.394006136804819">
        <ele>2069.8600000000001</ele>
        <time>2016-12-04T11:46:27Z</time>
      </trkpt>
      <trkpt lat="46.378359720110893" lon="8.393965987488627">
        <ele>2069.3800000000001</ele>
        <time>2016-12-04T11:46:45Z</time>
      </trkpt>
      <trkpt lat="46.378361228853464" lon="8.393960371613503">
        <ele>2068.8899999999999</ele>
        <time>2016-12-04T11:46:55Z</time>
      </trkpt>
      <trkpt lat="46.37839769013226" lon="8.393903374671936">
        <ele>2069.3800000000001</ele>
        <time>2016-12-04T11:47:07Z</time>
      </trkpt>
      <trkpt lat="46.378405569121242" lon="8.3939328789711">
        <ele>2068.8899999999999</ele>
        <time>2016-12-04T11:47:21Z</time>
      </trkpt>
      <trkpt lat="46.378405736759305" lon="8.393948217853904">
        <ele>2068.8899999999999</ele>
        <time>2016-12-04T11:47:36Z</time>
      </trkpt>
      <trkpt lat="46.378410765901208" lon="8.393930196762085">
        <ele>2068.8899999999999</ele>
        <time>2016-12-04T11:47:59Z</time>
      </trkpt>
      <trkpt lat="46.378424679860473" lon="8.393941596150398">
        <ele>2068.8899999999999</ele>
        <time>2016-12-04T11:48:17Z</time>
      </trkpt>
      <trkpt lat="46.378402719274163" lon="8.393925586715341">
        <ele>2068.8899999999999</ele>
        <time>2016-12-04T11:48:28Z</time>
      </trkpt>
      <trkpt lat="46.378397522494197" lon="8.393900021910667">
        <ele>2068.4099999999999</ele>
        <time>2016-12-04T11:48:40Z</time>
      </trkpt>
      <trkpt lat="46.378404311835766" lon="8.393928604200482">
        <ele>2068.4099999999999</ele>
        <time>2016-12-04T11:48:57Z</time>
      </trkpt>
      <trkpt lat="46.37840841896832" lon="8.393991552293301">
        <ele>2068.4099999999999</ele>
        <time>2016-12-04T11:49:15Z</time>
      </trkpt>
      <trkpt lat="46.378434654325247" lon="8.393981577828527">
        <ele>2067.9299999999998</ele>
        <time>2016-12-04T11:49:28Z</time>
      </trkpt>
      <trkpt lat="46.378395175561309" lon="8.393963892012835">
        <ele>2067.9299999999998</ele>
        <time>2016-12-04T11:49:56Z</time>
      </trkpt>
      <trkpt lat="46.378375561907887" lon="8.393996581435204">
        <ele>2067.9299999999998</ele>
        <time>2016-12-04T11:50:19Z</time>
      </trkpt>
      <trkpt lat="46.378375981003046" lon="8.394031031057239">
        <ele>2067.9299999999998</ele>
        <time>2016-12-04T11:50:51Z</time>
      </trkpt>
      <trkpt lat="46.378390649333596" lon="8.393982583656907">
        <ele>2067.4499999999998</ele>
        <time>2016-12-04T11:51:13Z</time>
      </trkpt>
      <trkpt lat="46.378391655161977" lon="8.393967244774103">
        <ele>2067.4499999999998</ele>
        <time>2016-12-04T11:51:39Z</time>
      </trkpt>
      <trkpt lat="46.378386039286852" lon="8.394013931974769">
        <ele>2066.9699999999998</ele>
        <time>2016-12-04T11:52:05Z</time>
      </trkpt>
      <trkpt lat="46.378395175561309" lon="8.394010243937373">
        <ele>2066.9699999999998</ele>
        <time>2016-12-04T11:52:30Z</time>
      </trkpt>
      <trkpt lat="46.378413029015064" lon="8.393982332199812">
        <ele>2066.9699999999998</ele>
        <time>2016-12-04T11:52:56Z</time>
      </trkpt>
      <trkpt lat="46.378383692353964" lon="8.39399398304522">
        <ele>2066.9699999999998</ele>
        <time>2016-12-04T11:53:24Z</time>
      </trkpt>
      <trkpt lat="46.378322839736938" lon="8.393969424068928">
        <ele>2066.9699999999998</ele>
        <time>2016-12-04T11:53:51Z</time>
      </trkpt>
      <trkpt lat="46.378308339044452" lon="8.394014099612832">
        <ele>2066.4899999999998</ele>
        <time>2016-12-04T11:54:14Z</time>
      </trkpt>
      <trkpt lat="46.378304148092866" lon="8.393998425453901">
        <ele>2066.4899999999998</ele>
        <time>2016-12-04T11:54:36Z</time>
      </trkpt>
      <trkpt lat="46.378356534987688" lon="8.394009573385119">
        <ele>2066.4899999999998</ele>
        <time>2016-12-04T11:55:00Z</time>
      </trkpt>
      <trkpt lat="46.378400372341275" lon="8.394049890339375">
        <ele>2066.4899999999998</ele>
        <time>2016-12-04T11:55:22Z</time>
      </trkpt>
      <trkpt lat="46.378445886075497" lon="8.394049806520343">
        <ele>2066.0100000000002</ele>
        <time>2016-12-04T11:55:47Z</time>
      </trkpt>
      <trkpt lat="46.378439767286181" lon="8.393991468474269">
        <ele>2066.4899999999998</ele>
        <time>2016-12-04T11:56:13Z</time>
      </trkpt>
      <trkpt lat="46.378422668203712" lon="8.393982164561749">
        <ele>2066.4899999999998</ele>
        <time>2016-12-04T11:56:42Z</time>
      </trkpt>
      <trkpt lat="46.378598604351282" lon="8.394019547849894">
        <ele>2066.4899999999998</ele>
        <time>2016-12-04T11:57:07Z</time>
      </trkpt>
      <trkpt lat="46.378571949899197" lon="8.393988283351064">
        <ele>2066.4899999999998</ele>
        <time>2016-12-04T11:57:33Z</time>
      </trkpt>
      <trkpt lat="46.378570441156626" lon="8.39400420896709">
        <ele>2066.4899999999998</ele>
        <time>2016-12-04T11:57:59Z</time>
      </trkpt>
      <trkpt lat="46.378565412014723" lon="8.393987277522683">
        <ele>2066.4899999999998</ele>
        <time>2016-12-04T11:58:27Z</time>
      </trkpt>
      <trkpt lat="46.378651997074485" lon="8.393977889791131">
        <ele>2066.4899999999998</ele>
        <time>2016-12-04T11:58:57Z</time>
      </trkpt>
      <trkpt lat="46.37868108227849" lon="8.393958192318678">
        <ele>2066.9699999999998</ele>
        <time>2016-12-04T11:59:22Z</time>
      </trkpt>
      <trkpt lat="46.37864738702774" lon="8.393972525373101">
        <ele>2066.9699999999998</ele>
        <time>2016-12-04T11:59:46Z</time>
      </trkpt>
      <trkpt lat="46.378650991246104" lon="8.393970848992467">
        <ele>2067.4499999999998</ele>
        <time>2016-12-04T12:00:11Z</time>
      </trkpt>
      <trkpt lat="46.378648309037089" lon="8.393965903669596">
        <ele>2067.9299999999998</ele>
        <time>2016-12-04T12:00:41Z</time>
      </trkpt>
      <trkpt lat="46.378556778654456" lon="8.39399591088295">
        <ele>2068.4099999999999</ele>
        <time>2016-12-04T12:01:08Z</time>
      </trkpt>
      <trkpt lat="46.378547558560967" lon="8.393993396311998">
        <ele>2068.4099999999999</ele>
        <time>2016-12-04T12:01:29Z</time>
      </trkpt>
      <trkpt lat="46.378566836938262" lon="8.393988786265254">
        <ele>2068.8899999999999</ele>
        <time>2016-12-04T12:01:55Z</time>
      </trkpt>
      <trkpt lat="46.378605058416724" lon="8.394012674689293">
        <ele>2069.3800000000001</ele>
        <time>2016-12-04T12:02:17Z</time>
      </trkpt>
      <trkpt lat="46.378505229949951" lon="8.393965903669596">
        <ele>2069.3800000000001</ele>
        <time>2016-12-04T12:02:51Z</time>
      </trkpt>
      <trkpt lat="46.378527274355292" lon="8.393952157348394">
        <ele>2069.3800000000001</ele>
        <time>2016-12-04T12:03:19Z</time>
      </trkpt>
      <trkpt lat="46.378439599648118" lon="8.393920557573438">
        <ele>2069.8600000000001</ele>
        <time>2016-12-04T12:03:45Z</time>
      </trkpt>
      <trkpt lat="46.37843674980104" lon="8.393952995538712">
        <ele>2070.8200000000002</ele>
        <time>2016-12-04T12:04:05Z</time>
      </trkpt>
      <trkpt lat="46.378445466980338" lon="8.393939668312669">
        <ele>2070.8200000000002</ele>
        <time>2016-12-04T12:04:17Z</time>
      </trkpt>
      <trkpt lat="46.378439599648118" lon="8.393935980275273">
        <ele>2071.3000000000002</ele>
        <time>2016-12-04T12:04:28Z</time>
      </trkpt>
      <trkpt lat="46.378409843891859" lon="8.393943356350064">
        <ele>2071.3000000000002</ele>
        <time>2016-12-04T12:04:45Z</time>
      </trkpt>
      <trkpt lat="46.378408083692193" lon="8.393969424068928">
        <ele>2071.3000000000002</ele>
        <time>2016-12-04T12:05:00Z</time>
      </trkpt>
      <trkpt lat="46.378393331542611" lon="8.393947463482618">
        <ele>2071.3000000000002</ele>
        <time>2016-12-04T12:05:13Z</time>
      </trkpt>
      <trkpt lat="46.378393918275833" lon="8.393936818465591">
        <ele>2071.3000000000002</ele>
        <time>2016-12-04T12:05:26Z</time>
      </trkpt>
      <trkpt lat="46.378406910225749" lon="8.39397881180048">
        <ele>2070.8200000000002</ele>
        <time>2016-12-04T12:05:37Z</time>
      </trkpt>
      <trkpt lat="46.378410262987018" lon="8.39400814846158">
        <ele>2071.3000000000002</ele>
        <time>2016-12-04T12:05:47Z</time>
      </trkpt>
      <trkpt lat="46.378425685688853" lon="8.39405357837677">
        <ele>2071.3000000000002</ele>
        <time>2016-12-04T12:05:57Z</time>
      </trkpt>
      <trkpt lat="46.378384614363313" lon="8.394118873402476">
        <ele>2073.6999999999998</ele>
        <time>2016-12-04T12:06:07Z</time>
      </trkpt>
      <trkpt lat="46.378354942426085" lon="8.394164638593793">
        <ele>2074.6599999999999</ele>
        <time>2016-12-04T12:06:17Z</time>
      </trkpt>
      <trkpt lat="46.378376400098205" lon="8.394193639978766">
        <ele>2075.6199999999999</ele>
        <time>2016-12-04T12:06:26Z</time>
      </trkpt>
      <trkpt lat="46.378361312672496" lon="8.394268909469247">
        <ele>2077.0700000000002</ele>
        <time>2016-12-04T12:06:36Z</time>
      </trkpt>
      <trkpt lat="46.378369778394699" lon="8.394327666610479">
        <ele>2077.5500000000002</ele>
        <time>2016-12-04T12:06:44Z</time>
      </trkpt>
      <trkpt lat="46.378363408148289" lon="8.394433194771409">
        <ele>2078.0300000000002</ele>
        <time>2016-12-04T12:06:55Z</time>
      </trkpt>
      <trkpt lat="46.378355612978339" lon="8.394512739032507">
        <ele>2078.5100000000002</ele>
        <time>2016-12-04T12:07:05Z</time>
      </trkpt>
      <trkpt lat="46.378326024860144" lon="8.394550792872906">
        <ele>2079.4699999999998</ele>
        <time>2016-12-04T12:07:11Z</time>
      </trkpt>
      <trkpt lat="46.378291910514235" lon="8.394636958837509">
        <ele>2080.4299999999998</ele>
        <time>2016-12-04T12:07:22Z</time>
      </trkpt>
      <trkpt lat="46.378288306295872" lon="8.394647855311632">
        <ele>2080.4299999999998</ele>
        <time>2016-12-04T12:07:23Z</time>
      </trkpt>
      <trkpt lat="46.378290737047791" lon="8.39477526023984">
        <ele>2080.4299999999998</ele>
        <time>2016-12-04T12:07:34Z</time>
      </trkpt>
      <trkpt lat="46.378334993496537" lon="8.394836699590087">
        <ele>2080.9099999999999</ele>
        <time>2016-12-04T12:07:44Z</time>
      </trkpt>
      <trkpt lat="46.378361396491528" lon="8.394832508638501">
        <ele>2080.9099999999999</ele>
        <time>2016-12-04T12:07:54Z</time>
      </trkpt>
      <trkpt lat="46.378380507230759" lon="8.394854133948684">
        <ele>2080.9099999999999</ele>
        <time>2016-12-04T12:08:01Z</time>
      </trkpt>
      <trkpt lat="46.378344548866153" lon="8.394847512245178">
        <ele>2080.9099999999999</ele>
        <time>2016-12-04T12:08:10Z</time>
      </trkpt>
      <trkpt lat="46.378359133377671" lon="8.394873160868883">
        <ele>2080.9099999999999</ele>
        <time>2016-12-04T12:08:17Z</time>
      </trkpt>
      <trkpt lat="46.378437085077167" lon="8.394825551658869">
        <ele>2079.9499999999998</ele>
        <time>2016-12-04T12:08:24Z</time>
      </trkpt>
      <trkpt lat="46.378475055098534" lon="8.394775092601776">
        <ele>2079.4699999999998</ele>
        <time>2016-12-04T12:08:35Z</time>
      </trkpt>
      <trkpt lat="46.378496512770653" lon="8.394717425107956">
        <ele>2078.5100000000002</ele>
        <time>2016-12-04T12:08:43Z</time>
      </trkpt>
      <trkpt lat="46.3785095885396" lon="8.394570490345359">
        <ele>2078.0300000000002</ele>
        <time>2016-12-04T12:08:54Z</time>
      </trkpt>
      <trkpt lat="46.378515874966979" lon="8.394484492018819">
        <ele>2078.5100000000002</ele>
        <time>2016-12-04T12:09:03Z</time>
      </trkpt>
      <trkpt lat="46.378528280183673" lon="8.39440687559545">
        <ele>2077.0700000000002</ele>
        <time>2016-12-04T12:09:13Z</time>
      </trkpt>
      <trkpt lat="46.378498440608382" lon="8.39439757168293">
        <ele>2077.0700000000002</ele>
        <time>2016-12-04T12:09:23Z</time>
      </trkpt>
      <trkpt lat="46.378507660701871" lon="8.394387848675251">
        <ele>2077.0700000000002</ele>
        <time>2016-12-04T12:09:41Z</time>
      </trkpt>
      <trkpt lat="46.378507995977998" lon="8.394370246678591">
        <ele>2076.5900000000001</ele>
        <time>2016-12-04T12:09:59Z</time>
      </trkpt>
      <trkpt lat="46.378510762006044" lon="8.394370581954718">
        <ele>2076.5900000000001</ele>
        <time>2016-12-04T12:10:18Z</time>
      </trkpt>
      <trkpt lat="46.378523418679833" lon="8.394362954422832">
        <ele>2076.5900000000001</ele>
        <time>2016-12-04T12:10:32Z</time>
      </trkpt>
      <trkpt lat="46.37853397987783" lon="8.394280644133687">
        <ele>2074.1799999999998</ele>
        <time>2016-12-04T12:10:39Z</time>
      </trkpt>
      <trkpt lat="46.378581086173654" lon="8.394217193126679">
        <ele>2071.7800000000002</ele>
        <time>2016-12-04T12:10:49Z</time>
      </trkpt>
      <trkpt lat="46.378556778654456" lon="8.39419037103653">
        <ele>2071.3000000000002</ele>
        <time>2016-12-04T12:10:53Z</time>
      </trkpt>
      <trkpt lat="46.378477904945612" lon="8.394102361053228">
        <ele>2070.3400000000001</ele>
        <time>2016-12-04T12:11:05Z</time>
      </trkpt>
      <trkpt lat="46.378448316827416" lon="8.394003454595804">
        <ele>2068.8899999999999</ele>
        <time>2016-12-04T12:11:16Z</time>
      </trkpt>
      <trkpt lat="46.378474971279502" lon="8.39394754730165">
        <ele>2067.9299999999998</ele>
        <time>2016-12-04T12:11:24Z</time>
      </trkpt>
      <trkpt lat="46.378477234393358" lon="8.39395584538579">
        <ele>2067.9299999999998</ele>
        <time>2016-12-04T12:11:39Z</time>
      </trkpt>
      <trkpt lat="46.378534901887178" lon="8.393957354128361">
        <ele>2066.4899999999998</ele>
        <time>2016-12-04T12:11:49Z</time>
      </trkpt>
      <trkpt lat="46.378531632944942" lon="8.393934471532702">
        <ele>2066.0100000000002</ele>
        <time>2016-12-04T12:11:55Z</time>
      </trkpt>
      <trkpt lat="46.378586115315557" lon="8.393966322764754">
        <ele>2064.5700000000002</ele>
        <time>2016-12-04T12:12:01Z</time>
      </trkpt>
      <trkpt lat="46.37866348028183" lon="8.393958862870932">
        <ele>2063.1300000000001</ele>
        <time>2016-12-04T12:12:11Z</time>
      </trkpt>
      <trkpt lat="46.378731289878488" lon="8.393905637785792">
        <ele>2062.1700000000001</ele>
        <time>2016-12-04T12:12:21Z</time>
      </trkpt>
      <trkpt lat="46.378789125010371" lon="8.393851323053241">
        <ele>2061.6799999999998</ele>
        <time>2016-12-04T12:12:29Z</time>
      </trkpt>
      <trkpt lat="46.378826005384326" lon="8.393837660551071">
        <ele>2061.6799999999998</ele>
        <time>2016-12-04T12:12:33Z</time>
      </trkpt>
      <trkpt lat="46.378848049789667" lon="8.393785189837217">
        <ele>2061.1999999999998</ele>
        <time>2016-12-04T12:12:37Z</time>
      </trkpt>
      <trkpt lat="46.378868082538247" lon="8.393743950873613">
        <ele>2062.1700000000001</ele>
        <time>2016-12-04T12:12:50Z</time>
      </trkpt>
      <trkpt lat="46.378859365358949" lon="8.393711177632213">
        <ele>2061.1999999999998</ele>
        <time>2016-12-04T12:12:58Z</time>
      </trkpt>
      <trkpt lat="46.378875626251101" lon="8.393672704696655">
        <ele>2059.7600000000002</ele>
        <time>2016-12-04T12:13:06Z</time>
      </trkpt>
      <trkpt lat="46.378892054781318" lon="8.393652001395822">
        <ele>2058.8000000000002</ele>
        <time>2016-12-04T12:13:15Z</time>
      </trkpt>
      <trkpt lat="46.37888677418232" lon="8.393570277839899">
        <ele>2057.8400000000001</ele>
        <time>2016-12-04T12:13:27Z</time>
      </trkpt>
      <trkpt lat="46.378912590444088" lon="8.393407920375466">
        <ele>2056.8800000000001</ele>
        <time>2016-12-04T12:13:39Z</time>
      </trkpt>
      <trkpt lat="46.378904459998012" lon="8.39332745410502">
        <ele>2056.8800000000001</ele>
        <time>2016-12-04T12:13:45Z</time>
      </trkpt>
      <trkpt lat="46.378943184390664" lon="8.393166689202189">
        <ele>2055.9200000000001</ele>
        <time>2016-12-04T12:13:57Z</time>
      </trkpt>
      <trkpt lat="46.378965228796005" lon="8.393095275387168">
        <ele>2054.96</ele>
        <time>2016-12-04T12:14:02Z</time>
      </trkpt>
      <trkpt lat="46.379014011472464" lon="8.393010282889009">
        <ele>2053.0300000000002</ele>
        <time>2016-12-04T12:14:10Z</time>
      </trkpt>
      <trkpt lat="46.379008647054434" lon="8.392923949286342">
        <ele>2052.0700000000002</ele>
        <time>2016-12-04T12:14:17Z</time>
      </trkpt>
      <trkpt lat="46.378948884084821" lon="8.392871227115393">
        <ele>2052.0700000000002</ele>
        <time>2016-12-04T12:14:28Z</time>
      </trkpt>
      <trkpt lat="46.378932204097509" lon="8.392808027565479">
        <ele>2051.5900000000001</ele>
        <time>2016-12-04T12:14:37Z</time>
      </trkpt>
      <trkpt lat="46.378940083086491" lon="8.392760837450624">
        <ele>2052.0700000000002</ele>
        <time>2016-12-04T12:14:41Z</time>
      </trkpt>
      <trkpt lat="46.379019878804684" lon="8.392661260440946">
        <ele>2052.0700000000002</ele>
        <time>2016-12-04T12:14:51Z</time>
      </trkpt>
      <trkpt lat="46.379021555185318" lon="8.392654806375504">
        <ele>2052.0700000000002</ele>
        <time>2016-12-04T12:14:52Z</time>
      </trkpt>
      <trkpt lat="46.379065476357937" lon="8.392590684816241">
        <ele>2052.0700000000002</ele>
        <time>2016-12-04T12:14:58Z</time>
      </trkpt>
      <trkpt lat="46.379091208800673" lon="8.392568388953805">
        <ele>2052.0700000000002</ele>
        <time>2016-12-04T12:15:02Z</time>
      </trkpt>
      <trkpt lat="46.379172848537564" lon="8.39245137758553">
        <ele>2052.5500000000002</ele>
        <time>2016-12-04T12:15:13Z</time>
      </trkpt>
      <trkpt lat="46.379186678677797" lon="8.392432099208236">
        <ele>2052.0700000000002</ele>
        <time>2016-12-04T12:15:15Z</time>
      </trkpt>
      <trkpt lat="46.37918240390718" lon="8.392292205244303">
        <ele>2051.1100000000001</ele>
        <time>2016-12-04T12:15:26Z</time>
      </trkpt>
      <trkpt lat="46.379199419170618" lon="8.392259264364839">
        <ele>2052.5500000000002</ele>
        <time>2016-12-04T12:15:29Z</time>
      </trkpt>
      <trkpt lat="46.379240155220032" lon="8.39213621802628">
        <ele>2052.5500000000002</ele>
        <time>2016-12-04T12:15:40Z</time>
      </trkpt>
      <trkpt lat="46.379226660355926" lon="8.392117694020271">
        <ele>2052.5500000000002</ele>
        <time>2016-12-04T12:15:42Z</time>
      </trkpt>
      <trkpt lat="46.379190869629383" lon="8.3920575119555">
        <ele>2052.5500000000002</ele>
        <time>2016-12-04T12:15:49Z</time>
      </trkpt>
      <trkpt lat="46.37914577499032" lon="8.391969921067357">
        <ele>2052.5500000000002</ele>
        <time>2016-12-04T12:15:57Z</time>
      </trkpt>
      <trkpt lat="46.379111157730222" lon="8.391902446746826">
        <ele>2053.0300000000002</ele>
        <time>2016-12-04T12:16:03Z</time>
      </trkpt>
      <trkpt lat="46.37906271032989" lon="8.391812760382891">
        <ele>2053.5100000000002</ele>
        <time>2016-12-04T12:16:14Z</time>
      </trkpt>
      <trkpt lat="46.379033792763948" lon="8.391819968819618">
        <ele>2052.5500000000002</ele>
        <time>2016-12-04T12:16:21Z</time>
      </trkpt>
      <trkpt lat="46.378995068371296" lon="8.391807228326798">
        <ele>2053.0300000000002</ele>
        <time>2016-12-04T12:16:25Z</time>
      </trkpt>
      <trkpt lat="46.378908650949597" lon="8.391761546954513">
        <ele>2053.0300000000002</ele>
        <time>2016-12-04T12:16:36Z</time>
      </trkpt>
      <trkpt lat="46.378894401714206" lon="8.391754170879722">
        <ele>2053.5100000000002</ele>
        <time>2016-12-04T12:16:38Z</time>
      </trkpt>
      <trkpt lat="46.378885013982654" lon="8.391727181151509">
        <ele>2053.5100000000002</ele>
        <time>2016-12-04T12:16:40Z</time>
      </trkpt>
      <trkpt lat="46.378864143043756" lon="8.391599608585239">
        <ele>2054.4699999999998</ele>
        <time>2016-12-04T12:16:51Z</time>
      </trkpt>
      <trkpt lat="46.37885257601738" lon="8.391484022140503">
        <ele>2055.4400000000001</ele>
        <time>2016-12-04T12:17:01Z</time>
      </trkpt>
      <trkpt lat="46.378851821646094" lon="8.391334740445018">
        <ele>2056.4000000000001</ele>
        <time>2016-12-04T12:17:14Z</time>
      </trkpt>
      <trkpt lat="46.378837991505861" lon="8.391224937513471">
        <ele>2057.8400000000001</ele>
        <time>2016-12-04T12:17:26Z</time>
      </trkpt>
      <trkpt lat="46.378829693421721" lon="8.391121253371239">
        <ele>2059.7600000000002</ele>
        <time>2016-12-04T12:17:37Z</time>
      </trkpt>
      <trkpt lat="46.378792813047767" lon="8.39106316678226">
        <ele>2061.1999999999998</ele>
        <time>2016-12-04T12:17:48Z</time>
      </trkpt>
      <trkpt lat="46.378774959594011" lon="8.391006672754884">
        <ele>2062.1700000000001</ele>
        <time>2016-12-04T12:17:57Z</time>
      </trkpt>
      <trkpt lat="46.378744784742594" lon="8.390945568680763">
        <ele>2064.0900000000001</ele>
        <time>2016-12-04T12:18:07Z</time>
      </trkpt>
      <trkpt lat="46.378727182745934" lon="8.390894522890449">
        <ele>2064.5700000000002</ele>
        <time>2016-12-04T12:18:11Z</time>
      </trkpt>
      <trkpt lat="46.378735145553946" lon="8.390811458230019">
        <ele>2065.5300000000002</ele>
        <time>2016-12-04T12:18:20Z</time>
      </trkpt>
      <trkpt lat="46.378789376467466" lon="8.390708612278104">
        <ele>2066.9699999999998</ele>
        <time>2016-12-04T12:18:31Z</time>
      </trkpt>
      <trkpt lat="46.378851570188999" lon="8.390632756054401">
        <ele>2067.9299999999998</ele>
        <time>2016-12-04T12:18:44Z</time>
      </trkpt>
      <trkpt lat="46.378865232691169" lon="8.390579530969262">
        <ele>2068.8899999999999</ele>
        <time>2016-12-04T12:18:56Z</time>
      </trkpt>
      <trkpt lat="46.378894234076142" lon="8.390625966712833">
        <ele>2068.8899999999999</ele>
        <time>2016-12-04T12:19:08Z</time>
      </trkpt>
      <trkpt lat="46.378920469433069" lon="8.390571400523186">
        <ele>2069.3800000000001</ele>
        <time>2016-12-04T12:19:16Z</time>
      </trkpt>
      <trkpt lat="46.378907477483153" lon="8.390541058033705">
        <ele>2068.8899999999999</ele>
        <time>2016-12-04T12:19:29Z</time>
      </trkpt>
      <trkpt lat="46.378964222967625" lon="8.39044994674623">
        <ele>2069.3800000000001</ele>
        <time>2016-12-04T12:19:36Z</time>
      </trkpt>
      <trkpt lat="46.379004707559943" lon="8.390337293967605">
        <ele>2070.3400000000001</ele>
        <time>2016-12-04T12:19:47Z</time>
      </trkpt>
      <trkpt lat="46.379055920988321" lon="8.390264119952917">
        <ele>2070.3400000000001</ele>
        <time>2016-12-04T12:19:55Z</time>
      </trkpt>
      <trkpt lat="46.379124149680138" lon="8.390183318406344">
        <ele>2071.3000000000002</ele>
        <time>2016-12-04T12:20:06Z</time>
      </trkpt>
      <trkpt lat="46.379190031439066" lon="8.390095140784979">
        <ele>2072.2600000000002</ele>
        <time>2016-12-04T12:20:17Z</time>
      </trkpt>
      <trkpt lat="46.37920930981636" lon="8.390068905428052">
        <ele>2072.7399999999998</ele>
        <time>2016-12-04T12:20:20Z</time>
      </trkpt>
      <trkpt lat="46.379208387807012" lon="8.390067564323545">
        <ele>2072.7399999999998</ele>
        <time>2016-12-04T12:20:31Z</time>
      </trkpt>
      <trkpt lat="46.379196234047413" lon="8.390080304816365">
        <ele>2072.7399999999998</ele>
        <time>2016-12-04T12:20:49Z</time>
      </trkpt>
      <trkpt lat="46.379200341179967" lon="8.390114000067115">
        <ele>2072.2600000000002</ele>
        <time>2016-12-04T12:21:04Z</time>
      </trkpt>
      <trkpt lat="46.379218949005008" lon="8.390058008953929">
        <ele>2072.7399999999998</ele>
        <time>2016-12-04T12:21:17Z</time>
      </trkpt>
      <trkpt lat="46.379247447475791" lon="8.390018530189991">
        <ele>2072.7399999999998</ele>
        <time>2016-12-04T12:21:21Z</time>
      </trkpt>
      <trkpt lat="46.379308048635721" lon="8.389911325648427">
        <ele>2072.7399999999998</ele>
        <time>2016-12-04T12:21:29Z</time>
      </trkpt>
      <trkpt lat="46.379342414438725" lon="8.38981619104743">
        <ele>2073.2199999999998</ele>
        <time>2016-12-04T12:21:38Z</time>
      </trkpt>
      <trkpt lat="46.379404021427035" lon="8.389725666493177">
        <ele>2074.1799999999998</ele>
        <time>2016-12-04T12:21:49Z</time>
      </trkpt>
      <trkpt lat="46.379418941214681" lon="8.389706639572978">
        <ele>2074.1799999999998</ele>
        <time>2016-12-04T12:21:51Z</time>
      </trkpt>
      <trkpt lat="46.379440063610673" lon="8.389644948765636">
        <ele>2073.6999999999998</ele>
        <time>2016-12-04T12:21:57Z</time>
      </trkpt>
      <trkpt lat="46.379556739702821" lon="8.389648636803031">
        <ele>2073.2199999999998</ele>
        <time>2016-12-04T12:22:09Z</time>
      </trkpt>
      <trkpt lat="46.379588507115841" lon="8.389616366475821">
        <ele>2074.1799999999998</ele>
        <time>2016-12-04T12:22:14Z</time>
      </trkpt>
      <trkpt lat="46.379609210416675" lon="8.389491308480501">
        <ele>2075.6199999999999</ele>
        <time>2016-12-04T12:22:26Z</time>
      </trkpt>
      <trkpt lat="46.379622789099813" lon="8.389375302940607">
        <ele>2075.1399999999999</ele>
        <time>2016-12-04T12:22:37Z</time>
      </trkpt>
      <trkpt lat="46.379687078297138" lon="8.389337081462145">
        <ele>2075.6199999999999</ele>
        <time>2016-12-04T12:22:45Z</time>
      </trkpt>
      <trkpt lat="46.379746422171593" lon="8.389232894405723">
        <ele>2077.0700000000002</ele>
        <time>2016-12-04T12:22:56Z</time>
      </trkpt>
      <trkpt lat="46.379808615893126" lon="8.389181429520249">
        <ele>2077.5500000000002</ele>
        <time>2016-12-04T12:23:04Z</time>
      </trkpt>
      <trkpt lat="46.379869552329183" lon="8.389148823916912">
        <ele>2078.0300000000002</ele>
        <time>2016-12-04T12:23:12Z</time>
      </trkpt>
      <trkpt lat="46.379959071055055" lon="8.389096520841122">
        <ele>2078.5100000000002</ele>
        <time>2016-12-04T12:23:23Z</time>
      </trkpt>
      <trkpt lat="46.38003995642066" lon="8.389063077047467">
        <ele>2079.4699999999998</ele>
        <time>2016-12-04T12:23:33Z</time>
      </trkpt>
      <trkpt lat="46.38011229224503" lon="8.389011025428772">
        <ele>2080.9099999999999</ele>
        <time>2016-12-04T12:23:43Z</time>
      </trkpt>
      <trkpt lat="46.380122182890773" lon="8.388959560543299">
        <ele>2082.3499999999999</ele>
        <time>2016-12-04T12:23:48Z</time>
      </trkpt>
      <trkpt lat="46.380141628906131" lon="8.388915555551648">
        <ele>2081.3899999999999</ele>
        <time>2016-12-04T12:23:59Z</time>
      </trkpt>
      <trkpt lat="46.380161074921489" lon="8.388912286609411">
        <ele>2081.3899999999999</ele>
        <time>2016-12-04T12:24:07Z</time>
      </trkpt>
      <trkpt lat="46.380180856212974" lon="8.388869035989046">
        <ele>2081.3899999999999</ele>
        <time>2016-12-04T12:24:13Z</time>
      </trkpt>
      <trkpt lat="46.38019778765738" lon="8.388786306604743">
        <ele>2081.3899999999999</ele>
        <time>2016-12-04T12:24:20Z</time>
      </trkpt>
      <trkpt lat="46.380216898396611" lon="8.388760909438133">
        <ele>2080.9099999999999</ele>
        <time>2016-12-04T12:24:23Z</time>
      </trkpt>
      <trkpt lat="46.380256544798613" lon="8.388699721544981">
        <ele>2081.8699999999999</ele>
        <time>2016-12-04T12:24:31Z</time>
      </trkpt>
      <trkpt lat="46.380316810682416" lon="8.388579105958343">
        <ele>2082.3499999999999</ele>
        <time>2016-12-04T12:24:42Z</time>
      </trkpt>
      <trkpt lat="46.380379255861044" lon="8.388500902801752">
        <ele>2082.8299999999999</ele>
        <time>2016-12-04T12:24:51Z</time>
      </trkpt>
      <trkpt lat="46.380456537008286" lon="8.38841968216002">
        <ele>2085.2399999999998</ele>
        <time>2016-12-04T12:25:03Z</time>
      </trkpt>
      <trkpt lat="46.380459722131491" lon="8.388401912525296">
        <ele>2085.7199999999998</ele>
        <time>2016-12-04T12:25:07Z</time>
      </trkpt>
      <trkpt lat="46.380507834255695" lon="8.388350363820791">
        <ele>2087.1599999999999</ele>
        <time>2016-12-04T12:25:17Z</time>
      </trkpt>
      <trkpt lat="46.380566591396928" lon="8.388305939733982">
        <ele>2088.5999999999999</ele>
        <time>2016-12-04T12:25:27Z</time>
      </trkpt>
      <trkpt lat="46.380644543096423" lon="8.38821935467422">
        <ele>2088.5999999999999</ele>
        <time>2016-12-04T12:25:40Z</time>
      </trkpt>
      <trkpt lat="46.380724087357521" lon="8.388143498450518">
        <ele>2088.1199999999999</ele>
        <time>2016-12-04T12:25:50Z</time>
      </trkpt>
      <trkpt lat="46.380778569728136" lon="8.388020703569055">
        <ele>2087.6399999999999</ele>
        <time>2016-12-04T12:26:01Z</time>
      </trkpt>
      <trkpt lat="46.380779994651675" lon="8.387951971963048">
        <ele>2088.1199999999999</ele>
        <time>2016-12-04T12:26:07Z</time>
      </trkpt>
      <trkpt lat="46.380804134532809" lon="8.387876031920314">
        <ele>2088.5999999999999</ele>
        <time>2016-12-04T12:26:17Z</time>
      </trkpt>
      <trkpt lat="46.380794662982225" lon="8.387877205386758">
        <ele>2088.1199999999999</ele>
        <time>2016-12-04T12:26:30Z</time>
      </trkpt>
      <trkpt lat="46.380805727094412" lon="8.387865722179413">
        <ele>2088.1199999999999</ele>
        <time>2016-12-04T12:26:43Z</time>
      </trkpt>
      <trkpt lat="46.380779156461358" lon="8.387881899252534">
        <ele>2087.6399999999999</ele>
        <time>2016-12-04T12:26:52Z</time>
      </trkpt>
      <trkpt lat="46.380789633840322" lon="8.387884749099612">
        <ele>2087.1599999999999</ele>
        <time>2016-12-04T12:27:16Z</time>
      </trkpt>
      <trkpt lat="46.380795836448669" lon="8.387900171801448">
        <ele>2087.1599999999999</ele>
        <time>2016-12-04T12:27:26Z</time>
      </trkpt>
      <trkpt lat="46.380785442888737" lon="8.387891370803118">
        <ele>2087.1599999999999</ele>
        <time>2016-12-04T12:27:48Z</time>
      </trkpt>
      <trkpt lat="46.380798518657684" lon="8.387881144881249">
        <ele>2087.1599999999999</ele>
        <time>2016-12-04T12:28:07Z</time>
      </trkpt>
      <trkpt lat="46.380798099562526" lon="8.387888856232166">
        <ele>2087.1599999999999</ele>
        <time>2016-12-04T12:28:26Z</time>
      </trkpt>
      <trkpt lat="46.380808828398585" lon="8.387917103245854">
        <ele>2088.1199999999999</ele>
        <time>2016-12-04T12:28:39Z</time>
      </trkpt>
      <trkpt lat="46.380788292735815" lon="8.387902518734336">
        <ele>2088.1199999999999</ele>
        <time>2016-12-04T12:28:47Z</time>
      </trkpt>
      <trkpt lat="46.38075334019959" lon="8.387874774634838">
        <ele>2088.1199999999999</ele>
        <time>2016-12-04T12:29:02Z</time>
      </trkpt>
      <trkpt lat="46.38082567602396" lon="8.387839319184423">
        <ele>2088.1199999999999</ele>
        <time>2016-12-04T12:29:11Z</time>
      </trkpt>
      <trkpt lat="46.380796507000923" lon="8.387850718572736">
        <ele>2088.1199999999999</ele>
        <time>2016-12-04T12:29:24Z</time>
      </trkpt>
      <trkpt lat="46.380790052935481" lon="8.387829512357712">
        <ele>2088.1199999999999</ele>
        <time>2016-12-04T12:29:28Z</time>
      </trkpt>
      <trkpt lat="46.380810923874378" lon="8.387693474069238">
        <ele>2087.6399999999999</ele>
        <time>2016-12-04T12:29:38Z</time>
      </trkpt>
      <trkpt lat="46.380843780934811" lon="8.387547628954053">
        <ele>2087.6399999999999</ele>
        <time>2016-12-04T12:29:48Z</time>
      </trkpt>
      <trkpt lat="46.380836237221956" lon="8.387425085529685">
        <ele>2087.6399999999999</ele>
        <time>2016-12-04T12:29:58Z</time>
      </trkpt>
      <trkpt lat="46.380834979936481" lon="8.387295501306653">
        <ele>2087.1599999999999</ele>
        <time>2016-12-04T12:30:07Z</time>
      </trkpt>
      <trkpt lat="46.380833890289068" lon="8.387174382805824">
        <ele>2088.1199999999999</ele>
        <time>2016-12-04T12:30:16Z</time>
      </trkpt>
      <trkpt lat="46.380843948572874" lon="8.387020407244563">
        <ele>2088.5999999999999</ele>
        <time>2016-12-04T12:30:27Z</time>
      </trkpt>
      <trkpt lat="46.380850067362189" lon="8.386870538815856">
        <ele>2088.5999999999999</ele>
        <time>2016-12-04T12:30:38Z</time>
      </trkpt>
      <trkpt lat="46.38085157610476" lon="8.386838939040899">
        <ele>2088.5999999999999</ele>
        <time>2016-12-04T12:30:41Z</time>
      </trkpt>
      <trkpt lat="46.380889294669032" lon="8.386776996776462">
        <ele>2088.1199999999999</ele>
        <time>2016-12-04T12:30:52Z</time>
      </trkpt>
      <trkpt lat="46.380939250811934" lon="8.386781942099333">
        <ele>2085.7199999999998</ele>
        <time>2016-12-04T12:30:59Z</time>
      </trkpt>
      <trkpt lat="46.380951656028628" lon="8.386681023985148">
        <ele>2082.8299999999999</ele>
        <time>2016-12-04T12:31:09Z</time>
      </trkpt>
      <trkpt lat="46.380948135629296" lon="8.386594355106354">
        <ele>2080.4299999999998</ele>
        <time>2016-12-04T12:31:19Z</time>
      </trkpt>
      <trkpt lat="46.380931790918112" lon="8.386530233547092">
        <ele>2078.0300000000002</ele>
        <time>2016-12-04T12:31:26Z</time>
      </trkpt>
      <trkpt lat="46.380929863080382" lon="8.386448007076979">
        <ele>2077.0700000000002</ele>
        <time>2016-12-04T12:31:36Z</time>
      </trkpt>
      <trkpt lat="46.380937825888395" lon="8.386333175003529">
        <ele>2075.1399999999999</ele>
        <time>2016-12-04T12:31:46Z</time>
      </trkpt>
      <trkpt lat="46.380959618836641" lon="8.38622136041522">
        <ele>2072.2600000000002</ele>
        <time>2016-12-04T12:31:57Z</time>
      </trkpt>
      <trkpt lat="46.38097763992846" lon="8.386153131723404">
        <ele>2071.7800000000002</ele>
        <time>2016-12-04T12:32:06Z</time>
      </trkpt>
      <trkpt lat="46.380997421219945" lon="8.386127650737763">
        <ele>2071.3000000000002</ele>
        <time>2016-12-04T12:32:22Z</time>
      </trkpt>
      <trkpt lat="46.380992392078042" lon="8.386076269671321">
        <ele>2070.8200000000002</ele>
        <time>2016-12-04T12:32:26Z</time>
      </trkpt>
      <trkpt lat="46.381022818386555" lon="8.385962275788188">
        <ele>2069.8600000000001</ele>
        <time>2016-12-04T12:32:37Z</time>
      </trkpt>
      <trkpt lat="46.381033044308424" lon="8.385915672406554">
        <ele>2068.8899999999999</ele>
        <time>2016-12-04T12:32:42Z</time>
      </trkpt>
      <trkpt lat="46.381038073450327" lon="8.385896226391196">
        <ele>2068.4099999999999</ele>
        <time>2016-12-04T12:32:44Z</time>
      </trkpt>
      <trkpt lat="46.381023153662682" lon="8.385774688795209">
        <ele>2068.4099999999999</ele>
        <time>2016-12-04T12:32:54Z</time>
      </trkpt>
      <trkpt lat="46.381063973531127" lon="8.385635633021593">
        <ele>2068.8899999999999</ele>
        <time>2016-12-04T12:33:04Z</time>
      </trkpt>
      <trkpt lat="46.381073193624616" lon="8.385592550039291">
        <ele>2068.8899999999999</ele>
        <time>2016-12-04T12:33:07Z</time>
      </trkpt>
      <trkpt lat="46.381103536114097" lon="8.385472521185875">
        <ele>2069.3800000000001</ele>
        <time>2016-12-04T12:33:17Z</time>
      </trkpt>
      <trkpt lat="46.381110996007919" lon="8.385439580306411">
        <ele>2069.3800000000001</ele>
        <time>2016-12-04T12:33:20Z</time>
      </trkpt>
      <trkpt lat="46.381094064563513" lon="8.385331789031625">
        <ele>2069.8600000000001</ele>
        <time>2016-12-04T12:33:29Z</time>
      </trkpt>
      <trkpt lat="46.381123987957835" lon="8.385265152901411">
        <ele>2069.8600000000001</ele>
        <time>2016-12-04T12:33:35Z</time>
      </trkpt>
      <trkpt lat="46.38119749724865" lon="8.385194074362516">
        <ele>2069.3800000000001</ele>
        <time>2016-12-04T12:33:44Z</time>
      </trkpt>
      <trkpt lat="46.381193138659" lon="8.385133305564523">
        <ele>2069.8600000000001</ele>
        <time>2016-12-04T12:33:50Z</time>
      </trkpt>
      <trkpt lat="46.381199089810252" lon="8.38503641076386">
        <ele>2069.8600000000001</ele>
        <time>2016-12-04T12:33:57Z</time>
      </trkpt>
      <trkpt lat="46.381178805604577" lon="8.384879920631647">
        <ele>2070.3400000000001</ele>
        <time>2016-12-04T12:34:09Z</time>
      </trkpt>
      <trkpt lat="46.381148798391223" lon="8.384780343621969">
        <ele>2070.3400000000001</ele>
        <time>2016-12-04T12:34:18Z</time>
      </trkpt>
      <trkpt lat="46.381129436194897" lon="8.384643467143178">
        <ele>2071.3000000000002</ele>
        <time>2016-12-04T12:34:29Z</time>
      </trkpt>
      <trkpt lat="46.381120383739471" lon="8.384593511000276">
        <ele>2071.3000000000002</ele>
        <time>2016-12-04T12:34:33Z</time>
      </trkpt>
      <trkpt lat="46.38109196908772" lon="8.384430482983589">
        <ele>2072.2600000000002</ele>
        <time>2016-12-04T12:34:46Z</time>
      </trkpt>
      <trkpt lat="46.381089203059673" lon="8.384410031139851">
        <ele>2072.2600000000002</ele>
        <time>2016-12-04T12:34:48Z</time>
      </trkpt>
      <trkpt lat="46.381057016551495" lon="8.384261252358556">
        <ele>2072.7399999999998</ele>
        <time>2016-12-04T12:35:00Z</time>
      </trkpt>
      <trkpt lat="46.381047880277038" lon="8.38424189016223">
        <ele>2072.2600000000002</ele>
        <time>2016-12-04T12:35:02Z</time>
      </trkpt>
      <trkpt lat="46.380991721525788" lon="8.384125214070082">
        <ele>2072.7399999999998</ele>
        <time>2016-12-04T12:35:13Z</time>
      </trkpt>
      <trkpt lat="46.380955511704087" lon="8.384029744192958">
        <ele>2073.6999999999998</ele>
        <time>2016-12-04T12:35:24Z</time>
      </trkpt>
      <trkpt lat="46.380937658250332" lon="8.383943494409323">
        <ele>2074.6599999999999</ele>
        <time>2016-12-04T12:35:36Z</time>
      </trkpt>
      <trkpt lat="46.380945621058345" lon="8.383964784443378">
        <ele>2075.1399999999999</ele>
        <time>2016-12-04T12:35:47Z</time>
      </trkpt>
      <trkpt lat="46.380924079567194" lon="8.383949529379606">
        <ele>2074.6599999999999</ele>
        <time>2016-12-04T12:35:58Z</time>
      </trkpt>
      <trkpt lat="46.380930533632636" lon="8.383942656219006">
        <ele>2074.6599999999999</ele>
        <time>2016-12-04T12:36:11Z</time>
      </trkpt>
      <trkpt lat="46.380918296054006" lon="8.383914744481444">
        <ele>2074.6599999999999</ele>
        <time>2016-12-04T12:36:13Z</time>
      </trkpt>
      <trkpt lat="46.380876051262021" lon="8.383781723678112">
        <ele>2075.1399999999999</ele>
        <time>2016-12-04T12:36:23Z</time>
      </trkpt>
      <trkpt lat="46.380837829783559" lon="8.383633196353912">
        <ele>2075.6199999999999</ele>
        <time>2016-12-04T12:36:35Z</time>
      </trkpt>
      <trkpt lat="46.380794327706099" lon="8.383516352623701">
        <ele>2075.6199999999999</ele>
        <time>2016-12-04T12:36:45Z</time>
      </trkpt>
      <trkpt lat="46.380788208916783" lon="8.383386265486479">
        <ele>2076.0999999999999</ele>
        <time>2016-12-04T12:36:56Z</time>
      </trkpt>
      <trkpt lat="46.380775133147836" lon="8.383253999054432">
        <ele>2077.0700000000002</ele>
        <time>2016-12-04T12:37:06Z</time>
      </trkpt>
      <trkpt lat="46.380768176168203" lon="8.383109495043755">
        <ele>2077.5500000000002</ele>
        <time>2016-12-04T12:37:18Z</time>
      </trkpt>
      <trkpt lat="46.380750657990575" lon="8.382953340187669">
        <ele>2078.5100000000002</ele>
        <time>2016-12-04T12:37:31Z</time>
      </trkpt>
      <trkpt lat="46.380751328542829" lon="8.382817469537258">
        <ele>2079.4699999999998</ele>
        <time>2016-12-04T12:37:42Z</time>
      </trkpt>
      <trkpt lat="46.380739761516452" lon="8.38271982036531">
        <ele>2080.9099999999999</ele>
        <time>2016-12-04T12:37:53Z</time>
      </trkpt>
      <trkpt lat="46.380717130377889" lon="8.382560899481177">
        <ele>2081.8699999999999</ele>
        <time>2016-12-04T12:38:05Z</time>
      </trkpt>
      <trkpt lat="46.380742276087403" lon="8.382480265572667">
        <ele>2081.8699999999999</ele>
        <time>2016-12-04T12:38:13Z</time>
      </trkpt>
      <trkpt lat="46.380817629396915" lon="8.382346238940954">
        <ele>2082.8299999999999</ele>
        <time>2016-12-04T12:38:25Z</time>
      </trkpt>
      <trkpt lat="46.380842523649335" lon="8.382278345525265">
        <ele>2083.3099999999999</ele>
        <time>2016-12-04T12:38:34Z</time>
      </trkpt>
      <trkpt lat="46.380879990756512" lon="8.382220510393381">
        <ele>2083.3099999999999</ele>
        <time>2016-12-04T12:38:44Z</time>
      </trkpt>
      <trkpt lat="46.380906477570534" lon="8.382167117670178">
        <ele>2083.3099999999999</ele>
        <time>2016-12-04T12:38:53Z</time>
      </trkpt>
      <trkpt lat="46.380898095667362" lon="8.382162004709244">
        <ele>2083.79</ele>
        <time>2016-12-04T12:38:54Z</time>
      </trkpt>
      <trkpt lat="46.380861550569534" lon="8.382066367194057">
        <ele>2084.2800000000002</ele>
        <time>2016-12-04T12:39:04Z</time>
      </trkpt>
      <trkpt lat="46.380863981321454" lon="8.382035940885544">
        <ele>2084.2800000000002</ele>
        <time>2016-12-04T12:39:06Z</time>
      </trkpt>
      <trkpt lat="46.380909578874707" lon="8.38205287232995">
        <ele>2084.2800000000002</ele>
        <time>2016-12-04T12:39:15Z</time>
      </trkpt>
      <trkpt lat="46.380937825888395" lon="8.382096122950316">
        <ele>2084.7600000000002</ele>
        <time>2016-12-04T12:39:25Z</time>
      </trkpt>
      <trkpt lat="46.380975879728794" lon="8.3821383677423">
        <ele>2084.7600000000002</ele>
        <time>2016-12-04T12:39:35Z</time>
      </trkpt>
      <trkpt lat="46.380982417613268" lon="8.382170721888542">
        <ele>2085.2399999999998</ele>
        <time>2016-12-04T12:39:44Z</time>
      </trkpt>
      <trkpt lat="46.38099423609674" lon="8.382215648889542">
        <ele>2085.7199999999998</ele>
        <time>2016-12-04T12:39:53Z</time>
      </trkpt>
      <trkpt lat="46.381024494767189" lon="8.38224632665515">
        <ele>2084.7600000000002</ele>
        <time>2016-12-04T12:40:04Z</time>
      </trkpt>
      <trkpt lat="46.381018459796906" lon="8.382240626960993">
        <ele>2084.7600000000002</ele>
        <time>2016-12-04T12:40:13Z</time>
      </trkpt>
      <trkpt lat="46.381016448140144" lon="8.382241129875183">
        <ele>2084.2800000000002</ele>
        <time>2016-12-04T12:40:19Z</time>
      </trkpt>
      <trkpt lat="46.381041426211596" lon="8.382245404645801">
        <ele>2082.8299999999999</ele>
        <time>2016-12-04T12:40:30Z</time>
      </trkpt>
      <trkpt lat="46.381099848076701" lon="8.382201818749309">
        <ele>2083.3099999999999</ele>
        <time>2016-12-04T12:40:43Z</time>
      </trkpt>
      <trkpt lat="46.381126502528787" lon="8.382168542593718">
        <ele>2083.79</ele>
        <time>2016-12-04T12:40:54Z</time>
      </trkpt>
      <trkpt lat="46.381136896088719" lon="8.382148928940296">
        <ele>2084.7600000000002</ele>
        <time>2016-12-04T12:41:05Z</time>
      </trkpt>
      <trkpt lat="46.381182661280036" lon="8.382086316123605">
        <ele>2085.7199999999998</ele>
        <time>2016-12-04T12:41:14Z</time>
      </trkpt>
      <trkpt lat="46.381232365965843" lon="8.38200300000608">
        <ele>2087.6399999999999</ele>
        <time>2016-12-04T12:41:25Z</time>
      </trkpt>
      <trkpt lat="46.381295649334788" lon="8.381937369704247">
        <ele>2089.5599999999999</ele>
        <time>2016-12-04T12:41:36Z</time>
      </trkpt>
      <trkpt lat="46.381300846114755" lon="8.381897052749991">
        <ele>2091</ele>
        <time>2016-12-04T12:41:45Z</time>
      </trkpt>
      <trkpt lat="46.381339738145471" lon="8.381838211789727">
        <ele>2092.4499999999998</ele>
        <time>2016-12-04T12:41:54Z</time>
      </trkpt>
      <trkpt lat="46.381382150575519" lon="8.381749698892236">
        <ele>2093.8899999999999</ele>
        <time>2016-12-04T12:42:05Z</time>
      </trkpt>
      <trkpt lat="46.381429759785533" lon="8.381664790213108">
        <ele>2095.3299999999999</ele>
        <time>2016-12-04T12:42:14Z</time>
      </trkpt>
      <trkpt lat="46.381427580490708" lon="8.381621958687902">
        <ele>2096.29</ele>
        <time>2016-12-04T12:42:24Z</time>
      </trkpt>
      <trkpt lat="46.381454151123762" lon="8.381528751924634">
        <ele>2098.21</ele>
        <time>2016-12-04T12:42:36Z</time>
      </trkpt>
      <trkpt lat="46.381479632109404" lon="8.381473766639829">
        <ele>2098.6999999999998</ele>
        <time>2016-12-04T12:42:44Z</time>
      </trkpt>
      <trkpt lat="46.381504107266665" lon="8.381425319239497">
        <ele>2099.1799999999998</ele>
        <time>2016-12-04T12:42:50Z</time>
      </trkpt>
      <trkpt lat="46.381558757275343" lon="8.381247874349356">
        <ele>2100.1399999999999</ele>
        <time>2016-12-04T12:43:05Z</time>
      </trkpt>
      <trkpt lat="46.381551045924425" lon="8.381160702556372">
        <ele>2101.0999999999999</ele>
        <time>2016-12-04T12:43:14Z</time>
      </trkpt>
      <trkpt lat="46.381589183583856" lon="8.381068333983421">
        <ele>2102.0599999999999</ele>
        <time>2016-12-04T12:43:25Z</time>
      </trkpt>
      <trkpt lat="46.381620280444622" lon="8.380980743095279">
        <ele>2103.02</ele>
        <time>2016-12-04T12:43:36Z</time>
      </trkpt>
      <trkpt lat="46.381611060351133" lon="8.380896840244532">
        <ele>2104.9400000000001</ele>
        <time>2016-12-04T12:43:47Z</time>
      </trkpt>
      <trkpt lat="46.381650120019913" lon="8.380782008171082">
        <ele>2105.9099999999999</ele>
        <time>2016-12-04T12:44:00Z</time>
      </trkpt>
      <trkpt lat="46.381654059514403" lon="8.380679581314325">
        <ele>2107.3499999999999</ele>
        <time>2016-12-04T12:44:11Z</time>
      </trkpt>
      <trkpt lat="46.381592787802219" lon="8.380572209134698">
        <ele>2107.8299999999999</ele>
        <time>2016-12-04T12:44:25Z</time>
      </trkpt>
      <trkpt lat="46.381590943783522" lon="8.38053029961884">
        <ele>2108.3099999999999</ele>
        <time>2016-12-04T12:44:34Z</time>
      </trkpt>
      <trkpt lat="46.381604606285691" lon="8.380491239950061">
        <ele>2108.3099999999999</ele>
        <time>2016-12-04T12:44:50Z</time>
      </trkpt>
      <trkpt lat="46.381613239645958" lon="8.380479421466589">
        <ele>2108.3099999999999</ele>
        <time>2016-12-04T12:45:07Z</time>
      </trkpt>
      <trkpt lat="46.381603600457311" lon="8.380465758964419">
        <ele>2108.3099999999999</ele>
        <time>2016-12-04T12:45:10Z</time>
      </trkpt>
      <trkpt lat="46.38157376088202" lon="8.380342293530703">
        <ele>2108.79</ele>
        <time>2016-12-04T12:45:22Z</time>
      </trkpt>
      <trkpt lat="46.38158013112843" lon="8.380202148109675">
        <ele>2108.79</ele>
        <time>2016-12-04T12:45:32Z</time>
      </trkpt>
      <trkpt lat="46.381591195240617" lon="8.380081951618195">
        <ele>2109.27</ele>
        <time>2016-12-04T12:45:41Z</time>
      </trkpt>
      <trkpt lat="46.381575940176845" lon="8.379983631893992">
        <ele>2110.71</ele>
        <time>2016-12-04T12:45:50Z</time>
      </trkpt>
      <trkpt lat="46.381571078673005" lon="8.379937866702676">
        <ele>2111.1900000000001</ele>
        <time>2016-12-04T12:45:53Z</time>
      </trkpt>
      <trkpt lat="46.381573509424925" lon="8.379808617755771">
        <ele>2111.6700000000001</ele>
        <time>2016-12-04T12:46:04Z</time>
      </trkpt>
      <trkpt lat="46.381585244089365" lon="8.37967031635344">
        <ele>2111.6700000000001</ele>
        <time>2016-12-04T12:46:15Z</time>
      </trkpt>
      <trkpt lat="46.381590021774173" lon="8.379634106531739">
        <ele>2112.1500000000001</ele>
        <time>2016-12-04T12:46:27Z</time>
      </trkpt>
      <trkpt lat="46.3815713301301" lon="8.379626562818885">
        <ele>2112.1500000000001</ele>
        <time>2016-12-04T12:46:49Z</time>
      </trkpt>
      <trkpt lat="46.381559679284692" lon="8.379637375473976">
        <ele>2111.6700000000001</ele>
        <time>2016-12-04T12:47:10Z</time>
      </trkpt>
      <trkpt lat="46.38156303204596" lon="8.379642488434911">
        <ele>2111.6700000000001</ele>
        <time>2016-12-04T12:47:32Z</time>
      </trkpt>
      <trkpt lat="46.381592452526093" lon="8.379626143723726">
        <ele>2111.6700000000001</ele>
        <time>2016-12-04T12:47:49Z</time>
      </trkpt>
      <trkpt lat="46.381598822772503" lon="8.379610637202859">
        <ele>2111.6700000000001</ele>
        <time>2016-12-04T12:48:05Z</time>
      </trkpt>
      <trkpt lat="46.381594045087695" lon="8.379615247249603">
        <ele>2111.6700000000001</ele>
        <time>2016-12-04T12:48:14Z</time>
      </trkpt>
      <trkpt lat="46.381571078673005" lon="8.379626395180821">
        <ele>2111.6700000000001</ele>
        <time>2016-12-04T12:48:33Z</time>
      </trkpt>
      <trkpt lat="46.381579292938113" lon="8.379609463736415">
        <ele>2111.6700000000001</ele>
        <time>2016-12-04T12:48:48Z</time>
      </trkpt>
      <trkpt lat="46.381586836650968" lon="8.379603093490005">
        <ele>2111.1900000000001</ele>
        <time>2016-12-04T12:48:53Z</time>
      </trkpt>
      <trkpt lat="46.381591111421585" lon="8.379569482058287">
        <ele>2111.1900000000001</ele>
        <time>2016-12-04T12:48:56Z</time>
      </trkpt>
      <trkpt lat="46.381618017330766" lon="8.379527572542429">
        <ele>2110.71</ele>
        <time>2016-12-04T12:49:00Z</time>
      </trkpt>
      <trkpt lat="46.3816421572119" lon="8.379450710490346">
        <ele>2110.23</ele>
        <time>2016-12-04T12:49:05Z</time>
      </trkpt>
      <trkpt lat="46.381704015657306" lon="8.379324059933424">
        <ele>2109.27</ele>
        <time>2016-12-04T12:49:16Z</time>
      </trkpt>
      <trkpt lat="46.381713151931763" lon="8.379245437681675">
        <ele>2110.23</ele>
        <time>2016-12-04T12:49:24Z</time>
      </trkpt>
      <trkpt lat="46.381721701472998" lon="8.379170252010226">
        <ele>2111.1900000000001</ele>
        <time>2016-12-04T12:49:32Z</time>
      </trkpt>
      <trkpt lat="46.381741566583514" lon="8.379029519855976">
        <ele>2112.6300000000001</ele>
        <time>2016-12-04T12:49:45Z</time>
      </trkpt>
      <trkpt lat="46.381735866889358" lon="8.378942934796214">
        <ele>2114.5599999999999</ele>
        <time>2016-12-04T12:49:57Z</time>
      </trkpt>
      <trkpt lat="46.381752798333764" lon="8.378888452425599">
        <ele>2115.04</ele>
        <time>2016-12-04T12:50:07Z</time>
      </trkpt>
      <trkpt lat="46.381795797497034" lon="8.378777978941798">
        <ele>2115.52</ele>
        <time>2016-12-04T12:50:18Z</time>
      </trkpt>
      <trkpt lat="46.381809040904045" lon="8.378734812140465">
        <ele>2116.96</ele>
        <time>2016-12-04T12:50:24Z</time>
      </trkpt>
      <trkpt lat="46.381801748648286" lon="8.378651831299067">
        <ele>2117.9200000000001</ele>
        <time>2016-12-04T12:50:34Z</time>
      </trkpt>
      <trkpt lat="46.381790433079004" lon="8.37860120460391">
        <ele>2119.3600000000001</ele>
        <time>2016-12-04T12:50:45Z</time>
      </trkpt>
      <trkpt lat="46.38178045861423" lon="8.378523252904415">
        <ele>2120.3200000000002</ele>
        <time>2016-12-04T12:50:55Z</time>
      </trkpt>
      <trkpt lat="46.381781799718738" lon="8.378480672836304">
        <ele>2121.29</ele>
        <time>2016-12-04T12:51:00Z</time>
      </trkpt>
      <trkpt lat="46.381787331774831" lon="8.378417138010263">
        <ele>2122.73</ele>
        <time>2016-12-04T12:51:11Z</time>
      </trkpt>
      <trkpt lat="46.381786912679672" lon="8.378359386697412">
        <ele>2123.21</ele>
        <time>2016-12-04T12:51:23Z</time>
      </trkpt>
      <trkpt lat="46.381818344816566" lon="8.378311106935144">
        <ele>2124.6500000000001</ele>
        <time>2016-12-04T12:51:32Z</time>
      </trkpt>
      <trkpt lat="46.381835862994194" lon="8.378223013132811">
        <ele>2126.0900000000001</ele>
        <time>2016-12-04T12:51:43Z</time>
      </trkpt>
      <trkpt lat="46.381850447505713" lon="8.378162328153849">
        <ele>2127.5300000000002</ele>
        <time>2016-12-04T12:51:53Z</time>
      </trkpt>
      <trkpt lat="46.381866708397865" lon="8.378103822469711">
        <ele>2130.4200000000001</ele>
        <time>2016-12-04T12:52:02Z</time>
      </trkpt>
      <trkpt lat="46.38188112527132" lon="8.378037689253688">
        <ele>2130.9000000000001</ele>
        <time>2016-12-04T12:52:12Z</time>
      </trkpt>
      <trkpt lat="46.381885316222906" lon="8.37798111140728">
        <ele>2131.8600000000001</ele>
        <time>2016-12-04T12:52:21Z</time>
      </trkpt>
      <trkpt lat="46.381894955411553" lon="8.377952445298433">
        <ele>2132.8200000000002</ele>
        <time>2016-12-04T12:52:30Z</time>
      </trkpt>
      <trkpt lat="46.381899733096361" lon="8.377890754491091">
        <ele>2133.3000000000002</ele>
        <time>2016-12-04T12:52:39Z</time>
      </trkpt>
      <trkpt lat="46.381882131099701" lon="8.377801403403282">
        <ele>2134.7399999999998</ele>
        <time>2016-12-04T12:52:53Z</time>
      </trkpt>
      <trkpt lat="46.381876179948449" lon="8.377705179154873">
        <ele>2136.6700000000001</ele>
        <time>2016-12-04T12:53:05Z</time>
      </trkpt>
      <trkpt lat="46.381866289302707" lon="8.377595376223326">
        <ele>2138.5900000000001</ele>
        <time>2016-12-04T12:53:18Z</time>
      </trkpt>
      <trkpt lat="46.381853548809886" lon="8.377521196380258">
        <ele>2140.0300000000002</ele>
        <time>2016-12-04T12:53:29Z</time>
      </trkpt>
      <trkpt lat="46.381854387000203" lon="8.377424636855722">
        <ele>2141.4699999999998</ele>
        <time>2016-12-04T12:53:39Z</time>
      </trkpt>
      <trkpt lat="46.381837539374828" lon="8.377334950491786">
        <ele>2142.4400000000001</ele>
        <time>2016-12-04T12:53:52Z</time>
      </trkpt>
      <trkpt lat="46.381831588223577" lon="8.377266302704811">
        <ele>2142.9200000000001</ele>
        <time>2016-12-04T12:53:58Z</time>
      </trkpt>
      <trkpt lat="46.381823625415564" lon="8.377181813120842">
        <ele>2143.4000000000001</ele>
        <time>2016-12-04T12:54:09Z</time>
      </trkpt>
      <trkpt lat="46.381799066439271" lon="8.377227913588285">
        <ele>2143.4000000000001</ele>
        <time>2016-12-04T12:54:27Z</time>
      </trkpt>
      <trkpt lat="46.381782721728086" lon="8.377173934131861">
        <ele>2143.4000000000001</ele>
        <time>2016-12-04T12:54:36Z</time>
      </trkpt>
      <trkpt lat="46.38178339228034" lon="8.377029430121183">
        <ele>2143.4000000000001</ele>
        <time>2016-12-04T12:54:47Z</time>
      </trkpt>
      <trkpt lat="46.381786661222577" lon="8.376922225579619">
        <ele>2144.3600000000001</ele>
        <time>2016-12-04T12:54:56Z</time>
      </trkpt>
      <trkpt lat="46.381784146651626" lon="8.376872688531876">
        <ele>2144.8400000000001</ele>
        <time>2016-12-04T12:55:00Z</time>
      </trkpt>
      <trkpt lat="46.381791606545448" lon="8.37672583758831">
        <ele>2144.8400000000001</ele>
        <time>2016-12-04T12:55:11Z</time>
      </trkpt>
      <trkpt lat="46.381814824417233" lon="8.3765899669379">
        <ele>2144.8400000000001</ele>
        <time>2016-12-04T12:55:21Z</time>
      </trkpt>
      <trkpt lat="46.381819937378168" lon="8.376524755731225">
        <ele>2144.8400000000001</ele>
        <time>2016-12-04T12:55:26Z</time>
      </trkpt>
      <trkpt lat="46.381815243512392" lon="8.376423083245754">
        <ele>2145.3200000000002</ele>
        <time>2016-12-04T12:55:35Z</time>
      </trkpt>
      <trkpt lat="46.381794959306717" lon="8.37628461420536">
        <ele>2145.3200000000002</ele>
        <time>2016-12-04T12:55:46Z</time>
      </trkpt>
      <trkpt lat="46.381771406158805" lon="8.376155700534582">
        <ele>2145.3200000000002</ele>
        <time>2016-12-04T12:55:57Z</time>
      </trkpt>
      <trkpt lat="46.3817423209548" lon="8.376013291999698">
        <ele>2145.3200000000002</ele>
        <time>2016-12-04T12:56:09Z</time>
      </trkpt>
      <trkpt lat="46.381735531613231" lon="8.375860657542944">
        <ele>2144.8400000000001</ele>
        <time>2016-12-04T12:56:21Z</time>
      </trkpt>
      <trkpt lat="46.381743494421244" lon="8.375835511833429">
        <ele>2144.8400000000001</ele>
        <time>2016-12-04T12:56:28Z</time>
      </trkpt>
      <trkpt lat="46.381728490814567" lon="8.375679273158312">
        <ele>2144.8400000000001</ele>
        <time>2016-12-04T12:56:40Z</time>
      </trkpt>
      <trkpt lat="46.381707284599543" lon="8.375579779967666">
        <ele>2146.2800000000002</ele>
        <time>2016-12-04T12:56:51Z</time>
      </trkpt>
      <trkpt lat="46.381738213822246" lon="8.375476012006402">
        <ele>2146.7600000000002</ele>
        <time>2016-12-04T12:57:04Z</time>
      </trkpt>
      <trkpt lat="46.38175455853343" lon="8.375461930409074">
        <ele>2147.2399999999998</ele>
        <time>2016-12-04T12:57:14Z</time>
      </trkpt>
      <trkpt lat="46.381784314289689" lon="8.375444076955319">
        <ele>2147.7199999999998</ele>
        <time>2016-12-04T12:57:21Z</time>
      </trkpt>
      <trkpt lat="46.381830079481006" lon="8.37531759403646">
        <ele>2147.2399999999998</ele>
        <time>2016-12-04T12:57:32Z</time>
      </trkpt>
      <trkpt lat="46.381875509396195" lon="8.37514610029757">
        <ele>2145.8000000000002</ele>
        <time>2016-12-04T12:57:44Z</time>
      </trkpt>
      <trkpt lat="46.381909037008882" lon="8.374991705641151">
        <ele>2146.2800000000002</ele>
        <time>2016-12-04T12:57:56Z</time>
      </trkpt>
      <trkpt lat="46.38191289268434" lon="8.374909898266196">
        <ele>2146.7600000000002</ele>
        <time>2016-12-04T12:58:06Z</time>
      </trkpt>
      <trkpt lat="46.38191138394177" lon="8.374773859977722">
        <ele>2145.8000000000002</ele>
        <time>2016-12-04T12:58:17Z</time>
      </trkpt>
      <trkpt lat="46.381905013695359" lon="8.37468484416604">
        <ele>2146.7600000000002</ele>
        <time>2016-12-04T12:58:30Z</time>
      </trkpt>
      <trkpt lat="46.381913730874658" lon="8.374613514170051">
        <ele>2148.1999999999998</ele>
        <time>2016-12-04T12:58:39Z</time>
      </trkpt>
      <trkpt lat="46.381938541308045" lon="8.374503627419472">
        <ele>2148.6799999999998</ele>
        <time>2016-12-04T12:58:50Z</time>
      </trkpt>
      <trkpt lat="46.381949353963137" lon="8.37441511452198">
        <ele>2149.1599999999999</ele>
        <time>2016-12-04T12:58:59Z</time>
      </trkpt>
      <trkpt lat="46.382001992315054" lon="8.374288463965058">
        <ele>2149.6500000000001</ele>
        <time>2016-12-04T12:59:10Z</time>
      </trkpt>
      <trkpt lat="46.382034095004201" lon="8.374151587486267">
        <ele>2148.6799999999998</ele>
        <time>2016-12-04T12:59:21Z</time>
      </trkpt>
      <trkpt lat="46.382057564333081" lon="8.374044131487608">
        <ele>2148.6799999999998</ele>
        <time>2016-12-04T12:59:30Z</time>
      </trkpt>
      <trkpt lat="46.382102994248271" lon="8.37389811873436">
        <ele>2148.6799999999998</ele>
        <time>2016-12-04T12:59:41Z</time>
      </trkpt>
      <trkpt lat="46.382138868793845" lon="8.37376375682652">
        <ele>2148.1999999999998</ele>
        <time>2016-12-04T12:59:52Z</time>
      </trkpt>
      <trkpt lat="46.382181700319052" lon="8.37362889200449">
        <ele>2148.1999999999998</ele>
        <time>2016-12-04T13:00:03Z</time>
      </trkpt>
      <trkpt lat="46.382211372256279" lon="8.373557981103659">
        <ele>2147.2399999999998</ele>
        <time>2016-12-04T13:00:08Z</time>
      </trkpt>
      <trkpt lat="46.382261579856277" lon="8.373463097959757">
        <ele>2148.1999999999998</ele>
        <time>2016-12-04T13:00:18Z</time>
      </trkpt>
      <trkpt lat="46.382277086377144" lon="8.373429235070944">
        <ele>2148.1999999999998</ele>
        <time>2016-12-04T13:00:22Z</time>
      </trkpt>
      <trkpt lat="46.382303740829229" lon="8.373360084369779">
        <ele>2148.6799999999998</ele>
        <time>2016-12-04T13:00:33Z</time>
      </trkpt>
      <trkpt lat="46.382263842970133" lon="8.373368550091982">
        <ele>2148.1999999999998</ele>
        <time>2016-12-04T13:00:46Z</time>
      </trkpt>
      <trkpt lat="46.382278762757778" lon="8.373362263664603">
        <ele>2148.6799999999998</ele>
        <time>2016-12-04T13:01:00Z</time>
      </trkpt>
      <trkpt lat="46.38229695148766" lon="8.373352792114019">
        <ele>2148.6799999999998</ele>
        <time>2016-12-04T13:01:25Z</time>
      </trkpt>
      <trkpt lat="46.382299298420548" lon="8.373337704688311">
        <ele>2148.1999999999998</ele>
        <time>2016-12-04T13:01:27Z</time>
      </trkpt>
      <trkpt lat="46.382367862388492" lon="8.373235948383808">
        <ele>2148.6799999999998</ele>
        <time>2016-12-04T13:01:37Z</time>
      </trkpt>
      <trkpt lat="46.382412370294333" lon="8.373147267848253">
        <ele>2148.6799999999998</ele>
        <time>2016-12-04T13:01:45Z</time>
      </trkpt>
      <trkpt lat="46.382498620077968" lon="8.373026819899678">
        <ele>2148.6799999999998</ele>
        <time>2016-12-04T13:01:57Z</time>
      </trkpt>
      <trkpt lat="46.382521502673626" lon="8.372985664755106">
        <ele>2148.6799999999998</ele>
        <time>2016-12-04T13:02:00Z</time>
      </trkpt>
      <trkpt lat="46.382598783820868" lon="8.372881142422557">
        <ele>2148.6799999999998</ele>
        <time>2016-12-04T13:02:11Z</time>
      </trkpt>
      <trkpt lat="46.382632395252585" lon="8.372816601768136">
        <ele>2149.1599999999999</ele>
        <time>2016-12-04T13:02:19Z</time>
      </trkpt>
      <trkpt lat="46.38267413713038" lon="8.372807800769806">
        <ele>2150.6100000000001</ele>
        <time>2016-12-04T13:02:28Z</time>
      </trkpt>
      <trkpt lat="46.382781928405166" lon="8.372816182672977">
        <ele>2149.1599999999999</ele>
        <time>2016-12-04T13:02:40Z</time>
      </trkpt>
      <trkpt lat="46.382787544280291" lon="8.372808303683996">
        <ele>2149.1599999999999</ele>
        <time>2016-12-04T13:02:41Z</time>
      </trkpt>
      <trkpt lat="46.382885612547398" lon="8.37269707582891">
        <ele>2148.6799999999998</ele>
        <time>2016-12-04T13:02:53Z</time>
      </trkpt>
      <trkpt lat="46.382963396608829" lon="8.372598504647613">
        <ele>2148.6799999999998</ele>
        <time>2016-12-04T13:03:03Z</time>
      </trkpt>
      <trkpt lat="46.383044365793467" lon="8.372481828555465">
        <ele>2148.6799999999998</ele>
        <time>2016-12-04T13:03:15Z</time>
      </trkpt>
      <trkpt lat="46.383099518716335" lon="8.372376719489694">
        <ele>2149.1599999999999</ele>
        <time>2016-12-04T13:03:25Z</time>
      </trkpt>
      <trkpt lat="46.383143188431859" lon="8.372246967628598">
        <ele>2149.1599999999999</ele>
        <time>2016-12-04T13:03:36Z</time>
      </trkpt>
      <trkpt lat="46.383145451545715" lon="8.372223079204559">
        <ele>2149.1599999999999</ele>
        <time>2016-12-04T13:03:38Z</time>
      </trkpt>
      <trkpt lat="46.383196832612157" lon="8.372081508859992">
        <ele>2149.6500000000001</ele>
        <time>2016-12-04T13:03:49Z</time>
      </trkpt>
      <trkpt lat="46.383253829553723" lon="8.371963826939464">
        <ele>2150.1300000000001</ele>
        <time>2016-12-04T13:03:59Z</time>
      </trkpt>
      <trkpt lat="46.383263301104307" lon="8.3719152957201">
        <ele>2150.1300000000001</ele>
        <time>2016-12-04T13:04:03Z</time>
      </trkpt>
      <trkpt lat="46.383281489834189" lon="8.371848659589887">
        <ele>2150.6100000000001</ele>
        <time>2016-12-04T13:04:08Z</time>
      </trkpt>
      <trkpt lat="46.383332451805472" lon="8.371716560795903">
        <ele>2150.6100000000001</ele>
        <time>2016-12-04T13:04:19Z</time>
      </trkpt>
      <trkpt lat="46.38338509015739" lon="8.371595861390233">
        <ele>2151.0900000000001</ele>
        <time>2016-12-04T13:04:29Z</time>
      </trkpt>
      <trkpt lat="46.383433537557721" lon="8.371459906920791">
        <ele>2151.5700000000002</ele>
        <time>2016-12-04T13:04:39Z</time>
      </trkpt>
      <trkpt lat="46.383487349376082" lon="8.371336609125137">
        <ele>2152.0500000000002</ele>
        <time>2016-12-04T13:04:50Z</time>
      </trkpt>
      <trkpt lat="46.383528336882591" lon="8.371209539473057">
        <ele>2153.0100000000002</ele>
        <time>2016-12-04T13:05:00Z</time>
      </trkpt>
      <trkpt lat="46.383564630523324" lon="8.371095880866051">
        <ele>2153.9699999999998</ele>
        <time>2016-12-04T13:05:11Z</time>
      </trkpt>
      <trkpt lat="46.383602097630501" lon="8.370970152318478">
        <ele>2154.9299999999998</ele>
        <time>2016-12-04T13:05:21Z</time>
      </trkpt>
      <trkpt lat="46.383643504232168" lon="8.370835371315479">
        <ele>2155.8899999999999</ele>
        <time>2016-12-04T13:05:32Z</time>
      </trkpt>
      <trkpt lat="46.383659597486258" lon="8.370799664407969">
        <ele>2156.3699999999999</ele>
        <time>2016-12-04T13:05:36Z</time>
      </trkpt>
      <trkpt lat="46.383725143969059" lon="8.370663290843368">
        <ele>2157.3400000000001</ele>
        <time>2016-12-04T13:05:48Z</time>
      </trkpt>
      <trkpt lat="46.383729670196772" lon="8.370651472359896">
        <ele>2157.8200000000002</ele>
        <time>2016-12-04T13:05:49Z</time>
      </trkpt>
      <trkpt lat="46.38381608761847" lon="8.370566312223673">
        <ele>2159.2600000000002</ele>
        <time>2016-12-04T13:06:01Z</time>
      </trkpt>
      <trkpt lat="46.383885741233826" lon="8.370422814041376">
        <ele>2160.6999999999998</ele>
        <time>2016-12-04T13:06:17Z</time>
      </trkpt>
      <trkpt lat="46.383907785639167" lon="8.370285853743553">
        <ele>2162.1399999999999</ele>
        <time>2016-12-04T13:06:29Z</time>
      </trkpt>
      <trkpt lat="46.383941480889916" lon="8.370192144066095">
        <ele>2162.6199999999999</ele>
        <time>2016-12-04T13:06:38Z</time>
      </trkpt>
      <trkpt lat="46.383960843086243" lon="8.370082760229707">
        <ele>2163.0999999999999</ele>
        <time>2016-12-04T13:06:47Z</time>
      </trkpt>
      <trkpt lat="46.383988838642836" lon="8.369940938428044">
        <ele>2163.5799999999999</ele>
        <time>2016-12-04T13:06:58Z</time>
      </trkpt>
      <trkpt lat="46.38398707844317" lon="8.369779922068119">
        <ele>2164.0599999999999</ele>
        <time>2016-12-04T13:07:09Z</time>
      </trkpt>
      <trkpt lat="46.384064108133316" lon="8.369645308703184">
        <ele>2163.5799999999999</ele>
        <time>2016-12-04T13:07:21Z</time>
      </trkpt>
      <trkpt lat="46.38417617417872" lon="8.369577331468463">
        <ele>2164.0599999999999</ele>
        <time>2016-12-04T13:07:31Z</time>
      </trkpt>
      <trkpt lat="46.38418891467154" lon="8.36957280524075">
        <ele>2164.0599999999999</ele>
        <time>2016-12-04T13:07:32Z</time>
      </trkpt>
      <trkpt lat="46.3842514436692" lon="8.369531566277146">
        <ele>2164.5500000000002</ele>
        <time>2016-12-04T13:07:39Z</time>
      </trkpt>
      <trkpt lat="46.384305758401752" lon="8.369442047551274">
        <ele>2164.5500000000002</ele>
        <time>2016-12-04T13:07:46Z</time>
      </trkpt>
      <trkpt lat="46.384326461702585" lon="8.369399970397353">
        <ele>2165.0300000000002</ele>
        <time>2016-12-04T13:07:50Z</time>
      </trkpt>
      <trkpt lat="46.384349344298244" lon="8.369274660944939">
        <ele>2165.0300000000002</ele>
        <time>2016-12-04T13:08:01Z</time>
      </trkpt>
      <trkpt lat="46.384370718151331" lon="8.369176760315895">
        <ele>2165.0300000000002</ele>
        <time>2016-12-04T13:08:08Z</time>
      </trkpt>
      <trkpt lat="46.384408352896571" lon="8.368996800854802">
        <ele>2165.0300000000002</ele>
        <time>2016-12-04T13:08:20Z</time>
      </trkpt>
      <trkpt lat="46.384450178593397" lon="8.368816422298551">
        <ele>2165.0300000000002</ele>
        <time>2016-12-04T13:08:32Z</time>
      </trkpt>
      <trkpt lat="46.384469205513597" lon="8.368664039298892">
        <ele>2164.5500000000002</ele>
        <time>2016-12-04T13:08:42Z</time>
      </trkpt>
      <trkpt lat="46.384476162493229" lon="8.368620872497559">
        <ele>2164.5500000000002</ele>
        <time>2016-12-04T13:08:45Z</time>
      </trkpt>
      <trkpt lat="46.384477084502578" lon="8.36850268766284">
        <ele>2164.5500000000002</ele>
        <time>2016-12-04T13:08:53Z</time>
      </trkpt>
      <trkpt lat="46.384481526911259" lon="8.368429346010089">
        <ele>2164.5500000000002</ele>
        <time>2016-12-04T13:09:04Z</time>
      </trkpt>
      <trkpt lat="46.384483119472861" lon="8.368408726528287">
        <ele>2164.5500000000002</ele>
        <time>2016-12-04T13:09:21Z</time>
      </trkpt>
      <trkpt lat="46.384478090330958" lon="8.368423897773027">
        <ele>2164.5500000000002</ele>
        <time>2016-12-04T13:09:34Z</time>
      </trkpt>
      <trkpt lat="46.384495859965682" lon="8.368432447314262">
        <ele>2164.5500000000002</ele>
        <time>2016-12-04T13:09:47Z</time>
      </trkpt>
      <trkpt lat="46.384470965713263" lon="8.368428256362677">
        <ele>2164.5500000000002</ele>
        <time>2016-12-04T13:10:09Z</time>
      </trkpt>
      <trkpt lat="46.384471720084548" lon="8.368397327139974">
        <ele>2164.5500000000002</ele>
        <time>2016-12-04T13:10:13Z</time>
      </trkpt>
      <trkpt lat="46.384487226605415" lon="8.368199849501252">
        <ele>2164.0599999999999</ele>
        <time>2016-12-04T13:10:25Z</time>
      </trkpt>
      <trkpt lat="46.384488483890891" lon="8.368184929713607">
        <ele>2164.0599999999999</ele>
        <time>2016-12-04T13:10:26Z</time>
      </trkpt>
      <trkpt lat="46.384500721469522" lon="8.368010753765702">
        <ele>2164.0599999999999</ele>
        <time>2016-12-04T13:10:37Z</time>
      </trkpt>
      <trkpt lat="46.384502649307251" lon="8.367868680506945">
        <ele>2163.5799999999999</ele>
        <time>2016-12-04T13:10:46Z</time>
      </trkpt>
      <trkpt lat="46.38452067039907" lon="8.367800367996097">
        <ele>2164.0599999999999</ele>
        <time>2016-12-04T13:10:52Z</time>
      </trkpt>
      <trkpt lat="46.384539529681206" lon="8.367769522592425">
        <ele>2164.0599999999999</ele>
        <time>2016-12-04T13:10:55Z</time>
      </trkpt>
      <trkpt lat="46.384586552157998" lon="8.367641363292933">
        <ele>2165.0300000000002</ele>
        <time>2016-12-04T13:11:05Z</time>
      </trkpt>
      <trkpt lat="46.384630389511585" lon="8.367529716342688">
        <ele>2165.9899999999998</ele>
        <time>2016-12-04T13:11:16Z</time>
      </trkpt>
      <trkpt lat="46.38467364013195" lon="8.367491327226162">
        <ele>2166.4699999999998</ele>
        <time>2016-12-04T13:11:26Z</time>
      </trkpt>
      <trkpt lat="46.384699875488877" lon="8.367440029978752">
        <ele>2167.9099999999999</ele>
        <time>2016-12-04T13:11:38Z</time>
      </trkpt>
      <trkpt lat="46.384703395888209" lon="8.367434497922659">
        <ele>2167.9099999999999</ele>
        <time>2016-12-04T13:11:39Z</time>
      </trkpt>
      <trkpt lat="46.38472736813128" lon="8.367394516244531">
        <ele>2168.8699999999999</ele>
        <time>2016-12-04T13:11:44Z</time>
      </trkpt>
      <trkpt lat="46.384767768904567" lon="8.36729921400547">
        <ele>2170.79</ele>
        <time>2016-12-04T13:11:55Z</time>
      </trkpt>
      <trkpt lat="46.384774222970009" lon="8.367278091609478">
        <ele>2170.79</ele>
        <time>2016-12-04T13:11:57Z</time>
      </trkpt>
      <trkpt lat="46.384807331487536" lon="8.367160577327013">
        <ele>2171.7600000000002</ele>
        <time>2016-12-04T13:12:07Z</time>
      </trkpt>
      <trkpt lat="46.384827950969338" lon="8.367019845172763">
        <ele>2171.7600000000002</ele>
        <time>2016-12-04T13:12:18Z</time>
      </trkpt>
      <trkpt lat="46.384853851050138" lon="8.366873413324356">
        <ele>2172.2399999999998</ele>
        <time>2016-12-04T13:12:28Z</time>
      </trkpt>
      <trkpt lat="46.384880756959319" lon="8.36675338447094">
        <ele>2172.7199999999998</ele>
        <time>2016-12-04T13:12:38Z</time>
      </trkpt>
      <trkpt lat="46.384885199368" lon="8.366742487996817">
        <ele>2172.7199999999998</ele>
        <time>2016-12-04T13:12:47Z</time>
      </trkpt>
      <trkpt lat="46.384902466088533" lon="8.366691023111343">
        <ele>2172.7199999999998</ele>
        <time>2016-12-04T13:12:58Z</time>
      </trkpt>
      <trkpt lat="46.384956194087863" lon="8.366595637053251">
        <ele>2174.6399999999999</ele>
        <time>2016-12-04T13:13:09Z</time>
      </trkpt>
      <trkpt lat="46.385036408901215" lon="8.366550458595157">
        <ele>2176.5599999999999</ele>
        <time>2016-12-04T13:13:22Z</time>
      </trkpt>
      <trkpt lat="46.385087454691529" lon="8.366538807749748">
        <ele>2178</ele>
        <time>2016-12-04T13:13:30Z</time>
      </trkpt>
      <trkpt lat="46.385183678939939" lon="8.366535035893321">
        <ele>2179.4499999999998</ele>
        <time>2016-12-04T13:13:42Z</time>
      </trkpt>
      <trkpt lat="46.385230869054794" lon="8.366492874920368">
        <ele>2180.4099999999999</ele>
        <time>2016-12-04T13:13:52Z</time>
      </trkpt>
      <trkpt lat="46.385275879874825" lon="8.366462280973792">
        <ele>2181.3699999999999</ele>
        <time>2016-12-04T13:13:58Z</time>
      </trkpt>
      <trkpt lat="46.385353077203035" lon="8.36638156324625">
        <ele>2182.3299999999999</ele>
        <time>2016-12-04T13:14:09Z</time>
      </trkpt>
      <trkpt lat="46.385369841009378" lon="8.366345856338739">
        <ele>2182.8099999999999</ele>
        <time>2016-12-04T13:14:15Z</time>
      </trkpt>
      <trkpt lat="46.385416528210044" lon="8.36624619551003">
        <ele>2183.29</ele>
        <time>2016-12-04T13:14:25Z</time>
      </trkpt>
      <trkpt lat="46.385478219017386" lon="8.366130692884326">
        <ele>2184.25</ele>
        <time>2016-12-04T13:14:37Z</time>
      </trkpt>
      <trkpt lat="46.385536724701524" lon="8.366035977378488">
        <ele>2184.25</ele>
        <time>2016-12-04T13:14:47Z</time>
      </trkpt>
      <trkpt lat="46.38561082072556" lon="8.36591930128634">
        <ele>2185.21</ele>
        <time>2016-12-04T13:14:59Z</time>
      </trkpt>
      <trkpt lat="46.385655915364623" lon="8.365814024582505">
        <ele>2186.6599999999999</ele>
        <time>2016-12-04T13:15:09Z</time>
      </trkpt>
      <trkpt lat="46.385671840980649" lon="8.365732384845614">
        <ele>2187.6199999999999</ele>
        <time>2016-12-04T13:15:17Z</time>
      </trkpt>
      <trkpt lat="46.385709224268794" lon="8.365626269951463">
        <ele>2189.54</ele>
        <time>2016-12-04T13:15:28Z</time>
      </trkpt>
      <trkpt lat="46.385727915912867" lon="8.365501463413239">
        <ele>2190.98</ele>
        <time>2016-12-04T13:15:40Z</time>
      </trkpt>
      <trkpt lat="46.385739482939243" lon="8.365398785099387">
        <ele>2192.4200000000001</ele>
        <time>2016-12-04T13:15:50Z</time>
      </trkpt>
      <trkpt lat="46.385687850415707" lon="8.365351343527436">
        <ele>2193.8699999999999</ele>
        <time>2016-12-04T13:16:00Z</time>
      </trkpt>
      <trkpt lat="46.385648204013705" lon="8.365310439839959">
        <ele>2194.3499999999999</ele>
        <time>2016-12-04T13:16:06Z</time>
      </trkpt>
      <trkpt lat="46.385643091052771" lon="8.365150345489383">
        <ele>2195.3099999999999</ele>
        <time>2016-12-04T13:16:17Z</time>
      </trkpt>
      <trkpt lat="46.385642755776644" lon="8.365125115960836">
        <ele>2195.3099999999999</ele>
        <time>2016-12-04T13:16:19Z</time>
      </trkpt>
      <trkpt lat="46.385640995576978" lon="8.365103406831622">
        <ele>2195.3099999999999</ele>
        <time>2016-12-04T13:16:26Z</time>
      </trkpt>
      <trkpt lat="46.385634876787663" lon="8.365043895319104">
        <ele>2195.79</ele>
        <time>2016-12-04T13:16:30Z</time>
      </trkpt>
      <trkpt lat="46.38562741689384" lon="8.3649767562747">
        <ele>2195.79</ele>
        <time>2016-12-04T13:16:34Z</time>
      </trkpt>
      <trkpt lat="46.385616939514875" lon="8.364936439320445">
        <ele>2195.79</ele>
        <time>2016-12-04T13:16:37Z</time>
      </trkpt>
      <trkpt lat="46.385583076626062" lon="8.364861337468028">
        <ele>2195.79</ele>
        <time>2016-12-04T13:16:44Z</time>
      </trkpt>
      <trkpt lat="46.385505376383662" lon="8.364805430173874">
        <ele>2196.75</ele>
        <time>2016-12-04T13:16:55Z</time>
      </trkpt>
      <trkpt lat="46.385503197088838" lon="8.364808028563857">
        <ele>2196.75</ele>
        <time>2016-12-04T13:17:11Z</time>
      </trkpt>
      <trkpt lat="46.385405045002699" lon="8.364765951409936">
        <ele>2197.71</ele>
        <time>2016-12-04T13:17:21Z</time>
      </trkpt>
      <trkpt lat="46.385388197377324" lon="8.364756731316447">
        <ele>2197.71</ele>
        <time>2016-12-04T13:17:23Z</time>
      </trkpt>
      <trkpt lat="46.385341510176659" lon="8.364741895347834">
        <ele>2198.1900000000001</ele>
        <time>2016-12-04T13:17:28Z</time>
      </trkpt>
      <trkpt lat="46.385281747207046" lon="8.364737117663026">
        <ele>2198.6700000000001</ele>
        <time>2016-12-04T13:17:34Z</time>
      </trkpt>
      <trkpt lat="46.385263139382005" lon="8.364726472645998">
        <ele>2198.6700000000001</ele>
        <time>2016-12-04T13:17:36Z</time>
      </trkpt>
      <trkpt lat="46.385205974802375" lon="8.364736447110772">
        <ele>2200.1100000000001</ele>
        <time>2016-12-04T13:17:46Z</time>
      </trkpt>
      <trkpt lat="46.385140931233764" lon="8.364723874256015">
        <ele>2202.04</ele>
        <time>2016-12-04T13:17:57Z</time>
      </trkpt>
      <trkpt lat="46.385135902091861" lon="8.364689005538821">
        <ele>2202.04</ele>
        <time>2016-12-04T13:18:07Z</time>
      </trkpt>
      <trkpt lat="46.385123329237103" lon="8.364639636129141">
        <ele>2202.52</ele>
        <time>2016-12-04T13:18:16Z</time>
      </trkpt>
      <trkpt lat="46.385122993960977" lon="8.364486331120133">
        <ele>2202.52</ele>
        <time>2016-12-04T13:18:27Z</time>
      </trkpt>
      <trkpt lat="46.385115534067154" lon="8.364475183188915">
        <ele>2202.52</ele>
        <time>2016-12-04T13:18:28Z</time>
      </trkpt>
      <trkpt lat="46.385091729462147" lon="8.364409636706114">
        <ele>2203</ele>
        <time>2016-12-04T13:18:35Z</time>
      </trkpt>
      <trkpt lat="46.385058704763651" lon="8.364392537623644">
        <ele>2203.48</ele>
        <time>2016-12-04T13:18:45Z</time>
      </trkpt>
      <trkpt lat="46.385065661743283" lon="8.364375103265047">
        <ele>2203</ele>
        <time>2016-12-04T13:19:06Z</time>
      </trkpt>
      <trkpt lat="46.385059710592031" lon="8.364384910091758">
        <ele>2203</ele>
        <time>2016-12-04T13:19:22Z</time>
      </trkpt>
      <trkpt lat="46.385088125243783" lon="8.364414162933826">
        <ele>2203</ele>
        <time>2016-12-04T13:19:36Z</time>
      </trkpt>
      <trkpt lat="46.385103045031428" lon="8.36439186707139">
        <ele>2203</ele>
        <time>2016-12-04T13:19:47Z</time>
      </trkpt>
      <trkpt lat="46.38511243276298" lon="8.364381641149521">
        <ele>2202.52</ele>
        <time>2016-12-04T13:20:02Z</time>
      </trkpt>
      <trkpt lat="46.385092986747622" lon="8.364364122971892">
        <ele>2202.52</ele>
        <time>2016-12-04T13:20:19Z</time>
      </trkpt>
      <trkpt lat="46.38508846051991" lon="8.364363284781575">
        <ele>2202.52</ele>
        <time>2016-12-04T13:20:38Z</time>
      </trkpt>
      <trkpt lat="46.385090472176671" lon="8.36436060257256">
        <ele>2202.52</ele>
        <time>2016-12-04T13:20:59Z</time>
      </trkpt>
      <trkpt lat="46.385088376700878" lon="8.364367978647351">
        <ele>2203</ele>
        <time>2016-12-04T13:21:24Z</time>
      </trkpt>
      <trkpt lat="46.385082090273499" lon="8.364359512925148">
        <ele>2202.52</ele>
        <time>2016-12-04T13:21:38Z</time>
      </trkpt>
      <trkpt lat="46.385087287053466" lon="8.364360518753529">
        <ele>2203</ele>
        <time>2016-12-04T13:21:53Z</time>
      </trkpt>
      <trkpt lat="46.385078318417072" lon="8.364348029717803">
        <ele>2202.52</ele>
        <time>2016-12-04T13:22:05Z</time>
      </trkpt>
      <trkpt lat="46.38506792485714" lon="8.36436789482832">
        <ele>2203.48</ele>
        <time>2016-12-04T13:22:24Z</time>
      </trkpt>
      <trkpt lat="46.385062392801046" lon="8.36434350349009">
        <ele>2202.52</ele>
        <time>2016-12-04T13:22:33Z</time>
      </trkpt>
      <trkpt lat="46.385095752775669" lon="8.36439723148942">
        <ele>2203</ele>
        <time>2016-12-04T13:22:46Z</time>
      </trkpt>
      <trkpt lat="46.385094160214067" lon="8.364359680563211">
        <ele>2202.52</ele>
        <time>2016-12-04T13:23:00Z</time>
      </trkpt>
      <trkpt lat="46.385097932070494" lon="8.364383904263377">
        <ele>2202.52</ele>
        <time>2016-12-04T13:23:16Z</time>
      </trkpt>
      <trkpt lat="46.385107319802046" lon="8.364424975588918">
        <ele>2202.52</ele>
        <time>2016-12-04T13:23:29Z</time>
      </trkpt>
      <trkpt lat="46.385117964819074" lon="8.364473506808281">
        <ele>2202.52</ele>
        <time>2016-12-04T13:23:33Z</time>
      </trkpt>
      <trkpt lat="46.385127771645784" lon="8.364576939493418">
        <ele>2202.04</ele>
        <time>2016-12-04T13:23:41Z</time>
      </trkpt>
      <trkpt lat="46.38512073084712" lon="8.364726724103093">
        <ele>2201.5599999999999</ele>
        <time>2016-12-04T13:23:51Z</time>
      </trkpt>
      <trkpt lat="46.385128442198038" lon="8.364882208406925">
        <ele>2201.0799999999999</ele>
        <time>2016-12-04T13:24:02Z</time>
      </trkpt>
      <trkpt lat="46.385121904313564" lon="8.365001399070025">
        <ele>2203</ele>
        <time>2016-12-04T13:24:12Z</time>
      </trkpt>
      <trkpt lat="46.385109415277839" lon="8.36512628942728">
        <ele>2204.4400000000001</ele>
        <time>2016-12-04T13:24:23Z</time>
      </trkpt>
      <trkpt lat="46.385114444419742" lon="8.36521228775382">
        <ele>2204.4400000000001</ele>
        <time>2016-12-04T13:24:30Z</time>
      </trkpt>
      <trkpt lat="46.385143529623747" lon="8.365193009376526">
        <ele>2204.4400000000001</ele>
        <time>2016-12-04T13:24:41Z</time>
      </trkpt>
      <trkpt lat="46.385129448026419" lon="8.365163002163172">
        <ele>2204.9200000000001</ele>
        <time>2016-12-04T13:24:49Z</time>
      </trkpt>
      <trkpt lat="46.385127268731594" lon="8.365213209763169">
        <ele>2203.48</ele>
        <time>2016-12-04T13:25:00Z</time>
      </trkpt>
      <trkpt lat="46.385125005617738" lon="8.36521958000958">
        <ele>2203.48</ele>
        <time>2016-12-04T13:25:21Z</time>
      </trkpt>
      <trkpt lat="46.385127184912562" lon="8.365219244733453">
        <ele>2203.48</ele>
        <time>2016-12-04T13:25:29Z</time>
      </trkpt>
      <trkpt lat="46.385118048638105" lon="8.365211198106408">
        <ele>2204.4400000000001</ele>
        <time>2016-12-04T13:25:36Z</time>
      </trkpt>
      <trkpt lat="46.38510555960238" lon="8.365195356309414">
        <ele>2204.4400000000001</ele>
        <time>2016-12-04T13:25:44Z</time>
      </trkpt>
      <trkpt lat="46.385148307308555" lon="8.365256544202566">
        <ele>2204.9200000000001</ele>
        <time>2016-12-04T13:25:53Z</time>
      </trkpt>
      <trkpt lat="46.385153252631426" lon="8.365250173956156">
        <ele>2204.9200000000001</ele>
        <time>2016-12-04T13:25:54Z</time>
      </trkpt>
      <trkpt lat="46.385204130783677" lon="8.365217987447977">
        <ele>2205.8800000000001</ele>
        <time>2016-12-04T13:26:03Z</time>
      </trkpt>
      <trkpt lat="46.385222151875496" lon="8.365255873650312">
        <ele>2205.4000000000001</ele>
        <time>2016-12-04T13:26:11Z</time>
      </trkpt>
      <trkpt lat="46.385193569585681" lon="8.365281522274017">
        <ele>2205.8800000000001</ele>
        <time>2016-12-04T13:26:18Z</time>
      </trkpt>
      <trkpt lat="46.385176973417401" lon="8.365280935540795">
        <ele>2201.5599999999999</ele>
        <time>2016-12-04T13:26:21Z</time>
      </trkpt>
      <trkpt lat="46.385161969810724" lon="8.365270625799894">
        <ele>2206.3600000000001</ele>
        <time>2016-12-04T13:26:23Z</time>
      </trkpt>
      <trkpt lat="46.385141182690859" lon="8.365258220583201">
        <ele>2204.9200000000001</ele>
        <time>2016-12-04T13:26:26Z</time>
      </trkpt>
      <trkpt lat="46.385129448026419" lon="8.365179765969515">
        <ele>2204.9200000000001</ele>
        <time>2016-12-04T13:26:35Z</time>
      </trkpt>
      <trkpt lat="46.385141517966986" lon="8.365190494805574">
        <ele>2204.4400000000001</ele>
        <time>2016-12-04T13:26:48Z</time>
      </trkpt>
      <trkpt lat="46.385133471339941" lon="8.3651736471802">
        <ele>2203.96</ele>
        <time>2016-12-04T13:27:06Z</time>
      </trkpt>
      <trkpt lat="46.385121317580342" lon="8.365169959142804">
        <ele>2204.4400000000001</ele>
        <time>2016-12-04T13:27:20Z</time>
      </trkpt>
      <trkpt lat="46.385091813281178" lon="8.365103658288717">
        <ele>2204.4400000000001</ele>
        <time>2016-12-04T13:27:29Z</time>
      </trkpt>
      <trkpt lat="46.385090807452798" lon="8.365054288879037">
        <ele>2203.96</ele>
        <time>2016-12-04T13:27:33Z</time>
      </trkpt>
      <trkpt lat="46.385102123022079" lon="8.36490148678422">
        <ele>2203</ele>
        <time>2016-12-04T13:27:43Z</time>
      </trkpt>
      <trkpt lat="46.385127268731594" lon="8.364758994430304">
        <ele>2201.0799999999999</ele>
        <time>2016-12-04T13:27:52Z</time>
      </trkpt>
      <trkpt lat="46.38512559235096" lon="8.364746170118451">
        <ele>2201.0799999999999</ele>
        <time>2016-12-04T13:27:53Z</time>
      </trkpt>
      <trkpt lat="46.38518963009119" lon="8.364699902012944">
        <ele>2200.1100000000001</ele>
        <time>2016-12-04T13:28:03Z</time>
      </trkpt>
      <trkpt lat="46.385222151875496" lon="8.364694369956851">
        <ele>2199.1500000000001</ele>
        <time>2016-12-04T13:28:11Z</time>
      </trkpt>
      <trkpt lat="46.385284177958965" lon="8.364677522331476">
        <ele>2198.1900000000001</ele>
        <time>2016-12-04T13:28:16Z</time>
      </trkpt>
      <trkpt lat="46.385314855724573" lon="8.364672241732478">
        <ele>2197.71</ele>
        <time>2016-12-04T13:28:19Z</time>
      </trkpt>
      <trkpt lat="46.385335475206375" lon="8.36467869579792">
        <ele>2197.71</ele>
        <time>2016-12-04T13:28:21Z</time>
      </trkpt>
      <trkpt lat="46.385455504059792" lon="8.364741476252675">
        <ele>2196.75</ele>
        <time>2016-12-04T13:28:32Z</time>
      </trkpt>
      <trkpt lat="46.385536976158619" lon="8.364787492901087">
        <ele>2195.3099999999999</ele>
        <time>2016-12-04T13:28:40Z</time>
      </trkpt>
      <trkpt lat="46.385581819340587" lon="8.364827558398247">
        <ele>2194.8299999999999</ele>
        <time>2016-12-04T13:28:50Z</time>
      </trkpt>
      <trkpt lat="46.385615095496178" lon="8.364918250590563">
        <ele>2194.8299999999999</ele>
        <time>2016-12-04T13:28:55Z</time>
      </trkpt>
      <trkpt lat="46.385629512369633" lon="8.365092091262341">
        <ele>2194.3499999999999</ele>
        <time>2016-12-04T13:29:05Z</time>
      </trkpt>
      <trkpt lat="46.385648287832737" lon="8.36526894941926">
        <ele>2193.8699999999999</ele>
        <time>2016-12-04T13:29:16Z</time>
      </trkpt>
      <trkpt lat="46.385660944506526" lon="8.365317145362496">
        <ele>2193.8699999999999</ele>
        <time>2016-12-04T13:29:19Z</time>
      </trkpt>
      <trkpt lat="46.385704195126891" lon="8.365360144525766">
        <ele>2193.3899999999999</ele>
        <time>2016-12-04T13:29:23Z</time>
      </trkpt>
      <trkpt lat="46.385718360543251" lon="8.36554940789938">
        <ele>2190.5</ele>
        <time>2016-12-04T13:29:35Z</time>
      </trkpt>
      <trkpt lat="46.385678630322218" lon="8.365723751485348">
        <ele>2188.0999999999999</ele>
        <time>2016-12-04T13:29:45Z</time>
      </trkpt>
      <trkpt lat="46.385666728019714" lon="8.365790471434593">
        <ele>2186.6599999999999</ele>
        <time>2016-12-04T13:29:49Z</time>
      </trkpt>
      <trkpt lat="46.385588943958282" lon="8.36598920635879">
        <ele>2184.25</ele>
        <time>2016-12-04T13:30:02Z</time>
      </trkpt>
      <trkpt lat="46.385519290342927" lon="8.366113426163793">
        <ele>2183.29</ele>
        <time>2016-12-04T13:30:11Z</time>
      </trkpt>
      <trkpt lat="46.385484924539924" lon="8.366171848028898">
        <ele>2182.8099999999999</ele>
        <time>2016-12-04T13:30:16Z</time>
      </trkpt>
      <trkpt lat="46.385460197925568" lon="8.366184839978814">
        <ele>2182.8099999999999</ele>
        <time>2016-12-04T13:30:24Z</time>
      </trkpt>
      <trkpt lat="46.385448966175318" lon="8.36621250025928">
        <ele>2182.8099999999999</ele>
        <time>2016-12-04T13:30:26Z</time>
      </trkpt>
      <trkpt lat="46.38536405749619" lon="8.366393549367786">
        <ele>2181.8499999999999</ele>
        <time>2016-12-04T13:30:39Z</time>
      </trkpt>
      <trkpt lat="46.385277388617396" lon="8.366526905447245">
        <ele>2180.4099999999999</ele>
        <time>2016-12-04T13:30:50Z</time>
      </trkpt>
      <trkpt lat="46.385225253179669" lon="8.366566216573119">
        <ele>2179.9299999999998</ele>
        <time>2016-12-04T13:30:55Z</time>
      </trkpt>
      <trkpt lat="46.385174794122577" lon="8.366588009521365">
        <ele>2178.48</ele>
        <time>2016-12-04T13:31:00Z</time>
      </trkpt>
      <trkpt lat="46.385046131908894" lon="8.366593541577458">
        <ele>2176.0799999999999</ele>
        <time>2016-12-04T13:31:11Z</time>
      </trkpt>
      <trkpt lat="46.38494529761374" lon="8.366651795804501">
        <ele>2173.6799999999998</ele>
        <time>2016-12-04T13:31:21Z</time>
      </trkpt>
      <trkpt lat="46.384917302057147" lon="8.366684820502996">
        <ele>2172.7199999999998</ele>
        <time>2016-12-04T13:31:24Z</time>
      </trkpt>
      <trkpt lat="46.384857790544629" lon="8.366831755265594">
        <ele>2170.79</ele>
        <time>2016-12-04T13:31:36Z</time>
      </trkpt>
      <trkpt lat="46.384853264316916" lon="8.366845417767763">
        <ele>2170.79</ele>
        <time>2016-12-04T13:31:37Z</time>
      </trkpt>
      <trkpt lat="46.384843960404396" lon="8.366869390010834">
        <ele>2170.3099999999999</ele>
        <time>2016-12-04T13:31:39Z</time>
      </trkpt>
      <trkpt lat="46.384800206869841" lon="8.367001740261912">
        <ele>2170.79</ele>
        <time>2016-12-04T13:31:50Z</time>
      </trkpt>
      <trkpt lat="46.384792914614081" lon="8.367086732760072">
        <ele>2170.3099999999999</ele>
        <time>2016-12-04T13:32:04Z</time>
      </trkpt>
      <trkpt lat="46.384760141372681" lon="8.36724448017776">
        <ele>2169.8299999999999</ele>
        <time>2016-12-04T13:32:15Z</time>
      </trkpt>
      <trkpt lat="46.384746981784701" lon="8.367333747446537">
        <ele>2169.3499999999999</ele>
        <time>2016-12-04T13:32:21Z</time>
      </trkpt>
      <trkpt lat="46.384683782234788" lon="8.367479341104627">
        <ele>2166.9499999999998</ele>
        <time>2016-12-04T13:32:31Z</time>
      </trkpt>
      <trkpt lat="46.384666347876191" lon="8.367497278377414">
        <ele>2165.9899999999998</ele>
        <time>2016-12-04T13:32:33Z</time>
      </trkpt>
      <trkpt lat="46.384649164974689" lon="8.367520160973072">
        <ele>2165.9899999999998</ele>
        <time>2016-12-04T13:32:35Z</time>
      </trkpt>
      <trkpt lat="46.384609853848815" lon="8.36760456673801">
        <ele>2164.0599999999999</ele>
        <time>2016-12-04T13:32:41Z</time>
      </trkpt>
      <trkpt lat="46.384549252688885" lon="8.367788884788752">
        <ele>2162.6199999999999</ele>
        <time>2016-12-04T13:32:53Z</time>
      </trkpt>
      <trkpt lat="46.384491752833128" lon="8.367928359657526">
        <ele>2161.6599999999999</ele>
        <time>2016-12-04T13:33:04Z</time>
      </trkpt>
      <trkpt lat="46.384486639872193" lon="8.367942022159696">
        <ele>2161.1799999999998</ele>
        <time>2016-12-04T13:33:05Z</time>
      </trkpt>
      <trkpt lat="46.384499296545982" lon="8.368030451238155">
        <ele>2161.6599999999999</ele>
        <time>2016-12-04T13:33:11Z</time>
      </trkpt>
      <trkpt lat="46.384497117251158" lon="8.36809909902513">
        <ele>2161.6599999999999</ele>
        <time>2016-12-04T13:33:15Z</time>
      </trkpt>
      <trkpt lat="46.384477084502578" lon="8.368304623290896">
        <ele>2161.6599999999999</ele>
        <time>2016-12-04T13:33:27Z</time>
      </trkpt>
      <trkpt lat="46.384464763104916" lon="8.368469579145312">
        <ele>2162.1399999999999</ele>
        <time>2016-12-04T13:33:38Z</time>
      </trkpt>
      <trkpt lat="46.384467612951994" lon="8.368593212217093">
        <ele>2162.1399999999999</ele>
        <time>2016-12-04T13:33:47Z</time>
      </trkpt>
      <trkpt lat="46.384471384808421" lon="8.368606874719262">
        <ele>2162.1399999999999</ele>
        <time>2016-12-04T13:34:00Z</time>
      </trkpt>
      <trkpt lat="46.384453866630793" lon="8.368779625743628">
        <ele>2162.1399999999999</ele>
        <time>2016-12-04T13:34:11Z</time>
      </trkpt>
      <trkpt lat="46.384408688172698" lon="8.368958830833435">
        <ele>2162.1399999999999</ele>
        <time>2016-12-04T13:34:23Z</time>
      </trkpt>
      <trkpt lat="46.384381530806422" lon="8.369109621271491">
        <ele>2162.1399999999999</ele>
        <time>2016-12-04T13:34:32Z</time>
      </trkpt>
      <trkpt lat="46.384339956566691" lon="8.369253119453788">
        <ele>2162.1399999999999</ele>
        <time>2016-12-04T13:34:42Z</time>
      </trkpt>
      <trkpt lat="46.384296454489231" lon="8.36942913942039">
        <ele>2162.1399999999999</ele>
        <time>2016-12-04T13:34:53Z</time>
      </trkpt>
      <trkpt lat="46.384216658771038" lon="8.369559813290834">
        <ele>2161.6599999999999</ele>
        <time>2016-12-04T13:35:03Z</time>
      </trkpt>
      <trkpt lat="46.384130241349339" lon="8.369635418057442">
        <ele>2161.6599999999999</ele>
        <time>2016-12-04T13:35:12Z</time>
      </trkpt>
      <trkpt lat="46.384089589118958" lon="8.369662072509527">
        <ele>2161.6599999999999</ele>
        <time>2016-12-04T13:35:16Z</time>
      </trkpt>
      <trkpt lat="46.384033681824803" lon="8.369698198512197">
        <ele>2161.1799999999998</ele>
        <time>2016-12-04T13:35:21Z</time>
      </trkpt>
      <trkpt lat="46.384000321850181" lon="8.36973063647747">
        <ele>2161.1799999999998</ele>
        <time>2016-12-04T13:35:25Z</time>
      </trkpt>
      <trkpt lat="46.383956568315625" lon="8.369876062497497">
        <ele>2160.6999999999998</ele>
        <time>2016-12-04T13:35:35Z</time>
      </trkpt>
      <trkpt lat="46.38391675427556" lon="8.37003062479198">
        <ele>2160.2199999999998</ele>
        <time>2016-12-04T13:35:45Z</time>
      </trkpt>
      <trkpt lat="46.383885657414794" lon="8.370241262018681">
        <ele>2159.2600000000002</ele>
        <time>2016-12-04T13:35:57Z</time>
      </trkpt>
      <trkpt lat="46.383852129802108" lon="8.370404373854399">
        <ele>2158.7800000000002</ele>
        <time>2016-12-04T13:36:07Z</time>
      </trkpt>
      <trkpt lat="46.383808292448521" lon="8.370558014139533">
        <ele>2157.3400000000001</ele>
        <time>2016-12-04T13:36:16Z</time>
      </trkpt>
      <trkpt lat="46.383735537528992" lon="8.370677623897791">
        <ele>2155.8899999999999</ele>
        <time>2016-12-04T13:36:25Z</time>
      </trkpt>
      <trkpt lat="46.383649874478579" lon="8.370794048532844">
        <ele>2153.9699999999998</ele>
        <time>2016-12-04T13:36:35Z</time>
      </trkpt>
      <trkpt lat="46.383638978004456" lon="8.370822379365563">
        <ele>2153.4899999999998</ele>
        <time>2016-12-04T13:36:37Z</time>
      </trkpt>
      <trkpt lat="46.383574521169066" lon="8.370965961366892">
        <ele>2152.5300000000002</ele>
        <time>2016-12-04T13:36:47Z</time>
      </trkpt>
      <trkpt lat="46.383513249456882" lon="8.371119853109121">
        <ele>2151.0900000000001</ele>
        <time>2016-12-04T13:36:57Z</time>
      </trkpt>
      <trkpt lat="46.383511070162058" lon="8.371136365458369">
        <ele>2150.6100000000001</ele>
        <time>2016-12-04T13:36:58Z</time>
      </trkpt>
      <trkpt lat="46.383456671610475" lon="8.371351193636656">
        <ele>2149.1599999999999</ele>
        <time>2016-12-04T13:37:11Z</time>
      </trkpt>
      <trkpt lat="46.38339732773602" lon="8.371511623263359">
        <ele>2148.1999999999998</ele>
        <time>2016-12-04T13:37:21Z</time>
      </trkpt>
      <trkpt lat="46.383324405178428" lon="8.371679093688726">
        <ele>2147.7199999999998</ele>
        <time>2016-12-04T13:37:33Z</time>
      </trkpt>
      <trkpt lat="46.383278472349048" lon="8.371844971552491">
        <ele>2147.2399999999998</ele>
        <time>2016-12-04T13:37:44Z</time>
      </trkpt>
      <trkpt lat="46.383229270577431" lon="8.372005317360163">
        <ele>2146.7600000000002</ele>
        <time>2016-12-04T13:37:55Z</time>
      </trkpt>
      <trkpt lat="46.383197167888284" lon="8.372044879943132">
        <ele>2146.2800000000002</ele>
        <time>2016-12-04T13:37:59Z</time>
      </trkpt>
      <trkpt lat="46.383187444880605" lon="8.372093075886369">
        <ele>2146.2800000000002</ele>
        <time>2016-12-04T13:38:02Z</time>
      </trkpt>
      <trkpt lat="46.383181661367416" lon="8.3721156232059">
        <ele>2146.2800000000002</ele>
        <time>2016-12-04T13:38:04Z</time>
      </trkpt>
      <trkpt lat="46.383122904226184" lon="8.372278986498714">
        <ele>2146.2800000000002</ele>
        <time>2016-12-04T13:38:16Z</time>
      </trkpt>
      <trkpt lat="46.383107481524348" lon="8.37230077944696">
        <ele>2146.2800000000002</ele>
        <time>2016-12-04T13:38:18Z</time>
      </trkpt>
      <trkpt lat="46.383037073537707" lon="8.372457521036267">
        <ele>2145.3200000000002</ele>
        <time>2016-12-04T13:38:29Z</time>
      </trkpt>
      <trkpt lat="46.382974293082952" lon="8.372583081945777">
        <ele>2144.8400000000001</ele>
        <time>2016-12-04T13:38:39Z</time>
      </trkpt>
      <trkpt lat="46.382928779348731" lon="8.372640581801534">
        <ele>2145.3200000000002</ele>
        <time>2016-12-04T13:38:44Z</time>
      </trkpt>
      <trkpt lat="46.382912853732705" lon="8.372660195454955">
        <ele>2144.8400000000001</ele>
        <time>2016-12-04T13:38:46Z</time>
      </trkpt>
      <trkpt lat="46.382845882326365" lon="8.372750300914049">
        <ele>2144.8400000000001</ele>
        <time>2016-12-04T13:38:54Z</time>
      </trkpt>
      <trkpt lat="46.382822832092643" lon="8.372770668938756">
        <ele>2144.8400000000001</ele>
        <time>2016-12-04T13:38:56Z</time>
      </trkpt>
      <trkpt lat="46.382760219275951" lon="8.372864797711372">
        <ele>2145.3200000000002</ele>
        <time>2016-12-04T13:39:04Z</time>
      </trkpt>
      <trkpt lat="46.382721327245235" lon="8.372878963127732">
        <ele>2145.3200000000002</ele>
        <time>2016-12-04T13:39:07Z</time>
      </trkpt>
      <trkpt lat="46.382690062746406" lon="8.372889524325728">
        <ele>2145.3200000000002</ele>
        <time>2016-12-04T13:39:10Z</time>
      </trkpt>
      <trkpt lat="46.382633317261934" lon="8.372927829623222">
        <ele>2146.2800000000002</ele>
        <time>2016-12-04T13:39:18Z</time>
      </trkpt>
      <trkpt lat="46.382605824619532" lon="8.372869491577148">
        <ele>2146.7600000000002</ele>
        <time>2016-12-04T13:39:26Z</time>
      </trkpt>
      <trkpt lat="46.38256860896945" lon="8.372913580387831">
        <ele>2145.3200000000002</ele>
        <time>2016-12-04T13:39:35Z</time>
      </trkpt>
      <trkpt lat="46.382553186267614" lon="8.372950041666627">
        <ele>2144.8400000000001</ele>
        <time>2016-12-04T13:39:42Z</time>
      </trkpt>
      <trkpt lat="46.382494680583477" lon="8.373022628948093">
        <ele>2144.8400000000001</ele>
        <time>2016-12-04T13:39:50Z</time>
      </trkpt>
      <trkpt lat="46.382409101352096" lon="8.373134443536401">
        <ele>2144.8400000000001</ele>
        <time>2016-12-04T13:40:00Z</time>
      </trkpt>
      <trkpt lat="46.382343973964453" lon="8.3732277341187">
        <ele>2144.3600000000001</ele>
        <time>2016-12-04T13:40:08Z</time>
      </trkpt>
      <trkpt lat="46.382326371967793" lon="8.373268386349082">
        <ele>2144.3600000000001</ele>
        <time>2016-12-04T13:40:12Z</time>
      </trkpt>
      <trkpt lat="46.382313463836908" lon="8.373309206217527">
        <ele>2144.3600000000001</ele>
        <time>2016-12-04T13:40:15Z</time>
      </trkpt>
      <trkpt lat="46.382272560149431" lon="8.373394114896655">
        <ele>2144.3600000000001</ele>
        <time>2016-12-04T13:40:22Z</time>
      </trkpt>
      <trkpt lat="46.382206929847598" lon="8.373546162620187">
        <ele>2143.8800000000001</ele>
        <time>2016-12-04T13:40:33Z</time>
      </trkpt>
      <trkpt lat="46.382144568488002" lon="8.373659150674939">
        <ele>2144.3600000000001</ele>
        <time>2016-12-04T13:40:44Z</time>
      </trkpt>
      <trkpt lat="46.382099390029907" lon="8.373768702149391">
        <ele>2144.3600000000001</ele>
        <time>2016-12-04T13:40:53Z</time>
      </trkpt>
      <trkpt lat="46.382058905437589" lon="8.373885713517666">
        <ele>2144.3600000000001</ele>
        <time>2016-12-04T13:41:02Z</time>
      </trkpt>
      <trkpt lat="46.382019845768809" lon="8.374031307175756">
        <ele>2144.3600000000001</ele>
        <time>2016-12-04T13:41:12Z</time>
      </trkpt>
      <trkpt lat="46.382004758343101" lon="8.374119065701962">
        <ele>2144.3600000000001</ele>
        <time>2016-12-04T13:41:18Z</time>
      </trkpt>
      <trkpt lat="46.381995035335422" lon="8.374156700447202">
        <ele>2144.3600000000001</ele>
        <time>2016-12-04T13:41:21Z</time>
      </trkpt>
      <trkpt lat="46.381950862705708" lon="8.374293996021152">
        <ele>2144.8400000000001</ele>
        <time>2016-12-04T13:41:32Z</time>
      </trkpt>
      <trkpt lat="46.38193242251873" lon="8.374379491433501">
        <ele>2145.3200000000002</ele>
        <time>2016-12-04T13:41:42Z</time>
      </trkpt>
      <trkpt lat="46.381903840228915" lon="8.374439841136336">
        <ele>2145.3200000000002</ele>
        <time>2016-12-04T13:41:58Z</time>
      </trkpt>
      <trkpt lat="46.381894871592522" lon="8.374533802270889">
        <ele>2144.8400000000001</ele>
        <time>2016-12-04T13:42:04Z</time>
      </trkpt>
      <trkpt lat="46.381857991218567" lon="8.374699261039496">
        <ele>2143.4000000000001</ele>
        <time>2016-12-04T13:42:17Z</time>
      </trkpt>
      <trkpt lat="46.381854889914393" lon="8.374716779217124">
        <ele>2142.9200000000001</ele>
        <time>2016-12-04T13:42:19Z</time>
      </trkpt>
      <trkpt lat="46.381864529103041" lon="8.374854661524296">
        <ele>2141.9499999999998</ele>
        <time>2016-12-04T13:42:29Z</time>
      </trkpt>
      <trkpt lat="46.381864864379168" lon="8.374867821112275">
        <ele>2141.9499999999998</ele>
        <time>2016-12-04T13:42:30Z</time>
      </trkpt>
      <trkpt lat="46.38185522519052" lon="8.37494820356369">
        <ele>2141.9499999999998</ele>
        <time>2016-12-04T13:42:35Z</time>
      </trkpt>
      <trkpt lat="46.381856063380837" lon="8.374984078109264">
        <ele>2141.9499999999998</ele>
        <time>2016-12-04T13:42:38Z</time>
      </trkpt>
      <trkpt lat="46.381833851337433" lon="8.37512313388288">
        <ele>2141.9499999999998</ele>
        <time>2016-12-04T13:42:48Z</time>
      </trkpt>
      <trkpt lat="46.381787080317736" lon="8.375286161899567">
        <ele>2141.9499999999998</ele>
        <time>2016-12-04T13:43:00Z</time>
      </trkpt>
      <trkpt lat="46.381766125559807" lon="8.375363443046808">
        <ele>2142.9200000000001</ele>
        <time>2016-12-04T13:43:08Z</time>
      </trkpt>
      <trkpt lat="46.381744919344783" lon="8.375402754172683">
        <ele>2143.4000000000001</ele>
        <time>2016-12-04T13:43:12Z</time>
      </trkpt>
      <trkpt lat="46.38173452578485" lon="8.375459751114249">
        <ele>2143.4000000000001</ele>
        <time>2016-12-04T13:43:16Z</time>
      </trkpt>
      <trkpt lat="46.381716337054968" lon="8.375496128574014">
        <ele>2143.4000000000001</ele>
        <time>2016-12-04T13:43:19Z</time>
      </trkpt>
      <trkpt lat="46.381701501086354" lon="8.375546084716916">
        <ele>2142.4400000000001</ele>
        <time>2016-12-04T13:43:31Z</time>
      </trkpt>
      <trkpt lat="46.38168909586966" lon="8.375551952049136">
        <ele>2141.9499999999998</ele>
        <time>2016-12-04T13:43:44Z</time>
      </trkpt>
      <trkpt lat="46.381679372861981" lon="8.375613391399384">
        <ele>2141.4699999999998</ele>
        <time>2016-12-04T13:43:57Z</time>
      </trkpt>
      <trkpt lat="46.381705943495035" lon="8.375782705843449">
        <ele>2140.0300000000002</ele>
        <time>2016-12-04T13:44:11Z</time>
      </trkpt>
      <trkpt lat="46.381723126396537" lon="8.375897957012057">
        <ele>2140.5100000000002</ele>
        <time>2016-12-04T13:44:22Z</time>
      </trkpt>
      <trkpt lat="46.381731340661645" lon="8.375960905104876">
        <ele>2140.0300000000002</ele>
        <time>2016-12-04T13:44:31Z</time>
      </trkpt>
      <trkpt lat="46.381758246570826" lon="8.376101804897189">
        <ele>2140.5100000000002</ele>
        <time>2016-12-04T13:44:42Z</time>
      </trkpt>
      <trkpt lat="46.381789343431592" lon="8.376237843185663">
        <ele>2140.5100000000002</ele>
        <time>2016-12-04T13:44:53Z</time>
      </trkpt>
      <trkpt lat="46.381803844124079" lon="8.376374635845423">
        <ele>2140.5100000000002</ele>
        <time>2016-12-04T13:45:03Z</time>
      </trkpt>
      <trkpt lat="46.381816416978836" lon="8.376490641385317">
        <ele>2140.5100000000002</ele>
        <time>2016-12-04T13:45:13Z</time>
      </trkpt>
      <trkpt lat="46.381817003712058" lon="8.376538585871458">
        <ele>2140.0300000000002</ele>
        <time>2016-12-04T13:45:18Z</time>
      </trkpt>
      <trkpt lat="46.381790516898036" lon="8.376678479835391">
        <ele>2140.0300000000002</ele>
        <time>2016-12-04T13:45:29Z</time>
      </trkpt>
      <trkpt lat="46.38178825378418" lon="8.376689879223704">
        <ele>2140.5100000000002</ele>
        <time>2016-12-04T13:45:30Z</time>
      </trkpt>
      <trkpt lat="46.381782721728086" lon="8.376867240294814">
        <ele>2140.0300000000002</ele>
        <time>2016-12-04T13:45:42Z</time>
      </trkpt>
      <trkpt lat="46.381783308461308" lon="8.37701509706676">
        <ele>2139.5500000000002</ele>
        <time>2016-12-04T13:45:52Z</time>
      </trkpt>
      <trkpt lat="46.381804263219237" lon="8.377167144790292">
        <ele>2138.5900000000001</ele>
        <time>2016-12-04T13:46:03Z</time>
      </trkpt>
      <trkpt lat="46.381817422807217" lon="8.377321204170585">
        <ele>2138.1100000000001</ele>
        <time>2016-12-04T13:46:14Z</time>
      </trkpt>
      <trkpt lat="46.381846675649285" lon="8.37748222053051">
        <ele>2136.6700000000001</ele>
        <time>2016-12-04T13:46:25Z</time>
      </trkpt>
      <trkpt lat="46.381874335929751" lon="8.377638375386596">
        <ele>2133.7800000000002</ele>
        <time>2016-12-04T13:46:37Z</time>
      </trkpt>
      <trkpt lat="46.38189135119319" lon="8.377726133912802">
        <ele>2131.8600000000001</ele>
        <time>2016-12-04T13:46:43Z</time>
      </trkpt>
      <trkpt lat="46.381895458325744" lon="8.37788287550211">
        <ele>2128.98</ele>
        <time>2016-12-04T13:46:54Z</time>
      </trkpt>
      <trkpt lat="46.381878610700369" lon="8.378042718395591">
        <ele>2127.0500000000002</ele>
        <time>2016-12-04T13:47:05Z</time>
      </trkpt>
      <trkpt lat="46.381875174120069" lon="8.378058141097426">
        <ele>2126.5700000000002</ele>
        <time>2016-12-04T13:47:06Z</time>
      </trkpt>
      <trkpt lat="46.381863187998533" lon="8.378194347023964">
        <ele>2123.6900000000001</ele>
        <time>2016-12-04T13:47:17Z</time>
      </trkpt>
      <trkpt lat="46.381833264604211" lon="8.378311106935144">
        <ele>2120.8099999999999</ele>
        <time>2016-12-04T13:47:27Z</time>
      </trkpt>
      <trkpt lat="46.381798479706049" lon="8.378426609560847">
        <ele>2118.8800000000001</ele>
        <time>2016-12-04T13:47:36Z</time>
      </trkpt>
      <trkpt lat="46.381778782233596" lon="8.378577399998903">
        <ele>2116</ele>
        <time>2016-12-04T13:47:47Z</time>
      </trkpt>
      <trkpt lat="46.381796803325415" lon="8.378719892352819">
        <ele>2114.0799999999999</ele>
        <time>2016-12-04T13:47:57Z</time>
      </trkpt>
      <trkpt lat="46.381788421422243" lon="8.378802957013249">
        <ele>2113.1199999999999</ele>
        <time>2016-12-04T13:48:06Z</time>
      </trkpt>
      <trkpt lat="46.38177459128201" lon="8.378858780488372">
        <ele>2112.1500000000001</ele>
        <time>2016-12-04T13:48:16Z</time>
      </trkpt>
      <trkpt lat="46.38177216053009" lon="8.378856182098389">
        <ele>2110.71</ele>
        <time>2016-12-04T13:48:25Z</time>
      </trkpt>
      <trkpt lat="46.381760593503714" lon="8.378832880407572">
        <ele>2110.71</ele>
        <time>2016-12-04T13:48:35Z</time>
      </trkpt>
      <trkpt lat="46.38174869120121" lon="8.378942012786865">
        <ele>2110.71</ele>
        <time>2016-12-04T13:48:46Z</time>
      </trkpt>
      <trkpt lat="46.381741398945451" lon="8.379038656130433">
        <ele>2109.75</ele>
        <time>2016-12-04T13:48:53Z</time>
      </trkpt>
      <trkpt lat="46.381735866889358" lon="8.379108225926757">
        <ele>2108.79</ele>
        <time>2016-12-04T13:48:58Z</time>
      </trkpt>
      <trkpt lat="46.381728826090693" lon="8.379180645570159">
        <ele>2107.8299999999999</ele>
        <time>2016-12-04T13:49:02Z</time>
      </trkpt>
      <trkpt lat="46.381711224094033" lon="8.379327496513724">
        <ele>2105.9099999999999</ele>
        <time>2016-12-04T13:49:12Z</time>
      </trkpt>
      <trkpt lat="46.381682474166155" lon="8.379418943077326">
        <ele>2105.4200000000001</ele>
        <time>2016-12-04T13:49:21Z</time>
      </trkpt>
      <trkpt lat="46.381677947938442" lon="8.379444256424904">
        <ele>2105.9099999999999</ele>
        <time>2016-12-04T13:49:23Z</time>
      </trkpt>
      <trkpt lat="46.381628410890698" lon="8.379581719636917">
        <ele>2106.3899999999999</ele>
        <time>2016-12-04T13:49:35Z</time>
      </trkpt>
      <trkpt lat="46.381593458354473" lon="8.379729660227895">
        <ele>2107.3499999999999</ele>
        <time>2016-12-04T13:49:47Z</time>
      </trkpt>
      <trkpt lat="46.381576107814908" lon="8.37986963801086">
        <ele>2106.8699999999999</ele>
        <time>2016-12-04T13:49:58Z</time>
      </trkpt>
      <trkpt lat="46.381572503596544" lon="8.379971142858267">
        <ele>2106.3899999999999</ele>
        <time>2016-12-04T13:50:05Z</time>
      </trkpt>
      <trkpt lat="46.381577029824257" lon="8.380149006843567">
        <ele>2104.46</ele>
        <time>2016-12-04T13:50:18Z</time>
      </trkpt>
      <trkpt lat="46.381573090329766" lon="8.38016577064991">
        <ele>2104.46</ele>
        <time>2016-12-04T13:50:20Z</time>
      </trkpt>
      <trkpt lat="46.381556326523423" lon="8.380318824201822">
        <ele>2103.98</ele>
        <time>2016-12-04T13:50:31Z</time>
      </trkpt>
      <trkpt lat="46.38156252913177" lon="8.380463747307658">
        <ele>2103.98</ele>
        <time>2016-12-04T13:50:41Z</time>
      </trkpt>
      <trkpt lat="46.381563115864992" lon="8.380479337647557">
        <ele>2103.98</ele>
        <time>2016-12-04T13:50:47Z</time>
      </trkpt>
      <trkpt lat="46.381610222160816" lon="8.380613112822175">
        <ele>2103.02</ele>
        <time>2016-12-04T13:50:57Z</time>
      </trkpt>
      <trkpt lat="46.381634697318077" lon="8.380763987079263">
        <ele>2101.5799999999999</ele>
        <time>2016-12-04T13:51:07Z</time>
      </trkpt>
      <trkpt lat="46.381622208282351" lon="8.380809081718326">
        <ele>2101.5799999999999</ele>
        <time>2016-12-04T13:51:10Z</time>
      </trkpt>
      <trkpt lat="46.381607539951801" lon="8.380993399769068">
        <ele>2099.6599999999999</ele>
        <time>2016-12-04T13:51:22Z</time>
      </trkpt>
      <trkpt lat="46.381606198847294" lon="8.381030950695276">
        <ele>2098.6999999999998</ele>
        <time>2016-12-04T13:51:25Z</time>
      </trkpt>
      <trkpt lat="46.38161332346499" lon="8.381118960678577">
        <ele>2096.29</ele>
        <time>2016-12-04T13:51:36Z</time>
      </trkpt>
      <trkpt lat="46.381624722853303" lon="8.381147542968392">
        <ele>2095.8099999999999</ele>
        <time>2016-12-04T13:51:43Z</time>
      </trkpt>
      <trkpt lat="46.38166026212275" lon="8.38129548355937">
        <ele>2094.8499999999999</ele>
        <time>2016-12-04T13:51:54Z</time>
      </trkpt>
      <trkpt lat="46.381664620712399" lon="8.381307972595096">
        <ele>2094.3699999999999</ele>
        <time>2016-12-04T13:51:55Z</time>
      </trkpt>
      <trkpt lat="46.381672248244286" lon="8.381362454965711">
        <ele>2093.8899999999999</ele>
        <time>2016-12-04T13:51:59Z</time>
      </trkpt>
      <trkpt lat="46.38166269287467" lon="8.38152464479208">
        <ele>2092.4499999999998</ele>
        <time>2016-12-04T13:52:09Z</time>
      </trkpt>
      <trkpt lat="46.381663698703051" lon="8.381611648947001">
        <ele>2091.4899999999998</ele>
        <time>2016-12-04T13:52:18Z</time>
      </trkpt>
      <trkpt lat="46.381653472781181" lon="8.381596226245165">
        <ele>2090.52</ele>
        <time>2016-12-04T13:52:28Z</time>
      </trkpt>
      <trkpt lat="46.381673756986856" lon="8.381569320335984">
        <ele>2091</ele>
        <time>2016-12-04T13:52:32Z</time>
      </trkpt>
      <trkpt lat="46.381751708686352" lon="8.381534367799759">
        <ele>2090.52</ele>
        <time>2016-12-04T13:52:41Z</time>
      </trkpt>
      <trkpt lat="46.381765622645617" lon="8.381653726100922">
        <ele>2087.6399999999999</ele>
        <time>2016-12-04T13:52:50Z</time>
      </trkpt>
      <trkpt lat="46.381748607382178" lon="8.38171323761344">
        <ele>2086.6799999999998</ele>
        <time>2016-12-04T13:52:55Z</time>
      </trkpt>
      <trkpt lat="46.381726646795869" lon="8.381757410243154">
        <ele>2085.7199999999998</ele>
        <time>2016-12-04T13:52:59Z</time>
      </trkpt>
      <trkpt lat="46.381687084212899" lon="8.381893197074533">
        <ele>2083.3099999999999</ele>
        <time>2016-12-04T13:53:08Z</time>
      </trkpt>
      <trkpt lat="46.381660932675004" lon="8.38193217292428">
        <ele>2081.8699999999999</ele>
        <time>2016-12-04T13:53:16Z</time>
      </trkpt>
      <trkpt lat="46.381660597398877" lon="8.381939716637135">
        <ele>2081.8699999999999</ele>
        <time>2016-12-04T13:53:17Z</time>
      </trkpt>
      <trkpt lat="46.381653640419245" lon="8.38196536526084">
        <ele>2081.3899999999999</ele>
        <time>2016-12-04T13:53:21Z</time>
      </trkpt>
      <trkpt lat="46.381618855521083" lon="8.382095955312252">
        <ele>2080.9099999999999</ele>
        <time>2016-12-04T13:53:30Z</time>
      </trkpt>
      <trkpt lat="46.381574179977179" lon="8.382248841226101">
        <ele>2080.4299999999998</ele>
        <time>2016-12-04T13:53:41Z</time>
      </trkpt>
      <trkpt lat="46.381564792245626" lon="8.382313549518585">
        <ele>2079.9499999999998</ele>
        <time>2016-12-04T13:53:50Z</time>
      </trkpt>
      <trkpt lat="46.381599241867661" lon="8.382311202585697">
        <ele>2078.9899999999998</ele>
        <time>2016-12-04T13:54:01Z</time>
      </trkpt>
      <trkpt lat="46.38158256188035" lon="8.382308520376682">
        <ele>2079.4699999999998</ele>
        <time>2016-12-04T13:54:12Z</time>
      </trkpt>
      <trkpt lat="46.381586585193872" lon="8.382282787933946">
        <ele>2079.4699999999998</ele>
        <time>2016-12-04T13:54:19Z</time>
      </trkpt>
      <trkpt lat="46.381602426990867" lon="8.382335929200053">
        <ele>2079.4699999999998</ele>
        <time>2016-12-04T13:54:29Z</time>
      </trkpt>
      <trkpt lat="46.381603013724089" lon="8.382431315258145">
        <ele>2079.4699999999998</ele>
        <time>2016-12-04T13:54:43Z</time>
      </trkpt>
      <trkpt lat="46.381582645699382" lon="8.382467525079846">
        <ele>2079.9499999999998</ele>
        <time>2016-12-04T13:54:52Z</time>
      </trkpt>
      <trkpt lat="46.381586166098714" lon="8.382478086277843">
        <ele>2080.4299999999998</ele>
        <time>2016-12-04T13:54:58Z</time>
      </trkpt>
      <trkpt lat="46.381619945168495" lon="8.382571209222078">
        <ele>2078.9899999999998</ele>
        <time>2016-12-04T13:55:08Z</time>
      </trkpt>
      <trkpt lat="46.381635032594204" lon="8.382618315517902">
        <ele>2078.5100000000002</ele>
        <time>2016-12-04T13:55:12Z</time>
      </trkpt>
      <trkpt lat="46.38164266012609" lon="8.38267925195396">
        <ele>2078.5100000000002</ele>
        <time>2016-12-04T13:55:16Z</time>
      </trkpt>
      <trkpt lat="46.381636541336775" lon="8.382712528109551">
        <ele>2078.5100000000002</ele>
        <time>2016-12-04T13:55:18Z</time>
      </trkpt>
      <trkpt lat="46.381613994017243" lon="8.382857535034418">
        <ele>2078.0300000000002</ele>
        <time>2016-12-04T13:55:29Z</time>
      </trkpt>
      <trkpt lat="46.381611144170165" lon="8.382868766784668">
        <ele>2077.5500000000002</ele>
        <time>2016-12-04T13:55:30Z</time>
      </trkpt>
      <trkpt lat="46.381596559658647" lon="8.382977228611708">
        <ele>2077.5500000000002</ele>
        <time>2016-12-04T13:55:39Z</time>
      </trkpt>
      <trkpt lat="46.381570743396878" lon="8.383118212223053">
        <ele>2076.0999999999999</ele>
        <time>2016-12-04T13:55:49Z</time>
      </trkpt>
      <trkpt lat="46.381589518859982" lon="8.383257938548923">
        <ele>2075.1399999999999</ele>
        <time>2016-12-04T13:55:59Z</time>
      </trkpt>
      <trkpt lat="46.38158256188035" lon="8.383280737325549">
        <ele>2074.6599999999999</ele>
        <time>2016-12-04T13:56:01Z</time>
      </trkpt>
      <trkpt lat="46.381574766710401" lon="8.383304122835398">
        <ele>2073.6999999999998</ele>
        <time>2016-12-04T13:56:11Z</time>
      </trkpt>
      <trkpt lat="46.381603600457311" lon="8.383343685418367">
        <ele>2073.6999999999998</ele>
        <time>2016-12-04T13:56:18Z</time>
      </trkpt>
      <trkpt lat="46.381569234654307" lon="8.383502690121532">
        <ele>2072.2600000000002</ele>
        <time>2016-12-04T13:56:29Z</time>
      </trkpt>
      <trkpt lat="46.381555404514074" lon="8.3836321067065">
        <ele>2071.7800000000002</ele>
        <time>2016-12-04T13:56:38Z</time>
      </trkpt>
      <trkpt lat="46.381549956277013" lon="8.383668484166265">
        <ele>2071.3000000000002</ele>
        <time>2016-12-04T13:56:40Z</time>
      </trkpt>
      <trkpt lat="46.381518859416246" lon="8.383830254897475">
        <ele>2070.3400000000001</ele>
        <time>2016-12-04T13:56:50Z</time>
      </trkpt>
      <trkpt lat="46.381511986255646" lon="8.383959839120507">
        <ele>2069.3800000000001</ele>
        <time>2016-12-04T13:56:58Z</time>
      </trkpt>
      <trkpt lat="46.381502766162157" lon="8.384106019511819">
        <ele>2066.9699999999998</ele>
        <time>2016-12-04T13:57:07Z</time>
      </trkpt>
      <trkpt lat="46.381520954892039" lon="8.384303245693445">
        <ele>2066.9699999999998</ele>
        <time>2016-12-04T13:57:20Z</time>
      </trkpt>
      <trkpt lat="46.381502682343125" lon="8.384388405829668">
        <ele>2066.9699999999998</ele>
        <time>2016-12-04T13:57:27Z</time>
      </trkpt>
      <trkpt lat="46.381506370380521" lon="8.384580602869391">
        <ele>2066.0100000000002</ele>
        <time>2016-12-04T13:57:40Z</time>
      </trkpt>
      <trkpt lat="46.381534030660987" lon="8.384645059704781">
        <ele>2065.5300000000002</ele>
        <time>2016-12-04T13:57:45Z</time>
      </trkpt>
      <trkpt lat="46.381517183035612" lon="8.384755114093423">
        <ele>2065.5300000000002</ele>
        <time>2016-12-04T13:57:52Z</time>
      </trkpt>
      <trkpt lat="46.381500503048301" lon="8.38485318236053">
        <ele>2065.0500000000002</ele>
        <time>2016-12-04T13:57:58Z</time>
      </trkpt>
      <trkpt lat="46.381495222449303" lon="8.384895427152515">
        <ele>2065.0500000000002</ele>
        <time>2016-12-04T13:58:01Z</time>
      </trkpt>
      <trkpt lat="46.381475273519754" lon="8.385047391057015">
        <ele>2064.5700000000002</ele>
        <time>2016-12-04T13:58:11Z</time>
      </trkpt>
      <trkpt lat="46.381455743685365" lon="8.385082595050335">
        <ele>2064.5700000000002</ele>
        <time>2016-12-04T13:58:21Z</time>
      </trkpt>
      <trkpt lat="46.381462449207902" lon="8.385084355250001">
        <ele>2064.5700000000002</ele>
        <time>2016-12-04T13:58:23Z</time>
      </trkpt>
      <trkpt lat="46.381476866081357" lon="8.38513758033514">
        <ele>2064.5700000000002</ele>
        <time>2016-12-04T13:58:27Z</time>
      </trkpt>
      <trkpt lat="46.381481979042292" lon="8.385202037170529">
        <ele>2064.5700000000002</ele>
        <time>2016-12-04T13:58:33Z</time>
      </trkpt>
      <trkpt lat="46.381482649594545" lon="8.385235145688057">
        <ele>2064.5700000000002</ele>
        <time>2016-12-04T13:58:35Z</time>
      </trkpt>
      <trkpt lat="46.381424982100725" lon="8.385379062965512">
        <ele>2063.6100000000001</ele>
        <time>2016-12-04T13:58:45Z</time>
      </trkpt>
      <trkpt lat="46.381394807249308" lon="8.385444357991219">
        <ele>2063.1300000000001</ele>
        <time>2016-12-04T13:58:55Z</time>
      </trkpt>
      <trkpt lat="46.381383407860994" lon="8.385440334677696">
        <ele>2061.6799999999998</ele>
        <time>2016-12-04T13:58:59Z</time>
      </trkpt>
      <trkpt lat="46.381403692066669" lon="8.385403119027615">
        <ele>2062.1700000000001</ele>
        <time>2016-12-04T13:59:22Z</time>
      </trkpt>
      <trkpt lat="46.381373265758157" lon="8.385386355221272">
        <ele>2062.1700000000001</ele>
        <time>2016-12-04T13:59:41Z</time>
      </trkpt>
      <trkpt lat="46.381383156403899" lon="8.385407226160169">
        <ele>2062.6500000000001</ele>
        <time>2016-12-04T13:59:51Z</time>
      </trkpt>
      <trkpt lat="46.381385922431946" lon="8.385443603619933">
        <ele>2063.1300000000001</ele>
        <time>2016-12-04T13:59:58Z</time>
      </trkpt>
      <trkpt lat="46.381399082019925" lon="8.385459696874023">
        <ele>2063.1300000000001</ele>
        <time>2016-12-04T14:00:18Z</time>
      </trkpt>
      <trkpt lat="46.381390113383532" lon="8.385617109015584">
        <ele>2063.1300000000001</ele>
        <time>2016-12-04T14:00:29Z</time>
      </trkpt>
      <trkpt lat="46.381397740915418" lon="8.385731521993876">
        <ele>2063.1300000000001</ele>
        <time>2016-12-04T14:00:40Z</time>
      </trkpt>
      <trkpt lat="46.381418192759156" lon="8.38574836961925">
        <ele>2063.1300000000001</ele>
        <time>2016-12-04T14:00:51Z</time>
      </trkpt>
      <trkpt lat="46.381462700664997" lon="8.385851969942451">
        <ele>2063.6100000000001</ele>
        <time>2016-12-04T14:01:00Z</time>
      </trkpt>
      <trkpt lat="46.381473010405898" lon="8.385908883064985">
        <ele>2063.1300000000001</ele>
        <time>2016-12-04T14:01:04Z</time>
      </trkpt>
      <trkpt lat="46.381493546068668" lon="8.386078532785177">
        <ele>2062.6500000000001</ele>
        <time>2016-12-04T14:01:15Z</time>
      </trkpt>
      <trkpt lat="46.381465047597885" lon="8.386283554136753">
        <ele>2061.1999999999998</ele>
        <time>2016-12-04T14:01:26Z</time>
      </trkpt>
      <trkpt lat="46.381457587704062" lon="8.386445743963122">
        <ele>2060.7199999999998</ele>
        <time>2016-12-04T14:01:35Z</time>
      </trkpt>
      <trkpt lat="46.381487594917417" lon="8.386602150276303">
        <ele>2060.2399999999998</ele>
        <time>2016-12-04T14:01:45Z</time>
      </trkpt>
      <trkpt lat="46.381486924365163" lon="8.386744055896998">
        <ele>2060.2399999999998</ele>
        <time>2016-12-04T14:01:55Z</time>
      </trkpt>
      <trkpt lat="46.381505196914077" lon="8.386826701462269">
        <ele>2059.2800000000002</ele>
        <time>2016-12-04T14:02:04Z</time>
      </trkpt>
      <trkpt lat="46.381489019840956" lon="8.386899959295988">
        <ele>2059.2800000000002</ele>
        <time>2016-12-04T14:02:11Z</time>
      </trkpt>
      <trkpt lat="46.381504777818918" lon="8.386943712830544">
        <ele>2058.3200000000002</ele>
        <time>2016-12-04T14:02:20Z</time>
      </trkpt>
      <trkpt lat="46.381513411179185" lon="8.386949831619859">
        <ele>2060.2399999999998</ele>
        <time>2016-12-04T14:02:26Z</time>
      </trkpt>
      <trkpt lat="46.381485415622592" lon="8.387082014232874">
        <ele>2059.7600000000002</ele>
        <time>2016-12-04T14:02:36Z</time>
      </trkpt>
      <trkpt lat="46.381479380652308" lon="8.38708084076643">
        <ele>2059.7600000000002</ele>
        <time>2016-12-04T14:02:41Z</time>
      </trkpt>
      <trkpt lat="46.381491534411907" lon="8.387185279279947">
        <ele>2059.2800000000002</ele>
        <time>2016-12-04T14:02:49Z</time>
      </trkpt>
      <trkpt lat="46.381498239934444" lon="8.387196930125356">
        <ele>2059.2800000000002</ele>
        <time>2016-12-04T14:02:59Z</time>
      </trkpt>
      <trkpt lat="46.381472339853644" lon="8.387276642024517">
        <ele>2059.2800000000002</ele>
        <time>2016-12-04T14:03:09Z</time>
      </trkpt>
      <trkpt lat="46.381472926586866" lon="8.387273959815502">
        <ele>2058.8000000000002</ele>
        <time>2016-12-04T14:03:10Z</time>
      </trkpt>
      <trkpt lat="46.381460521370173" lon="8.387337075546384">
        <ele>2058.8000000000002</ele>
        <time>2016-12-04T14:03:16Z</time>
      </trkpt>
      <trkpt lat="46.381479715928435" lon="8.387468000873923">
        <ele>2059.2800000000002</ele>
        <time>2016-12-04T14:03:27Z</time>
      </trkpt>
      <trkpt lat="46.381487846374512" lon="8.387468252331018">
        <ele>2059.2800000000002</ele>
        <time>2016-12-04T14:03:32Z</time>
      </trkpt>
      <trkpt lat="46.381507543846965" lon="8.387556178495288">
        <ele>2059.7600000000002</ele>
        <time>2016-12-04T14:03:39Z</time>
      </trkpt>
      <trkpt lat="46.38153126463294" lon="8.387627508491278">
        <ele>2059.7600000000002</ele>
        <time>2016-12-04T14:03:45Z</time>
      </trkpt>
      <trkpt lat="46.381548615172505" lon="8.387740245088935">
        <ele>2059.7600000000002</ele>
        <time>2016-12-04T14:03:55Z</time>
      </trkpt>
      <trkpt lat="46.38156495988369" lon="8.387728426605463">
        <ele>2059.7600000000002</ele>
        <time>2016-12-04T14:04:13Z</time>
      </trkpt>
      <trkpt lat="46.381561020389199" lon="8.38773705996573">
        <ele>2059.7600000000002</ele>
        <time>2016-12-04T14:04:25Z</time>
      </trkpt>
      <trkpt lat="46.381580550223589" lon="8.38780352845788">
        <ele>2061.1999999999998</ele>
        <time>2016-12-04T14:04:34Z</time>
      </trkpt>
      <trkpt lat="46.381594715639949" lon="8.387844851240516">
        <ele>2060.2399999999998</ele>
        <time>2016-12-04T14:04:40Z</time>
      </trkpt>
      <trkpt lat="46.3815937936306" lon="8.387934705242515">
        <ele>2060.7199999999998</ele>
        <time>2016-12-04T14:04:48Z</time>
      </trkpt>
      <trkpt lat="46.38158792629838" lon="8.387965131551027">
        <ele>2060.7199999999998</ele>
        <time>2016-12-04T14:04:51Z</time>
      </trkpt>
      <trkpt lat="46.381574599072337" lon="8.388002179563046">
        <ele>2060.7199999999998</ele>
        <time>2016-12-04T14:04:54Z</time>
      </trkpt>
      <trkpt lat="46.381548196077347" lon="8.388094129040837">
        <ele>2061.1999999999998</ele>
        <time>2016-12-04T14:05:03Z</time>
      </trkpt>
      <trkpt lat="46.381537634879351" lon="8.388114161789417">
        <ele>2061.1999999999998</ele>
        <time>2016-12-04T14:05:12Z</time>
      </trkpt>
      <trkpt lat="46.381506705656648" lon="8.388118268921971">
        <ele>2061.1999999999998</ele>
        <time>2016-12-04T14:05:29Z</time>
      </trkpt>
      <trkpt lat="46.381518440321088" lon="8.388130590319634">
        <ele>2061.1999999999998</ele>
        <time>2016-12-04T14:05:33Z</time>
      </trkpt>
      <trkpt lat="46.381457420065999" lon="8.388267466798425">
        <ele>2061.6799999999998</ele>
        <time>2016-12-04T14:05:44Z</time>
      </trkpt>
      <trkpt lat="46.381443087011576" lon="8.38830728083849">
        <ele>2061.6799999999998</ele>
        <time>2016-12-04T14:05:47Z</time>
      </trkpt>
      <trkpt lat="46.381410146132112" lon="8.388433093205094">
        <ele>2061.6799999999998</ele>
        <time>2016-12-04T14:05:56Z</time>
      </trkpt>
      <trkpt lat="46.381384413689375" lon="8.388524875044823">
        <ele>2061.1999999999998</ele>
        <time>2016-12-04T14:06:03Z</time>
      </trkpt>
      <trkpt lat="46.381378546357155" lon="8.388557313010097">
        <ele>2061.1999999999998</ele>
        <time>2016-12-04T14:06:05Z</time>
      </trkpt>
      <trkpt lat="46.381326410919428" lon="8.388674324378371">
        <ele>2058.8000000000002</ele>
        <time>2016-12-04T14:06:14Z</time>
      </trkpt>
      <trkpt lat="46.381316520273685" lon="8.388762082904577">
        <ele>2057.3600000000001</ele>
        <time>2016-12-04T14:06:19Z</time>
      </trkpt>
      <trkpt lat="46.381303193047643" lon="8.388917399570346">
        <ele>2054.96</ele>
        <time>2016-12-04T14:06:31Z</time>
      </trkpt>
      <trkpt lat="46.38130059465766" lon="8.389037847518921">
        <ele>2053.0300000000002</ele>
        <time>2016-12-04T14:06:40Z</time>
      </trkpt>
      <trkpt lat="46.381301684305072" lon="8.389214454218745">
        <ele>2050.6300000000001</ele>
        <time>2016-12-04T14:06:51Z</time>
      </trkpt>
      <trkpt lat="46.381302271038294" lon="8.389269690960646">
        <ele>2049.6700000000001</ele>
        <time>2016-12-04T14:07:01Z</time>
      </trkpt>
      <trkpt lat="46.381310066208243" lon="8.389276396483183">
        <ele>2050.1500000000001</ele>
        <time>2016-12-04T14:07:20Z</time>
      </trkpt>
      <trkpt lat="46.381293050944805" lon="8.389313612133265">
        <ele>2049.1900000000001</ele>
        <time>2016-12-04T14:07:28Z</time>
      </trkpt>
      <trkpt lat="46.381302941590548" lon="8.389294417575002">
        <ele>2049.1900000000001</ele>
        <time>2016-12-04T14:07:42Z</time>
      </trkpt>
      <trkpt lat="46.381274946033955" lon="8.389298273250461">
        <ele>2049.1900000000001</ele>
        <time>2016-12-04T14:08:03Z</time>
      </trkpt>
      <trkpt lat="46.381295397877693" lon="8.38929726742208">
        <ele>2049.1900000000001</ele>
        <time>2016-12-04T14:08:21Z</time>
      </trkpt>
      <trkpt lat="46.381283830851316" lon="8.389286454766989">
        <ele>2049.1900000000001</ele>
        <time>2016-12-04T14:08:43Z</time>
      </trkpt>
      <trkpt lat="46.381282489746809" lon="8.389321574941278">
        <ele>2048.23</ele>
        <time>2016-12-04T14:08:47Z</time>
      </trkpt>
      <trkpt lat="46.381241166964173" lon="8.389501953497529">
        <ele>2045.3399999999999</ele>
        <time>2016-12-04T14:08:58Z</time>
      </trkpt>
      <trkpt lat="46.381214763969183" lon="8.389640087261796">
        <ele>2042.9400000000001</ele>
        <time>2016-12-04T14:09:08Z</time>
      </trkpt>
      <trkpt lat="46.381192803382874" lon="8.389768749475479">
        <ele>2039.5699999999999</ele>
        <time>2016-12-04T14:09:18Z</time>
      </trkpt>
      <trkpt lat="46.38117796741426" lon="8.389876037836075">
        <ele>2037.6500000000001</ele>
        <time>2016-12-04T14:09:28Z</time>
      </trkpt>
      <trkpt lat="46.381173860281706" lon="8.389951474964619">
        <ele>2036.6900000000001</ele>
        <time>2016-12-04T14:09:37Z</time>
      </trkpt>
      <trkpt lat="46.381158186122775" lon="8.390078125521541">
        <ele>2034.29</ele>
        <time>2016-12-04T14:09:48Z</time>
      </trkpt>
      <trkpt lat="46.381149552762508" lon="8.390148030593991">
        <ele>2032.3599999999999</ele>
        <time>2016-12-04T14:09:57Z</time>
      </trkpt>
      <trkpt lat="46.381139913573861" lon="8.390250792726874">
        <ele>2029.96</ele>
        <time>2016-12-04T14:10:06Z</time>
      </trkpt>
      <trkpt lat="46.38114427216351" lon="8.390270574018359">
        <ele>2029.48</ele>
        <time>2016-12-04T14:10:17Z</time>
      </trkpt>
      <trkpt lat="46.381139662116766" lon="8.390276860445738">
        <ele>2029.48</ele>
        <time>2016-12-04T14:10:20Z</time>
      </trkpt>
      <trkpt lat="46.381112420931458" lon="8.390469141304493">
        <ele>2026.5999999999999</ele>
        <time>2016-12-04T14:10:32Z</time>
      </trkpt>
      <trkpt lat="46.381115606054664" lon="8.390625799074769">
        <ele>2023.71</ele>
        <time>2016-12-04T14:10:43Z</time>
      </trkpt>
      <trkpt lat="46.381115019321442" lon="8.390766195952892">
        <ele>2021.79</ele>
        <time>2016-12-04T14:10:52Z</time>
      </trkpt>
      <trkpt lat="46.381113175302744" lon="8.390838783234358">
        <ele>2021.3099999999999</ele>
        <time>2016-12-04T14:10:57Z</time>
      </trkpt>
      <trkpt lat="46.381071684882045" lon="8.390928385779262">
        <ele>2019.8699999999999</ele>
        <time>2016-12-04T14:11:10Z</time>
      </trkpt>
      <trkpt lat="46.38106120750308" lon="8.391010612249374">
        <ele>2018.9100000000001</ele>
        <time>2016-12-04T14:11:21Z</time>
      </trkpt>
      <trkpt lat="46.381061458960176" lon="8.391021089628339">
        <ele>2018.9100000000001</ele>
        <time>2016-12-04T14:11:22Z</time>
      </trkpt>
      <trkpt lat="46.381062967702746" lon="8.391061574220657">
        <ele>2018.4300000000001</ele>
        <time>2016-12-04T14:11:25Z</time>
      </trkpt>
      <trkpt lat="46.381056597456336" lon="8.391160229220986">
        <ele>2017.46</ele>
        <time>2016-12-04T14:11:31Z</time>
      </trkpt>
      <trkpt lat="46.381041929125786" lon="8.391188140958548">
        <ele>2017.46</ele>
        <time>2016-12-04T14:11:33Z</time>
      </trkpt>
      <trkpt lat="46.38102893717587" lon="8.391325101256371">
        <ele>2016.5</ele>
        <time>2016-12-04T14:11:46Z</time>
      </trkpt>
      <trkpt lat="46.381084341555834" lon="8.391366256400943">
        <ele>2016.5</ele>
        <time>2016-12-04T14:12:00Z</time>
      </trkpt>
      <trkpt lat="46.381058609113097" lon="8.391342619433999">
        <ele>2016.5</ele>
        <time>2016-12-04T14:12:21Z</time>
      </trkpt>
      <trkpt lat="46.381049556657672" lon="8.391338679939508">
        <ele>2016.02</ele>
        <time>2016-12-04T14:12:35Z</time>
      </trkpt>
      <trkpt lat="46.381049389019608" lon="8.391376147046685">
        <ele>2015.0599999999999</ele>
        <time>2016-12-04T14:12:39Z</time>
      </trkpt>
      <trkpt lat="46.38104704208672" lon="8.391482094302774">
        <ele>2013.6199999999999</ele>
        <time>2016-12-04T14:12:49Z</time>
      </trkpt>
      <trkpt lat="46.381026757881045" lon="8.39156499132514">
        <ele>2012.6600000000001</ele>
        <time>2016-12-04T14:12:59Z</time>
      </trkpt>
      <trkpt lat="46.381031619384885" lon="8.391587622463703">
        <ele>2012.6600000000001</ele>
        <time>2016-12-04T14:13:15Z</time>
      </trkpt>
      <trkpt lat="46.381020722910762" lon="8.391803791746497">
        <ele>2009.29</ele>
        <time>2016-12-04T14:13:27Z</time>
      </trkpt>
      <trkpt lat="46.381023153662682" lon="8.391824997961521">
        <ele>2009.29</ele>
        <time>2016-12-04T14:13:28Z</time>
      </trkpt>
      <trkpt lat="46.38105726800859" lon="8.391967574134469">
        <ele>2007.8499999999999</ele>
        <time>2016-12-04T14:13:38Z</time>
      </trkpt>
      <trkpt lat="46.381070930510759" lon="8.392152395099402">
        <ele>2006.4100000000001</ele>
        <time>2016-12-04T14:13:49Z</time>
      </trkpt>
      <trkpt lat="46.381062297150493" lon="8.392157424241304">
        <ele>2006.4100000000001</ele>
        <time>2016-12-04T14:13:55Z</time>
      </trkpt>
      <trkpt lat="46.381071601063013" lon="8.392313914373517">
        <ele>2005.45</ele>
        <time>2016-12-04T14:14:06Z</time>
      </trkpt>
      <trkpt lat="46.381071601063013" lon="8.392328917980194">
        <ele>2005.45</ele>
        <time>2016-12-04T14:14:07Z</time>
      </trkpt>
      <trkpt lat="46.381063386797905" lon="8.392358841374517">
        <ele>2005.45</ele>
        <time>2016-12-04T14:14:09Z</time>
      </trkpt>
      <trkpt lat="46.381073109805584" lon="8.39252463541925">
        <ele>2004.01</ele>
        <time>2016-12-04T14:14:20Z</time>
      </trkpt>
      <trkpt lat="46.381065649911761" lon="8.392728148028255">
        <ele>2001.5999999999999</ele>
        <time>2016-12-04T14:14:32Z</time>
      </trkpt>
      <trkpt lat="46.381070679053664" lon="8.392901485785842">
        <ele>1999.6800000000001</ele>
        <time>2016-12-04T14:14:42Z</time>
      </trkpt>
      <trkpt lat="46.381055423989892" lon="8.393050767481327">
        <ele>1998.24</ele>
        <time>2016-12-04T14:14:50Z</time>
      </trkpt>
      <trkpt lat="46.381035558879375" lon="8.393089408054948">
        <ele>1998.24</ele>
        <time>2016-12-04T14:14:53Z</time>
      </trkpt>
      <trkpt lat="46.381033295765519" lon="8.39314179494977">
        <ele>1998.24</ele>
        <time>2016-12-04T14:14:58Z</time>
      </trkpt>
      <trkpt lat="46.381025332957506" lon="8.39319258928299">
        <ele>1998.24</ele>
        <time>2016-12-04T14:15:02Z</time>
      </trkpt>
      <trkpt lat="46.38101477175951" lon="8.393234498798847">
        <ele>1998.24</ele>
        <time>2016-12-04T14:15:05Z</time>
      </trkpt>
      <trkpt lat="46.380988955497742" lon="8.3934286236763">
        <ele>1997.76</ele>
        <time>2016-12-04T14:15:19Z</time>
      </trkpt>
      <trkpt lat="46.380966827273369" lon="8.393443878740072">
        <ele>1997.76</ele>
        <time>2016-12-04T14:15:29Z</time>
      </trkpt>
      <trkpt lat="46.380973951891065" lon="8.393491404131055">
        <ele>1997.76</ele>
        <time>2016-12-04T14:15:39Z</time>
      </trkpt>
      <trkpt lat="46.380966994911432" lon="8.39364655315876">
        <ele>1997.76</ele>
        <time>2016-12-04T14:15:50Z</time>
      </trkpt>
      <trkpt lat="46.380953080952168" lon="8.393788626417518">
        <ele>1997.76</ele>
        <time>2016-12-04T14:16:00Z</time>
      </trkpt>
      <trkpt lat="46.380944782868028" lon="8.393832547590137">
        <ele>1998.24</ele>
        <time>2016-12-04T14:16:03Z</time>
      </trkpt>
      <trkpt lat="46.380930952727795" lon="8.393871271982789">
        <ele>1998.72</ele>
        <time>2016-12-04T14:16:06Z</time>
      </trkpt>
      <trkpt lat="46.380889881402254" lon="8.394027929753065">
        <ele>1998.72</ele>
        <time>2016-12-04T14:16:17Z</time>
      </trkpt>
      <trkpt lat="46.380840260535479" lon="8.394148796796799">
        <ele>1996.8</ele>
        <time>2016-12-04T14:16:26Z</time>
      </trkpt>
      <trkpt lat="46.380833219736814" lon="8.394205207005143">
        <ele>1996.3199999999999</ele>
        <time>2016-12-04T14:16:36Z</time>
      </trkpt>
      <trkpt lat="46.380796926096082" lon="8.394303191453219">
        <ele>1995.8299999999999</ele>
        <time>2016-12-04T14:16:45Z</time>
      </trkpt>
      <trkpt lat="46.38077974319458" lon="8.394376616925001">
        <ele>1995.8299999999999</ele>
        <time>2016-12-04T14:16:52Z</time>
      </trkpt>
      <trkpt lat="46.380782341584563" lon="8.394552385434508">
        <ele>1995.8299999999999</ele>
        <time>2016-12-04T14:17:04Z</time>
      </trkpt>
      <trkpt lat="46.380769014358521" lon="8.394719688221812">
        <ele>1994.8699999999999</ele>
        <time>2016-12-04T14:17:15Z</time>
      </trkpt>
      <trkpt lat="46.380725177004933" lon="8.394877268001437">
        <ele>1994.8699999999999</ele>
        <time>2016-12-04T14:17:26Z</time>
      </trkpt>
      <trkpt lat="46.380719812586904" lon="8.394911717623472">
        <ele>1994.3900000000001</ele>
        <time>2016-12-04T14:17:29Z</time>
      </trkpt>
      <trkpt lat="46.380705144256353" lon="8.395049683749676">
        <ele>1994.3900000000001</ele>
        <time>2016-12-04T14:17:39Z</time>
      </trkpt>
      <trkpt lat="46.38068494386971" lon="8.395206006243825">
        <ele>1993.4300000000001</ele>
        <time>2016-12-04T14:17:50Z</time>
      </trkpt>
      <trkpt lat="46.380668850615621" lon="8.395373476669192">
        <ele>1993.4300000000001</ele>
        <time>2016-12-04T14:18:01Z</time>
      </trkpt>
      <trkpt lat="46.380644543096423" lon="8.395534493029118">
        <ele>1992.95</ele>
        <time>2016-12-04T14:18:11Z</time>
      </trkpt>
      <trkpt lat="46.380624929443002" lon="8.39561864733696">
        <ele>1992.47</ele>
        <time>2016-12-04T14:18:18Z</time>
      </trkpt>
      <trkpt lat="46.380578242242336" lon="8.39576767757535">
        <ele>1991.99</ele>
        <time>2016-12-04T14:18:29Z</time>
      </trkpt>
      <trkpt lat="46.380572626367211" lon="8.395792068913579">
        <ele>1992.47</ele>
        <time>2016-12-04T14:18:31Z</time>
      </trkpt>
      <trkpt lat="46.380570530891418" lon="8.395960545167327">
        <ele>1991.03</ele>
        <time>2016-12-04T14:18:42Z</time>
      </trkpt>
      <trkpt lat="46.380554269999266" lon="8.396056182682514">
        <ele>1991.03</ele>
        <time>2016-12-04T14:18:49Z</time>
      </trkpt>
      <trkpt lat="46.380536919459701" lon="8.396122148260474">
        <ele>1991.03</ele>
        <time>2016-12-04T14:18:53Z</time>
      </trkpt>
      <trkpt lat="46.380523005500436" lon="8.396162129938602">
        <ele>1991.03</ele>
        <time>2016-12-04T14:18:56Z</time>
      </trkpt>
      <trkpt lat="46.380515797063708" lon="8.396199345588684">
        <ele>1991.03</ele>
        <time>2016-12-04T14:18:59Z</time>
      </trkpt>
      <trkpt lat="46.380503559485078" lon="8.396376958116889">
        <ele>1990.55</ele>
        <time>2016-12-04T14:19:11Z</time>
      </trkpt>
      <trkpt lat="46.380504732951522" lon="8.396410653367639">
        <ele>1990.55</ele>
        <time>2016-12-04T14:19:13Z</time>
      </trkpt>
      <trkpt lat="46.38049584813416" lon="8.396586924791336">
        <ele>1990.55</ele>
        <time>2016-12-04T14:19:25Z</time>
      </trkpt>
      <trkpt lat="46.3804816827178" lon="8.396660517901182">
        <ele>1990.55</ele>
        <time>2016-12-04T14:19:31Z</time>
      </trkpt>
      <trkpt lat="46.38047237880528" lon="8.396717347204685">
        <ele>1991.03</ele>
        <time>2016-12-04T14:19:35Z</time>
      </trkpt>
      <trkpt lat="46.380454776808619" lon="8.396853301674128">
        <ele>1990.55</ele>
        <time>2016-12-04T14:19:45Z</time>
      </trkpt>
      <trkpt lat="46.380431642755866" lon="8.397005181759596">
        <ele>1991.03</ele>
        <time>2016-12-04T14:19:56Z</time>
      </trkpt>
      <trkpt lat="46.380419656634331" lon="8.397038290277124">
        <ele>1991.03</ele>
        <time>2016-12-04T14:20:01Z</time>
      </trkpt>
      <trkpt lat="46.380411358550191" lon="8.397192768752575">
        <ele>1990.0699999999999</ele>
        <time>2016-12-04T14:20:12Z</time>
      </trkpt>
      <trkpt lat="46.38038101606071" lon="8.397277509793639">
        <ele>1989.5899999999999</ele>
        <time>2016-12-04T14:20:21Z</time>
      </trkpt>
      <trkpt lat="46.380367772653699" lon="8.397408351302147">
        <ele>1989.0999999999999</ele>
        <time>2016-12-04T14:20:29Z</time>
      </trkpt>
      <trkpt lat="46.380377244204283" lon="8.397586215287447">
        <ele>1988.1400000000001</ele>
        <time>2016-12-04T14:20:40Z</time>
      </trkpt>
      <trkpt lat="46.380387721583247" lon="8.397725690156221">
        <ele>1987.6600000000001</ele>
        <time>2016-12-04T14:20:50Z</time>
      </trkpt>
      <trkpt lat="46.380385374650359" lon="8.397867511957884">
        <ele>1986.7</ele>
        <time>2016-12-04T14:21:00Z</time>
      </trkpt>
      <trkpt lat="46.38032577931881" lon="8.398024253547192">
        <ele>1985.74</ele>
        <time>2016-12-04T14:21:12Z</time>
      </trkpt>
      <trkpt lat="46.380290742963552" lon="8.398066163063049">
        <ele>1985.74</ele>
        <time>2016-12-04T14:21:18Z</time>
      </trkpt>
      <trkpt lat="46.3803003821522" lon="8.398108575493097">
        <ele>1985.74</ele>
        <time>2016-12-04T14:21:20Z</time>
      </trkpt>
      <trkpt lat="46.380308177322149" lon="8.398301107808948">
        <ele>1984.78</ele>
        <time>2016-12-04T14:21:31Z</time>
      </trkpt>
      <trkpt lat="46.380300046876073" lon="8.398376293480396">
        <ele>1984.78</ele>
        <time>2016-12-04T14:21:36Z</time>
      </trkpt>
      <trkpt lat="46.380312452092767" lon="8.39855382218957">
        <ele>1984.78</ele>
        <time>2016-12-04T14:21:48Z</time>
      </trkpt>
      <trkpt lat="46.38032871298492" lon="8.398706121370196">
        <ele>1984.3</ele>
        <time>2016-12-04T14:21:59Z</time>
      </trkpt>
      <trkpt lat="46.380325276404619" lon="8.398803938180208">
        <ele>1984.3</ele>
        <time>2016-12-04T14:22:10Z</time>
      </trkpt>
      <trkpt lat="46.380324102938175" lon="8.398880632594228">
        <ele>1984.78</ele>
        <time>2016-12-04T14:22:19Z</time>
      </trkpt>
      <trkpt lat="46.380325276404619" lon="8.398886919021606">
        <ele>1984.78</ele>
        <time>2016-12-04T14:22:20Z</time>
      </trkpt>
      <trkpt lat="46.380328629165888" lon="8.399038044735789">
        <ele>1984.78</ele>
        <time>2016-12-04T14:22:30Z</time>
      </trkpt>
      <trkpt lat="46.380310356616974" lon="8.399188164621592">
        <ele>1985.74</ele>
        <time>2016-12-04T14:22:41Z</time>
      </trkpt>
      <trkpt lat="46.38026861473918" lon="8.399321269243956">
        <ele>1985.26</ele>
        <time>2016-12-04T14:22:51Z</time>
      </trkpt>
      <trkpt lat="46.380273224785924" lon="8.39943241328001">
        <ele>1983.8199999999999</ele>
        <time>2016-12-04T14:23:00Z</time>
      </trkpt>
      <trkpt lat="46.380272218957543" lon="8.399439956992865">
        <ele>1983.8199999999999</ele>
        <time>2016-12-04T14:23:01Z</time>
      </trkpt>
      <trkpt lat="46.380262579768896" lon="8.399514723569155">
        <ele>1982.3800000000001</ele>
        <time>2016-12-04T14:23:07Z</time>
      </trkpt>
      <trkpt lat="46.38025738298893" lon="8.399557806551457">
        <ele>1981.9000000000001</ele>
        <time>2016-12-04T14:23:10Z</time>
      </trkpt>
      <trkpt lat="46.380215305835009" lon="8.399665346369147">
        <ele>1979.97</ele>
        <time>2016-12-04T14:23:20Z</time>
      </trkpt>
      <trkpt lat="46.380213461816311" lon="8.399679008871317">
        <ele>1979.49</ele>
        <time>2016-12-04T14:23:21Z</time>
      </trkpt>
      <trkpt lat="46.380193177610636" lon="8.399705830961466">
        <ele>1979.49</ele>
        <time>2016-12-04T14:23:24Z</time>
      </trkpt>
      <trkpt lat="46.38016602024436" lon="8.399829212576151">
        <ele>1978.53</ele>
        <time>2016-12-04T14:23:33Z</time>
      </trkpt>
      <trkpt lat="46.380145400762558" lon="8.399932058528066">
        <ele>1977.0899999999999</ele>
        <time>2016-12-04T14:23:41Z</time>
      </trkpt>
      <trkpt lat="46.380132827907801" lon="8.400041190907359">
        <ele>1974.6900000000001</ele>
        <time>2016-12-04T14:23:51Z</time>
      </trkpt>
      <trkpt lat="46.380131235346198" lon="8.400049488991499">
        <ele>1975.1700000000001</ele>
        <time>2016-12-04T14:23:52Z</time>
      </trkpt>
      <trkpt lat="46.38013819232583" lon="8.400081926956773">
        <ele>1974.2</ele>
        <time>2016-12-04T14:23:55Z</time>
      </trkpt>
      <trkpt lat="46.380138527601957" lon="8.400108078494668">
        <ele>1974.2</ele>
        <time>2016-12-04T14:23:57Z</time>
      </trkpt>
      <trkpt lat="46.380132241174579" lon="8.400133810937405">
        <ele>1973.72</ele>
        <time>2016-12-04T14:23:59Z</time>
      </trkpt>
      <trkpt lat="46.380132911726832" lon="8.400240680202842">
        <ele>1972.76</ele>
        <time>2016-12-04T14:24:07Z</time>
      </trkpt>
      <trkpt lat="46.380115896463394" lon="8.400419550016522">
        <ele>1970.8399999999999</ele>
        <time>2016-12-04T14:24:20Z</time>
      </trkpt>
      <trkpt lat="46.3801034912467" lon="8.400488616898656">
        <ele>1970.3599999999999</ele>
        <time>2016-12-04T14:24:25Z</time>
      </trkpt>
      <trkpt lat="46.380100306123495" lon="8.400515858083963">
        <ele>1969.8800000000001</ele>
        <time>2016-12-04T14:24:27Z</time>
      </trkpt>
      <trkpt lat="46.38008538633585" lon="8.400677964091301">
        <ele>1968.9200000000001</ele>
        <time>2016-12-04T14:24:38Z</time>
      </trkpt>
      <trkpt lat="46.380094354972243" lon="8.400819199159741">
        <ele>1967.96</ele>
        <time>2016-12-04T14:24:48Z</time>
      </trkpt>
      <trkpt lat="46.38011665083468" lon="8.400955321267247">
        <ele>1967.48</ele>
        <time>2016-12-04T14:24:58Z</time>
      </trkpt>
      <trkpt lat="46.380082117393613" lon="8.401072751730681">
        <ele>1967.48</ele>
        <time>2016-12-04T14:25:07Z</time>
      </trkpt>
      <trkpt lat="46.380057139322162" lon="8.401241060346365">
        <ele>1966.99</ele>
        <time>2016-12-04T14:25:19Z</time>
      </trkpt>
      <trkpt lat="46.380051774904132" lon="8.40139327570796">
        <ele>1966.99</ele>
        <time>2016-12-04T14:25:29Z</time>
      </trkpt>
      <trkpt lat="46.38002872467041" lon="8.401559488847852">
        <ele>1965.55</ele>
        <time>2016-12-04T14:25:40Z</time>
      </trkpt>
      <trkpt lat="46.379996119067073" lon="8.401696952059865">
        <ele>1965.0699999999999</ele>
        <time>2016-12-04T14:25:50Z</time>
      </trkpt>
      <trkpt lat="46.37996326200664" lon="8.401817986741662">
        <ele>1964.1099999999999</ele>
        <time>2016-12-04T14:25:59Z</time>
      </trkpt>
      <trkpt lat="46.379951694980264" lon="8.401957210153341">
        <ele>1963.6300000000001</ele>
        <time>2016-12-04T14:26:09Z</time>
      </trkpt>
      <trkpt lat="46.379952365532517" lon="8.402103977277875">
        <ele>1963.1500000000001</ele>
        <time>2016-12-04T14:26:19Z</time>
      </trkpt>
      <trkpt lat="46.3799515273422" lon="8.402234315872192">
        <ele>1963.6300000000001</ele>
        <time>2016-12-04T14:26:29Z</time>
      </trkpt>
      <trkpt lat="46.379963848739862" lon="8.402369013056159">
        <ele>1963.6300000000001</ele>
        <time>2016-12-04T14:26:40Z</time>
      </trkpt>
      <trkpt lat="46.379959657788277" lon="8.402406647801399">
        <ele>1963.6300000000001</ele>
        <time>2016-12-04T14:26:42Z</time>
      </trkpt>
      <trkpt lat="46.379926549270749" lon="8.402550565078855">
        <ele>1963.1500000000001</ele>
        <time>2016-12-04T14:26:54Z</time>
      </trkpt>
      <trkpt lat="46.379902409389615" lon="8.402600437402725">
        <ele>1963.1500000000001</ele>
        <time>2016-12-04T14:27:01Z</time>
      </trkpt>
      <trkpt lat="46.379838539287448" lon="8.402736475691199">
        <ele>1963.6300000000001</ele>
        <time>2016-12-04T14:27:13Z</time>
      </trkpt>
      <trkpt lat="46.379777099937201" lon="8.402833119034767">
        <ele>1962.1900000000001</ele>
        <time>2016-12-04T14:27:24Z</time>
      </trkpt>
      <trkpt lat="46.379714990034699" lon="8.402943257242441">
        <ele>1961.23</ele>
        <time>2016-12-04T14:27:35Z</time>
      </trkpt>
      <trkpt lat="46.379679702222347" lon="8.403027830645442">
        <ele>1960.27</ele>
        <time>2016-12-04T14:27:44Z</time>
      </trkpt>
      <trkpt lat="46.379656316712499" lon="8.40310100466013">
        <ele>1960.27</ele>
        <time>2016-12-04T14:27:54Z</time>
      </trkpt>
      <trkpt lat="46.379631338641047" lon="8.403139393776655">
        <ele>1959.78</ele>
        <time>2016-12-04T14:28:05Z</time>
      </trkpt>
      <trkpt lat="46.379581466317177" lon="8.403171580284834">
        <ele>1959.3</ele>
        <time>2016-12-04T14:28:13Z</time>
      </trkpt>
      <trkpt lat="46.379522625356913" lon="8.403238886967301">
        <ele>1957.8599999999999</ele>
        <time>2016-12-04T14:28:24Z</time>
      </trkpt>
      <trkpt lat="46.37946043163538" lon="8.403314324095845">
        <ele>1956.9000000000001</ele>
        <time>2016-12-04T14:28:32Z</time>
      </trkpt>
      <trkpt lat="46.379450289532542" lon="8.40332237072289">
        <ele>1956.9000000000001</ele>
        <time>2016-12-04T14:28:33Z</time>
      </trkpt>
      <trkpt lat="46.379356076940894" lon="8.403400657698512">
        <ele>1956.4200000000001</ele>
        <time>2016-12-04T14:28:43Z</time>
      </trkpt>
      <trkpt lat="46.379335038363934" lon="8.403412057086825">
        <ele>1955.46</ele>
        <time>2016-12-04T14:28:45Z</time>
      </trkpt>
      <trkpt lat="46.379230013117194" lon="8.403459498658776">
        <ele>1954.02</ele>
        <time>2016-12-04T14:28:55Z</time>
      </trkpt>
      <trkpt lat="46.379201430827379" lon="8.403459247201681">
        <ele>1953.0599999999999</ele>
        <time>2016-12-04T14:28:58Z</time>
      </trkpt>
      <trkpt lat="46.37913160957396" lon="8.403436113148928">
        <ele>1951.1300000000001</ele>
        <time>2016-12-04T14:29:08Z</time>
      </trkpt>
      <trkpt lat="46.379151726141572" lon="8.403403088450432">
        <ele>1951.6099999999999</ele>
        <time>2016-12-04T14:29:24Z</time>
      </trkpt>
      <trkpt lat="46.379138398915529" lon="8.403390096500516">
        <ele>1951.6099999999999</ele>
        <time>2016-12-04T14:29:37Z</time>
      </trkpt>
      <trkpt lat="46.379032786935568" lon="8.403371656313539">
        <ele>1948.73</ele>
        <time>2016-12-04T14:29:46Z</time>
      </trkpt>
      <trkpt lat="46.379024656489491" lon="8.403300829231739">
        <ele>1947.77</ele>
        <time>2016-12-04T14:29:56Z</time>
      </trkpt>
      <trkpt lat="46.37903387658298" lon="8.403300158679485">
        <ele>1948.25</ele>
        <time>2016-12-04T14:30:08Z</time>
      </trkpt>
      <trkpt lat="46.379043012857437" lon="8.403272246941924">
        <ele>1947.77</ele>
        <time>2016-12-04T14:30:10Z</time>
      </trkpt>
      <trkpt lat="46.379075450822711" lon="8.403127491474152">
        <ele>1944.8800000000001</ele>
        <time>2016-12-04T14:30:20Z</time>
      </trkpt>
      <trkpt lat="46.379066901281476" lon="8.403017185628414">
        <ele>1943.4400000000001</ele>
        <time>2016-12-04T14:30:30Z</time>
      </trkpt>
      <trkpt lat="46.379054244607687" lon="8.403004445135593">
        <ele>1943.4400000000001</ele>
        <time>2016-12-04T14:30:32Z</time>
      </trkpt>
      <trkpt lat="46.379023818299174" lon="8.402976281940937">
        <ele>1942.96</ele>
        <time>2016-12-04T14:30:37Z</time>
      </trkpt>
      <trkpt lat="46.37895911000669" lon="8.40306144207716">
        <ele>1941.04</ele>
        <time>2016-12-04T14:30:49Z</time>
      </trkpt>
      <trkpt lat="46.378960283473134" lon="8.403060855343938">
        <ele>1940.5599999999999</ele>
        <time>2016-12-04T14:31:04Z</time>
      </trkpt>
      <trkpt lat="46.378959445282817" lon="8.4031215403229">
        <ele>1940.0799999999999</ele>
        <time>2016-12-04T14:31:19Z</time>
      </trkpt>
      <trkpt lat="46.378950979560614" lon="8.403136041015387">
        <ele>1940.0799999999999</ele>
        <time>2016-12-04T14:31:20Z</time>
      </trkpt>
      <trkpt lat="46.378845870494843" lon="8.403289262205362">
        <ele>1936.71</ele>
        <time>2016-12-04T14:31:31Z</time>
      </trkpt>
      <trkpt lat="46.378792226314545" lon="8.403356820344925">
        <ele>1934.79</ele>
        <time>2016-12-04T14:31:37Z</time>
      </trkpt>
      <trkpt lat="46.378726260736585" lon="8.403427060693502">
        <ele>1932.8699999999999</ele>
        <time>2016-12-04T14:31:44Z</time>
      </trkpt>
      <trkpt lat="46.378637831658125" lon="8.403513394296169">
        <ele>1930.95</ele>
        <time>2016-12-04T14:31:54Z</time>
      </trkpt>
      <trkpt lat="46.378544457256794" lon="8.403635518625379">
        <ele>1928.0599999999999</ele>
        <time>2016-12-04T14:32:07Z</time>
      </trkpt>
      <trkpt lat="46.37846902012825" lon="8.403716739267111">
        <ele>1925.1800000000001</ele>
        <time>2016-12-04T14:32:16Z</time>
      </trkpt>
      <trkpt lat="46.378451585769653" lon="8.403874905779958">
        <ele>1923.74</ele>
        <time>2016-12-04T14:32:25Z</time>
      </trkpt>
      <trkpt lat="46.378453262150288" lon="8.403919329866767">
        <ele>1923.25</ele>
        <time>2016-12-04T14:32:27Z</time>
      </trkpt>
      <trkpt lat="46.378469690680504" lon="8.40408462099731">
        <ele>1920.3699999999999</ele>
        <time>2016-12-04T14:32:39Z</time>
      </trkpt>
      <trkpt lat="46.378435241058469" lon="8.404125859960914">
        <ele>1919.4100000000001</ele>
        <time>2016-12-04T14:32:44Z</time>
      </trkpt>
      <trkpt lat="46.378395343199372" lon="8.404096942394972">
        <ele>1917.97</ele>
        <time>2016-12-04T14:32:54Z</time>
      </trkpt>
      <trkpt lat="46.378373214974999" lon="8.404073640704155">
        <ele>1918.45</ele>
        <time>2016-12-04T14:33:09Z</time>
      </trkpt>
      <trkpt lat="46.378346392884851" lon="8.404074311256409">
        <ele>1917.49</ele>
        <time>2016-12-04T14:33:13Z</time>
      </trkpt>
      <trkpt lat="46.378315379843116" lon="8.404067605733872">
        <ele>1917.49</ele>
        <time>2016-12-04T14:33:16Z</time>
      </trkpt>
      <trkpt lat="46.378291826695204" lon="8.404073640704155">
        <ele>1917.01</ele>
        <time>2016-12-04T14:33:19Z</time>
      </trkpt>
      <trkpt lat="46.378228543326259" lon="8.404003065079451">
        <ele>1915.0799999999999</ele>
        <time>2016-12-04T14:33:28Z</time>
      </trkpt>
      <trkpt lat="46.37823399156332" lon="8.403973979875445">
        <ele>1914.1199999999999</ele>
        <time>2016-12-04T14:33:36Z</time>
      </trkpt>
      <trkpt lat="46.378213372081518" lon="8.403888149186969">
        <ele>1912.6800000000001</ele>
        <time>2016-12-04T14:33:47Z</time>
      </trkpt>
      <trkpt lat="46.378177581354976" lon="8.403738280758262">
        <ele>1910.28</ele>
        <time>2016-12-04T14:33:57Z</time>
      </trkpt>
      <trkpt lat="46.378119997680187" lon="8.403659407049418">
        <ele>1908.3499999999999</ele>
        <time>2016-12-04T14:34:06Z</time>
      </trkpt>
      <trkpt lat="46.378077166154981" lon="8.403726713731885">
        <ele>1906.4300000000001</ele>
        <time>2016-12-04T14:34:15Z</time>
      </trkpt>
      <trkpt lat="46.37808496132493" lon="8.403831655159593">
        <ele>1904.51</ele>
        <time>2016-12-04T14:34:25Z</time>
      </trkpt>
      <trkpt lat="46.378051852807403" lon="8.403889322653413">
        <ele>1902.5899999999999</ele>
        <time>2016-12-04T14:34:35Z</time>
      </trkpt>
      <trkpt lat="46.378046572208405" lon="8.403950594365597">
        <ele>1901.1400000000001</ele>
        <time>2016-12-04T14:34:45Z</time>
      </trkpt>
      <trkpt lat="46.378024946898222" lon="8.404014883562923">
        <ele>1899.7</ele>
        <time>2016-12-04T14:34:55Z</time>
      </trkpt>
      <trkpt lat="46.378012290224433" lon="8.404094092547894">
        <ele>1898.26</ele>
        <time>2016-12-04T14:35:01Z</time>
      </trkpt>
      <trkpt lat="46.377992760390043" lon="8.404134409502149">
        <ele>1897.3</ele>
        <time>2016-12-04T14:35:04Z</time>
      </trkpt>
      <trkpt lat="46.377986138686538" lon="8.404177241027355">
        <ele>1896.3399999999999</ele>
        <time>2016-12-04T14:35:08Z</time>
      </trkpt>
      <trkpt lat="46.37797063216567" lon="8.404285786673427">
        <ele>1893.9300000000001</ele>
        <time>2016-12-04T14:35:18Z</time>
      </trkpt>
      <trkpt lat="46.377976164221764" lon="8.404422495514154">
        <ele>1891.53</ele>
        <time>2016-12-04T14:35:31Z</time>
      </trkpt>
      <trkpt lat="46.377998627722263" lon="8.404464740306139">
        <ele>1891.05</ele>
        <time>2016-12-04T14:35:47Z</time>
      </trkpt>
      <trkpt lat="46.378062162548304" lon="8.404544871300459">
        <ele>1888.6500000000001</ele>
        <time>2016-12-04T14:35:59Z</time>
      </trkpt>
      <trkpt lat="46.37808253057301" lon="8.404596755281091">
        <ele>1887.21</ele>
        <time>2016-12-04T14:36:05Z</time>
      </trkpt>
      <trkpt lat="46.378096360713243" lon="8.40467244386673">
        <ele>1886.24</ele>
        <time>2016-12-04T14:36:16Z</time>
      </trkpt>
      <trkpt lat="46.37808395549655" lon="8.404836896806955">
        <ele>1884.3199999999999</ele>
        <time>2016-12-04T14:36:27Z</time>
      </trkpt>
      <trkpt lat="46.378069203346968" lon="8.404992213472724">
        <ele>1882.8800000000001</ele>
        <time>2016-12-04T14:36:38Z</time>
      </trkpt>
      <trkpt lat="46.37806199491024" lon="8.405135124921799">
        <ele>1880.96</ele>
        <time>2016-12-04T14:36:48Z</time>
      </trkpt>
      <trkpt lat="46.378058642148972" lon="8.405199833214283">
        <ele>1880</ele>
        <time>2016-12-04T14:36:53Z</time>
      </trkpt>
      <trkpt lat="46.378021091222763" lon="8.405370656400919">
        <ele>1877.1099999999999</ele>
        <time>2016-12-04T14:37:06Z</time>
      </trkpt>
      <trkpt lat="46.378021007403731" lon="8.405439304187894">
        <ele>1876.6300000000001</ele>
        <time>2016-12-04T14:37:10Z</time>
      </trkpt>
      <trkpt lat="46.377957221120596" lon="8.405447518453002">
        <ele>1875.6700000000001</ele>
        <time>2016-12-04T14:37:20Z</time>
      </trkpt>
      <trkpt lat="46.377948839217424" lon="8.405442405492067">
        <ele>1875.6700000000001</ele>
        <time>2016-12-04T14:37:33Z</time>
      </trkpt>
      <trkpt lat="46.377945234999061" lon="8.405420947819948">
        <ele>1875.6700000000001</ele>
        <time>2016-12-04T14:37:43Z</time>
      </trkpt>
      <trkpt lat="46.377934003248811" lon="8.405400579795241">
        <ele>1875.1900000000001</ele>
        <time>2016-12-04T14:37:45Z</time>
      </trkpt>
      <trkpt lat="46.37790072709322" lon="8.40528566390276">
        <ele>1873.27</ele>
        <time>2016-12-04T14:37:53Z</time>
      </trkpt>
      <trkpt lat="46.377855967730284" lon="8.405136382207274">
        <ele>1870.3800000000001</ele>
        <time>2016-12-04T14:38:03Z</time>
      </trkpt>
      <trkpt lat="46.37784062884748" lon="8.405088437721133">
        <ele>1869.4200000000001</ele>
        <time>2016-12-04T14:38:07Z</time>
      </trkpt>
      <trkpt lat="46.377805341035128" lon="8.405105201527476">
        <ele>1868.9400000000001</ele>
        <time>2016-12-04T14:38:12Z</time>
      </trkpt>
      <trkpt lat="46.377801150083542" lon="8.405305026099086">
        <ele>1866.0599999999999</ele>
        <time>2016-12-04T14:38:23Z</time>
      </trkpt>
      <trkpt lat="46.377818249166012" lon="8.40548456646502">
        <ele>1863.1700000000001</ele>
        <time>2016-12-04T14:38:33Z</time>
      </trkpt>
      <trkpt lat="46.377814561128616" lon="8.405660083517432">
        <ele>1860.29</ele>
        <time>2016-12-04T14:38:44Z</time>
      </trkpt>
      <trkpt lat="46.377808609977365" lon="8.405739292502403">
        <ele>1859.3299999999999</ele>
        <time>2016-12-04T14:38:49Z</time>
      </trkpt>
      <trkpt lat="46.377812968567014" lon="8.405752787366509">
        <ele>1858.8499999999999</ele>
        <time>2016-12-04T14:38:50Z</time>
      </trkpt>
      <trkpt lat="46.377828307449818" lon="8.40594582259655">
        <ele>1855.96</ele>
        <time>2016-12-04T14:39:02Z</time>
      </trkpt>
      <trkpt lat="46.377829145640135" lon="8.406065013259649">
        <ele>1854.04</ele>
        <time>2016-12-04T14:39:10Z</time>
      </trkpt>
      <trkpt lat="46.377833001315594" lon="8.406098959967494">
        <ele>1853.5599999999999</ele>
        <time>2016-12-04T14:39:12Z</time>
      </trkpt>
      <trkpt lat="46.377844819799066" lon="8.406210020184517">
        <ele>1850.6800000000001</ele>
        <time>2016-12-04T14:39:21Z</time>
      </trkpt>
      <trkpt lat="46.377849010750651" lon="8.406305322423577">
        <ele>1849.23</ele>
        <time>2016-12-04T14:39:29Z</time>
      </trkpt>
      <trkpt lat="46.377858147025108" lon="8.406451921910048">
        <ele>1846.3499999999999</ele>
        <time>2016-12-04T14:39:40Z</time>
      </trkpt>
      <trkpt lat="46.377859320491552" lon="8.406603466719389">
        <ele>1843.95</ele>
        <time>2016-12-04T14:39:52Z</time>
      </trkpt>
      <trkpt lat="46.377837276086211" lon="8.406734894961119">
        <ele>1842.02</ele>
        <time>2016-12-04T14:40:02Z</time>
      </trkpt>
      <trkpt lat="46.377819590270519" lon="8.406903622671962">
        <ele>1839.6199999999999</ele>
        <time>2016-12-04T14:40:14Z</time>
      </trkpt>
      <trkpt lat="46.377826631069183" lon="8.406928600743413">
        <ele>1839.1400000000001</ele>
        <time>2016-12-04T14:40:16Z</time>
      </trkpt>
      <trkpt lat="46.377824787050486" lon="8.407063130289316">
        <ele>1836.74</ele>
        <time>2016-12-04T14:40:25Z</time>
      </trkpt>
      <trkpt lat="46.377777177840471" lon="8.407173017039895">
        <ele>1834.8099999999999</ele>
        <time>2016-12-04T14:40:36Z</time>
      </trkpt>
      <trkpt lat="46.377763766795397" lon="8.407150721177459">
        <ele>1834.8099999999999</ele>
        <time>2016-12-04T14:40:50Z</time>
      </trkpt>
      <trkpt lat="46.377767035737634" lon="8.407138986513019">
        <ele>1834.8099999999999</ele>
        <time>2016-12-04T14:41:03Z</time>
      </trkpt>
      <trkpt lat="46.377767203375697" lon="8.407173017039895">
        <ele>1834.8099999999999</ele>
        <time>2016-12-04T14:41:17Z</time>
      </trkpt>
      <trkpt lat="46.377752115949988" lon="8.407277958467603">
        <ele>1832.8900000000001</ele>
        <time>2016-12-04T14:41:28Z</time>
      </trkpt>
      <trkpt lat="46.377737279981375" lon="8.407384157180786">
        <ele>1831.45</ele>
        <time>2016-12-04T14:41:38Z</time>
      </trkpt>
      <trkpt lat="46.377738621085882" lon="8.407477866858244">
        <ele>1829.05</ele>
        <time>2016-12-04T14:41:49Z</time>
      </trkpt>
      <trkpt lat="46.377720097079873" lon="8.407563781365752">
        <ele>1828.0799999999999</ele>
        <time>2016-12-04T14:41:59Z</time>
      </trkpt>
      <trkpt lat="46.377640888094902" lon="8.407556237652898">
        <ele>1827.5999999999999</ele>
        <time>2016-12-04T14:42:09Z</time>
      </trkpt>
      <trkpt lat="46.377600906416774" lon="8.407470071688294">
        <ele>1826.1600000000001</ele>
        <time>2016-12-04T14:42:18Z</time>
      </trkpt>
      <trkpt lat="46.377577688544989" lon="8.407367058098316">
        <ele>1824.72</ele>
        <time>2016-12-04T14:42:29Z</time>
      </trkpt>
      <trkpt lat="46.377579113468528" lon="8.407287513837218">
        <ele>1823.28</ele>
        <time>2016-12-04T14:42:38Z</time>
      </trkpt>
      <trkpt lat="46.377560757100582" lon="8.407310899347067">
        <ele>1822.3199999999999</ele>
        <time>2016-12-04T14:42:41Z</time>
      </trkpt>
      <trkpt lat="46.377540221437812" lon="8.407435202971101">
        <ele>1823.28</ele>
        <time>2016-12-04T14:42:49Z</time>
      </trkpt>
      <trkpt lat="46.377558074891567" lon="8.407579120248556">
        <ele>1819.4300000000001</ele>
        <time>2016-12-04T14:43:01Z</time>
      </trkpt>
      <trkpt lat="46.377546759322286" lon="8.407686492428184">
        <ele>1817.03</ele>
        <time>2016-12-04T14:43:13Z</time>
      </trkpt>
      <trkpt lat="46.377525636926293" lon="8.407779783010483">
        <ele>1815.1099999999999</ele>
        <time>2016-12-04T14:43:24Z</time>
      </trkpt>
      <trkpt lat="46.377502754330635" lon="8.407867457717657">
        <ele>1813.1800000000001</ele>
        <time>2016-12-04T14:43:33Z</time>
      </trkpt>
      <trkpt lat="46.377459755167365" lon="8.407989833503962">
        <ele>1810.78</ele>
        <time>2016-12-04T14:43:44Z</time>
      </trkpt>
      <trkpt lat="46.377437124028802" lon="8.408090081065893">
        <ele>1807.9000000000001</ele>
        <time>2016-12-04T14:43:54Z</time>
      </trkpt>
      <trkpt lat="46.377397812902927" lon="8.408216061070561">
        <ele>1805.01</ele>
        <time>2016-12-04T14:44:06Z</time>
      </trkpt>
      <trkpt lat="46.377393454313278" lon="8.408324355259538">
        <ele>1802.1300000000001</ele>
        <time>2016-12-04T14:44:17Z</time>
      </trkpt>
      <trkpt lat="46.377382641658187" lon="8.408447066321969">
        <ele>1799.24</ele>
        <time>2016-12-04T14:44:28Z</time>
      </trkpt>
      <trkpt lat="46.377360178157687" lon="8.408576063811779">
        <ele>1795.8800000000001</ele>
        <time>2016-12-04T14:44:40Z</time>
      </trkpt>
      <trkpt lat="46.377345426008105" lon="8.408635072410107">
        <ele>1794.9200000000001</ele>
        <time>2016-12-04T14:44:46Z</time>
      </trkpt>
      <trkpt lat="46.377334110438824" lon="8.408679664134979">
        <ele>1795.4000000000001</ele>
        <time>2016-12-04T14:44:50Z</time>
      </trkpt>
      <trkpt lat="46.377332601696253" lon="8.408727440983057">
        <ele>1793.48</ele>
        <time>2016-12-04T14:44:53Z</time>
      </trkpt>
      <trkpt lat="46.377315334975719" lon="8.40886197052896">
        <ele>1791.0699999999999</ele>
        <time>2016-12-04T14:45:03Z</time>
      </trkpt>
      <trkpt lat="46.377295888960361" lon="8.40896406210959">
        <ele>1789.1500000000001</ele>
        <time>2016-12-04T14:45:11Z</time>
      </trkpt>
      <trkpt lat="46.377263115718961" lon="8.409086605533958">
        <ele>1787.23</ele>
        <time>2016-12-04T14:45:21Z</time>
      </trkpt>
      <trkpt lat="46.377228414639831" lon="8.409188613295555">
        <ele>1785.79</ele>
        <time>2016-12-04T14:45:29Z</time>
      </trkpt>
      <trkpt lat="46.377181140705943" lon="8.409282322973013">
        <ele>1784.3399999999999</ele>
        <time>2016-12-04T14:45:41Z</time>
      </trkpt>
      <trkpt lat="46.377146020531654" lon="8.409411404281855">
        <ele>1783.3800000000001</ele>
        <time>2016-12-04T14:45:50Z</time>
      </trkpt>
      <trkpt lat="46.377092627808452" lon="8.40955775231123">
        <ele>1782.4200000000001</ele>
        <time>2016-12-04T14:45:58Z</time>
      </trkpt>
      <trkpt lat="46.377089358866215" lon="8.409630507230759">
        <ele>1781.9400000000001</ele>
        <time>2016-12-04T14:46:03Z</time>
      </trkpt>
      <trkpt lat="46.37708961032331" lon="8.409737041220069">
        <ele>1781.9400000000001</ele>
        <time>2016-12-04T14:46:10Z</time>
      </trkpt>
      <trkpt lat="46.377088520675898" lon="8.409785320982337">
        <ele>1781.9400000000001</ele>
        <time>2016-12-04T14:46:13Z</time>
      </trkpt>
      <trkpt lat="46.377087514847517" lon="8.409811137244105">
        <ele>1781.46</ele>
        <time>2016-12-04T14:46:15Z</time>
      </trkpt>
      <trkpt lat="46.377062536776066" lon="8.409968381747603">
        <ele>1780.98</ele>
        <time>2016-12-04T14:46:25Z</time>
      </trkpt>
      <trkpt lat="46.377048874273896" lon="8.410018002614379">
        <ele>1780.5</ele>
        <time>2016-12-04T14:46:28Z</time>
      </trkpt>
      <trkpt lat="46.377022974193096" lon="8.410119507461786">
        <ele>1780.5</ele>
        <time>2016-12-04T14:46:35Z</time>
      </trkpt>
      <trkpt lat="46.377047868445516" lon="8.41024087741971">
        <ele>1780.98</ele>
        <time>2016-12-04T14:46:46Z</time>
      </trkpt>
      <trkpt lat="46.377061363309622" lon="8.410385884344578">
        <ele>1780.98</ele>
        <time>2016-12-04T14:46:58Z</time>
      </trkpt>
      <trkpt lat="46.377070751041174" lon="8.41045050881803">
        <ele>1778.5799999999999</ele>
        <time>2016-12-04T14:47:03Z</time>
      </trkpt>
      <trkpt lat="46.377069493755698" lon="8.410427374765277">
        <ele>1778.5799999999999</ele>
        <time>2016-12-04T14:47:12Z</time>
      </trkpt>
      <trkpt lat="46.377101512625813" lon="8.410461992025375">
        <ele>1778.0999999999999</ele>
        <time>2016-12-04T14:47:21Z</time>
      </trkpt>
      <trkpt lat="46.377156162634492" lon="8.410528125241399">
        <ele>1778.5799999999999</ele>
        <time>2016-12-04T14:47:28Z</time>
      </trkpt>
      <trkpt lat="46.377250039950013" lon="8.410676652565599">
        <ele>1778.0999999999999</ele>
        <time>2016-12-04T14:47:40Z</time>
      </trkpt>
      <trkpt lat="46.377261271700263" lon="8.410736918449402">
        <ele>1778.5799999999999</ele>
        <time>2016-12-04T14:47:45Z</time>
      </trkpt>
      <trkpt lat="46.377255320549011" lon="8.410789975896478">
        <ele>1779.0599999999999</ele>
        <time>2016-12-04T14:47:49Z</time>
      </trkpt>
      <trkpt lat="46.377310305833817" lon="8.410887122154236">
        <ele>1779.0599999999999</ele>
        <time>2016-12-04T14:47:59Z</time>
      </trkpt>
      <trkpt lat="46.377318855375051" lon="8.410888127982616">
        <ele>1779.0599999999999</ele>
        <time>2016-12-04T14:48:00Z</time>
      </trkpt>
      <trkpt lat="46.377349952235818" lon="8.410952752456069">
        <ele>1779.54</ele>
        <time>2016-12-04T14:48:11Z</time>
      </trkpt>
      <trkpt lat="46.377369565889239" lon="8.410935904830694">
        <ele>1778.5799999999999</ele>
        <time>2016-12-04T14:48:22Z</time>
      </trkpt>
      <trkpt lat="46.377365458756685" lon="8.410930372774601">
        <ele>1778.5799999999999</ele>
        <time>2016-12-04T14:48:34Z</time>
      </trkpt>
      <trkpt lat="46.377386832609773" lon="8.410890474915505">
        <ele>1779.0599999999999</ele>
        <time>2016-12-04T14:48:53Z</time>
      </trkpt>
      <trkpt lat="46.377378199249506" lon="8.410895504057407">
        <ele>1778.5799999999999</ele>
        <time>2016-12-04T14:49:13Z</time>
      </trkpt>
      <trkpt lat="46.377371745184064" lon="8.41088879853487">
        <ele>1778.5799999999999</ele>
        <time>2016-12-04T14:49:31Z</time>
      </trkpt>
      <trkpt lat="46.37738423421979" lon="8.410893408581615">
        <ele>1779.0599999999999</ele>
        <time>2016-12-04T14:49:56Z</time>
      </trkpt>
      <trkpt lat="46.377379540354013" lon="8.410938670858741">
        <ele>1779.0599999999999</ele>
        <time>2016-12-04T14:50:08Z</time>
      </trkpt>
      <trkpt lat="46.377415331080556" lon="8.410894833505154">
        <ele>1779.0599999999999</ele>
        <time>2016-12-04T14:50:26Z</time>
      </trkpt>
      <trkpt lat="46.377409547567368" lon="8.410900281742215">
        <ele>1778.5799999999999</ele>
        <time>2016-12-04T14:50:47Z</time>
      </trkpt>
      <trkpt lat="46.377392783761024" lon="8.410948561504483">
        <ele>1779.0599999999999</ele>
        <time>2016-12-04T14:51:03Z</time>
      </trkpt>
      <trkpt lat="46.377369398251176" lon="8.410945544019342">
        <ele>1779.0599999999999</ele>
        <time>2016-12-04T14:51:26Z</time>
      </trkpt>
      <trkpt lat="46.377363028004766" lon="8.410930875688791">
        <ele>1778.5799999999999</ele>
        <time>2016-12-04T14:51:43Z</time>
      </trkpt>
      <trkpt lat="46.377368308603764" lon="8.410942023620009">
        <ele>1779.0599999999999</ele>
        <time>2016-12-04T14:52:06Z</time>
      </trkpt>
      <trkpt lat="46.377368727698922" lon="8.410949148237705">
        <ele>1779.54</ele>
        <time>2016-12-04T14:52:24Z</time>
      </trkpt>
      <trkpt lat="46.377347270026803" lon="8.410933474078775">
        <ele>1780.02</ele>
        <time>2016-12-04T14:52:44Z</time>
      </trkpt>
      <trkpt lat="46.377383647486567" lon="8.410949567332864">
        <ele>1779.0599999999999</ele>
        <time>2016-12-04T14:53:07Z</time>
      </trkpt>
      <trkpt lat="46.377378785982728" lon="8.410936575382948">
        <ele>1779.0599999999999</ele>
        <time>2016-12-04T14:53:27Z</time>
      </trkpt>
      <trkpt lat="46.377377361059189" lon="8.410940682515502">
        <ele>1779.54</ele>
        <time>2016-12-04T14:53:37Z</time>
      </trkpt>
      <trkpt lat="46.377360429614782" lon="8.410924002528191">
        <ele>1779.54</ele>
        <time>2016-12-04T14:53:47Z</time>
      </trkpt>
      <trkpt lat="46.377365961670876" lon="8.410944622009993">
        <ele>1779.54</ele>
        <time>2016-12-04T14:53:59Z</time>
      </trkpt>
      <trkpt lat="46.377420108765364" lon="8.411066746339202">
        <ele>1780.02</ele>
        <time>2016-12-04T14:54:09Z</time>
      </trkpt>
      <trkpt lat="46.377448188140988" lon="8.411174956709147">
        <ele>1780.98</ele>
        <time>2016-12-04T14:54:18Z</time>
      </trkpt>
      <trkpt lat="46.377506693825126" lon="8.411297500133514">
        <ele>1782.9000000000001</ele>
        <time>2016-12-04T14:54:30Z</time>
      </trkpt>
      <trkpt lat="46.377520943060517" lon="8.411406213417649">
        <ele>1784.3399999999999</ele>
        <time>2016-12-04T14:54:40Z</time>
      </trkpt>
      <trkpt lat="46.377532929182053" lon="8.411493049934506">
        <ele>1785.3099999999999</ele>
        <time>2016-12-04T14:54:47Z</time>
      </trkpt>
      <trkpt lat="46.377511052414775" lon="8.41161584481597">
        <ele>1786.27</ele>
        <time>2016-12-04T14:54:56Z</time>
      </trkpt>
      <trkpt lat="46.37749177403748" lon="8.411733694374561">
        <ele>1786.75</ele>
        <time>2016-12-04T14:55:06Z</time>
      </trkpt>
      <trkpt lat="46.377468388527632" lon="8.411824721843004">
        <ele>1788.1900000000001</ele>
        <time>2016-12-04T14:55:14Z</time>
      </trkpt>
      <trkpt lat="46.377475932240486" lon="8.411866128444672">
        <ele>1788.6700000000001</ele>
        <time>2016-12-04T14:55:19Z</time>
      </trkpt>
      <trkpt lat="46.377492612227798" lon="8.411909127607942">
        <ele>1789.1500000000001</ele>
        <time>2016-12-04T14:55:23Z</time>
      </trkpt>
      <trkpt lat="46.377528319135308" lon="8.411924047395587">
        <ele>1789.1500000000001</ele>
        <time>2016-12-04T14:55:29Z</time>
      </trkpt>
      <trkpt lat="46.377609372138977" lon="8.411829834803939">
        <ele>1789.1500000000001</ele>
        <time>2016-12-04T14:55:41Z</time>
      </trkpt>
      <trkpt lat="46.377642815932631" lon="8.411736963316798">
        <ele>1788.6700000000001</ele>
        <time>2016-12-04T14:55:51Z</time>
      </trkpt>
      <trkpt lat="46.377725712954998" lon="8.411660939455032">
        <ele>1786.75</ele>
        <time>2016-12-04T14:56:01Z</time>
      </trkpt>
      <trkpt lat="46.377772651612759" lon="8.411661190912128">
        <ele>1785.79</ele>
        <time>2016-12-04T14:56:08Z</time>
      </trkpt>
      <trkpt lat="46.377885472029448" lon="8.411740064620972">
        <ele>1785.3099999999999</ele>
        <time>2016-12-04T14:56:20Z</time>
      </trkpt>
      <trkpt lat="46.377934757620096" lon="8.411788009107113">
        <ele>1785.3099999999999</ele>
        <time>2016-12-04T14:56:25Z</time>
      </trkpt>
      <trkpt lat="46.377973984926939" lon="8.411876186728478">
        <ele>1784.8199999999999</ele>
        <time>2016-12-04T14:56:32Z</time>
      </trkpt>
      <trkpt lat="46.378030562773347" lon="8.412001915276051">
        <ele>1787.23</ele>
        <time>2016-12-04T14:56:43Z</time>
      </trkpt>
      <trkpt lat="46.378100384026766" lon="8.412121860310435">
        <ele>1788.6700000000001</ele>
        <time>2016-12-04T14:56:54Z</time>
      </trkpt>
      <trkpt lat="46.378143718466163" lon="8.412190591916442">
        <ele>1790.1099999999999</ele>
        <time>2016-12-04T14:57:02Z</time>
      </trkpt>
      <trkpt lat="46.378151262179017" lon="8.412207942456007">
        <ele>1790.1099999999999</ele>
        <time>2016-12-04T14:57:03Z</time>
      </trkpt>
      <trkpt lat="46.378157213330269" lon="8.412229903042316">
        <ele>1789.6300000000001</ele>
        <time>2016-12-04T14:57:04Z</time>
      </trkpt>
      <trkpt lat="46.378246732056141" lon="8.41237960383296">
        <ele>1789.6300000000001</ele>
        <time>2016-12-04T14:57:16Z</time>
      </trkpt>
      <trkpt lat="46.378258215263486" lon="8.412395948544145">
        <ele>1790.1099999999999</ele>
        <time>2016-12-04T14:57:18Z</time>
      </trkpt>
      <trkpt lat="46.378294760361314" lon="8.412431571632624">
        <ele>1790.1099999999999</ele>
        <time>2016-12-04T14:57:23Z</time>
      </trkpt>
      <trkpt lat="46.378310099244118" lon="8.412451185286045">
        <ele>1790.1099999999999</ele>
        <time>2016-12-04T14:57:25Z</time>
      </trkpt>
      <trkpt lat="46.378367515280843" lon="8.412560904398561">
        <ele>1791.55</ele>
        <time>2016-12-04T14:57:35Z</time>
      </trkpt>
      <trkpt lat="46.37844605371356" lon="8.412672048434615">
        <ele>1793.48</ele>
        <time>2016-12-04T14:57:46Z</time>
      </trkpt>
      <trkpt lat="46.378509253263474" lon="8.412757376208901">
        <ele>1794.9200000000001</ele>
        <time>2016-12-04T14:57:56Z</time>
      </trkpt>
      <trkpt lat="46.37856675311923" lon="8.412879165261984">
        <ele>1795.4000000000001</ele>
        <time>2016-12-04T14:58:06Z</time>
      </trkpt>
      <trkpt lat="46.378604639321566" lon="8.412986285984516">
        <ele>1795.8800000000001</ele>
        <time>2016-12-04T14:58:15Z</time>
      </trkpt>
      <trkpt lat="46.378614194691181" lon="8.413011347874999">
        <ele>1795.8800000000001</ele>
        <time>2016-12-04T14:58:17Z</time>
      </trkpt>
      <trkpt lat="46.378634395077825" lon="8.413117211312056">
        <ele>1795.8800000000001</ele>
        <time>2016-12-04T14:58:23Z</time>
      </trkpt>
      <trkpt lat="46.378670437261462" lon="8.413209747523069">
        <ele>1796.8399999999999</ele>
        <time>2016-12-04T14:58:29Z</time>
      </trkpt>
      <trkpt lat="46.378691643476486" lon="8.413288788869977">
        <ele>1796.8399999999999</ele>
        <time>2016-12-04T14:58:34Z</time>
      </trkpt>
      <trkpt lat="46.378697594627738" lon="8.413478471338749">
        <ele>1796.3599999999999</ele>
        <time>2016-12-04T14:58:46Z</time>
      </trkpt>
      <trkpt lat="46.37869818136096" lon="8.413625825196505">
        <ele>1794.9200000000001</ele>
        <time>2016-12-04T14:58:56Z</time>
      </trkpt>
      <trkpt lat="46.378706060349941" lon="8.413694389164448">
        <ele>1794.9200000000001</ele>
        <time>2016-12-04T14:59:00Z</time>
      </trkpt>
      <trkpt lat="46.378745622932911" lon="8.413813831284642">
        <ele>1795.4000000000001</ele>
        <time>2016-12-04T14:59:09Z</time>
      </trkpt>
      <trkpt lat="46.378795495256782" lon="8.413940481841564">
        <ele>1795.8800000000001</ele>
        <time>2016-12-04T14:59:19Z</time>
      </trkpt>
      <trkpt lat="46.378829022869468" lon="8.414011979475617">
        <ele>1797.3199999999999</ele>
        <time>2016-12-04T14:59:27Z</time>
      </trkpt>
      <trkpt lat="46.378917871043086" lon="8.414063947275281">
        <ele>1797.8</ele>
        <time>2016-12-04T14:59:39Z</time>
      </trkpt>
      <trkpt lat="46.379002863541245" lon="8.414121530950069">
        <ele>1796.8399999999999</ele>
        <time>2016-12-04T14:59:50Z</time>
      </trkpt>
      <trkpt lat="46.379105960950255" lon="8.414238039404154">
        <ele>1795.4000000000001</ele>
        <time>2016-12-04T15:00:02Z</time>
      </trkpt>
      <trkpt lat="46.379199083894491" lon="8.414284307509661">
        <ele>1794.4400000000001</ele>
        <time>2016-12-04T15:00:12Z</time>
      </trkpt>
      <trkpt lat="46.379273012280464" lon="8.414284726604819">
        <ele>1793.48</ele>
        <time>2016-12-04T15:00:20Z</time>
      </trkpt>
      <trkpt lat="46.379369487985969" lon="8.414232507348061">
        <ele>1792.52</ele>
        <time>2016-12-04T15:00:31Z</time>
      </trkpt>
      <trkpt lat="46.379461940377951" lon="8.414211301133037">
        <ele>1791.0699999999999</ele>
        <time>2016-12-04T15:00:42Z</time>
      </trkpt>
      <trkpt lat="46.37957040220499" lon="8.414216414093971">
        <ele>1788.6700000000001</ele>
        <time>2016-12-04T15:00:53Z</time>
      </trkpt>
      <trkpt lat="46.37956696562469" lon="8.414147263392806">
        <ele>1792.52</ele>
        <time>2016-12-04T10:17:40Z</time>
      </trkpt>
      <trkpt lat="46.379639469087124" lon="8.414137456566095">
        <ele>1792.03</ele>
        <time>2016-12-04T10:17:29Z</time>
      </trkpt>
      <trkpt lat="46.379691772162914" lon="8.414129493758082">
        <ele>1791.55</ele>
        <time>2016-12-04T10:17:22Z</time>
      </trkpt>
      <trkpt lat="46.3797926902771" lon="8.414152124896646">
        <ele>1791.0699999999999</ele>
        <time>2016-12-04T10:17:10Z</time>
      </trkpt>
      <trkpt lat="46.379845999181271" lon="8.414147514849901">
        <ele>1790.1099999999999</ele>
        <time>2016-12-04T10:17:02Z</time>
      </trkpt>
      <trkpt lat="46.379892518743873" lon="8.414162769913673">
        <ele>1790.1099999999999</ele>
        <time>2016-12-04T10:16:51Z</time>
      </trkpt>
      <trkpt lat="46.379974996671081" lon="8.414148353040218">
        <ele>1790.1099999999999</ele>
        <time>2016-12-04T10:16:39Z</time>
      </trkpt>
      <trkpt lat="46.380034508183599" lon="8.414159333333373">
        <ele>1787.23</ele>
        <time>2016-12-04T10:16:29Z</time>
      </trkpt>
      <trkpt lat="46.380101563408971" lon="8.41415036469698">
        <ele>1785.79</ele>
        <time>2016-12-04T10:16:17Z</time>
      </trkpt>
      <trkpt lat="46.380162667483091" lon="8.414146509021521">
        <ele>1784.3399999999999</ele>
        <time>2016-12-04T10:16:06Z</time>
      </trkpt>
      <trkpt lat="46.380214970558882" lon="8.414156148210168">
        <ele>1782.9000000000001</ele>
        <time>2016-12-04T10:15:55Z</time>
      </trkpt>
      <trkpt lat="46.380268530920148" lon="8.414141563698649">
        <ele>1781.9400000000001</ele>
        <time>2016-12-04T10:15:44Z</time>
      </trkpt>
      <trkpt lat="46.380308261141181" lon="8.414085488766432">
        <ele>1780.5</ele>
        <time>2016-12-04T10:15:30Z</time>
      </trkpt>
      <trkpt lat="46.380316223949194" lon="8.414105856791139">
        <ele>1780.98</ele>
        <time>2016-12-04T10:15:15Z</time>
      </trkpt>
      <trkpt lat="46.380324186757207" lon="8.414118848741055">
        <ele>1780.98</ele>
        <time>2016-12-04T10:15:04Z</time>
      </trkpt>
      <trkpt lat="46.380294598639011" lon="8.414198476821184">
        <ele>1780.98</ele>
        <time>2016-12-04T10:14:45Z</time>
      </trkpt>
      <trkpt lat="46.380342375487089" lon="8.41419730335474">
        <ele>1780.98</ele>
        <time>2016-12-04T10:14:26Z</time>
      </trkpt>
      <trkpt lat="46.380345309153199" lon="8.414178360253573">
        <ele>1780.98</ele>
        <time>2016-12-04T10:14:07Z</time>
      </trkpt>
      <trkpt lat="46.380321756005287" lon="8.414131756871939">
        <ele>1780.98</ele>
        <time>2016-12-04T10:13:56Z</time>
      </trkpt>
      <trkpt lat="46.380335837602615" lon="8.414126811549068">
        <ele>1780.5</ele>
        <time>2016-12-04T10:13:44Z</time>
      </trkpt>
      <trkpt lat="46.380396019667387" lon="8.414125721901655">
        <ele>1778.5799999999999</ele>
        <time>2016-12-04T10:13:31Z</time>
      </trkpt>
      <trkpt lat="46.380471624433994" lon="8.414109293371439">
        <ele>1777.1300000000001</ele>
        <time>2016-12-04T10:13:20Z</time>
      </trkpt>
      <trkpt lat="46.380531052127481" lon="8.41409026645124">
        <ele>1776.1700000000001</ele>
        <time>2016-12-04T10:13:10Z</time>
      </trkpt>
      <trkpt lat="46.38058821670711" lon="8.414035784080625">
        <ele>1774.73</ele>
        <time>2016-12-04T10:12:59Z</time>
      </trkpt>
      <trkpt lat="46.380663486197591" lon="8.41402480378747">
        <ele>1772.8099999999999</ele>
        <time>2016-12-04T10:12:46Z</time>
      </trkpt>
      <trkpt lat="46.380721488967538" lon="8.413976021111012">
        <ele>1771.3699999999999</ele>
        <time>2016-12-04T10:12:34Z</time>
      </trkpt>
      <trkpt lat="46.380785945802927" lon="8.413971327245235">
        <ele>1769.9200000000001</ele>
        <time>2016-12-04T10:12:24Z</time>
      </trkpt>
      <trkpt lat="46.380863059312105" lon="8.413985827937722">
        <ele>1768.48</ele>
        <time>2016-12-04T10:12:13Z</time>
      </trkpt>
      <trkpt lat="46.380872195586562" lon="8.413990689441562">
        <ele>1768.48</ele>
        <time>2016-12-04T10:12:11Z</time>
      </trkpt>
      <trkpt lat="46.380934892222285" lon="8.413998316973448">
        <ele>1767.52</ele>
        <time>2016-12-04T10:12:00Z</time>
      </trkpt>
      <trkpt lat="46.38101133517921" lon="8.413987336680293">
        <ele>1766.5599999999999</ele>
        <time>2016-12-04T10:11:48Z</time>
      </trkpt>
      <trkpt lat="46.381076462566853" lon="8.41395640745759">
        <ele>1765.1199999999999</ele>
        <time>2016-12-04T10:11:37Z</time>
      </trkpt>
      <trkpt lat="46.381154330447316" lon="8.413968561217189">
        <ele>1764.1600000000001</ele>
        <time>2016-12-04T10:11:27Z</time>
      </trkpt>
      <trkpt lat="46.381130442023277" lon="8.414010806009173">
        <ele>1763.2</ele>
        <time>2016-12-04T10:11:18Z</time>
      </trkpt>
      <trkpt lat="46.381067410111427" lon="8.414039891213179">
        <ele>1762.23</ele>
        <time>2016-12-04T10:11:07Z</time>
      </trkpt>
      <trkpt lat="46.381028769537807" lon="8.414060343056917">
        <ele>1760.79</ele>
        <time>2016-12-04T10:10:55Z</time>
      </trkpt>
      <trkpt lat="46.380919720977545" lon="8.414099905639887">
        <ele>1759.3499999999999</ele>
        <time>2016-12-04T10:10:43Z</time>
      </trkpt>
      <trkpt lat="46.380847217515111" lon="8.414165619760752">
        <ele>1757.9100000000001</ele>
        <time>2016-12-04T10:10:31Z</time>
      </trkpt>
      <trkpt lat="46.380820479243994" lon="8.414263101294637">
        <ele>1755.99</ele>
        <time>2016-12-04T10:10:20Z</time>
      </trkpt>
      <trkpt lat="46.380865573883057" lon="8.414332587271929">
        <ele>1754.54</ele>
        <time>2016-12-04T10:10:09Z</time>
      </trkpt>
      <trkpt lat="46.380936400964856" lon="8.414316829293966">
        <ele>1753.0999999999999</ele>
        <time>2016-12-04T10:09:57Z</time>
      </trkpt>
      <trkpt lat="46.381012173369527" lon="8.414310459047556">
        <ele>1752.1400000000001</ele>
        <time>2016-12-04T10:09:45Z</time>
      </trkpt>
      <trkpt lat="46.381091298535466" lon="8.414300568401814">
        <ele>1750.7</ele>
        <time>2016-12-04T10:09:33Z</time>
      </trkpt>
      <trkpt lat="46.381173273548484" lon="8.414287492632866">
        <ele>1749.26</ele>
        <time>2016-12-04T10:09:21Z</time>
      </trkpt>
      <trkpt lat="46.381262205541134" lon="8.414276679977775">
        <ele>1747.8099999999999</ele>
        <time>2016-12-04T10:09:09Z</time>
      </trkpt>
      <trkpt lat="46.381331775337458" lon="8.414264358580113">
        <ele>1746.8499999999999</ele>
        <time>2016-12-04T10:08:59Z</time>
      </trkpt>
      <trkpt lat="46.381413331255317" lon="8.414272153750062">
        <ele>1745.4100000000001</ele>
        <time>2016-12-04T10:08:47Z</time>
      </trkpt>
      <trkpt lat="46.381511986255646" lon="8.414236949756742">
        <ele>1745.4100000000001</ele>
        <time>2016-12-04T10:08:35Z</time>
      </trkpt>
      <trkpt lat="46.381586249917746" lon="8.414213815703988">
        <ele>1743.01</ele>
        <time>2016-12-04T10:08:25Z</time>
      </trkpt>
      <trkpt lat="46.381601085886359" lon="8.41421197168529">
        <ele>1743.01</ele>
        <time>2016-12-04T10:08:22Z</time>
      </trkpt>
      <trkpt lat="46.381608378142118" lon="8.414193615317345">
        <ele>1742.53</ele>
        <time>2016-12-04T10:08:12Z</time>
      </trkpt>
      <trkpt lat="46.381636122241616" lon="8.414257569238544">
        <ele>1741.5699999999999</ele>
        <time>2016-12-04T10:08:00Z</time>
      </trkpt>
      <trkpt lat="46.381614580750465" lon="8.414259245619178">
        <ele>1741.5699999999999</ele>
        <time>2016-12-04T10:07:47Z</time>
      </trkpt>
      <trkpt lat="46.381547274067998" lon="8.414278104901314">
        <ele>1740.1199999999999</ele>
        <time>2016-12-04T10:07:36Z</time>
      </trkpt>
      <trkpt lat="46.381487008184195" lon="8.414321020245552">
        <ele>1738.6800000000001</ele>
        <time>2016-12-04T10:07:24Z</time>
      </trkpt>
      <trkpt lat="46.381436297670007" lon="8.414413891732693">
        <ele>1737.24</ele>
        <time>2016-12-04T10:07:11Z</time>
      </trkpt>
      <trkpt lat="46.381399920210242" lon="8.414473235607147">
        <ele>1735.8</ele>
        <time>2016-12-04T10:06:59Z</time>
      </trkpt>
      <trkpt lat="46.381348622962832" lon="8.414561077952385">
        <ele>1733.8800000000001</ele>
        <time>2016-12-04T10:06:47Z</time>
      </trkpt>
      <trkpt lat="46.381277209147811" lon="8.41465805657208">
        <ele>1732.4300000000001</ele>
        <time>2016-12-04T10:06:35Z</time>
      </trkpt>
      <trkpt lat="46.381244855001569" lon="8.414689656347036">
        <ele>1731.95</ele>
        <time>2016-12-04T10:06:31Z</time>
      </trkpt>
      <trkpt lat="46.381181068718433" lon="8.414766266942024">
        <ele>1730.51</ele>
        <time>2016-12-04T10:06:20Z</time>
      </trkpt>
      <trkpt lat="46.381140667945147" lon="8.414868107065558">
        <ele>1729.0699999999999</ele>
        <time>2016-12-04T10:06:07Z</time>
      </trkpt>
      <trkpt lat="46.381144942715764" lon="8.414889732375741">
        <ele>1729.0699999999999</ele>
        <time>2016-12-04T10:06:05Z</time>
      </trkpt>
      <trkpt lat="46.381174447014928" lon="8.414911776781082">
        <ele>1729.0699999999999</ele>
        <time>2016-12-04T10:06:01Z</time>
      </trkpt>
      <trkpt lat="46.381228091195226" lon="8.414875483140349">
        <ele>1728.5899999999999</ele>
        <time>2016-12-04T10:05:54Z</time>
      </trkpt>
      <trkpt lat="46.381256254389882" lon="8.414834663271904">
        <ele>1727.6300000000001</ele>
        <time>2016-12-04T10:05:47Z</time>
      </trkpt>
      <trkpt lat="46.381323225796223" lon="8.414824856445193">
        <ele>1726.1800000000001</ele>
        <time>2016-12-04T10:05:36Z</time>
      </trkpt>
      <trkpt lat="46.381418276578188" lon="8.414813205599785">
        <ele>1724.26</ele>
        <time>2016-12-04T10:05:24Z</time>
      </trkpt>
      <trkpt lat="46.381495809182525" lon="8.414791328832507">
        <ele>1722.8199999999999</ele>
        <time>2016-12-04T10:05:11Z</time>
      </trkpt>
      <trkpt lat="46.381583902984858" lon="8.414805745705962">
        <ele>1721.3800000000001</ele>
        <time>2016-12-04T10:05:00Z</time>
      </trkpt>
      <trkpt lat="46.381671074777842" lon="8.414778923615813">
        <ele>1719.46</ele>
        <time>2016-12-04T10:04:48Z</time>
      </trkpt>
      <trkpt lat="46.381712732836604" lon="8.414757885038853">
        <ele>1718.01</ele>
        <time>2016-12-04T10:04:40Z</time>
      </trkpt>
      <trkpt lat="46.381720528006554" lon="8.41475629247725">
        <ele>1718.01</ele>
        <time>2016-12-04T10:04:39Z</time>
      </trkpt>
      <trkpt lat="46.381802083924413" lon="8.414728045463562">
        <ele>1715.6099999999999</ele>
        <time>2016-12-04T10:04:25Z</time>
      </trkpt>
      <trkpt lat="46.381894536316395" lon="8.414715807884932">
        <ele>1714.1700000000001</ele>
        <time>2016-12-04T10:04:14Z</time>
      </trkpt>
      <trkpt lat="46.381967542693019" lon="8.414699295535684">
        <ele>1712.73</ele>
        <time>2016-12-04T10:04:03Z</time>
      </trkpt>
      <trkpt lat="46.382041722536087" lon="8.414669539779425">
        <ele>1711.28</ele>
        <time>2016-12-04T10:03:51Z</time>
      </trkpt>
      <trkpt lat="46.382109196856618" lon="8.414661157876253">
        <ele>1709.8399999999999</ele>
        <time>2016-12-04T10:03:40Z</time>
      </trkpt>
      <trkpt lat="46.382203744724393" lon="8.414659649133682">
        <ele>1708.8800000000001</ele>
        <time>2016-12-04T10:03:29Z</time>
      </trkpt>
      <trkpt lat="46.382314218208194" lon="8.414663169533014">
        <ele>1706.96</ele>
        <time>2016-12-04T10:03:15Z</time>
      </trkpt>
      <trkpt lat="46.382421590387821" lon="8.41461312957108">
        <ele>1705.52</ele>
        <time>2016-12-04T10:03:02Z</time>
      </trkpt>
      <trkpt lat="46.382494261488318" lon="8.414567532017827">
        <ele>1704.0699999999999</ele>
        <time>2016-12-04T10:02:51Z</time>
      </trkpt>
      <trkpt lat="46.382579505443573" lon="8.414514809846878">
        <ele>1702.6300000000001</ele>
        <time>2016-12-04T10:02:39Z</time>
      </trkpt>
      <trkpt lat="46.382606662809849" lon="8.414483293890953">
        <ele>1702.6300000000001</ele>
        <time>2016-12-04T10:02:34Z</time>
      </trkpt>
      <trkpt lat="46.382681680843234" lon="8.414456136524677">
        <ele>1701.1900000000001</ele>
        <time>2016-12-04T10:02:23Z</time>
      </trkpt>
      <trkpt lat="46.382768098264933" lon="8.414422525092959">
        <ele>1699.27</ele>
        <time>2016-12-04T10:02:12Z</time>
      </trkpt>
      <trkpt lat="46.382820568978786" lon="8.414385141804814">
        <ele>1697.8299999999999</ele>
        <time>2016-12-04T10:02:02Z</time>
      </trkpt>
      <trkpt lat="46.382918721064925" lon="8.414343232288957">
        <ele>1696.3800000000001</ele>
        <time>2016-12-04T10:01:50Z</time>
      </trkpt>
      <trkpt lat="46.382990889251232" lon="8.414325127378106">
        <ele>1694.46</ele>
        <time>2016-12-04T10:01:39Z</time>
      </trkpt>
      <trkpt lat="46.383075714111328" lon="8.414332000538707">
        <ele>1693.02</ele>
        <time>2016-12-04T10:01:26Z</time>
      </trkpt>
      <trkpt lat="46.383149474859238" lon="8.41432387009263">
        <ele>1692.54</ele>
        <time>2016-12-04T10:01:16Z</time>
      </trkpt>
      <trkpt lat="46.383227007463574" lon="8.414318505674601">
        <ele>1691.5799999999999</ele>
        <time>2016-12-04T10:01:04Z</time>
      </trkpt>
      <trkpt lat="46.383287776261568" lon="8.414296042174101">
        <ele>1690.1400000000001</ele>
        <time>2016-12-04T10:00:55Z</time>
      </trkpt>
      <trkpt lat="46.383340498432517" lon="8.414276093244553">
        <ele>1689.1700000000001</ele>
        <time>2016-12-04T10:00:46Z</time>
      </trkpt>
      <trkpt lat="46.383438482880592" lon="8.414252623915672">
        <ele>1688.21</ele>
        <time>2016-12-04T10:00:35Z</time>
      </trkpt>
      <trkpt lat="46.383500173687935" lon="8.414215575903654">
        <ele>1687.25</ele>
        <time>2016-12-04T10:00:23Z</time>
      </trkpt>
      <trkpt lat="46.383551890030503" lon="8.414150783792138">
        <ele>1685.8099999999999</ele>
        <time>2016-12-04T10:00:12Z</time>
      </trkpt>
      <trkpt lat="46.383580304682255" lon="8.414120608940721">
        <ele>1685.8099999999999</ele>
        <time>2016-12-04T10:00:00Z</time>
      </trkpt>
      <trkpt lat="46.383602935820818" lon="8.41414013877511">
        <ele>1685.3299999999999</ele>
        <time>2016-12-04T09:59:56Z</time>
      </trkpt>
      <trkpt lat="46.383594889193773" lon="8.414182551205158">
        <ele>1684.8499999999999</ele>
        <time>2016-12-04T09:59:53Z</time>
      </trkpt>
      <trkpt lat="46.38358885422349" lon="8.414192274212837">
        <ele>1684.8499999999999</ele>
        <time>2016-12-04T09:59:52Z</time>
      </trkpt>
      <trkpt lat="46.383554823696613" lon="8.414283553138375">
        <ele>1683.4100000000001</ele>
        <time>2016-12-04T09:59:42Z</time>
      </trkpt>
      <trkpt lat="46.383508555591106" lon="8.414366031065583">
        <ele>1681.96</ele>
        <time>2016-12-04T09:59:31Z</time>
      </trkpt>
      <trkpt lat="46.383455749601126" lon="8.414435936138034">
        <ele>1680.04</ele>
        <time>2016-12-04T09:59:20Z</time>
      </trkpt>
      <trkpt lat="46.383407386019826" lon="8.414510618895292">
        <ele>1678.1199999999999</ele>
        <time>2016-12-04T09:59:08Z</time>
      </trkpt>
      <trkpt lat="46.38335189782083" lon="8.414599718526006">
        <ele>1676.2</ele>
        <time>2016-12-04T09:58:56Z</time>
      </trkpt>
      <trkpt lat="46.38326296582818" lon="8.414688231423497">
        <ele>1674.27</ele>
        <time>2016-12-04T09:58:41Z</time>
      </trkpt>
      <trkpt lat="46.383184595033526" lon="8.41474698856473">
        <ele>1674.75</ele>
        <time>2016-12-04T09:58:30Z</time>
      </trkpt>
      <trkpt lat="46.383231617510319" lon="8.414817312732339">
        <ele>1672.3499999999999</ele>
        <time>2016-12-04T09:58:21Z</time>
      </trkpt>
      <trkpt lat="46.383297834545374" lon="8.41477339155972">
        <ele>1670.4300000000001</ele>
        <time>2016-12-04T09:58:08Z</time>
      </trkpt>
      <trkpt lat="46.383372014388442" lon="8.414817228913307">
        <ele>1668.99</ele>
        <time>2016-12-04T09:57:57Z</time>
      </trkpt>
      <trkpt lat="46.383434627205133" lon="8.414808679372072">
        <ele>1667.0599999999999</ele>
        <time>2016-12-04T09:57:46Z</time>
      </trkpt>
      <trkpt lat="46.383500508964062" lon="8.41482812538743">
        <ele>1666.0999999999999</ele>
        <time>2016-12-04T09:57:37Z</time>
      </trkpt>
      <trkpt lat="46.383567983284593" lon="8.414810271933675">
        <ele>1664.6600000000001</ele>
        <time>2016-12-04T09:57:25Z</time>
      </trkpt>
      <trkpt lat="46.383633781224489" lon="8.414767188951373">
        <ele>1662.74</ele>
        <time>2016-12-04T09:57:13Z</time>
      </trkpt>
      <trkpt lat="46.383684240281582" lon="8.41473282314837">
        <ele>1661.3</ele>
        <time>2016-12-04T09:57:03Z</time>
      </trkpt>
      <trkpt lat="46.383755067363381" lon="8.41470155864954">
        <ele>1659.8499999999999</ele>
        <time>2016-12-04T09:56:52Z</time>
      </trkpt>
      <trkpt lat="46.383848106488585" lon="8.414680100977421">
        <ele>1657.45</ele>
        <time>2016-12-04T09:56:38Z</time>
      </trkpt>
      <trkpt lat="46.38392211869359" lon="8.414635425433517">
        <ele>1656.01</ele>
        <time>2016-12-04T09:56:27Z</time>
      </trkpt>
      <trkpt lat="46.383999651297927" lon="8.414589324966073">
        <ele>1654.0899999999999</ele>
        <time>2016-12-04T09:56:16Z</time>
      </trkpt>
      <trkpt lat="46.384066455066204" lon="8.41453199274838">
        <ele>1652.6400000000001</ele>
        <time>2016-12-04T09:56:06Z</time>
      </trkpt>
      <trkpt lat="46.384149855002761" lon="8.414442893117666">
        <ele>1652.6400000000001</ele>
        <time>2016-12-04T09:55:55Z</time>
      </trkpt>
      <trkpt lat="46.384206851944327" lon="8.414391344413161">
        <ele>1651.2</ele>
        <time>2016-12-04T09:55:46Z</time>
      </trkpt>
      <trkpt lat="46.384270302951336" lon="8.414340717718005">
        <ele>1650.24</ele>
        <time>2016-12-04T09:55:37Z</time>
      </trkpt>
      <trkpt lat="46.384341297671199" lon="8.414306435734034">
        <ele>1649.28</ele>
        <time>2016-12-04T09:55:28Z</time>
      </trkpt>
      <trkpt lat="46.384421596303582" lon="8.414251115173101">
        <ele>1648.3199999999999</ele>
        <time>2016-12-04T09:55:18Z</time>
      </trkpt>
      <trkpt lat="46.384470714256167" lon="8.414178276434541">
        <ele>1647.8399999999999</ele>
        <time>2016-12-04T09:55:11Z</time>
      </trkpt>
      <trkpt lat="46.384504158049822" lon="8.414144329726696">
        <ele>1647.3599999999999</ele>
        <time>2016-12-04T09:55:06Z</time>
      </trkpt>
      <trkpt lat="46.384533662348986" lon="8.414118345826864">
        <ele>1646.4000000000001</ele>
        <time>2016-12-04T09:55:02Z</time>
      </trkpt>
      <trkpt lat="46.384609853848815" lon="8.414061516523361">
        <ele>1644.95</ele>
        <time>2016-12-04T09:54:50Z</time>
      </trkpt>
      <trkpt lat="46.384691242128611" lon="8.414025390520692">
        <ele>1642.55</ele>
        <time>2016-12-04T09:54:38Z</time>
      </trkpt>
      <trkpt lat="46.384753100574017" lon="8.414011225104332">
        <ele>1641.1099999999999</ele>
        <time>2016-12-04T09:54:28Z</time>
      </trkpt>
      <trkpt lat="46.384821245446801" lon="8.413989180698991">
        <ele>1639.6700000000001</ele>
        <time>2016-12-04T09:54:18Z</time>
      </trkpt>
      <trkpt lat="46.384877823293209" lon="8.413999322801828">
        <ele>1638.22</ele>
        <time>2016-12-04T09:54:08Z</time>
      </trkpt>
      <trkpt lat="46.3849628996104" lon="8.414026563987136">
        <ele>1636.3</ele>
        <time>2016-12-04T09:53:57Z</time>
      </trkpt>
      <trkpt lat="46.385047556832433" lon="8.414067132398486">
        <ele>1634.8599999999999</ele>
        <time>2016-12-04T09:53:45Z</time>
      </trkpt>
      <trkpt lat="46.385124335065484" lon="8.414108455181122">
        <ele>1632.9400000000001</ele>
        <time>2016-12-04T09:53:34Z</time>
      </trkpt>
      <trkpt lat="46.385183176025748" lon="8.414174085482955">
        <ele>1631.01</ele>
        <time>2016-12-04T09:53:22Z</time>
      </trkpt>
      <trkpt lat="46.385245705023408" lon="8.414218761026859">
        <ele>1629.0899999999999</ele>
        <time>2016-12-04T09:53:12Z</time>
      </trkpt>
      <trkpt lat="46.385305970907211" lon="8.414284726604819">
        <ele>1627.6500000000001</ele>
        <time>2016-12-04T09:53:03Z</time>
      </trkpt>
      <trkpt lat="46.385375205427408" lon="8.414327139034867">
        <ele>1625.73</ele>
        <time>2016-12-04T09:52:52Z</time>
      </trkpt>
      <trkpt lat="46.385435052216053" lon="8.414331832900643">
        <ele>1624.77</ele>
        <time>2016-12-04T09:52:34Z</time>
      </trkpt>
      <trkpt lat="46.385398171842098" lon="8.414327641949058">
        <ele>1624.77</ele>
        <time>2016-12-04T09:52:12Z</time>
      </trkpt>
      <trkpt lat="46.385393142700195" lon="8.414298892021179">
        <ele>1624.77</ele>
        <time>2016-12-04T09:51:52Z</time>
      </trkpt>
      <trkpt lat="46.385367410257459" lon="8.414275674149394">
        <ele>1624.77</ele>
        <time>2016-12-04T09:51:28Z</time>
      </trkpt>
      <trkpt lat="46.385432286188006" lon="8.414208283647895">
        <ele>1624.77</ele>
        <time>2016-12-04T09:51:08Z</time>
      </trkpt>
      <trkpt lat="46.385429771617055" lon="8.414167631417513">
        <ele>1625.25</ele>
        <time>2016-12-04T09:50:50Z</time>
      </trkpt>
      <trkpt lat="46.385419629514217" lon="8.414165116846561">
        <ele>1624.77</ele>
        <time>2016-12-04T09:50:43Z</time>
      </trkpt>
      <trkpt lat="46.385448882356286" lon="8.414213564246893">
        <ele>1625.25</ele>
        <time>2016-12-04T09:50:19Z</time>
      </trkpt>
      <trkpt lat="46.385462628677487" lon="8.414259916171432">
        <ele>1625.25</ele>
        <time>2016-12-04T09:50:02Z</time>
      </trkpt>
      <trkpt lat="46.385428262874484" lon="8.414198644459248">
        <ele>1625.25</ele>
        <time>2016-12-04T09:49:43Z</time>
      </trkpt>
      <trkpt lat="46.38547888956964" lon="8.4142373688519">
        <ele>1623.8</ele>
        <time>2016-12-04T09:49:30Z</time>
      </trkpt>
      <trkpt lat="46.385554745793343" lon="8.414206607267261">
        <ele>1622.8399999999999</ele>
        <time>2016-12-04T09:49:19Z</time>
      </trkpt>
      <trkpt lat="46.385639738291502" lon="8.414201661944389">
        <ele>1620.9200000000001</ele>
        <time>2016-12-04T09:49:07Z</time>
      </trkpt>
      <trkpt lat="46.385685335844755" lon="8.41419487260282">
        <ele>1620.4400000000001</ele>
        <time>2016-12-04T09:49:01Z</time>
      </trkpt>
      <trkpt lat="46.385736046358943" lon="8.414183892309666">
        <ele>1618.52</ele>
        <time>2016-12-04T09:48:51Z</time>
      </trkpt>
      <trkpt lat="46.385795390233397" lon="8.41417676769197">
        <ele>1617.0699999999999</ele>
        <time>2016-12-04T09:48:40Z</time>
      </trkpt>
      <trkpt lat="46.385874850675464" lon="8.414199398830533">
        <ele>1615.1500000000001</ele>
        <time>2016-12-04T09:48:28Z</time>
      </trkpt>
      <trkpt lat="46.385956490412354" lon="8.414237117394805">
        <ele>1613.23</ele>
        <time>2016-12-04T09:48:15Z</time>
      </trkpt>
      <trkpt lat="46.386043997481465" lon="8.414254384115338">
        <ele>1611.3099999999999</ele>
        <time>2016-12-04T09:48:03Z</time>
      </trkpt>
      <trkpt lat="46.386117674410343" lon="8.414282547309995">
        <ele>1609.3800000000001</ele>
        <time>2016-12-04T09:47:52Z</time>
      </trkpt>
      <trkpt lat="46.38610971160233" lon="8.414346920326352">
        <ele>1608.4200000000001</ele>
        <time>2016-12-04T09:47:42Z</time>
      </trkpt>
      <trkpt lat="46.38603838160634" lon="8.414355469867587">
        <ele>1606.5</ele>
        <time>2016-12-04T09:47:31Z</time>
      </trkpt>
      <trkpt lat="46.385959340259433" lon="8.414371479302645">
        <ele>1604.5799999999999</ele>
        <time>2016-12-04T09:47:20Z</time>
      </trkpt>
      <trkpt lat="46.385887758806348" lon="8.414422525092959">
        <ele>1603.1400000000001</ele>
        <time>2016-12-04T09:47:09Z</time>
      </trkpt>
      <trkpt lat="46.385831013321877" lon="8.41449142433703">
        <ele>1601.21</ele>
        <time>2016-12-04T09:46:56Z</time>
      </trkpt>
      <trkpt lat="46.38576328754425" lon="8.414551774039865">
        <ele>1599.29</ele>
        <time>2016-12-04T09:46:45Z</time>
      </trkpt>
      <trkpt lat="46.385708218440413" lon="8.414626037701964">
        <ele>1597.3699999999999</ele>
        <time>2016-12-04T09:46:31Z</time>
      </trkpt>
      <trkpt lat="46.385633619502187" lon="8.414691751822829">
        <ele>1595.45</ele>
        <time>2016-12-04T09:46:19Z</time>
      </trkpt>
      <trkpt lat="46.385632697492838" lon="8.414699463173747">
        <ele>1594.96</ele>
        <time>2016-12-04T09:46:17Z</time>
      </trkpt>
      <trkpt lat="46.385554997250438" lon="8.414771044626832">
        <ele>1593.04</ele>
        <time>2016-12-04T09:46:04Z</time>
      </trkpt>
      <trkpt lat="46.385488193482161" lon="8.414826449006796">
        <ele>1591.5999999999999</ele>
        <time>2016-12-04T09:45:54Z</time>
      </trkpt>
      <trkpt lat="46.385438740253448" lon="8.414909346029162">
        <ele>1590.1600000000001</ele>
        <time>2016-12-04T09:45:44Z</time>
      </trkpt>
      <trkpt lat="46.385413259267807" lon="8.414944130927324">
        <ele>1589.6800000000001</ele>
        <time>2016-12-04T09:45:40Z</time>
      </trkpt>
      <trkpt lat="46.385303037241101" lon="8.415031973272562">
        <ele>1587.75</ele>
        <time>2016-12-04T09:45:30Z</time>
      </trkpt>
      <trkpt lat="46.385210081934929" lon="8.415099112316966">
        <ele>1585.8299999999999</ele>
        <time>2016-12-04T09:45:19Z</time>
      </trkpt>
      <trkpt lat="46.385098770260811" lon="8.415200365707278">
        <ele>1584.3900000000001</ele>
        <time>2016-12-04T09:45:07Z</time>
      </trkpt>
      <trkpt lat="46.385090053081512" lon="8.415223415941">
        <ele>1584.3900000000001</ele>
        <time>2016-12-04T09:45:05Z</time>
      </trkpt>
      <trkpt lat="46.385047808289528" lon="8.415368674322963">
        <ele>1583.9100000000001</ele>
        <time>2016-12-04T09:44:54Z</time>
      </trkpt>
      <trkpt lat="46.385009251534939" lon="8.415503036230803">
        <ele>1583.4300000000001</ele>
        <time>2016-12-04T09:44:43Z</time>
      </trkpt>
      <trkpt lat="46.384986452758312" lon="8.415617952123284">
        <ele>1581.51</ele>
        <time>2016-12-04T09:44:32Z</time>
      </trkpt>
      <trkpt lat="46.384951919317245" lon="8.415735298767686">
        <ele>1580.0599999999999</ele>
        <time>2016-12-04T09:44:22Z</time>
      </trkpt>
      <trkpt lat="46.384921744465828" lon="8.415830852463841">
        <ele>1578.1400000000001</ele>
        <time>2016-12-04T09:44:11Z</time>
      </trkpt>
      <trkpt lat="46.384910345077515" lon="8.41593973338604">
        <ele>1576.7</ele>
        <time>2016-12-04T09:44:00Z</time>
      </trkpt>
      <trkpt lat="46.384883690625429" lon="8.41602673754096">
        <ele>1575.74</ele>
        <time>2016-12-04T09:43:52Z</time>
      </trkpt>
      <trkpt lat="46.38487396761775" lon="8.416053391993046">
        <ele>1575.74</ele>
        <time>2016-12-04T09:43:50Z</time>
      </trkpt>
      <trkpt lat="46.384789478033781" lon="8.416239721700549">
        <ele>1573.8199999999999</ele>
        <time>2016-12-04T09:43:35Z</time>
      </trkpt>
      <trkpt lat="46.384796937927604" lon="8.416368467733264">
        <ele>1572.8499999999999</ele>
        <time>2016-12-04T09:43:25Z</time>
      </trkpt>
      <trkpt lat="46.384808756411076" lon="8.416483635082841">
        <ele>1572.3699999999999</ele>
        <time>2016-12-04T09:43:14Z</time>
      </trkpt>
      <trkpt lat="46.384840775281191" lon="8.416452957317233">
        <ele>1571.8900000000001</ele>
        <time>2016-12-04T09:43:03Z</time>
      </trkpt>
      <trkpt lat="46.384840859100223" lon="8.416465111076832">
        <ele>1571.8900000000001</ele>
        <time>2016-12-04T09:42:51Z</time>
      </trkpt>
      <trkpt lat="46.384887378662825" lon="8.416453879326582">
        <ele>1571.4100000000001</ele>
        <time>2016-12-04T09:42:42Z</time>
      </trkpt>
      <trkpt lat="46.384893162176013" lon="8.416371233761311">
        <ele>1571.4100000000001</ele>
        <time>2016-12-04T09:42:30Z</time>
      </trkpt>
      <trkpt lat="46.384878912940621" lon="8.416382046416402">
        <ele>1571.4100000000001</ele>
        <time>2016-12-04T09:42:13Z</time>
      </trkpt>
      <trkpt lat="46.384931718930602" lon="8.41627299785614">
        <ele>1570.9300000000001</ele>
        <time>2016-12-04T09:41:57Z</time>
      </trkpt>
      <trkpt lat="46.38489056378603" lon="8.416256066411734">
        <ele>1569.97</ele>
        <time>2016-12-04T09:41:49Z</time>
      </trkpt>
      <trkpt lat="46.384886791929603" lon="8.416264615952969">
        <ele>1569.97</ele>
        <time>2016-12-04T09:41:39Z</time>
      </trkpt>
      <trkpt lat="46.384913865476847" lon="8.416312308982015">
        <ele>1569.97</ele>
        <time>2016-12-04T09:41:13Z</time>
      </trkpt>
      <trkpt lat="46.38489693403244" lon="8.416333850473166">
        <ele>1570.9300000000001</ele>
        <time>2016-12-04T09:41:02Z</time>
      </trkpt>
      <trkpt lat="46.384924426674843" lon="8.416327144950628">
        <ele>1570.45</ele>
        <time>2016-12-04T09:40:53Z</time>
      </trkpt>
      <trkpt lat="46.38494580052793" lon="8.416289426386356">
        <ele>1570.45</ele>
        <time>2016-12-04T09:40:49Z</time>
      </trkpt>
      <trkpt lat="46.384947560727596" lon="8.416270986199379">
        <ele>1570.45</ele>
        <time>2016-12-04T09:40:44Z</time>
      </trkpt>
      <trkpt lat="46.38500589877367" lon="8.416185071691871">
        <ele>1569.01</ele>
        <time>2016-12-04T09:40:34Z</time>
      </trkpt>
      <trkpt lat="46.385096004232764" lon="8.416128410026431">
        <ele>1567.5699999999999</ele>
        <time>2016-12-04T09:40:23Z</time>
      </trkpt>
      <trkpt lat="46.385181332007051" lon="8.41602279804647">
        <ele>1566.1199999999999</ele>
        <time>2016-12-04T09:40:13Z</time>
      </trkpt>
      <trkpt lat="46.385204466059804" lon="8.415975691750646">
        <ele>1565.6400000000001</ele>
        <time>2016-12-04T09:40:08Z</time>
      </trkpt>
      <trkpt lat="46.385255344212055" lon="8.415894890204072">
        <ele>1564.6800000000001</ele>
        <time>2016-12-04T09:40:00Z</time>
      </trkpt>
      <trkpt lat="46.385302366688848" lon="8.415817189961672">
        <ele>1564.6800000000001</ele>
        <time>2016-12-04T09:39:53Z</time>
      </trkpt>
      <trkpt lat="46.385359698906541" lon="8.415749967098236">
        <ele>1564.2</ele>
        <time>2016-12-04T09:39:45Z</time>
      </trkpt>
      <trkpt lat="46.38538752682507" lon="8.41572180390358">
        <ele>1564.2</ele>
        <time>2016-12-04T09:39:42Z</time>
      </trkpt>
      <trkpt lat="46.385477632284164" lon="8.415694814175367">
        <ele>1562.28</ele>
        <time>2016-12-04T09:39:30Z</time>
      </trkpt>
      <trkpt lat="46.385524068027735" lon="8.415669752284885">
        <ele>1560.8399999999999</ele>
        <time>2016-12-04T09:39:22Z</time>
      </trkpt>
      <trkpt lat="46.385590033605695" lon="8.415622981265187">
        <ele>1559.4000000000001</ele>
        <time>2016-12-04T09:39:12Z</time>
      </trkpt>
      <trkpt lat="46.385674439370632" lon="8.415591884404421">
        <ele>1557.95</ele>
        <time>2016-12-04T09:39:01Z</time>
      </trkpt>
      <trkpt lat="46.385754402726889" lon="8.41559330932796">
        <ele>1556.03</ele>
        <time>2016-12-04T09:38:48Z</time>
      </trkpt>
      <trkpt lat="46.385832857340574" lon="8.415590291842818">
        <ele>1554.5899999999999</ele>
        <time>2016-12-04T09:38:37Z</time>
      </trkpt>
      <trkpt lat="46.38591131195426" lon="8.415611665695906">
        <ele>1553.1500000000001</ele>
        <time>2016-12-04T09:38:26Z</time>
      </trkpt>
      <trkpt lat="46.386009464040399" lon="8.415633626282215">
        <ele>1551.22</ele>
        <time>2016-12-04T09:38:14Z</time>
      </trkpt>
      <trkpt lat="46.386077525094151" lon="8.415663382038474">
        <ele>1550.26</ele>
        <time>2016-12-04T09:38:04Z</time>
      </trkpt>
      <trkpt lat="46.386156314983964" lon="8.415701603516936">
        <ele>1548.3399999999999</ele>
        <time>2016-12-04T09:37:53Z</time>
      </trkpt>
      <trkpt lat="46.386227812618017" lon="8.415759857743979">
        <ele>1547.3800000000001</ele>
        <time>2016-12-04T09:37:43Z</time>
      </trkpt>
      <trkpt lat="46.386303585022688" lon="8.415820794180036">
        <ele>1545.9400000000001</ele>
        <time>2016-12-04T09:37:33Z</time>
      </trkpt>
      <trkpt lat="46.386386062949896" lon="8.415876030921936">
        <ele>1544.98</ele>
        <time>2016-12-04T09:37:23Z</time>
      </trkpt>
      <trkpt lat="46.386475581675768" lon="8.415957083925605">
        <ele>1544.5</ele>
        <time>2016-12-04T09:37:12Z</time>
      </trkpt>
      <trkpt lat="46.386566525325179" lon="8.41596026904881">
        <ele>1542.5699999999999</ele>
        <time>2016-12-04T09:37:01Z</time>
      </trkpt>
      <trkpt lat="46.386654451489449" lon="8.415996562689543">
        <ele>1540.6500000000001</ele>
        <time>2016-12-04T09:36:49Z</time>
      </trkpt>
      <trkpt lat="46.386724272742867" lon="8.416046435013413">
        <ele>1538.73</ele>
        <time>2016-12-04T09:36:38Z</time>
      </trkpt>
      <trkpt lat="46.386779509484768" lon="8.416072418913245">
        <ele>1538.25</ele>
        <time>2016-12-04T09:36:27Z</time>
      </trkpt>
      <trkpt lat="46.386856622993946" lon="8.416093792766333">
        <ele>1537.77</ele>
        <time>2016-12-04T09:36:16Z</time>
      </trkpt>
      <trkpt lat="46.386955445632339" lon="8.416122877970338">
        <ele>1537.29</ele>
        <time>2016-12-04T09:36:05Z</time>
      </trkpt>
      <trkpt lat="46.387043371796608" lon="8.416156070306897">
        <ele>1535.8399999999999</ele>
        <time>2016-12-04T09:35:55Z</time>
      </trkpt>
      <trkpt lat="46.387126855552197" lon="8.416168559342623">
        <ele>1534.4000000000001</ele>
        <time>2016-12-04T09:35:45Z</time>
      </trkpt>
      <trkpt lat="46.387198520824313" lon="8.416164368391037">
        <ele>1532.48</ele>
        <time>2016-12-04T09:35:35Z</time>
      </trkpt>
      <trkpt lat="46.38726725243032" lon="8.4161610994488">
        <ele>1531.52</ele>
        <time>2016-12-04T09:35:26Z</time>
      </trkpt>
      <trkpt lat="46.387367248535156" lon="8.416198818013072">
        <ele>1529.5899999999999</ele>
        <time>2016-12-04T09:35:14Z</time>
      </trkpt>
      <trkpt lat="46.387417037039995" lon="8.416220275685191">
        <ele>1529.1099999999999</ele>
        <time>2016-12-04T09:35:08Z</time>
      </trkpt>
      <trkpt lat="46.387516362592578" lon="8.416217509657145">
        <ele>1527.6700000000001</ele>
        <time>2016-12-04T09:34:56Z</time>
      </trkpt>
      <trkpt lat="46.387591045349836" lon="8.416222538799048">
        <ele>1526.23</ele>
        <time>2016-12-04T09:34:46Z</time>
      </trkpt>
      <trkpt lat="46.387679977342486" lon="8.416212983429432">
        <ele>1525.27</ele>
        <time>2016-12-04T09:34:36Z</time>
      </trkpt>
      <trkpt lat="46.387773770838976" lon="8.416198650375009">
        <ele>1524.3099999999999</ele>
        <time>2016-12-04T09:34:26Z</time>
      </trkpt>
      <trkpt lat="46.38786437921226" lon="8.416165793314576">
        <ele>1523.3499999999999</ele>
        <time>2016-12-04T09:34:16Z</time>
      </trkpt>
      <trkpt lat="46.38789321295917" lon="8.416166296228766">
        <ele>1523.3499999999999</ele>
        <time>2016-12-04T09:34:13Z</time>
      </trkpt>
      <trkpt lat="46.387989185750484" lon="8.416122375056148">
        <ele>1521.9000000000001</ele>
        <time>2016-12-04T09:34:02Z</time>
      </trkpt>
      <trkpt lat="46.388074429705739" lon="8.416061606258154">
        <ele>1520.46</ele>
        <time>2016-12-04T09:33:51Z</time>
      </trkpt>
      <trkpt lat="46.388125894591212" lon="8.416041154414415">
        <ele>1519.5</ele>
        <time>2016-12-04T09:33:43Z</time>
      </trkpt>
      <trkpt lat="46.388202756643295" lon="8.416006285697222">
        <ele>1517.5799999999999</ele>
        <time>2016-12-04T09:33:32Z</time>
      </trkpt>
      <trkpt lat="46.388282384723425" lon="8.415975356474519">
        <ele>1515.6600000000001</ele>
        <time>2016-12-04T09:33:21Z</time>
      </trkpt>
      <trkpt lat="46.388358911499381" lon="8.415944678708911">
        <ele>1513.73</ele>
        <time>2016-12-04T09:33:09Z</time>
      </trkpt>
      <trkpt lat="46.388413477689028" lon="8.415902350097895">
        <ele>1512.29</ele>
        <time>2016-12-04T09:32:59Z</time>
      </trkpt>
      <trkpt lat="46.388470055535436" lon="8.415843592956662">
        <ele>1511.3299999999999</ele>
        <time>2016-12-04T09:32:48Z</time>
      </trkpt>
      <trkpt lat="46.388531746342778" lon="8.415797241032124">
        <ele>1509.8900000000001</ele>
        <time>2016-12-04T09:32:38Z</time>
      </trkpt>
      <trkpt lat="46.38859779573977" lon="8.415756924077869">
        <ele>1507.97</ele>
        <time>2016-12-04T09:32:28Z</time>
      </trkpt>
      <trkpt lat="46.38870039023459" lon="8.415699675679207">
        <ele>1506.52</ele>
        <time>2016-12-04T09:32:17Z</time>
      </trkpt>
      <trkpt lat="46.388773983344436" lon="8.415623148903251">
        <ele>1505.5599999999999</ele>
        <time>2016-12-04T09:32:08Z</time>
      </trkpt>
      <trkpt lat="46.388812707737088" lon="8.415573863312602">
        <ele>1503.6400000000001</ele>
        <time>2016-12-04T09:32:01Z</time>
      </trkpt>
      <trkpt lat="46.388867776840925" lon="8.41551217250526">
        <ele>1502.6800000000001</ele>
        <time>2016-12-04T09:31:50Z</time>
      </trkpt>
      <trkpt lat="46.388916140422225" lon="8.415560619905591">
        <ele>1501.72</ele>
        <time>2016-12-04T09:31:39Z</time>
      </trkpt>
      <trkpt lat="46.388914966955781" lon="8.415604792535305">
        <ele>1499.3099999999999</ele>
        <time>2016-12-04T09:31:35Z</time>
      </trkpt>
      <trkpt lat="46.388904405757785" lon="8.415685510262847">
        <ele>1499.3099999999999</ele>
        <time>2016-12-04T09:31:25Z</time>
      </trkpt>
      <trkpt lat="46.388869704678655" lon="8.415796151384711">
        <ele>1498.3499999999999</ele>
        <time>2016-12-04T09:31:15Z</time>
      </trkpt>
      <trkpt lat="46.38886945322156" lon="8.415811574086547">
        <ele>1497.8699999999999</ele>
        <time>2016-12-04T09:31:14Z</time>
      </trkpt>
      <trkpt lat="46.388859143480659" lon="8.415924310684204">
        <ele>1496.9100000000001</ele>
        <time>2016-12-04T09:31:04Z</time>
      </trkpt>
      <trkpt lat="46.388795860111713" lon="8.416028581559658">
        <ele>1495.47</ele>
        <time>2016-12-04T09:30:52Z</time>
      </trkpt>
      <trkpt lat="46.388729643076658" lon="8.416112065315247">
        <ele>1494.03</ele>
        <time>2016-12-04T09:30:41Z</time>
      </trkpt>
      <trkpt lat="46.388748083263636" lon="8.416228489950299">
        <ele>1493.55</ele>
        <time>2016-12-04T09:30:31Z</time>
      </trkpt>
      <trkpt lat="46.388782700523734" lon="8.416197309270501">
        <ele>1493.0599999999999</ele>
        <time>2016-12-04T09:30:24Z</time>
      </trkpt>
      <trkpt lat="46.38885285705328" lon="8.416186161339283">
        <ele>1491.6199999999999</ele>
        <time>2016-12-04T09:30:14Z</time>
      </trkpt>
      <trkpt lat="46.388939609751105" lon="8.416182557120919">
        <ele>1490.1800000000001</ele>
        <time>2016-12-04T09:30:03Z</time>
      </trkpt>
      <trkpt lat="46.38901605270803" lon="8.416133355349302">
        <ele>1488.26</ele>
        <time>2016-12-04T09:29:53Z</time>
      </trkpt>
      <trkpt lat="46.389081180095673" lon="8.416101420298219">
        <ele>1487.3</ele>
        <time>2016-12-04T09:29:43Z</time>
      </trkpt>
      <trkpt lat="46.389158880338073" lon="8.416055655106902">
        <ele>1485.8499999999999</ele>
        <time>2016-12-04T09:29:32Z</time>
      </trkpt>
      <trkpt lat="46.389227863401175" lon="8.416029084473848">
        <ele>1483.9300000000001</ele>
        <time>2016-12-04T09:29:22Z</time>
      </trkpt>
      <trkpt lat="46.389299444854259" lon="8.416050458326936">
        <ele>1482.01</ele>
        <time>2016-12-04T09:29:11Z</time>
      </trkpt>
      <trkpt lat="46.389352669939399" lon="8.416067473590374">
        <ele>1480.5699999999999</ele>
        <time>2016-12-04T09:29:01Z</time>
      </trkpt>
      <trkpt lat="46.389396423473954" lon="8.416161518543959">
        <ele>1478.6500000000001</ele>
        <time>2016-12-04T09:28:50Z</time>
      </trkpt>
      <trkpt lat="46.389460880309343" lon="8.416220862418413">
        <ele>1477.6800000000001</ele>
        <time>2016-12-04T09:28:41Z</time>
      </trkpt>
      <trkpt lat="46.389543358236551" lon="8.416171325370669">
        <ele>1475.76</ele>
        <time>2016-12-04T09:28:30Z</time>
      </trkpt>
      <trkpt lat="46.389600774273276" lon="8.416209882125258">
        <ele>1473.8399999999999</ele>
        <time>2016-12-04T09:28:19Z</time>
      </trkpt>
      <trkpt lat="46.389609156176448" lon="8.416216336190701">
        <ele>1473.8399999999999</ele>
        <time>2016-12-04T09:28:18Z</time>
      </trkpt>
      <trkpt lat="46.389635307714343" lon="8.416294539347291">
        <ele>1471.9200000000001</ele>
        <time>2016-12-04T09:28:07Z</time>
      </trkpt>
      <trkpt lat="46.389648132026196" lon="8.416392272338271">
        <ele>1470.47</ele>
        <time>2016-12-04T09:27:56Z</time>
      </trkpt>
      <trkpt lat="46.389662213623524" lon="8.416434684768319">
        <ele>1469.51</ele>
        <time>2016-12-04T09:27:52Z</time>
      </trkpt>
      <trkpt lat="46.389648383483291" lon="8.416560832411051">
        <ele>1467.5899999999999</ele>
        <time>2016-12-04T09:27:41Z</time>
      </trkpt>
      <trkpt lat="46.389723317697644" lon="8.416614979505539">
        <ele>1466.1500000000001</ele>
        <time>2016-12-04T09:27:30Z</time>
      </trkpt>
      <trkpt lat="46.389809483662248" lon="8.416588241234422">
        <ele>1464.71</ele>
        <time>2016-12-04T09:27:19Z</time>
      </trkpt>
      <trkpt lat="46.389829348772764" lon="8.4165876545012">
        <ele>1464.23</ele>
        <time>2016-12-04T09:27:16Z</time>
      </trkpt>
      <trkpt lat="46.389914425089955" lon="8.416635431349278">
        <ele>1462.78</ele>
        <time>2016-12-04T09:27:06Z</time>
      </trkpt>
      <trkpt lat="46.390011487528682" lon="8.41670785099268">
        <ele>1461.3399999999999</ele>
        <time>2016-12-04T09:26:56Z</time>
      </trkpt>
      <trkpt lat="46.390085918828845" lon="8.416781025007367">
        <ele>1460.3800000000001</ele>
        <time>2016-12-04T09:26:46Z</time>
      </trkpt>
      <trkpt lat="46.39011693187058" lon="8.416876159608364">
        <ele>1458.9400000000001</ele>
        <time>2016-12-04T09:26:35Z</time>
      </trkpt>
      <trkpt lat="46.390170324593782" lon="8.416949165984988">
        <ele>1457.5</ele>
        <time>2016-12-04T09:26:25Z</time>
      </trkpt>
      <trkpt lat="46.390180801972747" lon="8.41698051430285">
        <ele>1457.02</ele>
        <time>2016-12-04T09:26:21Z</time>
      </trkpt>
      <trkpt lat="46.390207707881927" lon="8.417071709409356">
        <ele>1455.5699999999999</ele>
        <time>2016-12-04T09:26:11Z</time>
      </trkpt>
      <trkpt lat="46.39022053219378" lon="8.417162150144577">
        <ele>1454.6099999999999</ele>
        <time>2016-12-04T09:26:02Z</time>
      </trkpt>
      <trkpt lat="46.390222460031509" lon="8.417264660820365">
        <ele>1453.1700000000001</ele>
        <time>2016-12-04T09:25:52Z</time>
      </trkpt>
      <trkpt lat="46.390228914096951" lon="8.417351916432381">
        <ele>1452.21</ele>
        <time>2016-12-04T09:25:44Z</time>
      </trkpt>
      <trkpt lat="46.390231680124998" lon="8.417426431551576">
        <ele>1450.29</ele>
        <time>2016-12-04T09:25:35Z</time>
      </trkpt>
      <trkpt lat="46.390244588255882" lon="8.417538749054074">
        <ele>1448.8399999999999</ele>
        <time>2016-12-04T09:25:25Z</time>
      </trkpt>
      <trkpt lat="46.390244588255882" lon="8.417559787631035">
        <ele>1448.3599999999999</ele>
        <time>2016-12-04T09:25:22Z</time>
      </trkpt>
      <trkpt lat="46.390270739793777" lon="8.417654922232032">
        <ele>1447.4000000000001</ele>
        <time>2016-12-04T09:25:14Z</time>
      </trkpt>
      <trkpt lat="46.390313822776079" lon="8.417772520333529">
        <ele>1445.96</ele>
        <time>2016-12-04T09:25:04Z</time>
      </trkpt>
      <trkpt lat="46.390351876616478" lon="8.417886262759566">
        <ele>1444.04</ele>
        <time>2016-12-04T09:24:54Z</time>
      </trkpt>
      <trkpt lat="46.390381967648864" lon="8.417915347963572">
        <ele>1443.5599999999999</ele>
        <time>2016-12-04T09:24:50Z</time>
      </trkpt>
      <trkpt lat="46.390391858294606" lon="8.417933620512486">
        <ele>1443.5599999999999</ele>
        <time>2016-12-04T09:24:48Z</time>
      </trkpt>
      <trkpt lat="46.390452794730663" lon="8.418022636324167">
        <ele>1442.1099999999999</ele>
        <time>2016-12-04T09:24:38Z</time>
      </trkpt>
      <trkpt lat="46.390474252402782" lon="8.418099079281092">
        <ele>1441.1500000000001</ele>
        <time>2016-12-04T09:24:31Z</time>
      </trkpt>
      <trkpt lat="46.390530159696937" lon="8.418164374306798">
        <ele>1440.1900000000001</ele>
        <time>2016-12-04T09:24:24Z</time>
      </trkpt>
      <trkpt lat="46.390582378953695" lon="8.418266214430332">
        <ele>1438.75</ele>
        <time>2016-12-04T09:24:14Z</time>
      </trkpt>
      <trkpt lat="46.390598472207785" lon="8.418335784226656">
        <ele>1437.79</ele>
        <time>2016-12-04T09:24:09Z</time>
      </trkpt>
      <trkpt lat="46.390608865767717" lon="8.418369395658374">
        <ele>1437.79</ele>
        <time>2016-12-04T09:24:06Z</time>
      </trkpt>
      <trkpt lat="46.390623031184077" lon="8.418414993211627">
        <ele>1436.8299999999999</ele>
        <time>2016-12-04T09:24:01Z</time>
      </trkpt>
      <trkpt lat="46.390651278197765" lon="8.418492022901774">
        <ele>1435.8699999999999</ele>
        <time>2016-12-04T09:23:52Z</time>
      </trkpt>
      <trkpt lat="46.39068765565753" lon="8.418607776984572">
        <ele>1434.4200000000001</ele>
        <time>2016-12-04T09:23:44Z</time>
      </trkpt>
      <trkpt lat="46.390730403363705" lon="8.418639963492751">
        <ele>1434.4200000000001</ele>
        <time>2016-12-04T09:23:31Z</time>
      </trkpt>
      <trkpt lat="46.390769965946674" lon="8.41876401565969">
        <ele>1432.5</ele>
        <time>2016-12-04T09:23:20Z</time>
      </trkpt>
      <trkpt lat="46.390817994251847" lon="8.41888521797955">
        <ele>1431.0599999999999</ele>
        <time>2016-12-04T09:23:09Z</time>
      </trkpt>
      <trkpt lat="46.390825286507607" lon="8.418907262384892">
        <ele>1430.5799999999999</ele>
        <time>2016-12-04T09:23:07Z</time>
      </trkpt>
      <trkpt lat="46.390829728916287" lon="8.418920338153839">
        <ele>1430.5799999999999</ele>
        <time>2016-12-04T09:23:06Z</time>
      </trkpt>
      <trkpt lat="46.390878427773714" lon="8.418997284024954">
        <ele>1429.1400000000001</ele>
        <time>2016-12-04T09:22:54Z</time>
      </trkpt>
      <trkpt lat="46.390911284834146" lon="8.419016813859344">
        <ele>1428.1800000000001</ele>
        <time>2016-12-04T09:22:50Z</time>
      </trkpt>
      <trkpt lat="46.390947662293911" lon="8.419070290401578">
        <ele>1426.73</ele>
        <time>2016-12-04T09:22:42Z</time>
      </trkpt>
      <trkpt lat="46.391008095815778" lon="8.419116139411926">
        <ele>1425.77</ele>
        <time>2016-12-04T09:22:35Z</time>
      </trkpt>
      <trkpt lat="46.391082275658846" lon="8.419218063354492">
        <ele>1422.8900000000001</ele>
        <time>2016-12-04T09:22:22Z</time>
      </trkpt>
      <trkpt lat="46.391134578734636" lon="8.419298948720098">
        <ele>1422.4100000000001</ele>
        <time>2016-12-04T09:22:02Z</time>
      </trkpt>
      <trkpt lat="46.391145056113601" lon="8.41931420378387">
        <ele>1422.4100000000001</ele>
        <time>2016-12-04T09:21:52Z</time>
      </trkpt>
      <trkpt lat="46.391203394159675" lon="8.419345300644636">
        <ele>1421.45</ele>
        <time>2016-12-04T09:21:40Z</time>
      </trkpt>
      <trkpt lat="46.391248237341642" lon="8.419330213218927">
        <ele>1420.97</ele>
        <time>2016-12-04T09:21:36Z</time>
      </trkpt>
      <trkpt lat="46.391388969495893" lon="8.419282352551818">
        <ele>1420.49</ele>
        <time>2016-12-04T09:21:23Z</time>
      </trkpt>
      <trkpt lat="46.391425263136625" lon="8.419285789132118">
        <ele>1420.49</ele>
        <time>2016-12-04T09:21:18Z</time>
      </trkpt>
      <trkpt lat="46.391457114368677" lon="8.419277407228947">
        <ele>1420.49</ele>
        <time>2016-12-04T09:21:16Z</time>
      </trkpt>
      <trkpt lat="46.391629865393043" lon="8.419191744178534">
        <ele>1419.52</ele>
        <time>2016-12-04T09:21:01Z</time>
      </trkpt>
      <trkpt lat="46.391679150983691" lon="8.419238934293389">
        <ele>1419.52</ele>
        <time>2016-12-04T09:20:55Z</time>
      </trkpt>
      <trkpt lat="46.391698261722922" lon="8.419341277331114">
        <ele>1420</ele>
        <time>2016-12-04T09:20:49Z</time>
      </trkpt>
      <trkpt lat="46.391702368855476" lon="8.419322585687041">
        <ele>1420</ele>
        <time>2016-12-04T09:20:43Z</time>
      </trkpt>
      <trkpt lat="46.391677893698215" lon="8.419362232089043">
        <ele>1420</ele>
        <time>2016-12-04T09:20:31Z</time>
      </trkpt>
      <trkpt lat="46.391697926446795" lon="8.419367680326104">
        <ele>1420</ele>
        <time>2016-12-04T09:20:17Z</time>
      </trkpt>
      <trkpt lat="46.391702201217413" lon="8.419325016438961">
        <ele>1419.52</ele>
        <time>2016-12-04T09:20:09Z</time>
      </trkpt>
      <trkpt lat="46.39170647598803" lon="8.419327447190881">
        <ele>1418.5599999999999</ele>
        <time>2016-12-04T09:20:04Z</time>
      </trkpt>
      <trkpt lat="46.391679150983691" lon="8.419326692819595">
        <ele>1419.04</ele>
        <time>2016-12-04T09:19:51Z</time>
      </trkpt>
      <trkpt lat="46.391683761030436" lon="8.419376565143466">
        <ele>1419.52</ele>
        <time>2016-12-04T09:19:29Z</time>
      </trkpt>
      <trkpt lat="46.39167764224112" lon="8.419354520738125">
        <ele>1420</ele>
        <time>2016-12-04T09:19:13Z</time>
      </trkpt>
      <trkpt lat="46.391694573685527" lon="8.41933960095048">
        <ele>1419.52</ele>
        <time>2016-12-04T09:19:06Z</time>
      </trkpt>
      <trkpt lat="46.391678983345628" lon="8.419326273724437">
        <ele>1419.52</ele>
        <time>2016-12-04T09:18:52Z</time>
      </trkpt>
      <trkpt lat="46.39170253649354" lon="8.419374553486705">
        <ele>1419.52</ele>
        <time>2016-12-04T09:18:29Z</time>
      </trkpt>
      <trkpt lat="46.391685269773006" lon="8.419326022267342">
        <ele>1419.04</ele>
        <time>2016-12-04T09:18:08Z</time>
      </trkpt>
      <trkpt lat="46.391694992780685" lon="8.419410344213247">
        <ele>1419.04</ele>
        <time>2016-12-04T09:17:41Z</time>
      </trkpt>
      <trkpt lat="46.391715696081519" lon="8.419339768588543">
        <ele>1419.04</ele>
        <time>2016-12-04T09:17:11Z</time>
      </trkpt>
      <trkpt lat="46.391741260886192" lon="8.419321831315756">
        <ele>1419.52</ele>
        <time>2016-12-04T09:16:50Z</time>
      </trkpt>
      <trkpt lat="46.391746457666159" lon="8.419376062229276">
        <ele>1419.04</ele>
        <time>2016-12-04T09:16:29Z</time>
      </trkpt>
      <trkpt lat="46.39169717207551" lon="8.419376229867339">
        <ele>1420</ele>
        <time>2016-12-04T09:16:14Z</time>
      </trkpt>
      <trkpt lat="46.391691891476512" lon="8.419376146048307">
        <ele>1423.8499999999999</ele>
        <time>2016-12-04T09:16:08Z</time>
      </trkpt>
      <trkpt lat="46.391686610877514" lon="8.41937237419188">
        <ele>1423.8499999999999</ele>
        <time>2016-12-04T09:16:07Z</time>
      </trkpt>
    </trkseg>
  </trk>

</gpx>